<?xml version="1.0" encoding="UTF-8" standalone="no" ?>
<gpx xmlns="http://www.topografix.com/GPX/1/1" xmlns:xsi="http://www.w3.org/2001/XMLSchema-instance" xsi:schemaLocation="http://www.topografix.com/GPX/1/1 http://www.topografix.com/GPX/1/1/gpx.xsd" version="1.1" creator="VisuGPX - https://www.visugpx.com">
  <metadata>
    <name>Les buttes gersoises J1</name>
    <desc><![CDATA[D'Agen en descendant vers le Gers, ça monte et ça descend]]></desc>
  </metadata>
  <trk>
    <name><![CDATA[Les buttes gersoises - Jour 1]]></name>
    <trkseg>
      <trkpt lat="44.20738" lon="0.6159">
        <ele>52.2</ele>
        <time>2016-02-20T08:23:32Z</time>
      </trkpt>
      <trkpt lat="44.20721" lon="0.6154">
        <ele>52.4</ele>
        <time>2016-02-20T08:23:40Z</time>
      </trkpt>
      <trkpt lat="44.20708" lon="0.61496">
        <ele>52.6</ele>
        <time>2016-02-20T08:23:47Z</time>
      </trkpt>
      <trkpt lat="44.20692" lon="0.61445">
        <ele>52.6</ele>
        <time>2016-02-20T08:23:54Z</time>
      </trkpt>
      <trkpt lat="44.20677" lon="0.61405">
        <ele>52.6</ele>
        <time>2016-02-20T08:24:00Z</time>
      </trkpt>
      <trkpt lat="44.20665" lon="0.61367">
        <ele>52.8</ele>
        <time>2016-02-20T08:24:06Z</time>
      </trkpt>
      <trkpt lat="44.20648" lon="0.61319">
        <ele>52.8</ele>
        <time>2016-02-20T08:24:14Z</time>
      </trkpt>
      <trkpt lat="44.2064" lon="0.613">
        <ele>52.8</ele>
        <time>2016-02-20T08:24:19Z</time>
      </trkpt>
      <trkpt lat="44.20635" lon="0.61283">
        <ele>52.4</ele>
        <time>2016-02-20T08:24:23Z</time>
      </trkpt>
      <trkpt lat="44.20621" lon="0.6124">
        <ele>51.2</ele>
        <time>2016-02-20T08:24:31Z</time>
      </trkpt>
      <trkpt lat="44.20608" lon="0.61205">
        <ele>50.4</ele>
        <time>2016-02-20T08:24:38Z</time>
      </trkpt>
      <trkpt lat="44.20607" lon="0.61202">
        <ele>50.2</ele>
        <time>2016-02-20T08:24:39Z</time>
      </trkpt>
      <trkpt lat="44.20605" lon="0.61195">
        <ele>50</ele>
        <time>2016-02-20T08:24:41Z</time>
      </trkpt>
      <trkpt lat="44.20603" lon="0.61192">
        <ele>50</ele>
        <time>2016-02-20T08:24:43Z</time>
      </trkpt>
      <trkpt lat="44.20604" lon="0.61188">
        <ele>50</ele>
        <time>2016-02-20T08:24:48Z</time>
      </trkpt>
      <trkpt lat="44.20607" lon="0.61185">
        <ele>50</ele>
        <time>2016-02-20T08:25:01Z</time>
      </trkpt>
      <trkpt lat="44.2061" lon="0.61178">
        <ele>49.8</ele>
        <time>2016-02-20T08:25:05Z</time>
      </trkpt>
      <trkpt lat="44.20612" lon="0.61174">
        <ele>49.8</ele>
        <time>2016-02-20T08:25:09Z</time>
      </trkpt>
      <trkpt lat="44.20617" lon="0.6117">
        <ele>49.6</ele>
        <time>2016-02-20T08:25:41Z</time>
      </trkpt>
      <trkpt lat="44.2062" lon="0.61169">
        <ele>49.8</ele>
        <time>2016-02-20T08:25:43Z</time>
      </trkpt>
      <trkpt lat="44.20633" lon="0.61168">
        <ele>49.6</ele>
        <time>2016-02-20T08:25:47Z</time>
      </trkpt>
      <trkpt lat="44.2066" lon="0.61165">
        <ele>50</ele>
        <time>2016-02-20T08:25:53Z</time>
      </trkpt>
      <trkpt lat="44.20694" lon="0.61163">
        <ele>51</ele>
        <time>2016-02-20T08:26:00Z</time>
      </trkpt>
      <trkpt lat="44.20701" lon="0.61162">
        <ele>51.4</ele>
        <time>2016-02-20T08:26:02Z</time>
      </trkpt>
      <trkpt lat="44.2072" lon="0.6116">
        <ele>52.4</ele>
        <time>2016-02-20T08:26:07Z</time>
      </trkpt>
      <trkpt lat="44.20743" lon="0.61158">
        <ele>53.4</ele>
        <time>2016-02-20T08:26:13Z</time>
      </trkpt>
      <trkpt lat="44.20746" lon="0.61158">
        <ele>53.6</ele>
        <time>2016-02-20T08:26:14Z</time>
      </trkpt>
      <trkpt lat="44.20764" lon="0.61158">
        <ele>54.6</ele>
        <time>2016-02-20T08:26:19Z</time>
      </trkpt>
      <trkpt lat="44.20772" lon="0.61157">
        <ele>54.8</ele>
        <time>2016-02-20T08:26:21Z</time>
      </trkpt>
      <trkpt lat="44.20786" lon="0.61156">
        <ele>55.8</ele>
        <time>2016-02-20T08:26:25Z</time>
      </trkpt>
      <trkpt lat="44.20798" lon="0.61155">
        <ele>56.6</ele>
        <time>2016-02-20T08:26:29Z</time>
      </trkpt>
      <trkpt lat="44.20802" lon="0.61155">
        <ele>56.8</ele>
        <time>2016-02-20T08:26:30Z</time>
      </trkpt>
      <trkpt lat="44.2082" lon="0.61153">
        <ele>57.8</ele>
        <time>2016-02-20T08:26:35Z</time>
      </trkpt>
      <trkpt lat="44.20823" lon="0.61153">
        <ele>58</ele>
        <time>2016-02-20T08:26:36Z</time>
      </trkpt>
      <trkpt lat="44.20837" lon="0.61152">
        <ele>59</ele>
        <time>2016-02-20T08:26:40Z</time>
      </trkpt>
      <trkpt lat="44.20847" lon="0.61149">
        <ele>59.4</ele>
        <time>2016-02-20T08:26:43Z</time>
      </trkpt>
      <trkpt lat="44.20857" lon="0.61149">
        <ele>60</ele>
        <time>2016-02-20T08:26:46Z</time>
      </trkpt>
      <trkpt lat="44.20867" lon="0.6115">
        <ele>60.6</ele>
        <time>2016-02-20T08:26:49Z</time>
      </trkpt>
      <trkpt lat="44.20878" lon="0.61148">
        <ele>61.2</ele>
        <time>2016-02-20T08:26:53Z</time>
      </trkpt>
      <trkpt lat="44.20882" lon="0.61145">
        <ele>61.6</ele>
        <time>2016-02-20T08:26:56Z</time>
      </trkpt>
      <trkpt lat="44.20885" lon="0.61143">
        <ele>61.8</ele>
        <time>2016-02-20T08:26:58Z</time>
      </trkpt>
      <trkpt lat="44.20888" lon="0.61144">
        <ele>62</ele>
        <time>2016-02-20T08:27:01Z</time>
      </trkpt>
      <trkpt lat="44.20894" lon="0.61145">
        <ele>62.2</ele>
        <time>2016-02-20T08:27:22Z</time>
      </trkpt>
      <trkpt lat="44.20896" lon="0.61145">
        <ele>62.2</ele>
        <time>2016-02-20T08:27:23Z</time>
      </trkpt>
      <trkpt lat="44.209" lon="0.61144">
        <ele>62</ele>
        <time>2016-02-20T08:27:25Z</time>
      </trkpt>
      <trkpt lat="44.20906" lon="0.61138">
        <ele>62.8</ele>
        <time>2016-02-20T08:27:27Z</time>
      </trkpt>
      <trkpt lat="44.20925" lon="0.61126">
        <ele>63.2</ele>
        <time>2016-02-20T08:27:34Z</time>
      </trkpt>
      <trkpt lat="44.20929" lon="0.61124">
        <ele>63.2</ele>
        <time>2016-02-20T08:27:36Z</time>
      </trkpt>
      <trkpt lat="44.20932" lon="0.61117">
        <ele>63.2</ele>
        <time>2016-02-20T08:27:39Z</time>
      </trkpt>
      <trkpt lat="44.20932" lon="0.61113">
        <ele>63.2</ele>
        <time>2016-02-20T08:27:40Z</time>
      </trkpt>
      <trkpt lat="44.2093" lon="0.611">
        <ele>62.6</ele>
        <time>2016-02-20T08:27:43Z</time>
      </trkpt>
      <trkpt lat="44.20928" lon="0.61091">
        <ele>62.2</ele>
        <time>2016-02-20T08:27:45Z</time>
      </trkpt>
      <trkpt lat="44.20923" lon="0.61076">
        <ele>60.8</ele>
        <time>2016-02-20T08:27:49Z</time>
      </trkpt>
      <trkpt lat="44.2092" lon="0.61068">
        <ele>60.2</ele>
        <time>2016-02-20T08:27:51Z</time>
      </trkpt>
      <trkpt lat="44.20919" lon="0.61065">
        <ele>59.8</ele>
        <time>2016-02-20T08:27:52Z</time>
      </trkpt>
      <trkpt lat="44.20915" lon="0.61048">
        <ele>58.8</ele>
        <time>2016-02-20T08:27:56Z</time>
      </trkpt>
      <trkpt lat="44.20912" lon="0.61039">
        <ele>58.8</ele>
        <time>2016-02-20T08:27:58Z</time>
      </trkpt>
      <trkpt lat="44.20906" lon="0.6102">
        <ele>58.8</ele>
        <time>2016-02-20T08:28:02Z</time>
      </trkpt>
      <trkpt lat="44.20901" lon="0.6099">
        <ele>58.2</ele>
        <time>2016-02-20T08:28:09Z</time>
      </trkpt>
      <trkpt lat="44.20897" lon="0.60975">
        <ele>57.8</ele>
        <time>2016-02-20T08:28:15Z</time>
      </trkpt>
      <trkpt lat="44.20896" lon="0.60974">
        <ele>57.6</ele>
        <time>2016-02-20T08:28:19Z</time>
      </trkpt>
      <trkpt lat="44.20898" lon="0.6098">
        <ele>57.6</ele>
        <time>2016-02-20T08:29:01Z</time>
      </trkpt>
      <trkpt lat="44.20899" lon="0.60987">
        <ele>57.8</ele>
        <time>2016-02-20T08:29:04Z</time>
      </trkpt>
      <trkpt lat="44.20904" lon="0.61011">
        <ele>58</ele>
        <time>2016-02-20T08:29:10Z</time>
      </trkpt>
      <trkpt lat="44.20907" lon="0.61026">
        <ele>58</ele>
        <time>2016-02-20T08:29:13Z</time>
      </trkpt>
      <trkpt lat="44.20912" lon="0.61047">
        <ele>58.4</ele>
        <time>2016-02-20T08:29:17Z</time>
      </trkpt>
      <trkpt lat="44.2092" lon="0.61072">
        <ele>58.8</ele>
        <time>2016-02-20T08:29:23Z</time>
      </trkpt>
      <trkpt lat="44.20921" lon="0.61075">
        <ele>59.2</ele>
        <time>2016-02-20T08:29:24Z</time>
      </trkpt>
      <trkpt lat="44.20923" lon="0.61081">
        <ele>59.8</ele>
        <time>2016-02-20T08:29:27Z</time>
      </trkpt>
      <trkpt lat="44.20923" lon="0.61084">
        <ele>60</ele>
        <time>2016-02-20T08:29:28Z</time>
      </trkpt>
      <trkpt lat="44.20927" lon="0.61094">
        <ele>61.2</ele>
        <time>2016-02-20T08:29:32Z</time>
      </trkpt>
      <trkpt lat="44.2093" lon="0.61104">
        <ele>61.8</ele>
        <time>2016-02-20T08:29:35Z</time>
      </trkpt>
      <trkpt lat="44.20933" lon="0.61112">
        <ele>62.2</ele>
        <time>2016-02-20T08:29:37Z</time>
      </trkpt>
      <trkpt lat="44.20932" lon="0.61119">
        <ele>62.2</ele>
        <time>2016-02-20T08:29:40Z</time>
      </trkpt>
      <trkpt lat="44.20931" lon="0.6112">
        <ele>62.4</ele>
        <time>2016-02-20T08:29:41Z</time>
      </trkpt>
      <trkpt lat="44.20927" lon="0.61122">
        <ele>62.6</ele>
        <time>2016-02-20T08:29:44Z</time>
      </trkpt>
      <trkpt lat="44.20925" lon="0.61122">
        <ele>62.6</ele>
        <time>2016-02-20T08:29:46Z</time>
      </trkpt>
      <trkpt lat="44.20926" lon="0.61122">
        <ele>62.6</ele>
        <time>2016-02-20T08:29:49Z</time>
      </trkpt>
      <trkpt lat="44.20918" lon="0.61126">
        <ele>62.8</ele>
        <time>2016-02-20T08:30:04Z</time>
      </trkpt>
      <trkpt lat="44.20913" lon="0.61128">
        <ele>62.6</ele>
        <time>2016-02-20T08:30:06Z</time>
      </trkpt>
      <trkpt lat="44.20902" lon="0.61131">
        <ele>62.2</ele>
        <time>2016-02-20T08:30:11Z</time>
      </trkpt>
      <trkpt lat="44.20901" lon="0.61129">
        <ele>62.2</ele>
        <time>2016-02-20T08:30:12Z</time>
      </trkpt>
      <trkpt lat="44.20902" lon="0.61127">
        <ele>62</ele>
        <time>2016-02-20T08:30:13Z</time>
      </trkpt>
      <trkpt lat="44.20901" lon="0.61118">
        <ele>61</ele>
        <time>2016-02-20T08:30:16Z</time>
      </trkpt>
      <trkpt lat="44.209" lon="0.61107">
        <ele>60</ele>
        <time>2016-02-20T08:30:18Z</time>
      </trkpt>
      <trkpt lat="44.20895" lon="0.61087">
        <ele>58.8</ele>
        <time>2016-02-20T08:30:21Z</time>
      </trkpt>
      <trkpt lat="44.20888" lon="0.61051">
        <ele>58.4</ele>
        <time>2016-02-20T08:30:25Z</time>
      </trkpt>
      <trkpt lat="44.20884" lon="0.61034">
        <ele>57.6</ele>
        <time>2016-02-20T08:30:27Z</time>
      </trkpt>
      <trkpt lat="44.20878" lon="0.61005">
        <ele>57.4</ele>
        <time>2016-02-20T08:30:31Z</time>
      </trkpt>
      <trkpt lat="44.20874" lon="0.60986">
        <ele>58.2</ele>
        <time>2016-02-20T08:30:34Z</time>
      </trkpt>
      <trkpt lat="44.20869" lon="0.60976">
        <ele>57.6</ele>
        <time>2016-02-20T08:30:36Z</time>
      </trkpt>
      <trkpt lat="44.20864" lon="0.60964">
        <ele>57.6</ele>
        <time>2016-02-20T08:30:42Z</time>
      </trkpt>
      <trkpt lat="44.20862" lon="0.60958">
        <ele>57.6</ele>
        <time>2016-02-20T08:30:47Z</time>
      </trkpt>
      <trkpt lat="44.20861" lon="0.60957">
        <ele>57.6</ele>
        <time>2016-02-20T08:30:48Z</time>
      </trkpt>
      <trkpt lat="44.20863" lon="0.60945">
        <ele>57.4</ele>
        <time>2016-02-20T08:30:53Z</time>
      </trkpt>
      <trkpt lat="44.20863" lon="0.60943">
        <ele>57.4</ele>
        <time>2016-02-20T08:30:54Z</time>
      </trkpt>
      <trkpt lat="44.20861" lon="0.60925">
        <ele>57</ele>
        <time>2016-02-20T08:31:00Z</time>
      </trkpt>
      <trkpt lat="44.2086" lon="0.60906">
        <ele>57.2</ele>
        <time>2016-02-20T08:31:06Z</time>
      </trkpt>
      <trkpt lat="44.20854" lon="0.60879">
        <ele>57.4</ele>
        <time>2016-02-20T08:31:13Z</time>
      </trkpt>
      <trkpt lat="44.20844" lon="0.60836">
        <ele>57.2</ele>
        <time>2016-02-20T08:31:22Z</time>
      </trkpt>
      <trkpt lat="44.20837" lon="0.60805">
        <ele>57.4</ele>
        <time>2016-02-20T08:31:30Z</time>
      </trkpt>
      <trkpt lat="44.20833" lon="0.60788">
        <ele>57.2</ele>
        <time>2016-02-20T08:31:36Z</time>
      </trkpt>
      <trkpt lat="44.20832" lon="0.60783">
        <ele>57.4</ele>
        <time>2016-02-20T08:31:42Z</time>
      </trkpt>
      <trkpt lat="44.20828" lon="0.60762">
        <ele>57.2</ele>
        <time>2016-02-20T08:31:48Z</time>
      </trkpt>
      <trkpt lat="44.20818" lon="0.60722">
        <ele>57.4</ele>
        <time>2016-02-20T08:31:56Z</time>
      </trkpt>
      <trkpt lat="44.20808" lon="0.60681">
        <ele>57.4</ele>
        <time>2016-02-20T08:32:04Z</time>
      </trkpt>
      <trkpt lat="44.20796" lon="0.6063">
        <ele>57.6</ele>
        <time>2016-02-20T08:32:14Z</time>
      </trkpt>
      <trkpt lat="44.20785" lon="0.6058">
        <ele>57.4</ele>
        <time>2016-02-20T08:32:23Z</time>
      </trkpt>
      <trkpt lat="44.20771" lon="0.6052">
        <ele>57.6</ele>
        <time>2016-02-20T08:32:33Z</time>
      </trkpt>
      <trkpt lat="44.20756" lon="0.60457">
        <ele>57.4</ele>
        <time>2016-02-20T08:32:43Z</time>
      </trkpt>
      <trkpt lat="44.20741" lon="0.6039">
        <ele>57.8</ele>
        <time>2016-02-20T08:32:54Z</time>
      </trkpt>
      <trkpt lat="44.20725" lon="0.60325">
        <ele>57.2</ele>
        <time>2016-02-20T08:33:05Z</time>
      </trkpt>
      <trkpt lat="44.20715" lon="0.6028">
        <ele>57.4</ele>
        <time>2016-02-20T08:33:13Z</time>
      </trkpt>
      <trkpt lat="44.20703" lon="0.60243">
        <ele>57.2</ele>
        <time>2016-02-20T08:33:21Z</time>
      </trkpt>
      <trkpt lat="44.20685" lon="0.60212">
        <ele>57</ele>
        <time>2016-02-20T08:33:29Z</time>
      </trkpt>
      <trkpt lat="44.20677" lon="0.60185">
        <ele>57.4</ele>
        <time>2016-02-20T08:33:35Z</time>
      </trkpt>
      <trkpt lat="44.20668" lon="0.60147">
        <ele>57.2</ele>
        <time>2016-02-20T08:33:43Z</time>
      </trkpt>
      <trkpt lat="44.20664" lon="0.60124">
        <ele>57.2</ele>
        <time>2016-02-20T08:33:49Z</time>
      </trkpt>
      <trkpt lat="44.20654" lon="0.60093">
        <ele>56.8</ele>
        <time>2016-02-20T08:33:56Z</time>
      </trkpt>
      <trkpt lat="44.20653" lon="0.60088">
        <ele>56.8</ele>
        <time>2016-02-20T08:33:57Z</time>
      </trkpt>
      <trkpt lat="44.20653" lon="0.60084">
        <ele>56.6</ele>
        <time>2016-02-20T08:33:58Z</time>
      </trkpt>
      <trkpt lat="44.20654" lon="0.60081">
        <ele>56.6</ele>
        <time>2016-02-20T08:33:59Z</time>
      </trkpt>
      <trkpt lat="44.20656" lon="0.60076">
        <ele>56.8</ele>
        <time>2016-02-20T08:34:01Z</time>
      </trkpt>
      <trkpt lat="44.20656" lon="0.60075">
        <ele>57</ele>
        <time>2016-02-20T08:34:03Z</time>
      </trkpt>
      <trkpt lat="44.20664" lon="0.60071">
        <ele>57.4</ele>
        <time>2016-02-20T08:34:45Z</time>
      </trkpt>
      <trkpt lat="44.20667" lon="0.6007">
        <ele>57.8</ele>
        <time>2016-02-20T08:34:47Z</time>
      </trkpt>
      <trkpt lat="44.20679" lon="0.60065">
        <ele>57.4</ele>
        <time>2016-02-20T08:34:53Z</time>
      </trkpt>
      <trkpt lat="44.2069" lon="0.60057">
        <ele>56.8</ele>
        <time>2016-02-20T08:34:57Z</time>
      </trkpt>
      <trkpt lat="44.20695" lon="0.60042">
        <ele>55.8</ele>
        <time>2016-02-20T08:35:00Z</time>
      </trkpt>
      <trkpt lat="44.20695" lon="0.60036">
        <ele>55.4</ele>
        <time>2016-02-20T08:35:01Z</time>
      </trkpt>
      <trkpt lat="44.20689" lon="0.60019">
        <ele>54.6</ele>
        <time>2016-02-20T08:35:04Z</time>
      </trkpt>
      <trkpt lat="44.20685" lon="0.60012">
        <ele>54</ele>
        <time>2016-02-20T08:35:06Z</time>
      </trkpt>
      <trkpt lat="44.20681" lon="0.60008">
        <ele>53.6</ele>
        <time>2016-02-20T08:35:08Z</time>
      </trkpt>
      <trkpt lat="44.20678" lon="0.60004">
        <ele>54</ele>
        <time>2016-02-20T08:35:10Z</time>
      </trkpt>
      <trkpt lat="44.20676" lon="0.59997">
        <ele>53.6</ele>
        <time>2016-02-20T08:35:12Z</time>
      </trkpt>
      <trkpt lat="44.20669" lon="0.5997">
        <ele>53.8</ele>
        <time>2016-02-20T08:35:18Z</time>
      </trkpt>
      <trkpt lat="44.20664" lon="0.5995">
        <ele>54</ele>
        <time>2016-02-20T08:35:21Z</time>
      </trkpt>
      <trkpt lat="44.20661" lon="0.59939">
        <ele>53.6</ele>
        <time>2016-02-20T08:35:23Z</time>
      </trkpt>
      <trkpt lat="44.20651" lon="0.59897">
        <ele>53.6</ele>
        <time>2016-02-20T08:35:30Z</time>
      </trkpt>
      <trkpt lat="44.20641" lon="0.59849">
        <ele>53</ele>
        <time>2016-02-20T08:35:37Z</time>
      </trkpt>
      <trkpt lat="44.2064" lon="0.59842">
        <ele>53.2</ele>
        <time>2016-02-20T08:35:38Z</time>
      </trkpt>
      <trkpt lat="44.20627" lon="0.59786">
        <ele>53.8</ele>
        <time>2016-02-20T08:35:46Z</time>
      </trkpt>
      <trkpt lat="44.20616" lon="0.59743">
        <ele>53.4</ele>
        <time>2016-02-20T08:35:52Z</time>
      </trkpt>
      <trkpt lat="44.20605" lon="0.59693">
        <ele>53.4</ele>
        <time>2016-02-20T08:35:59Z</time>
      </trkpt>
      <trkpt lat="44.206" lon="0.59644">
        <ele>53.4</ele>
        <time>2016-02-20T08:36:06Z</time>
      </trkpt>
      <trkpt lat="44.20598" lon="0.59637">
        <ele>53.6</ele>
        <time>2016-02-20T08:36:07Z</time>
      </trkpt>
      <trkpt lat="44.20593" lon="0.59617">
        <ele>53</ele>
        <time>2016-02-20T08:36:10Z</time>
      </trkpt>
      <trkpt lat="44.20585" lon="0.59585">
        <ele>52.4</ele>
        <time>2016-02-20T08:36:15Z</time>
      </trkpt>
      <trkpt lat="44.20584" lon="0.59579">
        <ele>52.2</ele>
        <time>2016-02-20T08:36:16Z</time>
      </trkpt>
      <trkpt lat="44.20581" lon="0.59566">
        <ele>52</ele>
        <time>2016-02-20T08:36:18Z</time>
      </trkpt>
      <trkpt lat="44.20576" lon="0.59544">
        <ele>52</ele>
        <time>2016-02-20T08:36:21Z</time>
      </trkpt>
      <trkpt lat="44.2057" lon="0.59515">
        <ele>52</ele>
        <time>2016-02-20T08:36:25Z</time>
      </trkpt>
      <trkpt lat="44.20565" lon="0.59494">
        <ele>52.4</ele>
        <time>2016-02-20T08:36:28Z</time>
      </trkpt>
      <trkpt lat="44.20558" lon="0.59465">
        <ele>53.2</ele>
        <time>2016-02-20T08:36:32Z</time>
      </trkpt>
      <trkpt lat="44.20556" lon="0.59458">
        <ele>51</ele>
        <time>2016-02-20T08:36:33Z</time>
      </trkpt>
      <trkpt lat="44.20555" lon="0.59452">
        <ele>48.8</ele>
        <time>2016-02-20T08:36:34Z</time>
      </trkpt>
      <trkpt lat="44.20554" lon="0.59445">
        <ele>50.2</ele>
        <time>2016-02-20T08:36:35Z</time>
      </trkpt>
      <trkpt lat="44.20552" lon="0.59439">
        <ele>51.4</ele>
        <time>2016-02-20T08:36:36Z</time>
      </trkpt>
      <trkpt lat="44.20551" lon="0.59432">
        <ele>54</ele>
        <time>2016-02-20T08:36:37Z</time>
      </trkpt>
      <trkpt lat="44.20549" lon="0.59425">
        <ele>52.2</ele>
        <time>2016-02-20T08:36:38Z</time>
      </trkpt>
      <trkpt lat="44.20541" lon="0.59389">
        <ele>52.4</ele>
        <time>2016-02-20T08:36:43Z</time>
      </trkpt>
      <trkpt lat="44.20527" lon="0.59332">
        <ele>52.2</ele>
        <time>2016-02-20T08:36:51Z</time>
      </trkpt>
      <trkpt lat="44.20514" lon="0.59271">
        <ele>52.4</ele>
        <time>2016-02-20T08:36:59Z</time>
      </trkpt>
      <trkpt lat="44.205" lon="0.59213">
        <ele>52</ele>
        <time>2016-02-20T08:37:07Z</time>
      </trkpt>
      <trkpt lat="44.20487" lon="0.59153">
        <ele>52.2</ele>
        <time>2016-02-20T08:37:15Z</time>
      </trkpt>
      <trkpt lat="44.20476" lon="0.59112">
        <ele>52.4</ele>
        <time>2016-02-20T08:37:21Z</time>
      </trkpt>
      <trkpt lat="44.20473" lon="0.59094">
        <ele>52.2</ele>
        <time>2016-02-20T08:37:24Z</time>
      </trkpt>
      <trkpt lat="44.20469" lon="0.59071">
        <ele>52.4</ele>
        <time>2016-02-20T08:37:28Z</time>
      </trkpt>
      <trkpt lat="44.20458" lon="0.59019">
        <ele>52.4</ele>
        <time>2016-02-20T08:37:35Z</time>
      </trkpt>
      <trkpt lat="44.20442" lon="0.58956">
        <ele>52.6</ele>
        <time>2016-02-20T08:37:43Z</time>
      </trkpt>
      <trkpt lat="44.20428" lon="0.58891">
        <ele>52.2</ele>
        <time>2016-02-20T08:37:52Z</time>
      </trkpt>
      <trkpt lat="44.20413" lon="0.58833">
        <ele>52</ele>
        <time>2016-02-20T08:38:00Z</time>
      </trkpt>
      <trkpt lat="44.20401" lon="0.58779">
        <ele>52.6</ele>
        <time>2016-02-20T08:38:07Z</time>
      </trkpt>
      <trkpt lat="44.20388" lon="0.58722">
        <ele>52.4</ele>
        <time>2016-02-20T08:38:15Z</time>
      </trkpt>
      <trkpt lat="44.20374" lon="0.58672">
        <ele>52.4</ele>
        <time>2016-02-20T08:38:22Z</time>
      </trkpt>
      <trkpt lat="44.20371" lon="0.58658">
        <ele>52.6</ele>
        <time>2016-02-20T08:38:24Z</time>
      </trkpt>
      <trkpt lat="44.20368" lon="0.58645">
        <ele>52.8</ele>
        <time>2016-02-20T08:38:26Z</time>
      </trkpt>
      <trkpt lat="44.20367" lon="0.58639">
        <ele>53</ele>
        <time>2016-02-20T08:38:27Z</time>
      </trkpt>
      <trkpt lat="44.20354" lon="0.58581">
        <ele>52.4</ele>
        <time>2016-02-20T08:38:35Z</time>
      </trkpt>
      <trkpt lat="44.20351" lon="0.58558">
        <ele>52.4</ele>
        <time>2016-02-20T08:38:38Z</time>
      </trkpt>
      <trkpt lat="44.20352" lon="0.58536">
        <ele>52.6</ele>
        <time>2016-02-20T08:38:41Z</time>
      </trkpt>
      <trkpt lat="44.20362" lon="0.58506">
        <ele>52.6</ele>
        <time>2016-02-20T08:38:45Z</time>
      </trkpt>
      <trkpt lat="44.20387" lon="0.58455">
        <ele>52.4</ele>
        <time>2016-02-20T08:38:53Z</time>
      </trkpt>
      <trkpt lat="44.20412" lon="0.58404">
        <ele>52</ele>
        <time>2016-02-20T08:39:02Z</time>
      </trkpt>
      <trkpt lat="44.20414" lon="0.58399">
        <ele>52.4</ele>
        <time>2016-02-20T08:39:03Z</time>
      </trkpt>
      <trkpt lat="44.20417" lon="0.58395">
        <ele>52.2</ele>
        <time>2016-02-20T08:39:05Z</time>
      </trkpt>
      <trkpt lat="44.20421" lon="0.58382">
        <ele>52.4</ele>
        <time>2016-02-20T08:41:02Z</time>
      </trkpt>
      <trkpt lat="44.20424" lon="0.58375">
        <ele>52.4</ele>
        <time>2016-02-20T08:41:04Z</time>
      </trkpt>
      <trkpt lat="44.20434" lon="0.58354">
        <ele>52.2</ele>
        <time>2016-02-20T08:41:09Z</time>
      </trkpt>
      <trkpt lat="44.20437" lon="0.5835">
        <ele>52.2</ele>
        <time>2016-02-20T08:41:10Z</time>
      </trkpt>
      <trkpt lat="44.20439" lon="0.58345">
        <ele>52.2</ele>
        <time>2016-02-20T08:41:11Z</time>
      </trkpt>
      <trkpt lat="44.20444" lon="0.58334">
        <ele>52.2</ele>
        <time>2016-02-20T08:41:13Z</time>
      </trkpt>
      <trkpt lat="44.2045" lon="0.58323">
        <ele>52.2</ele>
        <time>2016-02-20T08:41:15Z</time>
      </trkpt>
      <trkpt lat="44.20468" lon="0.58288">
        <ele>52</ele>
        <time>2016-02-20T08:41:21Z</time>
      </trkpt>
      <trkpt lat="44.20489" lon="0.58244">
        <ele>52.4</ele>
        <time>2016-02-20T08:41:28Z</time>
      </trkpt>
      <trkpt lat="44.20517" lon="0.58185">
        <ele>52</ele>
        <time>2016-02-20T08:41:37Z</time>
      </trkpt>
      <trkpt lat="44.20545" lon="0.58125">
        <ele>52.4</ele>
        <time>2016-02-20T08:41:46Z</time>
      </trkpt>
      <trkpt lat="44.20569" lon="0.58074">
        <ele>52.2</ele>
        <time>2016-02-20T08:41:54Z</time>
      </trkpt>
      <trkpt lat="44.20601" lon="0.58011">
        <ele>52</ele>
        <time>2016-02-20T08:42:04Z</time>
      </trkpt>
      <trkpt lat="44.20631" lon="0.57951">
        <ele>52</ele>
        <time>2016-02-20T08:42:13Z</time>
      </trkpt>
      <trkpt lat="44.20654" lon="0.57902">
        <ele>52</ele>
        <time>2016-02-20T08:42:21Z</time>
      </trkpt>
      <trkpt lat="44.20666" lon="0.57872">
        <ele>52.2</ele>
        <time>2016-02-20T08:42:26Z</time>
      </trkpt>
      <trkpt lat="44.2067" lon="0.57866">
        <ele>52</ele>
        <time>2016-02-20T08:42:27Z</time>
      </trkpt>
      <trkpt lat="44.20676" lon="0.57854">
        <ele>52</ele>
        <time>2016-02-20T08:42:29Z</time>
      </trkpt>
      <trkpt lat="44.20691" lon="0.57823">
        <ele>52</ele>
        <time>2016-02-20T08:42:34Z</time>
      </trkpt>
      <trkpt lat="44.20714" lon="0.57774">
        <ele>52.2</ele>
        <time>2016-02-20T08:42:42Z</time>
      </trkpt>
      <trkpt lat="44.20731" lon="0.57737">
        <ele>52</ele>
        <time>2016-02-20T08:42:48Z</time>
      </trkpt>
      <trkpt lat="44.20755" lon="0.57687">
        <ele>51.8</ele>
        <time>2016-02-20T08:42:56Z</time>
      </trkpt>
      <trkpt lat="44.20778" lon="0.57638">
        <ele>51.6</ele>
        <time>2016-02-20T08:43:04Z</time>
      </trkpt>
      <trkpt lat="44.20806" lon="0.57576">
        <ele>51.6</ele>
        <time>2016-02-20T08:43:14Z</time>
      </trkpt>
      <trkpt lat="44.2083" lon="0.57528">
        <ele>51.8</ele>
        <time>2016-02-20T08:43:22Z</time>
      </trkpt>
      <trkpt lat="44.20855" lon="0.57475">
        <ele>52</ele>
        <time>2016-02-20T08:43:31Z</time>
      </trkpt>
      <trkpt lat="44.20883" lon="0.57421">
        <ele>52.2</ele>
        <time>2016-02-20T08:43:40Z</time>
      </trkpt>
      <trkpt lat="44.20903" lon="0.57378">
        <ele>51.8</ele>
        <time>2016-02-20T08:43:47Z</time>
      </trkpt>
      <trkpt lat="44.20921" lon="0.57342">
        <ele>52</ele>
        <time>2016-02-20T08:43:53Z</time>
      </trkpt>
      <trkpt lat="44.20942" lon="0.57298">
        <ele>52.2</ele>
        <time>2016-02-20T08:44:00Z</time>
      </trkpt>
      <trkpt lat="44.20948" lon="0.57285">
        <ele>52.2</ele>
        <time>2016-02-20T08:44:02Z</time>
      </trkpt>
      <trkpt lat="44.20959" lon="0.57259">
        <ele>51.6</ele>
        <time>2016-02-20T08:44:06Z</time>
      </trkpt>
      <trkpt lat="44.20985" lon="0.57206">
        <ele>52</ele>
        <time>2016-02-20T08:44:14Z</time>
      </trkpt>
      <trkpt lat="44.21014" lon="0.57147">
        <ele>52</ele>
        <time>2016-02-20T08:44:23Z</time>
      </trkpt>
      <trkpt lat="44.21037" lon="0.57095">
        <ele>51.8</ele>
        <time>2016-02-20T08:44:31Z</time>
      </trkpt>
      <trkpt lat="44.21065" lon="0.57038">
        <ele>51.6</ele>
        <time>2016-02-20T08:44:40Z</time>
      </trkpt>
      <trkpt lat="44.21084" lon="0.56996">
        <ele>51.8</ele>
        <time>2016-02-20T08:44:46Z</time>
      </trkpt>
      <trkpt lat="44.21094" lon="0.56975">
        <ele>51</ele>
        <time>2016-02-20T08:44:49Z</time>
      </trkpt>
      <trkpt lat="44.21108" lon="0.5694">
        <ele>51.6</ele>
        <time>2016-02-20T08:44:54Z</time>
      </trkpt>
      <trkpt lat="44.21132" lon="0.56884">
        <ele>51.6</ele>
        <time>2016-02-20T08:45:02Z</time>
      </trkpt>
      <trkpt lat="44.21151" lon="0.56836">
        <ele>51.8</ele>
        <time>2016-02-20T08:45:09Z</time>
      </trkpt>
      <trkpt lat="44.21171" lon="0.56785">
        <ele>51.8</ele>
        <time>2016-02-20T08:45:17Z</time>
      </trkpt>
      <trkpt lat="44.21173" lon="0.56779">
        <ele>52.2</ele>
        <time>2016-02-20T08:45:18Z</time>
      </trkpt>
      <trkpt lat="44.21187" lon="0.56738">
        <ele>52</ele>
        <time>2016-02-20T08:45:24Z</time>
      </trkpt>
      <trkpt lat="44.21211" lon="0.56679">
        <ele>52</ele>
        <time>2016-02-20T08:45:33Z</time>
      </trkpt>
      <trkpt lat="44.21227" lon="0.5663">
        <ele>51.8</ele>
        <time>2016-02-20T08:45:40Z</time>
      </trkpt>
      <trkpt lat="44.21244" lon="0.56582">
        <ele>52</ele>
        <time>2016-02-20T08:45:47Z</time>
      </trkpt>
      <trkpt lat="44.21265" lon="0.56518">
        <ele>51.8</ele>
        <time>2016-02-20T08:45:56Z</time>
      </trkpt>
      <trkpt lat="44.21273" lon="0.56485">
        <ele>51.8</ele>
        <time>2016-02-20T08:46:01Z</time>
      </trkpt>
      <trkpt lat="44.21275" lon="0.56479">
        <ele>51.6</ele>
        <time>2016-02-20T08:46:02Z</time>
      </trkpt>
      <trkpt lat="44.21286" lon="0.56442">
        <ele>52</ele>
        <time>2016-02-20T08:46:07Z</time>
      </trkpt>
      <trkpt lat="44.21288" lon="0.56435">
        <ele>52</ele>
        <time>2016-02-20T08:46:08Z</time>
      </trkpt>
      <trkpt lat="44.21305" lon="0.5638">
        <ele>52</ele>
        <time>2016-02-20T08:46:16Z</time>
      </trkpt>
      <trkpt lat="44.21327" lon="0.56307">
        <ele>52.2</ele>
        <time>2016-02-20T08:46:27Z</time>
      </trkpt>
      <trkpt lat="44.21339" lon="0.56259">
        <ele>52</ele>
        <time>2016-02-20T08:46:34Z</time>
      </trkpt>
      <trkpt lat="44.2135" lon="0.56212">
        <ele>51.8</ele>
        <time>2016-02-20T08:46:40Z</time>
      </trkpt>
      <trkpt lat="44.21354" lon="0.5619">
        <ele>51.6</ele>
        <time>2016-02-20T08:46:43Z</time>
      </trkpt>
      <trkpt lat="44.21359" lon="0.5617">
        <ele>51.8</ele>
        <time>2016-02-20T08:46:46Z</time>
      </trkpt>
      <trkpt lat="44.21372" lon="0.56117">
        <ele>51.8</ele>
        <time>2016-02-20T08:46:54Z</time>
      </trkpt>
      <trkpt lat="44.21384" lon="0.56063">
        <ele>52</ele>
        <time>2016-02-20T08:47:02Z</time>
      </trkpt>
      <trkpt lat="44.21396" lon="0.56009">
        <ele>52</ele>
        <time>2016-02-20T08:47:10Z</time>
      </trkpt>
      <trkpt lat="44.21407" lon="0.55949">
        <ele>51.8</ele>
        <time>2016-02-20T08:47:19Z</time>
      </trkpt>
      <trkpt lat="44.21416" lon="0.55902">
        <ele>51.8</ele>
        <time>2016-02-20T08:47:26Z</time>
      </trkpt>
      <trkpt lat="44.21426" lon="0.55847">
        <ele>51.6</ele>
        <time>2016-02-20T08:47:34Z</time>
      </trkpt>
      <trkpt lat="44.21433" lon="0.55813">
        <ele>52</ele>
        <time>2016-02-20T08:47:39Z</time>
      </trkpt>
      <trkpt lat="44.21436" lon="0.558">
        <ele>51.8</ele>
        <time>2016-02-20T08:47:41Z</time>
      </trkpt>
      <trkpt lat="44.21446" lon="0.55742">
        <ele>51.4</ele>
        <time>2016-02-20T08:47:49Z</time>
      </trkpt>
      <trkpt lat="44.21456" lon="0.55686">
        <ele>52</ele>
        <time>2016-02-20T08:47:57Z</time>
      </trkpt>
      <trkpt lat="44.21468" lon="0.55632">
        <ele>52.2</ele>
        <time>2016-02-20T08:48:05Z</time>
      </trkpt>
      <trkpt lat="44.21474" lon="0.55607">
        <ele>52.2</ele>
        <time>2016-02-20T08:48:09Z</time>
      </trkpt>
      <trkpt lat="44.21476" lon="0.55594">
        <ele>52.2</ele>
        <time>2016-02-20T08:48:11Z</time>
      </trkpt>
      <trkpt lat="44.21484" lon="0.55548">
        <ele>52.2</ele>
        <time>2016-02-20T08:48:18Z</time>
      </trkpt>
      <trkpt lat="44.21496" lon="0.55493">
        <ele>51.8</ele>
        <time>2016-02-20T08:48:26Z</time>
      </trkpt>
      <trkpt lat="44.21505" lon="0.55438">
        <ele>51.2</ele>
        <time>2016-02-20T08:48:33Z</time>
      </trkpt>
      <trkpt lat="44.21507" lon="0.5543">
        <ele>51</ele>
        <time>2016-02-20T08:48:34Z</time>
      </trkpt>
      <trkpt lat="44.21513" lon="0.55392">
        <ele>51.4</ele>
        <time>2016-02-20T08:48:39Z</time>
      </trkpt>
      <trkpt lat="44.21513" lon="0.55386">
        <ele>51.8</ele>
        <time>2016-02-20T08:48:40Z</time>
      </trkpt>
      <trkpt lat="44.21513" lon="0.5538">
        <ele>52</ele>
        <time>2016-02-20T08:48:41Z</time>
      </trkpt>
      <trkpt lat="44.21513" lon="0.55362">
        <ele>52.4</ele>
        <time>2016-02-20T08:48:44Z</time>
      </trkpt>
      <trkpt lat="44.21514" lon="0.55351">
        <ele>52.4</ele>
        <time>2016-02-20T08:48:46Z</time>
      </trkpt>
      <trkpt lat="44.21517" lon="0.55312">
        <ele>52.6</ele>
        <time>2016-02-20T08:48:52Z</time>
      </trkpt>
      <trkpt lat="44.21518" lon="0.55265">
        <ele>52.4</ele>
        <time>2016-02-20T08:48:59Z</time>
      </trkpt>
      <trkpt lat="44.21518" lon="0.55238">
        <ele>52.4</ele>
        <time>2016-02-20T08:49:03Z</time>
      </trkpt>
      <trkpt lat="44.21519" lon="0.55216">
        <ele>52.4</ele>
        <time>2016-02-20T08:49:06Z</time>
      </trkpt>
      <trkpt lat="44.21513" lon="0.55149">
        <ele>52.2</ele>
        <time>2016-02-20T08:49:15Z</time>
      </trkpt>
      <trkpt lat="44.21508" lon="0.55103">
        <ele>52.6</ele>
        <time>2016-02-20T08:49:22Z</time>
      </trkpt>
      <trkpt lat="44.21502" lon="0.55072">
        <ele>52</ele>
        <time>2016-02-20T08:49:28Z</time>
      </trkpt>
      <trkpt lat="44.21497" lon="0.55043">
        <ele>52.2</ele>
        <time>2016-02-20T08:49:33Z</time>
      </trkpt>
      <trkpt lat="44.21488" lon="0.55006">
        <ele>52.2</ele>
        <time>2016-02-20T08:49:40Z</time>
      </trkpt>
      <trkpt lat="44.21478" lon="0.54967">
        <ele>52</ele>
        <time>2016-02-20T08:49:47Z</time>
      </trkpt>
      <trkpt lat="44.21469" lon="0.54928">
        <ele>51.6</ele>
        <time>2016-02-20T08:49:54Z</time>
      </trkpt>
      <trkpt lat="44.2146" lon="0.54882">
        <ele>52.4</ele>
        <time>2016-02-20T08:50:02Z</time>
      </trkpt>
      <trkpt lat="44.21448" lon="0.54826">
        <ele>52</ele>
        <time>2016-02-20T08:50:11Z</time>
      </trkpt>
      <trkpt lat="44.21433" lon="0.54765">
        <ele>52.4</ele>
        <time>2016-02-20T08:50:20Z</time>
      </trkpt>
      <trkpt lat="44.21418" lon="0.54698">
        <ele>52.4</ele>
        <time>2016-02-20T08:50:30Z</time>
      </trkpt>
      <trkpt lat="44.21405" lon="0.54641">
        <ele>52.6</ele>
        <time>2016-02-20T08:50:39Z</time>
      </trkpt>
      <trkpt lat="44.21395" lon="0.54596">
        <ele>52.2</ele>
        <time>2016-02-20T08:50:46Z</time>
      </trkpt>
      <trkpt lat="44.21385" lon="0.54545">
        <ele>52.2</ele>
        <time>2016-02-20T08:50:54Z</time>
      </trkpt>
      <trkpt lat="44.21372" lon="0.54489">
        <ele>52.4</ele>
        <time>2016-02-20T08:51:03Z</time>
      </trkpt>
      <trkpt lat="44.21359" lon="0.54434">
        <ele>52.6</ele>
        <time>2016-02-20T08:51:12Z</time>
      </trkpt>
      <trkpt lat="44.21346" lon="0.54383">
        <ele>52.2</ele>
        <time>2016-02-20T08:51:20Z</time>
      </trkpt>
      <trkpt lat="44.21331" lon="0.54313">
        <ele>52.6</ele>
        <time>2016-02-20T08:51:30Z</time>
      </trkpt>
      <trkpt lat="44.2132" lon="0.54264">
        <ele>52.6</ele>
        <time>2016-02-20T08:51:37Z</time>
      </trkpt>
      <trkpt lat="44.21305" lon="0.54201">
        <ele>52.4</ele>
        <time>2016-02-20T08:51:46Z</time>
      </trkpt>
      <trkpt lat="44.21292" lon="0.54146">
        <ele>52.6</ele>
        <time>2016-02-20T08:51:54Z</time>
      </trkpt>
      <trkpt lat="44.21282" lon="0.54098">
        <ele>52.6</ele>
        <time>2016-02-20T08:52:01Z</time>
      </trkpt>
      <trkpt lat="44.21271" lon="0.5405">
        <ele>52.4</ele>
        <time>2016-02-20T08:52:08Z</time>
      </trkpt>
      <trkpt lat="44.21258" lon="0.53995">
        <ele>52.4</ele>
        <time>2016-02-20T08:52:16Z</time>
      </trkpt>
      <trkpt lat="44.21245" lon="0.53937">
        <ele>52.4</ele>
        <time>2016-02-20T08:52:25Z</time>
      </trkpt>
      <trkpt lat="44.21233" lon="0.53886">
        <ele>52.2</ele>
        <time>2016-02-20T08:52:33Z</time>
      </trkpt>
      <trkpt lat="44.21221" lon="0.53828">
        <ele>52.2</ele>
        <time>2016-02-20T08:52:42Z</time>
      </trkpt>
      <trkpt lat="44.21209" lon="0.53776">
        <ele>52.6</ele>
        <time>2016-02-20T08:52:50Z</time>
      </trkpt>
      <trkpt lat="44.21198" lon="0.5372">
        <ele>52.6</ele>
        <time>2016-02-20T08:52:58Z</time>
      </trkpt>
      <trkpt lat="44.21184" lon="0.53658">
        <ele>52.4</ele>
        <time>2016-02-20T08:53:07Z</time>
      </trkpt>
      <trkpt lat="44.21174" lon="0.53609">
        <ele>52.4</ele>
        <time>2016-02-20T08:53:14Z</time>
      </trkpt>
      <trkpt lat="44.21163" lon="0.53566">
        <ele>51.8</ele>
        <time>2016-02-20T08:53:20Z</time>
      </trkpt>
      <trkpt lat="44.21152" lon="0.53502">
        <ele>52.2</ele>
        <time>2016-02-20T08:53:29Z</time>
      </trkpt>
      <trkpt lat="44.21142" lon="0.53435">
        <ele>51.8</ele>
        <time>2016-02-20T08:53:38Z</time>
      </trkpt>
      <trkpt lat="44.21134" lon="0.53368">
        <ele>51.8</ele>
        <time>2016-02-20T08:53:48Z</time>
      </trkpt>
      <trkpt lat="44.21126" lon="0.53303">
        <ele>51.6</ele>
        <time>2016-02-20T08:53:57Z</time>
      </trkpt>
      <trkpt lat="44.21121" lon="0.53241">
        <ele>51.6</ele>
        <time>2016-02-20T08:54:06Z</time>
      </trkpt>
      <trkpt lat="44.21121" lon="0.53229">
        <ele>51.6</ele>
        <time>2016-02-20T08:54:08Z</time>
      </trkpt>
      <trkpt lat="44.21126" lon="0.53213">
        <ele>51.6</ele>
        <time>2016-02-20T08:54:11Z</time>
      </trkpt>
      <trkpt lat="44.21127" lon="0.53208">
        <ele>51.6</ele>
        <time>2016-02-20T08:54:12Z</time>
      </trkpt>
      <trkpt lat="44.21139" lon="0.53168">
        <ele>51.6</ele>
        <time>2016-02-20T08:54:19Z</time>
      </trkpt>
      <trkpt lat="44.21143" lon="0.53143">
        <ele>51.6</ele>
        <time>2016-02-20T08:54:23Z</time>
      </trkpt>
      <trkpt lat="44.21144" lon="0.53131">
        <ele>51.6</ele>
        <time>2016-02-20T08:54:25Z</time>
      </trkpt>
      <trkpt lat="44.21142" lon="0.53078">
        <ele>51.6</ele>
        <time>2016-02-20T08:54:33Z</time>
      </trkpt>
      <trkpt lat="44.21138" lon="0.53031">
        <ele>51.6</ele>
        <time>2016-02-20T08:54:40Z</time>
      </trkpt>
      <trkpt lat="44.21135" lon="0.53019">
        <ele>51.6</ele>
        <time>2016-02-20T08:54:42Z</time>
      </trkpt>
      <trkpt lat="44.21126" lon="0.53003">
        <ele>51.4</ele>
        <time>2016-02-20T08:54:45Z</time>
      </trkpt>
      <trkpt lat="44.21117" lon="0.52988">
        <ele>51.6</ele>
        <time>2016-02-20T08:54:48Z</time>
      </trkpt>
      <trkpt lat="44.21109" lon="0.52963">
        <ele>51.4</ele>
        <time>2016-02-20T08:54:52Z</time>
      </trkpt>
      <trkpt lat="44.21108" lon="0.52957">
        <ele>51.4</ele>
        <time>2016-02-20T08:54:53Z</time>
      </trkpt>
      <trkpt lat="44.21107" lon="0.52942">
        <ele>51</ele>
        <time>2016-02-20T08:54:55Z</time>
      </trkpt>
      <trkpt lat="44.21107" lon="0.52928">
        <ele>50.8</ele>
        <time>2016-02-20T08:54:57Z</time>
      </trkpt>
      <trkpt lat="44.21107" lon="0.52913">
        <ele>50.6</ele>
        <time>2016-02-20T08:54:59Z</time>
      </trkpt>
      <trkpt lat="44.21109" lon="0.52866">
        <ele>50.4</ele>
        <time>2016-02-20T08:55:06Z</time>
      </trkpt>
      <trkpt lat="44.21112" lon="0.52819">
        <ele>50.8</ele>
        <time>2016-02-20T08:55:13Z</time>
      </trkpt>
      <trkpt lat="44.21114" lon="0.52768">
        <ele>50.6</ele>
        <time>2016-02-20T08:55:21Z</time>
      </trkpt>
      <trkpt lat="44.21114" lon="0.52761">
        <ele>50.6</ele>
        <time>2016-02-20T08:55:22Z</time>
      </trkpt>
      <trkpt lat="44.21118" lon="0.52722">
        <ele>50.4</ele>
        <time>2016-02-20T08:55:28Z</time>
      </trkpt>
      <trkpt lat="44.21124" lon="0.52663">
        <ele>50.2</ele>
        <time>2016-02-20T08:55:37Z</time>
      </trkpt>
      <trkpt lat="44.21127" lon="0.52638">
        <ele>50</ele>
        <time>2016-02-20T08:55:41Z</time>
      </trkpt>
      <trkpt lat="44.2113" lon="0.5262">
        <ele>49.8</ele>
        <time>2016-02-20T08:55:44Z</time>
      </trkpt>
      <trkpt lat="44.21135" lon="0.52575">
        <ele>50</ele>
        <time>2016-02-20T08:55:51Z</time>
      </trkpt>
      <trkpt lat="44.21142" lon="0.52531">
        <ele>49.8</ele>
        <time>2016-02-20T08:55:58Z</time>
      </trkpt>
      <trkpt lat="44.21148" lon="0.52485">
        <ele>50</ele>
        <time>2016-02-20T08:56:05Z</time>
      </trkpt>
      <trkpt lat="44.21157" lon="0.52424">
        <ele>50</ele>
        <time>2016-02-20T08:56:14Z</time>
      </trkpt>
      <trkpt lat="44.21162" lon="0.52385">
        <ele>50.2</ele>
        <time>2016-02-20T08:56:20Z</time>
      </trkpt>
      <trkpt lat="44.21172" lon="0.52331">
        <ele>49.8</ele>
        <time>2016-02-20T08:56:28Z</time>
      </trkpt>
      <trkpt lat="44.2118" lon="0.52284">
        <ele>49.8</ele>
        <time>2016-02-20T08:56:35Z</time>
      </trkpt>
      <trkpt lat="44.21189" lon="0.52229">
        <ele>50</ele>
        <time>2016-02-20T08:56:44Z</time>
      </trkpt>
      <trkpt lat="44.21196" lon="0.52193">
        <ele>49.8</ele>
        <time>2016-02-20T08:56:50Z</time>
      </trkpt>
      <trkpt lat="44.21206" lon="0.52138">
        <ele>49.8</ele>
        <time>2016-02-20T08:56:59Z</time>
      </trkpt>
      <trkpt lat="44.21213" lon="0.52087">
        <ele>49.8</ele>
        <time>2016-02-20T08:57:07Z</time>
      </trkpt>
      <trkpt lat="44.2122" lon="0.52045">
        <ele>50</ele>
        <time>2016-02-20T08:57:14Z</time>
      </trkpt>
      <trkpt lat="44.21227" lon="0.52002">
        <ele>50.2</ele>
        <time>2016-02-20T08:57:21Z</time>
      </trkpt>
      <trkpt lat="44.21238" lon="0.51945">
        <ele>50.2</ele>
        <time>2016-02-20T08:57:30Z</time>
      </trkpt>
      <trkpt lat="44.21243" lon="0.51904">
        <ele>50.2</ele>
        <time>2016-02-20T08:57:36Z</time>
      </trkpt>
      <trkpt lat="44.21251" lon="0.51857">
        <ele>50</ele>
        <time>2016-02-20T08:57:43Z</time>
      </trkpt>
      <trkpt lat="44.21261" lon="0.51798">
        <ele>50</ele>
        <time>2016-02-20T08:57:52Z</time>
      </trkpt>
      <trkpt lat="44.21268" lon="0.51758">
        <ele>50</ele>
        <time>2016-02-20T08:57:58Z</time>
      </trkpt>
      <trkpt lat="44.21277" lon="0.51702">
        <ele>50</ele>
        <time>2016-02-20T08:58:06Z</time>
      </trkpt>
      <trkpt lat="44.21286" lon="0.51653">
        <ele>49.8</ele>
        <time>2016-02-20T08:58:13Z</time>
      </trkpt>
      <trkpt lat="44.21293" lon="0.51603">
        <ele>49.2</ele>
        <time>2016-02-20T08:58:20Z</time>
      </trkpt>
      <trkpt lat="44.21302" lon="0.5155">
        <ele>49.2</ele>
        <time>2016-02-20T08:58:28Z</time>
      </trkpt>
      <trkpt lat="44.21314" lon="0.5149">
        <ele>49.6</ele>
        <time>2016-02-20T08:58:37Z</time>
      </trkpt>
      <trkpt lat="44.21322" lon="0.51448">
        <ele>49.8</ele>
        <time>2016-02-20T08:58:44Z</time>
      </trkpt>
      <trkpt lat="44.21324" lon="0.51435">
        <ele>48.8</ele>
        <time>2016-02-20T08:58:46Z</time>
      </trkpt>
      <trkpt lat="44.21332" lon="0.51387">
        <ele>49.2</ele>
        <time>2016-02-20T08:58:54Z</time>
      </trkpt>
      <trkpt lat="44.21343" lon="0.51325">
        <ele>49.4</ele>
        <time>2016-02-20T08:59:04Z</time>
      </trkpt>
      <trkpt lat="44.21347" lon="0.51303">
        <ele>49.8</ele>
        <time>2016-02-20T08:59:08Z</time>
      </trkpt>
      <trkpt lat="44.2135" lon="0.51289">
        <ele>49.8</ele>
        <time>2016-02-20T08:59:11Z</time>
      </trkpt>
      <trkpt lat="44.21358" lon="0.51261">
        <ele>49.4</ele>
        <time>2016-02-20T08:59:17Z</time>
      </trkpt>
      <trkpt lat="44.21365" lon="0.51223">
        <ele>49.2</ele>
        <time>2016-02-20T08:59:24Z</time>
      </trkpt>
      <trkpt lat="44.21373" lon="0.51166">
        <ele>49</ele>
        <time>2016-02-20T08:59:33Z</time>
      </trkpt>
      <trkpt lat="44.21382" lon="0.51116">
        <ele>49.2</ele>
        <time>2016-02-20T08:59:41Z</time>
      </trkpt>
      <trkpt lat="44.2139" lon="0.51064">
        <ele>49.2</ele>
        <time>2016-02-20T08:59:49Z</time>
      </trkpt>
      <trkpt lat="44.21399" lon="0.5101">
        <ele>49</ele>
        <time>2016-02-20T08:59:57Z</time>
      </trkpt>
      <trkpt lat="44.21409" lon="0.50956">
        <ele>49</ele>
        <time>2016-02-20T09:00:05Z</time>
      </trkpt>
      <trkpt lat="44.21417" lon="0.5091">
        <ele>48.8</ele>
        <time>2016-02-20T09:00:12Z</time>
      </trkpt>
      <trkpt lat="44.21419" lon="0.50896">
        <ele>48.8</ele>
        <time>2016-02-20T09:00:14Z</time>
      </trkpt>
      <trkpt lat="44.21427" lon="0.50843">
        <ele>48.8</ele>
        <time>2016-02-20T09:00:22Z</time>
      </trkpt>
      <trkpt lat="44.21437" lon="0.50781">
        <ele>48.6</ele>
        <time>2016-02-20T09:00:31Z</time>
      </trkpt>
      <trkpt lat="44.21446" lon="0.50727">
        <ele>48.6</ele>
        <time>2016-02-20T09:00:39Z</time>
      </trkpt>
      <trkpt lat="44.21456" lon="0.50666">
        <ele>48.4</ele>
        <time>2016-02-20T09:00:48Z</time>
      </trkpt>
      <trkpt lat="44.21466" lon="0.50612">
        <ele>48.2</ele>
        <time>2016-02-20T09:00:56Z</time>
      </trkpt>
      <trkpt lat="44.21475" lon="0.50558">
        <ele>48.2</ele>
        <time>2016-02-20T09:01:04Z</time>
      </trkpt>
      <trkpt lat="44.21479" lon="0.50531">
        <ele>48</ele>
        <time>2016-02-20T09:01:08Z</time>
      </trkpt>
      <trkpt lat="44.21482" lon="0.50517">
        <ele>48</ele>
        <time>2016-02-20T09:01:10Z</time>
      </trkpt>
      <trkpt lat="44.21483" lon="0.50511">
        <ele>47.6</ele>
        <time>2016-02-20T09:01:11Z</time>
      </trkpt>
      <trkpt lat="44.21496" lon="0.50443">
        <ele>47.8</ele>
        <time>2016-02-20T09:01:21Z</time>
      </trkpt>
      <trkpt lat="44.21506" lon="0.50388">
        <ele>47.8</ele>
        <time>2016-02-20T09:01:29Z</time>
      </trkpt>
      <trkpt lat="44.21515" lon="0.50341">
        <ele>47.8</ele>
        <time>2016-02-20T09:01:36Z</time>
      </trkpt>
      <trkpt lat="44.21527" lon="0.50266">
        <ele>47.8</ele>
        <time>2016-02-20T09:01:46Z</time>
      </trkpt>
      <trkpt lat="44.21537" lon="0.50208">
        <ele>48.2</ele>
        <time>2016-02-20T09:01:52Z</time>
      </trkpt>
      <trkpt lat="44.21548" lon="0.50145">
        <ele>47.8</ele>
        <time>2016-02-20T09:01:59Z</time>
      </trkpt>
      <trkpt lat="44.21557" lon="0.50089">
        <ele>47.4</ele>
        <time>2016-02-20T09:02:06Z</time>
      </trkpt>
      <trkpt lat="44.21566" lon="0.50042">
        <ele>47.6</ele>
        <time>2016-02-20T09:02:13Z</time>
      </trkpt>
      <trkpt lat="44.21566" lon="0.50036">
        <ele>47.6</ele>
        <time>2016-02-20T09:02:14Z</time>
      </trkpt>
      <trkpt lat="44.21577" lon="0.49981">
        <ele>47.8</ele>
        <time>2016-02-20T09:02:22Z</time>
      </trkpt>
      <trkpt lat="44.21585" lon="0.49932">
        <ele>47.8</ele>
        <time>2016-02-20T09:02:29Z</time>
      </trkpt>
      <trkpt lat="44.21597" lon="0.49869">
        <ele>47.4</ele>
        <time>2016-02-20T09:02:38Z</time>
      </trkpt>
      <trkpt lat="44.21607" lon="0.49805">
        <ele>47.6</ele>
        <time>2016-02-20T09:02:47Z</time>
      </trkpt>
      <trkpt lat="44.2162" lon="0.49738">
        <ele>47.4</ele>
        <time>2016-02-20T09:02:57Z</time>
      </trkpt>
      <trkpt lat="44.21631" lon="0.49669">
        <ele>47.4</ele>
        <time>2016-02-20T09:03:07Z</time>
      </trkpt>
      <trkpt lat="44.21637" lon="0.49636">
        <ele>47.4</ele>
        <time>2016-02-20T09:03:12Z</time>
      </trkpt>
      <trkpt lat="44.21641" lon="0.49618">
        <ele>47.4</ele>
        <time>2016-02-20T09:03:15Z</time>
      </trkpt>
      <trkpt lat="44.21645" lon="0.49597">
        <ele>48</ele>
        <time>2016-02-20T09:03:20Z</time>
      </trkpt>
      <trkpt lat="44.21651" lon="0.49569">
        <ele>47.4</ele>
        <time>2016-02-20T09:03:25Z</time>
      </trkpt>
      <trkpt lat="44.21658" lon="0.49524">
        <ele>47.4</ele>
        <time>2016-02-20T09:03:32Z</time>
      </trkpt>
      <trkpt lat="44.21667" lon="0.49462">
        <ele>47.2</ele>
        <time>2016-02-20T09:03:41Z</time>
      </trkpt>
      <trkpt lat="44.21669" lon="0.49455">
        <ele>47.2</ele>
        <time>2016-02-20T09:03:42Z</time>
      </trkpt>
      <trkpt lat="44.21681" lon="0.49386">
        <ele>46.8</ele>
        <time>2016-02-20T09:03:52Z</time>
      </trkpt>
      <trkpt lat="44.2169" lon="0.49331">
        <ele>46.8</ele>
        <time>2016-02-20T09:04:00Z</time>
      </trkpt>
      <trkpt lat="44.21699" lon="0.49279">
        <ele>47.2</ele>
        <time>2016-02-20T09:04:08Z</time>
      </trkpt>
      <trkpt lat="44.21709" lon="0.49225">
        <ele>47</ele>
        <time>2016-02-20T09:04:16Z</time>
      </trkpt>
      <trkpt lat="44.21721" lon="0.49162">
        <ele>47.2</ele>
        <time>2016-02-20T09:04:25Z</time>
      </trkpt>
      <trkpt lat="44.2173" lon="0.49107">
        <ele>47.2</ele>
        <time>2016-02-20T09:04:33Z</time>
      </trkpt>
      <trkpt lat="44.21741" lon="0.49042">
        <ele>47.4</ele>
        <time>2016-02-20T09:04:42Z</time>
      </trkpt>
      <trkpt lat="44.21753" lon="0.48971">
        <ele>47.2</ele>
        <time>2016-02-20T09:04:52Z</time>
      </trkpt>
      <trkpt lat="44.21763" lon="0.48905">
        <ele>47.4</ele>
        <time>2016-02-20T09:05:01Z</time>
      </trkpt>
      <trkpt lat="44.21775" lon="0.48829">
        <ele>47</ele>
        <time>2016-02-20T09:05:11Z</time>
      </trkpt>
      <trkpt lat="44.21783" lon="0.48769">
        <ele>47</ele>
        <time>2016-02-20T09:05:19Z</time>
      </trkpt>
      <trkpt lat="44.21792" lon="0.48699">
        <ele>46.8</ele>
        <time>2016-02-20T09:05:28Z</time>
      </trkpt>
      <trkpt lat="44.21799" lon="0.48638">
        <ele>46.6</ele>
        <time>2016-02-20T09:05:36Z</time>
      </trkpt>
      <trkpt lat="44.21805" lon="0.48598">
        <ele>47</ele>
        <time>2016-02-20T09:05:42Z</time>
      </trkpt>
      <trkpt lat="44.21806" lon="0.48592">
        <ele>47</ele>
        <time>2016-02-20T09:05:43Z</time>
      </trkpt>
      <trkpt lat="44.21811" lon="0.48551">
        <ele>47.2</ele>
        <time>2016-02-20T09:05:50Z</time>
      </trkpt>
      <trkpt lat="44.2182" lon="0.48521">
        <ele>47.4</ele>
        <time>2016-02-20T09:05:56Z</time>
      </trkpt>
      <trkpt lat="44.21827" lon="0.48505">
        <ele>47.4</ele>
        <time>2016-02-20T09:06:01Z</time>
      </trkpt>
      <trkpt lat="44.21843" lon="0.48486">
        <ele>46.2</ele>
        <time>2016-02-20T09:06:07Z</time>
      </trkpt>
      <trkpt lat="44.2185" lon="0.48475">
        <ele>45.8</ele>
        <time>2016-02-20T09:06:09Z</time>
      </trkpt>
      <trkpt lat="44.21856" lon="0.48462">
        <ele>45.6</ele>
        <time>2016-02-20T09:06:11Z</time>
      </trkpt>
      <trkpt lat="44.21858" lon="0.48455">
        <ele>45.2</ele>
        <time>2016-02-20T09:06:12Z</time>
      </trkpt>
      <trkpt lat="44.21861" lon="0.48432">
        <ele>45</ele>
        <time>2016-02-20T09:06:15Z</time>
      </trkpt>
      <trkpt lat="44.21866" lon="0.48359">
        <ele>45.8</ele>
        <time>2016-02-20T09:06:25Z</time>
      </trkpt>
      <trkpt lat="44.21868" lon="0.48307">
        <ele>46.2</ele>
        <time>2016-02-20T09:06:33Z</time>
      </trkpt>
      <trkpt lat="44.21867" lon="0.48294">
        <ele>46.2</ele>
        <time>2016-02-20T09:06:35Z</time>
      </trkpt>
      <trkpt lat="44.21859" lon="0.48276">
        <ele>45.8</ele>
        <time>2016-02-20T09:06:38Z</time>
      </trkpt>
      <trkpt lat="44.21844" lon="0.48246">
        <ele>46</ele>
        <time>2016-02-20T09:06:43Z</time>
      </trkpt>
      <trkpt lat="44.21841" lon="0.48232">
        <ele>45.6</ele>
        <time>2016-02-20T09:06:45Z</time>
      </trkpt>
      <trkpt lat="44.21843" lon="0.4821">
        <ele>45.8</ele>
        <time>2016-02-20T09:06:48Z</time>
      </trkpt>
      <trkpt lat="44.21843" lon="0.48201">
        <ele>45.6</ele>
        <time>2016-02-20T09:06:49Z</time>
      </trkpt>
      <trkpt lat="44.21845" lon="0.48156">
        <ele>45.2</ele>
        <time>2016-02-20T09:06:54Z</time>
      </trkpt>
      <trkpt lat="44.21845" lon="0.48146">
        <ele>45</ele>
        <time>2016-02-20T09:06:55Z</time>
      </trkpt>
      <trkpt lat="44.21847" lon="0.48073">
        <ele>45.4</ele>
        <time>2016-02-20T09:07:03Z</time>
      </trkpt>
      <trkpt lat="44.2185" lon="0.48004">
        <ele>45.4</ele>
        <time>2016-02-20T09:07:11Z</time>
      </trkpt>
      <trkpt lat="44.21851" lon="0.47934">
        <ele>44.2</ele>
        <time>2016-02-20T09:07:19Z</time>
      </trkpt>
      <trkpt lat="44.21851" lon="0.47871">
        <ele>44.4</ele>
        <time>2016-02-20T09:07:26Z</time>
      </trkpt>
      <trkpt lat="44.21851" lon="0.47862">
        <ele>44</ele>
        <time>2016-02-20T09:07:27Z</time>
      </trkpt>
      <trkpt lat="44.21849" lon="0.47802">
        <ele>45.4</ele>
        <time>2016-02-20T09:07:34Z</time>
      </trkpt>
      <trkpt lat="44.21845" lon="0.47773">
        <ele>46.4</ele>
        <time>2016-02-20T09:07:38Z</time>
      </trkpt>
      <trkpt lat="44.21845" lon="0.47759">
        <ele>46.8</ele>
        <time>2016-02-20T09:07:40Z</time>
      </trkpt>
      <trkpt lat="44.21847" lon="0.47743">
        <ele>46.6</ele>
        <time>2016-02-20T09:07:42Z</time>
      </trkpt>
      <trkpt lat="44.2185" lon="0.47717">
        <ele>46.4</ele>
        <time>2016-02-20T09:07:45Z</time>
      </trkpt>
      <trkpt lat="44.21851" lon="0.47686">
        <ele>45</ele>
        <time>2016-02-20T09:07:48Z</time>
      </trkpt>
      <trkpt lat="44.21852" lon="0.47663">
        <ele>44.2</ele>
        <time>2016-02-20T09:07:50Z</time>
      </trkpt>
      <trkpt lat="44.21852" lon="0.47651">
        <ele>44</ele>
        <time>2016-02-20T09:07:51Z</time>
      </trkpt>
      <trkpt lat="44.21851" lon="0.47628">
        <ele>43</ele>
        <time>2016-02-20T09:07:53Z</time>
      </trkpt>
      <trkpt lat="44.21849" lon="0.47594">
        <ele>42.8</ele>
        <time>2016-02-20T09:07:56Z</time>
      </trkpt>
      <trkpt lat="44.21846" lon="0.47512">
        <ele>43</ele>
        <time>2016-02-20T09:08:04Z</time>
      </trkpt>
      <trkpt lat="44.21842" lon="0.47457">
        <ele>42.6</ele>
        <time>2016-02-20T09:08:10Z</time>
      </trkpt>
      <trkpt lat="44.21838" lon="0.47388">
        <ele>43</ele>
        <time>2016-02-20T09:08:18Z</time>
      </trkpt>
      <trkpt lat="44.21837" lon="0.47341">
        <ele>43.2</ele>
        <time>2016-02-20T09:08:24Z</time>
      </trkpt>
      <trkpt lat="44.21835" lon="0.47288">
        <ele>43.4</ele>
        <time>2016-02-20T09:08:31Z</time>
      </trkpt>
      <trkpt lat="44.21832" lon="0.47214">
        <ele>43.2</ele>
        <time>2016-02-20T09:08:40Z</time>
      </trkpt>
      <trkpt lat="44.21828" lon="0.47148">
        <ele>43.2</ele>
        <time>2016-02-20T09:08:48Z</time>
      </trkpt>
      <trkpt lat="44.21826" lon="0.47083">
        <ele>43.4</ele>
        <time>2016-02-20T09:08:56Z</time>
      </trkpt>
      <trkpt lat="44.21822" lon="0.47023">
        <ele>43.4</ele>
        <time>2016-02-20T09:09:04Z</time>
      </trkpt>
      <trkpt lat="44.2182" lon="0.46976">
        <ele>43.4</ele>
        <time>2016-02-20T09:09:10Z</time>
      </trkpt>
      <trkpt lat="44.21819" lon="0.46921">
        <ele>43.4</ele>
        <time>2016-02-20T09:09:17Z</time>
      </trkpt>
      <trkpt lat="44.21816" lon="0.46849">
        <ele>43.4</ele>
        <time>2016-02-20T09:09:26Z</time>
      </trkpt>
      <trkpt lat="44.21813" lon="0.46809">
        <ele>44.2</ele>
        <time>2016-02-20T09:09:31Z</time>
      </trkpt>
      <trkpt lat="44.21811" lon="0.46779">
        <ele>44.2</ele>
        <time>2016-02-20T09:09:35Z</time>
      </trkpt>
      <trkpt lat="44.21809" lon="0.46749">
        <ele>45.2</ele>
        <time>2016-02-20T09:09:39Z</time>
      </trkpt>
      <trkpt lat="44.21807" lon="0.46735">
        <ele>44.8</ele>
        <time>2016-02-20T09:09:41Z</time>
      </trkpt>
      <trkpt lat="44.21806" lon="0.46704">
        <ele>45.6</ele>
        <time>2016-02-20T09:09:46Z</time>
      </trkpt>
      <trkpt lat="44.21804" lon="0.46674">
        <ele>46.4</ele>
        <time>2016-02-20T09:09:51Z</time>
      </trkpt>
      <trkpt lat="44.21802" lon="0.46655">
        <ele>46.8</ele>
        <time>2016-02-20T09:09:54Z</time>
      </trkpt>
      <trkpt lat="44.21798" lon="0.46606">
        <ele>47.4</ele>
        <time>2016-02-20T09:10:01Z</time>
      </trkpt>
      <trkpt lat="44.21797" lon="0.46592">
        <ele>47.6</ele>
        <time>2016-02-20T09:10:03Z</time>
      </trkpt>
      <trkpt lat="44.21795" lon="0.46552">
        <ele>47.8</ele>
        <time>2016-02-20T09:10:09Z</time>
      </trkpt>
      <trkpt lat="44.21793" lon="0.46486">
        <ele>47.6</ele>
        <time>2016-02-20T09:10:18Z</time>
      </trkpt>
      <trkpt lat="44.2179" lon="0.46427">
        <ele>46.6</ele>
        <time>2016-02-20T09:10:25Z</time>
      </trkpt>
      <trkpt lat="44.21789" lon="0.46419">
        <ele>46.6</ele>
        <time>2016-02-20T09:10:26Z</time>
      </trkpt>
      <trkpt lat="44.21786" lon="0.46344">
        <ele>46.8</ele>
        <time>2016-02-20T09:10:35Z</time>
      </trkpt>
      <trkpt lat="44.21783" lon="0.46279">
        <ele>46.4</ele>
        <time>2016-02-20T09:10:43Z</time>
      </trkpt>
      <trkpt lat="44.2178" lon="0.46212">
        <ele>46.8</ele>
        <time>2016-02-20T09:10:51Z</time>
      </trkpt>
      <trkpt lat="44.21776" lon="0.46132">
        <ele>46.6</ele>
        <time>2016-02-20T09:11:00Z</time>
      </trkpt>
      <trkpt lat="44.21772" lon="0.46064">
        <ele>47.2</ele>
        <time>2016-02-20T09:11:08Z</time>
      </trkpt>
      <trkpt lat="44.2177" lon="0.46051">
        <ele>47.6</ele>
        <time>2016-02-20T09:11:10Z</time>
      </trkpt>
      <trkpt lat="44.2177" lon="0.46034">
        <ele>48.2</ele>
        <time>2016-02-20T09:11:13Z</time>
      </trkpt>
      <trkpt lat="44.2177" lon="0.46024">
        <ele>48.6</ele>
        <time>2016-02-20T09:11:16Z</time>
      </trkpt>
      <trkpt lat="44.2177" lon="0.46021">
        <ele>48.8</ele>
        <time>2016-02-20T09:11:17Z</time>
      </trkpt>
      <trkpt lat="44.21768" lon="0.45996">
        <ele>48.2</ele>
        <time>2016-02-20T09:11:23Z</time>
      </trkpt>
      <trkpt lat="44.21767" lon="0.45978">
        <ele>47.8</ele>
        <time>2016-02-20T09:11:26Z</time>
      </trkpt>
      <trkpt lat="44.21767" lon="0.45972">
        <ele>47.4</ele>
        <time>2016-02-20T09:11:27Z</time>
      </trkpt>
      <trkpt lat="44.21767" lon="0.45959">
        <ele>47.6</ele>
        <time>2016-02-20T09:11:29Z</time>
      </trkpt>
      <trkpt lat="44.21764" lon="0.45912">
        <ele>47.2</ele>
        <time>2016-02-20T09:11:36Z</time>
      </trkpt>
      <trkpt lat="44.21764" lon="0.45905">
        <ele>46.8</ele>
        <time>2016-02-20T09:11:37Z</time>
      </trkpt>
      <trkpt lat="44.21763" lon="0.45889">
        <ele>46.8</ele>
        <time>2016-02-20T09:11:39Z</time>
      </trkpt>
      <trkpt lat="44.21762" lon="0.45875">
        <ele>46.4</ele>
        <time>2016-02-20T09:11:41Z</time>
      </trkpt>
      <trkpt lat="44.21761" lon="0.45829">
        <ele>46.2</ele>
        <time>2016-02-20T09:11:48Z</time>
      </trkpt>
      <trkpt lat="44.21759" lon="0.45817">
        <ele>46</ele>
        <time>2016-02-20T09:11:50Z</time>
      </trkpt>
      <trkpt lat="44.2176" lon="0.45801">
        <ele>46.2</ele>
        <time>2016-02-20T09:11:53Z</time>
      </trkpt>
      <trkpt lat="44.21757" lon="0.45777">
        <ele>46.2</ele>
        <time>2016-02-20T09:11:58Z</time>
      </trkpt>
      <trkpt lat="44.21756" lon="0.45756">
        <ele>46.4</ele>
        <time>2016-02-20T09:12:03Z</time>
      </trkpt>
      <trkpt lat="44.21756" lon="0.45742">
        <ele>46.2</ele>
        <time>2016-02-20T09:12:07Z</time>
      </trkpt>
      <trkpt lat="44.21755" lon="0.45723">
        <ele>46</ele>
        <time>2016-02-20T09:12:13Z</time>
      </trkpt>
      <trkpt lat="44.21755" lon="0.45706">
        <ele>46</ele>
        <time>2016-02-20T09:12:20Z</time>
      </trkpt>
      <trkpt lat="44.21754" lon="0.45691">
        <ele>45.8</ele>
        <time>2016-02-20T09:12:28Z</time>
      </trkpt>
      <trkpt lat="44.21755" lon="0.45682">
        <ele>45.8</ele>
        <time>2016-02-20T09:12:34Z</time>
      </trkpt>
      <trkpt lat="44.21754" lon="0.4567">
        <ele>45.4</ele>
        <time>2016-02-20T09:13:21Z</time>
      </trkpt>
      <trkpt lat="44.21755" lon="0.45661">
        <ele>45.4</ele>
        <time>2016-02-20T09:13:23Z</time>
      </trkpt>
      <trkpt lat="44.21755" lon="0.45645">
        <ele>45.2</ele>
        <time>2016-02-20T09:13:26Z</time>
      </trkpt>
      <trkpt lat="44.21754" lon="0.45633">
        <ele>45.2</ele>
        <time>2016-02-20T09:13:28Z</time>
      </trkpt>
      <trkpt lat="44.21751" lon="0.45592">
        <ele>45.2</ele>
        <time>2016-02-20T09:13:34Z</time>
      </trkpt>
      <trkpt lat="44.2175" lon="0.45535">
        <ele>45.4</ele>
        <time>2016-02-20T09:13:41Z</time>
      </trkpt>
      <trkpt lat="44.21749" lon="0.45481">
        <ele>45</ele>
        <time>2016-02-20T09:13:47Z</time>
      </trkpt>
      <trkpt lat="44.21749" lon="0.45471">
        <ele>45.2</ele>
        <time>2016-02-20T09:13:48Z</time>
      </trkpt>
      <trkpt lat="44.21748" lon="0.45442">
        <ele>45.2</ele>
        <time>2016-02-20T09:13:51Z</time>
      </trkpt>
      <trkpt lat="44.21747" lon="0.45422">
        <ele>45</ele>
        <time>2016-02-20T09:13:53Z</time>
      </trkpt>
      <trkpt lat="44.21745" lon="0.4536">
        <ele>45.4</ele>
        <time>2016-02-20T09:13:59Z</time>
      </trkpt>
      <trkpt lat="44.21744" lon="0.45302">
        <ele>45.2</ele>
        <time>2016-02-20T09:14:05Z</time>
      </trkpt>
      <trkpt lat="44.21744" lon="0.45222">
        <ele>45.2</ele>
        <time>2016-02-20T09:14:13Z</time>
      </trkpt>
      <trkpt lat="44.21744" lon="0.4516">
        <ele>44</ele>
        <time>2016-02-20T09:14:19Z</time>
      </trkpt>
      <trkpt lat="44.21744" lon="0.45149">
        <ele>44</ele>
        <time>2016-02-20T09:14:20Z</time>
      </trkpt>
      <trkpt lat="44.21745" lon="0.45072">
        <ele>43.4</ele>
        <time>2016-02-20T09:14:27Z</time>
      </trkpt>
      <trkpt lat="44.21745" lon="0.45061">
        <ele>43.2</ele>
        <time>2016-02-20T09:14:28Z</time>
      </trkpt>
      <trkpt lat="44.21744" lon="0.45007">
        <ele>42.4</ele>
        <time>2016-02-20T09:14:33Z</time>
      </trkpt>
      <trkpt lat="44.21745" lon="0.44976">
        <ele>44</ele>
        <time>2016-02-20T09:14:36Z</time>
      </trkpt>
      <trkpt lat="44.21745" lon="0.44946">
        <ele>42.8</ele>
        <time>2016-02-20T09:14:39Z</time>
      </trkpt>
      <trkpt lat="44.21744" lon="0.44915">
        <ele>43.6</ele>
        <time>2016-02-20T09:14:42Z</time>
      </trkpt>
      <trkpt lat="44.21745" lon="0.44897">
        <ele>44</ele>
        <time>2016-02-20T09:14:44Z</time>
      </trkpt>
      <trkpt lat="44.21745" lon="0.44858">
        <ele>44</ele>
        <time>2016-02-20T09:14:48Z</time>
      </trkpt>
      <trkpt lat="44.21746" lon="0.44801">
        <ele>43.6</ele>
        <time>2016-02-20T09:14:54Z</time>
      </trkpt>
      <trkpt lat="44.21747" lon="0.44738">
        <ele>44</ele>
        <time>2016-02-20T09:15:01Z</time>
      </trkpt>
      <trkpt lat="44.21748" lon="0.4473">
        <ele>44.2</ele>
        <time>2016-02-20T09:15:02Z</time>
      </trkpt>
      <trkpt lat="44.21749" lon="0.44696">
        <ele>44</ele>
        <time>2016-02-20T09:15:06Z</time>
      </trkpt>
      <trkpt lat="44.21751" lon="0.4462">
        <ele>44.6</ele>
        <time>2016-02-20T09:15:15Z</time>
      </trkpt>
      <trkpt lat="44.21753" lon="0.44563">
        <ele>44.4</ele>
        <time>2016-02-20T09:15:22Z</time>
      </trkpt>
      <trkpt lat="44.21755" lon="0.44515">
        <ele>43.8</ele>
        <time>2016-02-20T09:15:28Z</time>
      </trkpt>
      <trkpt lat="44.21757" lon="0.44455">
        <ele>44.2</ele>
        <time>2016-02-20T09:15:36Z</time>
      </trkpt>
      <trkpt lat="44.21759" lon="0.44392">
        <ele>44.4</ele>
        <time>2016-02-20T09:15:45Z</time>
      </trkpt>
      <trkpt lat="44.2176" lon="0.44368">
        <ele>45</ele>
        <time>2016-02-20T09:15:50Z</time>
      </trkpt>
      <trkpt lat="44.21759" lon="0.44345">
        <ele>46</ele>
        <time>2016-02-20T09:15:56Z</time>
      </trkpt>
      <trkpt lat="44.21759" lon="0.44342">
        <ele>46.2</ele>
        <time>2016-02-20T09:15:57Z</time>
      </trkpt>
      <trkpt lat="44.21762" lon="0.44324">
        <ele>47.4</ele>
        <time>2016-02-20T09:16:03Z</time>
      </trkpt>
      <trkpt lat="44.2176" lon="0.44319">
        <ele>47.8</ele>
        <time>2016-02-20T09:16:05Z</time>
      </trkpt>
      <trkpt lat="44.21758" lon="0.44316">
        <ele>48</ele>
        <time>2016-02-20T09:16:07Z</time>
      </trkpt>
      <trkpt lat="44.21754" lon="0.44313">
        <ele>48.4</ele>
        <time>2016-02-20T09:16:10Z</time>
      </trkpt>
      <trkpt lat="44.21747" lon="0.44314">
        <ele>48.8</ele>
        <time>2016-02-20T09:16:13Z</time>
      </trkpt>
      <trkpt lat="44.21738" lon="0.44314">
        <ele>49</ele>
        <time>2016-02-20T09:16:17Z</time>
      </trkpt>
      <trkpt lat="44.21732" lon="0.44314">
        <ele>49.2</ele>
        <time>2016-02-20T09:16:19Z</time>
      </trkpt>
      <trkpt lat="44.21724" lon="0.44312">
        <ele>48.8</ele>
        <time>2016-02-20T09:16:23Z</time>
      </trkpt>
      <trkpt lat="44.21724" lon="0.44311">
        <ele>48.6</ele>
        <time>2016-02-20T09:16:25Z</time>
      </trkpt>
      <trkpt lat="44.21724" lon="0.4431">
        <ele>48.2</ele>
        <time>2016-02-20T09:16:31Z</time>
      </trkpt>
      <trkpt lat="44.21725" lon="0.44299">
        <ele>47.6</ele>
        <time>2016-02-20T09:16:33Z</time>
      </trkpt>
      <trkpt lat="44.21727" lon="0.44292">
        <ele>47</ele>
        <time>2016-02-20T09:16:34Z</time>
      </trkpt>
      <trkpt lat="44.2173" lon="0.44268">
        <ele>46.2</ele>
        <time>2016-02-20T09:16:37Z</time>
      </trkpt>
      <trkpt lat="44.21733" lon="0.44227">
        <ele>45.8</ele>
        <time>2016-02-20T09:16:42Z</time>
      </trkpt>
      <trkpt lat="44.21733" lon="0.44219">
        <ele>45.8</ele>
        <time>2016-02-20T09:16:43Z</time>
      </trkpt>
      <trkpt lat="44.21735" lon="0.44144">
        <ele>46.2</ele>
        <time>2016-02-20T09:16:52Z</time>
      </trkpt>
      <trkpt lat="44.21737" lon="0.44078">
        <ele>45.8</ele>
        <time>2016-02-20T09:17:00Z</time>
      </trkpt>
      <trkpt lat="44.2174" lon="0.44002">
        <ele>45.8</ele>
        <time>2016-02-20T09:17:09Z</time>
      </trkpt>
      <trkpt lat="44.21742" lon="0.43954">
        <ele>45.8</ele>
        <time>2016-02-20T09:17:15Z</time>
      </trkpt>
      <trkpt lat="44.21744" lon="0.43894">
        <ele>46</ele>
        <time>2016-02-20T09:17:23Z</time>
      </trkpt>
      <trkpt lat="44.21745" lon="0.43871">
        <ele>46.8</ele>
        <time>2016-02-20T09:17:26Z</time>
      </trkpt>
      <trkpt lat="44.21746" lon="0.43863">
        <ele>48</ele>
        <time>2016-02-20T09:17:27Z</time>
      </trkpt>
      <trkpt lat="44.21746" lon="0.43847">
        <ele>45.4</ele>
        <time>2016-02-20T09:17:29Z</time>
      </trkpt>
      <trkpt lat="44.21746" lon="0.43831">
        <ele>47.4</ele>
        <time>2016-02-20T09:17:31Z</time>
      </trkpt>
      <trkpt lat="44.21747" lon="0.43823">
        <ele>45.4</ele>
        <time>2016-02-20T09:17:32Z</time>
      </trkpt>
      <trkpt lat="44.21749" lon="0.4376">
        <ele>47.4</ele>
        <time>2016-02-20T09:17:40Z</time>
      </trkpt>
      <trkpt lat="44.21749" lon="0.43751">
        <ele>48.6</ele>
        <time>2016-02-20T09:17:41Z</time>
      </trkpt>
      <trkpt lat="44.21751" lon="0.43736">
        <ele>47.2</ele>
        <time>2016-02-20T09:17:43Z</time>
      </trkpt>
      <trkpt lat="44.2175" lon="0.43728">
        <ele>46.2</ele>
        <time>2016-02-20T09:17:44Z</time>
      </trkpt>
      <trkpt lat="44.21751" lon="0.43703">
        <ele>45.8</ele>
        <time>2016-02-20T09:17:47Z</time>
      </trkpt>
      <trkpt lat="44.21754" lon="0.4364">
        <ele>45.8</ele>
        <time>2016-02-20T09:17:55Z</time>
      </trkpt>
      <trkpt lat="44.21756" lon="0.43587">
        <ele>45.6</ele>
        <time>2016-02-20T09:18:02Z</time>
      </trkpt>
      <trkpt lat="44.21759" lon="0.43536">
        <ele>45.6</ele>
        <time>2016-02-20T09:18:09Z</time>
      </trkpt>
      <trkpt lat="44.21761" lon="0.43498">
        <ele>45.4</ele>
        <time>2016-02-20T09:18:15Z</time>
      </trkpt>
      <trkpt lat="44.21761" lon="0.43491">
        <ele>45.6</ele>
        <time>2016-02-20T09:18:19Z</time>
      </trkpt>
      <trkpt lat="44.21759" lon="0.4348">
        <ele>45.4</ele>
        <time>2016-02-20T09:19:43Z</time>
      </trkpt>
      <trkpt lat="44.21758" lon="0.43478">
        <ele>45.4</ele>
        <time>2016-02-20T09:19:45Z</time>
      </trkpt>
      <trkpt lat="44.21758" lon="0.43482">
        <ele>45.6</ele>
        <time>2016-02-20T09:21:34Z</time>
      </trkpt>
      <trkpt lat="44.21759" lon="0.43501">
        <ele>45.6</ele>
        <time>2016-02-20T09:21:40Z</time>
      </trkpt>
      <trkpt lat="44.21758" lon="0.43529">
        <ele>45.2</ele>
        <time>2016-02-20T09:21:46Z</time>
      </trkpt>
      <trkpt lat="44.21756" lon="0.43569">
        <ele>45.4</ele>
        <time>2016-02-20T09:21:53Z</time>
      </trkpt>
      <trkpt lat="44.21754" lon="0.43606">
        <ele>45.6</ele>
        <time>2016-02-20T09:22:00Z</time>
      </trkpt>
      <trkpt lat="44.21753" lon="0.43621">
        <ele>45.4</ele>
        <time>2016-02-20T09:22:05Z</time>
      </trkpt>
      <trkpt lat="44.21754" lon="0.43617">
        <ele>45.4</ele>
        <time>2016-02-20T09:25:09Z</time>
      </trkpt>
      <trkpt lat="44.21754" lon="0.43614">
        <ele>45.4</ele>
        <time>2016-02-20T09:25:10Z</time>
      </trkpt>
      <trkpt lat="44.21755" lon="0.43596">
        <ele>45.4</ele>
        <time>2016-02-20T09:25:15Z</time>
      </trkpt>
      <trkpt lat="44.21756" lon="0.4357">
        <ele>45</ele>
        <time>2016-02-20T09:25:20Z</time>
      </trkpt>
      <trkpt lat="44.21757" lon="0.43538">
        <ele>45.2</ele>
        <time>2016-02-20T09:25:26Z</time>
      </trkpt>
      <trkpt lat="44.21759" lon="0.43495">
        <ele>45.4</ele>
        <time>2016-02-20T09:25:33Z</time>
      </trkpt>
      <trkpt lat="44.2176" lon="0.43449">
        <ele>45.4</ele>
        <time>2016-02-20T09:25:39Z</time>
      </trkpt>
      <trkpt lat="44.21762" lon="0.43408">
        <ele>45.4</ele>
        <time>2016-02-20T09:25:45Z</time>
      </trkpt>
      <trkpt lat="44.21764" lon="0.43363">
        <ele>45.2</ele>
        <time>2016-02-20T09:25:52Z</time>
      </trkpt>
      <trkpt lat="44.21765" lon="0.43333">
        <ele>45.2</ele>
        <time>2016-02-20T09:25:56Z</time>
      </trkpt>
      <trkpt lat="44.21765" lon="0.43318">
        <ele>45.4</ele>
        <time>2016-02-20T09:25:58Z</time>
      </trkpt>
      <trkpt lat="44.21766" lon="0.4328">
        <ele>45.4</ele>
        <time>2016-02-20T09:26:03Z</time>
      </trkpt>
      <trkpt lat="44.21766" lon="0.43272">
        <ele>45.2</ele>
        <time>2016-02-20T09:26:04Z</time>
      </trkpt>
      <trkpt lat="44.21766" lon="0.43263">
        <ele>45.4</ele>
        <time>2016-02-20T09:26:05Z</time>
      </trkpt>
      <trkpt lat="44.21768" lon="0.43227">
        <ele>45.6</ele>
        <time>2016-02-20T09:26:09Z</time>
      </trkpt>
      <trkpt lat="44.2177" lon="0.4316">
        <ele>45.4</ele>
        <time>2016-02-20T09:26:17Z</time>
      </trkpt>
      <trkpt lat="44.21773" lon="0.43095">
        <ele>45.6</ele>
        <time>2016-02-20T09:26:25Z</time>
      </trkpt>
      <trkpt lat="44.21773" lon="0.43087">
        <ele>45.4</ele>
        <time>2016-02-20T09:26:26Z</time>
      </trkpt>
      <trkpt lat="44.21775" lon="0.43032">
        <ele>45.2</ele>
        <time>2016-02-20T09:26:33Z</time>
      </trkpt>
      <trkpt lat="44.21777" lon="0.42969">
        <ele>45.2</ele>
        <time>2016-02-20T09:26:41Z</time>
      </trkpt>
      <trkpt lat="44.21779" lon="0.42925">
        <ele>45</ele>
        <time>2016-02-20T09:26:47Z</time>
      </trkpt>
      <trkpt lat="44.2178" lon="0.42888">
        <ele>44.8</ele>
        <time>2016-02-20T09:26:53Z</time>
      </trkpt>
      <trkpt lat="44.21782" lon="0.42835">
        <ele>44.8</ele>
        <time>2016-02-20T09:27:00Z</time>
      </trkpt>
      <trkpt lat="44.21786" lon="0.42755">
        <ele>44.8</ele>
        <time>2016-02-20T09:27:10Z</time>
      </trkpt>
      <trkpt lat="44.21787" lon="0.42738">
        <ele>44.8</ele>
        <time>2016-02-20T09:27:12Z</time>
      </trkpt>
      <trkpt lat="44.2179" lon="0.42664">
        <ele>44.8</ele>
        <time>2016-02-20T09:27:21Z</time>
      </trkpt>
      <trkpt lat="44.21792" lon="0.4259">
        <ele>44.8</ele>
        <time>2016-02-20T09:27:30Z</time>
      </trkpt>
      <trkpt lat="44.21793" lon="0.42581">
        <ele>44.8</ele>
        <time>2016-02-20T09:27:31Z</time>
      </trkpt>
      <trkpt lat="44.21795" lon="0.42507">
        <ele>44.8</ele>
        <time>2016-02-20T09:27:40Z</time>
      </trkpt>
      <trkpt lat="44.21799" lon="0.42449">
        <ele>44.2</ele>
        <time>2016-02-20T09:27:47Z</time>
      </trkpt>
      <trkpt lat="44.21799" lon="0.42441">
        <ele>44.2</ele>
        <time>2016-02-20T09:27:48Z</time>
      </trkpt>
      <trkpt lat="44.218" lon="0.42409">
        <ele>44.4</ele>
        <time>2016-02-20T09:27:52Z</time>
      </trkpt>
      <trkpt lat="44.21801" lon="0.42363">
        <ele>44.6</ele>
        <time>2016-02-20T09:27:58Z</time>
      </trkpt>
      <trkpt lat="44.21804" lon="0.42295">
        <ele>44.4</ele>
        <time>2016-02-20T09:28:07Z</time>
      </trkpt>
      <trkpt lat="44.21807" lon="0.42239">
        <ele>44.4</ele>
        <time>2016-02-20T09:28:14Z</time>
      </trkpt>
      <trkpt lat="44.2181" lon="0.42163">
        <ele>44.4</ele>
        <time>2016-02-20T09:28:23Z</time>
      </trkpt>
      <trkpt lat="44.21813" lon="0.42086">
        <ele>44.4</ele>
        <time>2016-02-20T09:28:32Z</time>
      </trkpt>
      <trkpt lat="44.21813" lon="0.42069">
        <ele>44.2</ele>
        <time>2016-02-20T09:28:34Z</time>
      </trkpt>
      <trkpt lat="44.21815" lon="0.42034">
        <ele>44</ele>
        <time>2016-02-20T09:28:38Z</time>
      </trkpt>
      <trkpt lat="44.21817" lon="0.41976">
        <ele>44</ele>
        <time>2016-02-20T09:28:45Z</time>
      </trkpt>
      <trkpt lat="44.21819" lon="0.41894">
        <ele>43.8</ele>
        <time>2016-02-20T09:28:55Z</time>
      </trkpt>
      <trkpt lat="44.21822" lon="0.4182">
        <ele>43.8</ele>
        <time>2016-02-20T09:29:04Z</time>
      </trkpt>
      <trkpt lat="44.21825" lon="0.41755">
        <ele>44</ele>
        <time>2016-02-20T09:29:12Z</time>
      </trkpt>
      <trkpt lat="44.21827" lon="0.41701">
        <ele>44</ele>
        <time>2016-02-20T09:29:19Z</time>
      </trkpt>
      <trkpt lat="44.2183" lon="0.41622">
        <ele>44</ele>
        <time>2016-02-20T09:29:29Z</time>
      </trkpt>
      <trkpt lat="44.2183" lon="0.41614">
        <ele>44</ele>
        <time>2016-02-20T09:29:30Z</time>
      </trkpt>
      <trkpt lat="44.21833" lon="0.41532">
        <ele>43.6</ele>
        <time>2016-02-20T09:29:40Z</time>
      </trkpt>
      <trkpt lat="44.21836" lon="0.4145">
        <ele>44</ele>
        <time>2016-02-20T09:29:50Z</time>
      </trkpt>
      <trkpt lat="44.21839" lon="0.41369">
        <ele>43.8</ele>
        <time>2016-02-20T09:30:00Z</time>
      </trkpt>
      <trkpt lat="44.21839" lon="0.41353">
        <ele>43.8</ele>
        <time>2016-02-20T09:30:02Z</time>
      </trkpt>
      <trkpt lat="44.21842" lon="0.41289">
        <ele>43.8</ele>
        <time>2016-02-20T09:30:10Z</time>
      </trkpt>
      <trkpt lat="44.21843" lon="0.41281">
        <ele>43.6</ele>
        <time>2016-02-20T09:30:11Z</time>
      </trkpt>
      <trkpt lat="44.21845" lon="0.41216">
        <ele>44</ele>
        <time>2016-02-20T09:30:19Z</time>
      </trkpt>
      <trkpt lat="44.21848" lon="0.41133">
        <ele>43.8</ele>
        <time>2016-02-20T09:30:29Z</time>
      </trkpt>
      <trkpt lat="44.21851" lon="0.41059">
        <ele>43.8</ele>
        <time>2016-02-20T09:30:38Z</time>
      </trkpt>
      <trkpt lat="44.21851" lon="0.41042">
        <ele>44</ele>
        <time>2016-02-20T09:30:40Z</time>
      </trkpt>
      <trkpt lat="44.21855" lon="0.40967">
        <ele>44.2</ele>
        <time>2016-02-20T09:30:50Z</time>
      </trkpt>
      <trkpt lat="44.21855" lon="0.4096">
        <ele>44.2</ele>
        <time>2016-02-20T09:30:51Z</time>
      </trkpt>
      <trkpt lat="44.21854" lon="0.40947">
        <ele>45.2</ele>
        <time>2016-02-20T09:30:54Z</time>
      </trkpt>
      <trkpt lat="44.21854" lon="0.40943">
        <ele>45.6</ele>
        <time>2016-02-20T09:30:55Z</time>
      </trkpt>
      <trkpt lat="44.21854" lon="0.40941">
        <ele>46.2</ele>
        <time>2016-02-20T09:30:56Z</time>
      </trkpt>
      <trkpt lat="44.21854" lon="0.4094">
        <ele>46.4</ele>
        <time>2016-02-20T09:30:59Z</time>
      </trkpt>
      <trkpt lat="44.21846" lon="0.40937">
        <ele>46</ele>
        <time>2016-02-20T09:35:42Z</time>
      </trkpt>
      <trkpt lat="44.21843" lon="0.40937">
        <ele>45.8</ele>
        <time>2016-02-20T09:35:43Z</time>
      </trkpt>
      <trkpt lat="44.21825" lon="0.40936">
        <ele>45</ele>
        <time>2016-02-20T09:35:47Z</time>
      </trkpt>
      <trkpt lat="44.2182" lon="0.40935">
        <ele>44.6</ele>
        <time>2016-02-20T09:35:48Z</time>
      </trkpt>
      <trkpt lat="44.21795" lon="0.40933">
        <ele>42.8</ele>
        <time>2016-02-20T09:35:52Z</time>
      </trkpt>
      <trkpt lat="44.21782" lon="0.40931">
        <ele>43</ele>
        <time>2016-02-20T09:35:54Z</time>
      </trkpt>
      <trkpt lat="44.21737" lon="0.40927">
        <ele>42.4</ele>
        <time>2016-02-20T09:36:01Z</time>
      </trkpt>
      <trkpt lat="44.21709" lon="0.40925">
        <ele>42.6</ele>
        <time>2016-02-20T09:36:06Z</time>
      </trkpt>
      <trkpt lat="44.21662" lon="0.40923">
        <ele>42.6</ele>
        <time>2016-02-20T09:36:15Z</time>
      </trkpt>
      <trkpt lat="44.21616" lon="0.40919">
        <ele>42.4</ele>
        <time>2016-02-20T09:36:24Z</time>
      </trkpt>
      <trkpt lat="44.21591" lon="0.40916">
        <ele>42.6</ele>
        <time>2016-02-20T09:36:28Z</time>
      </trkpt>
      <trkpt lat="44.21585" lon="0.40916">
        <ele>42.6</ele>
        <time>2016-02-20T09:36:29Z</time>
      </trkpt>
      <trkpt lat="44.21549" lon="0.40912">
        <ele>42.4</ele>
        <time>2016-02-20T09:36:36Z</time>
      </trkpt>
      <trkpt lat="44.21544" lon="0.40911">
        <ele>42.2</ele>
        <time>2016-02-20T09:36:42Z</time>
      </trkpt>
      <trkpt lat="44.21538" lon="0.40912">
        <ele>42.2</ele>
        <time>2016-02-20T09:36:52Z</time>
      </trkpt>
      <trkpt lat="44.21533" lon="0.40911">
        <ele>42.2</ele>
        <time>2016-02-20T09:36:54Z</time>
      </trkpt>
      <trkpt lat="44.21513" lon="0.40905">
        <ele>42.4</ele>
        <time>2016-02-20T09:36:59Z</time>
      </trkpt>
      <trkpt lat="44.2148" lon="0.40898">
        <ele>43.4</ele>
        <time>2016-02-20T09:37:07Z</time>
      </trkpt>
      <trkpt lat="44.21466" lon="0.40893">
        <ele>44</ele>
        <time>2016-02-20T09:37:10Z</time>
      </trkpt>
      <trkpt lat="44.21451" lon="0.4089">
        <ele>44.8</ele>
        <time>2016-02-20T09:37:13Z</time>
      </trkpt>
      <trkpt lat="44.21447" lon="0.40889">
        <ele>45</ele>
        <time>2016-02-20T09:37:14Z</time>
      </trkpt>
      <trkpt lat="44.21422" lon="0.40882">
        <ele>46.4</ele>
        <time>2016-02-20T09:37:20Z</time>
      </trkpt>
      <trkpt lat="44.21418" lon="0.40881">
        <ele>46.8</ele>
        <time>2016-02-20T09:37:21Z</time>
      </trkpt>
      <trkpt lat="44.21406" lon="0.40879">
        <ele>47.4</ele>
        <time>2016-02-20T09:37:24Z</time>
      </trkpt>
      <trkpt lat="44.21386" lon="0.40876">
        <ele>48.6</ele>
        <time>2016-02-20T09:37:29Z</time>
      </trkpt>
      <trkpt lat="44.21363" lon="0.40876">
        <ele>49.8</ele>
        <time>2016-02-20T09:37:35Z</time>
      </trkpt>
      <trkpt lat="44.21355" lon="0.40876">
        <ele>50.2</ele>
        <time>2016-02-20T09:37:37Z</time>
      </trkpt>
      <trkpt lat="44.2133" lon="0.40882">
        <ele>50.8</ele>
        <time>2016-02-20T09:37:43Z</time>
      </trkpt>
      <trkpt lat="44.21322" lon="0.40884">
        <ele>51.2</ele>
        <time>2016-02-20T09:37:45Z</time>
      </trkpt>
      <trkpt lat="44.21293" lon="0.40891">
        <ele>51.8</ele>
        <time>2016-02-20T09:37:52Z</time>
      </trkpt>
      <trkpt lat="44.21285" lon="0.40894">
        <ele>51.8</ele>
        <time>2016-02-20T09:37:54Z</time>
      </trkpt>
      <trkpt lat="44.21268" lon="0.40898">
        <ele>51.8</ele>
        <time>2016-02-20T09:37:58Z</time>
      </trkpt>
      <trkpt lat="44.21251" lon="0.40901">
        <ele>51.8</ele>
        <time>2016-02-20T09:38:02Z</time>
      </trkpt>
      <trkpt lat="44.21212" lon="0.4091">
        <ele>51.2</ele>
        <time>2016-02-20T09:38:10Z</time>
      </trkpt>
      <trkpt lat="44.21201" lon="0.40913">
        <ele>50.6</ele>
        <time>2016-02-20T09:38:12Z</time>
      </trkpt>
      <trkpt lat="44.21165" lon="0.40924">
        <ele>49.6</ele>
        <time>2016-02-20T09:38:18Z</time>
      </trkpt>
      <trkpt lat="44.21152" lon="0.4093">
        <ele>48.2</ele>
        <time>2016-02-20T09:38:20Z</time>
      </trkpt>
      <trkpt lat="44.21122" lon="0.40944">
        <ele>47</ele>
        <time>2016-02-20T09:38:24Z</time>
      </trkpt>
      <trkpt lat="44.21099" lon="0.40955">
        <ele>45.8</ele>
        <time>2016-02-20T09:38:27Z</time>
      </trkpt>
      <trkpt lat="44.21084" lon="0.40962">
        <ele>44.8</ele>
        <time>2016-02-20T09:38:29Z</time>
      </trkpt>
      <trkpt lat="44.21054" lon="0.40975">
        <ele>44</ele>
        <time>2016-02-20T09:38:33Z</time>
      </trkpt>
      <trkpt lat="44.21039" lon="0.4098">
        <ele>43.6</ele>
        <time>2016-02-20T09:38:35Z</time>
      </trkpt>
      <trkpt lat="44.21012" lon="0.40988">
        <ele>43.6</ele>
        <time>2016-02-20T09:38:39Z</time>
      </trkpt>
      <trkpt lat="44.20967" lon="0.40998">
        <ele>44.2</ele>
        <time>2016-02-20T09:38:46Z</time>
      </trkpt>
      <trkpt lat="44.20912" lon="0.41009">
        <ele>44</ele>
        <time>2016-02-20T09:38:55Z</time>
      </trkpt>
      <trkpt lat="44.20862" lon="0.41018">
        <ele>44</ele>
        <time>2016-02-20T09:39:04Z</time>
      </trkpt>
      <trkpt lat="44.2082" lon="0.41027">
        <ele>44.4</ele>
        <time>2016-02-20T09:39:12Z</time>
      </trkpt>
      <trkpt lat="44.2081" lon="0.41029">
        <ele>44.8</ele>
        <time>2016-02-20T09:39:14Z</time>
      </trkpt>
      <trkpt lat="44.20774" lon="0.41037">
        <ele>44.8</ele>
        <time>2016-02-20T09:39:21Z</time>
      </trkpt>
      <trkpt lat="44.20734" lon="0.41044">
        <ele>44.8</ele>
        <time>2016-02-20T09:39:29Z</time>
      </trkpt>
      <trkpt lat="44.20706" lon="0.41051">
        <ele>45.2</ele>
        <time>2016-02-20T09:39:35Z</time>
      </trkpt>
      <trkpt lat="44.20694" lon="0.41052">
        <ele>45.4</ele>
        <time>2016-02-20T09:39:38Z</time>
      </trkpt>
      <trkpt lat="44.20682" lon="0.4105">
        <ele>45.2</ele>
        <time>2016-02-20T09:39:41Z</time>
      </trkpt>
      <trkpt lat="44.20676" lon="0.41045">
        <ele>45.2</ele>
        <time>2016-02-20T09:39:43Z</time>
      </trkpt>
      <trkpt lat="44.2067" lon="0.41044">
        <ele>45.6</ele>
        <time>2016-02-20T09:39:45Z</time>
      </trkpt>
      <trkpt lat="44.2066" lon="0.41049">
        <ele>45.8</ele>
        <time>2016-02-20T09:39:48Z</time>
      </trkpt>
      <trkpt lat="44.20654" lon="0.41055">
        <ele>45.8</ele>
        <time>2016-02-20T09:39:50Z</time>
      </trkpt>
      <trkpt lat="44.20635" lon="0.41062">
        <ele>45.8</ele>
        <time>2016-02-20T09:39:55Z</time>
      </trkpt>
      <trkpt lat="44.20606" lon="0.41066">
        <ele>46.4</ele>
        <time>2016-02-20T09:40:03Z</time>
      </trkpt>
      <trkpt lat="44.20597" lon="0.4108">
        <ele>46.8</ele>
        <time>2016-02-20T09:40:07Z</time>
      </trkpt>
      <trkpt lat="44.20594" lon="0.41084">
        <ele>47</ele>
        <time>2016-02-20T09:40:08Z</time>
      </trkpt>
      <trkpt lat="44.20584" lon="0.41087">
        <ele>47.6</ele>
        <time>2016-02-20T09:40:11Z</time>
      </trkpt>
      <trkpt lat="44.20578" lon="0.41083">
        <ele>48</ele>
        <time>2016-02-20T09:40:13Z</time>
      </trkpt>
      <trkpt lat="44.20574" lon="0.41081">
        <ele>48.2</ele>
        <time>2016-02-20T09:40:14Z</time>
      </trkpt>
      <trkpt lat="44.20569" lon="0.41079">
        <ele>48.8</ele>
        <time>2016-02-20T09:40:16Z</time>
      </trkpt>
      <trkpt lat="44.20563" lon="0.41076">
        <ele>49.2</ele>
        <time>2016-02-20T09:40:18Z</time>
      </trkpt>
      <trkpt lat="44.2055" lon="0.41068">
        <ele>50.2</ele>
        <time>2016-02-20T09:40:23Z</time>
      </trkpt>
      <trkpt lat="44.20533" lon="0.41059">
        <ele>51.4</ele>
        <time>2016-02-20T09:40:29Z</time>
      </trkpt>
      <trkpt lat="44.20527" lon="0.41057">
        <ele>52</ele>
        <time>2016-02-20T09:40:31Z</time>
      </trkpt>
      <trkpt lat="44.20515" lon="0.41051">
        <ele>52.6</ele>
        <time>2016-02-20T09:40:35Z</time>
      </trkpt>
      <trkpt lat="44.205" lon="0.41044">
        <ele>53.8</ele>
        <time>2016-02-20T09:40:40Z</time>
      </trkpt>
      <trkpt lat="44.20483" lon="0.41039">
        <ele>54.6</ele>
        <time>2016-02-20T09:40:45Z</time>
      </trkpt>
      <trkpt lat="44.2048" lon="0.41038">
        <ele>54.8</ele>
        <time>2016-02-20T09:40:46Z</time>
      </trkpt>
      <trkpt lat="44.20477" lon="0.41038">
        <ele>55.2</ele>
        <time>2016-02-20T09:40:47Z</time>
      </trkpt>
      <trkpt lat="44.2046" lon="0.41048">
        <ele>55.8</ele>
        <time>2016-02-20T09:40:53Z</time>
      </trkpt>
      <trkpt lat="44.20458" lon="0.41051">
        <ele>56</ele>
        <time>2016-02-20T09:40:54Z</time>
      </trkpt>
      <trkpt lat="44.20449" lon="0.41065">
        <ele>56</ele>
        <time>2016-02-20T09:40:59Z</time>
      </trkpt>
      <trkpt lat="44.20438" lon="0.41078">
        <ele>56</ele>
        <time>2016-02-20T09:41:05Z</time>
      </trkpt>
      <trkpt lat="44.20427" lon="0.41089">
        <ele>56</ele>
        <time>2016-02-20T09:41:12Z</time>
      </trkpt>
      <trkpt lat="44.20423" lon="0.4109">
        <ele>56</ele>
        <time>2016-02-20T09:41:17Z</time>
      </trkpt>
      <trkpt lat="44.2042" lon="0.4109">
        <ele>55.8</ele>
        <time>2016-02-20T09:44:47Z</time>
      </trkpt>
      <trkpt lat="44.20418" lon="0.41091">
        <ele>55.8</ele>
        <time>2016-02-20T09:44:49Z</time>
      </trkpt>
      <trkpt lat="44.20416" lon="0.4109">
        <ele>55.8</ele>
        <time>2016-02-20T09:44:51Z</time>
      </trkpt>
      <trkpt lat="44.20414" lon="0.41091">
        <ele>55.8</ele>
        <time>2016-02-20T09:44:52Z</time>
      </trkpt>
      <trkpt lat="44.20414" lon="0.41093">
        <ele>55.6</ele>
        <time>2016-02-20T09:44:53Z</time>
      </trkpt>
      <trkpt lat="44.20419" lon="0.41102">
        <ele>55.6</ele>
        <time>2016-02-20T09:44:56Z</time>
      </trkpt>
      <trkpt lat="44.20421" lon="0.41111">
        <ele>55.6</ele>
        <time>2016-02-20T09:44:58Z</time>
      </trkpt>
      <trkpt lat="44.20424" lon="0.41122">
        <ele>55.4</ele>
        <time>2016-02-20T09:45:01Z</time>
      </trkpt>
      <trkpt lat="44.20426" lon="0.41124">
        <ele>55.2</ele>
        <time>2016-02-20T09:45:03Z</time>
      </trkpt>
      <trkpt lat="44.20428" lon="0.41123">
        <ele>55.2</ele>
        <time>2016-02-20T09:45:04Z</time>
      </trkpt>
      <trkpt lat="44.20427" lon="0.41113">
        <ele>55.6</ele>
        <time>2016-02-20T09:45:08Z</time>
      </trkpt>
      <trkpt lat="44.20421" lon="0.41099">
        <ele>55.8</ele>
        <time>2016-02-20T09:45:12Z</time>
      </trkpt>
      <trkpt lat="44.20419" lon="0.41095">
        <ele>55.8</ele>
        <time>2016-02-20T09:45:13Z</time>
      </trkpt>
      <trkpt lat="44.20412" lon="0.41087">
        <ele>55.8</ele>
        <time>2016-02-20T09:45:15Z</time>
      </trkpt>
      <trkpt lat="44.20404" lon="0.4108">
        <ele>55.8</ele>
        <time>2016-02-20T09:45:17Z</time>
      </trkpt>
      <trkpt lat="44.20398" lon="0.41072">
        <ele>55.8</ele>
        <time>2016-02-20T09:45:19Z</time>
      </trkpt>
      <trkpt lat="44.20388" lon="0.41059">
        <ele>55.6</ele>
        <time>2016-02-20T09:45:22Z</time>
      </trkpt>
      <trkpt lat="44.20367" lon="0.41025">
        <ele>56</ele>
        <time>2016-02-20T09:45:29Z</time>
      </trkpt>
      <trkpt lat="44.20359" lon="0.4101">
        <ele>56</ele>
        <time>2016-02-20T09:45:32Z</time>
      </trkpt>
      <trkpt lat="44.20336" lon="0.4096">
        <ele>56</ele>
        <time>2016-02-20T09:45:42Z</time>
      </trkpt>
      <trkpt lat="44.20325" lon="0.4094">
        <ele>56.4</ele>
        <time>2016-02-20T09:45:46Z</time>
      </trkpt>
      <trkpt lat="44.20312" lon="0.40916">
        <ele>56</ele>
        <time>2016-02-20T09:45:51Z</time>
      </trkpt>
      <trkpt lat="44.2029" lon="0.40881">
        <ele>55.8</ele>
        <time>2016-02-20T09:45:58Z</time>
      </trkpt>
      <trkpt lat="44.20256" lon="0.4083">
        <ele>55.2</ele>
        <time>2016-02-20T09:46:08Z</time>
      </trkpt>
      <trkpt lat="44.20242" lon="0.408">
        <ele>55.2</ele>
        <time>2016-02-20T09:46:13Z</time>
      </trkpt>
      <trkpt lat="44.20237" lon="0.40787">
        <ele>55.2</ele>
        <time>2016-02-20T09:46:15Z</time>
      </trkpt>
      <trkpt lat="44.20229" lon="0.4076">
        <ele>55.4</ele>
        <time>2016-02-20T09:46:19Z</time>
      </trkpt>
      <trkpt lat="44.20224" lon="0.4074">
        <ele>55.2</ele>
        <time>2016-02-20T09:46:22Z</time>
      </trkpt>
      <trkpt lat="44.20221" lon="0.4072">
        <ele>55.2</ele>
        <time>2016-02-20T09:46:25Z</time>
      </trkpt>
      <trkpt lat="44.20217" lon="0.40694">
        <ele>55.2</ele>
        <time>2016-02-20T09:46:29Z</time>
      </trkpt>
      <trkpt lat="44.2021" lon="0.40651">
        <ele>55.2</ele>
        <time>2016-02-20T09:46:35Z</time>
      </trkpt>
      <trkpt lat="44.20205" lon="0.40628">
        <ele>54.8</ele>
        <time>2016-02-20T09:46:38Z</time>
      </trkpt>
      <trkpt lat="44.20193" lon="0.40598">
        <ele>54.4</ele>
        <time>2016-02-20T09:46:42Z</time>
      </trkpt>
      <trkpt lat="44.20185" lon="0.40583">
        <ele>53.8</ele>
        <time>2016-02-20T09:46:44Z</time>
      </trkpt>
      <trkpt lat="44.20174" lon="0.40572">
        <ele>53.4</ele>
        <time>2016-02-20T09:46:46Z</time>
      </trkpt>
      <trkpt lat="44.20161" lon="0.40563">
        <ele>53.2</ele>
        <time>2016-02-20T09:46:48Z</time>
      </trkpt>
      <trkpt lat="44.20148" lon="0.40555">
        <ele>52.6</ele>
        <time>2016-02-20T09:46:50Z</time>
      </trkpt>
      <trkpt lat="44.20134" lon="0.40549">
        <ele>52.2</ele>
        <time>2016-02-20T09:46:52Z</time>
      </trkpt>
      <trkpt lat="44.20091" lon="0.40536">
        <ele>51.6</ele>
        <time>2016-02-20T09:46:58Z</time>
      </trkpt>
      <trkpt lat="44.20035" lon="0.40523">
        <ele>50.8</ele>
        <time>2016-02-20T09:47:06Z</time>
      </trkpt>
      <trkpt lat="44.20014" lon="0.40517">
        <ele>50.4</ele>
        <time>2016-02-20T09:47:09Z</time>
      </trkpt>
      <trkpt lat="44.19974" lon="0.40509">
        <ele>50</ele>
        <time>2016-02-20T09:47:15Z</time>
      </trkpt>
      <trkpt lat="44.19935" lon="0.4051">
        <ele>49.6</ele>
        <time>2016-02-20T09:47:21Z</time>
      </trkpt>
      <trkpt lat="44.19923" lon="0.40512">
        <ele>49.6</ele>
        <time>2016-02-20T09:47:23Z</time>
      </trkpt>
      <trkpt lat="44.199" lon="0.4052">
        <ele>49.6</ele>
        <time>2016-02-20T09:47:27Z</time>
      </trkpt>
      <trkpt lat="44.19889" lon="0.40523">
        <ele>49.6</ele>
        <time>2016-02-20T09:47:29Z</time>
      </trkpt>
      <trkpt lat="44.19872" lon="0.40528">
        <ele>50.4</ele>
        <time>2016-02-20T09:47:32Z</time>
      </trkpt>
      <trkpt lat="44.19834" lon="0.40541">
        <ele>50</ele>
        <time>2016-02-20T09:47:39Z</time>
      </trkpt>
      <trkpt lat="44.19786" lon="0.40555">
        <ele>50.4</ele>
        <time>2016-02-20T09:47:48Z</time>
      </trkpt>
      <trkpt lat="44.19741" lon="0.40568">
        <ele>51.6</ele>
        <time>2016-02-20T09:47:57Z</time>
      </trkpt>
      <trkpt lat="44.19715" lon="0.40574">
        <ele>52.8</ele>
        <time>2016-02-20T09:48:03Z</time>
      </trkpt>
      <trkpt lat="44.19703" lon="0.40574">
        <ele>53.2</ele>
        <time>2016-02-20T09:48:06Z</time>
      </trkpt>
      <trkpt lat="44.19695" lon="0.40575">
        <ele>53.6</ele>
        <time>2016-02-20T09:48:08Z</time>
      </trkpt>
      <trkpt lat="44.19691" lon="0.40575">
        <ele>53.8</ele>
        <time>2016-02-20T09:48:09Z</time>
      </trkpt>
      <trkpt lat="44.19683" lon="0.40574">
        <ele>54.2</ele>
        <time>2016-02-20T09:48:11Z</time>
      </trkpt>
      <trkpt lat="44.19679" lon="0.40572">
        <ele>54.6</ele>
        <time>2016-02-20T09:48:12Z</time>
      </trkpt>
      <trkpt lat="44.19675" lon="0.40571">
        <ele>54.8</ele>
        <time>2016-02-20T09:48:13Z</time>
      </trkpt>
      <trkpt lat="44.19658" lon="0.40562">
        <ele>55.6</ele>
        <time>2016-02-20T09:48:18Z</time>
      </trkpt>
      <trkpt lat="44.19651" lon="0.40558">
        <ele>56</ele>
        <time>2016-02-20T09:48:20Z</time>
      </trkpt>
      <trkpt lat="44.19642" lon="0.40551">
        <ele>57</ele>
        <time>2016-02-20T09:48:23Z</time>
      </trkpt>
      <trkpt lat="44.19628" lon="0.4054">
        <ele>57.8</ele>
        <time>2016-02-20T09:48:27Z</time>
      </trkpt>
      <trkpt lat="44.19621" lon="0.40534">
        <ele>58.4</ele>
        <time>2016-02-20T09:48:29Z</time>
      </trkpt>
      <trkpt lat="44.19602" lon="0.40517">
        <ele>59.6</ele>
        <time>2016-02-20T09:48:34Z</time>
      </trkpt>
      <trkpt lat="44.19599" lon="0.40514">
        <ele>59.6</ele>
        <time>2016-02-20T09:48:35Z</time>
      </trkpt>
      <trkpt lat="44.1958" lon="0.40497">
        <ele>60.8</ele>
        <time>2016-02-20T09:48:40Z</time>
      </trkpt>
      <trkpt lat="44.19574" lon="0.4049">
        <ele>61.2</ele>
        <time>2016-02-20T09:48:42Z</time>
      </trkpt>
      <trkpt lat="44.19563" lon="0.4048">
        <ele>61.6</ele>
        <time>2016-02-20T09:48:45Z</time>
      </trkpt>
      <trkpt lat="44.19559" lon="0.40478">
        <ele>61.8</ele>
        <time>2016-02-20T09:48:46Z</time>
      </trkpt>
      <trkpt lat="44.19546" lon="0.40467">
        <ele>63.2</ele>
        <time>2016-02-20T09:48:50Z</time>
      </trkpt>
      <trkpt lat="44.19536" lon="0.40457">
        <ele>63.6</ele>
        <time>2016-02-20T09:48:53Z</time>
      </trkpt>
      <trkpt lat="44.19532" lon="0.40453">
        <ele>63.8</ele>
        <time>2016-02-20T09:48:54Z</time>
      </trkpt>
      <trkpt lat="44.19525" lon="0.40446">
        <ele>64.4</ele>
        <time>2016-02-20T09:48:56Z</time>
      </trkpt>
      <trkpt lat="44.19511" lon="0.40434">
        <ele>65.2</ele>
        <time>2016-02-20T09:49:00Z</time>
      </trkpt>
      <trkpt lat="44.19508" lon="0.4043">
        <ele>65.4</ele>
        <time>2016-02-20T09:49:01Z</time>
      </trkpt>
      <trkpt lat="44.19488" lon="0.40411">
        <ele>66.6</ele>
        <time>2016-02-20T09:49:07Z</time>
      </trkpt>
      <trkpt lat="44.19484" lon="0.40408">
        <ele>66.8</ele>
        <time>2016-02-20T09:49:08Z</time>
      </trkpt>
      <trkpt lat="44.19474" lon="0.40399">
        <ele>67.6</ele>
        <time>2016-02-20T09:49:11Z</time>
      </trkpt>
      <trkpt lat="44.19458" lon="0.40382">
        <ele>69</ele>
        <time>2016-02-20T09:49:16Z</time>
      </trkpt>
      <trkpt lat="44.19455" lon="0.40379">
        <ele>69</ele>
        <time>2016-02-20T09:49:17Z</time>
      </trkpt>
      <trkpt lat="44.19442" lon="0.40361">
        <ele>70.2</ele>
        <time>2016-02-20T09:49:22Z</time>
      </trkpt>
      <trkpt lat="44.19437" lon="0.40353">
        <ele>70.4</ele>
        <time>2016-02-20T09:49:24Z</time>
      </trkpt>
      <trkpt lat="44.1943" lon="0.40335">
        <ele>71.2</ele>
        <time>2016-02-20T09:49:28Z</time>
      </trkpt>
      <trkpt lat="44.19425" lon="0.40321">
        <ele>71.8</ele>
        <time>2016-02-20T09:49:31Z</time>
      </trkpt>
      <trkpt lat="44.1942" lon="0.40307">
        <ele>72.4</ele>
        <time>2016-02-20T09:49:34Z</time>
      </trkpt>
      <trkpt lat="44.19414" lon="0.40284">
        <ele>73.6</ele>
        <time>2016-02-20T09:49:39Z</time>
      </trkpt>
      <trkpt lat="44.19404" lon="0.40258">
        <ele>74.8</ele>
        <time>2016-02-20T09:49:45Z</time>
      </trkpt>
      <trkpt lat="44.19402" lon="0.40254">
        <ele>75</ele>
        <time>2016-02-20T09:49:46Z</time>
      </trkpt>
      <trkpt lat="44.19391" lon="0.40238">
        <ele>76.2</ele>
        <time>2016-02-20T09:49:50Z</time>
      </trkpt>
      <trkpt lat="44.19385" lon="0.40231">
        <ele>76.2</ele>
        <time>2016-02-20T09:49:52Z</time>
      </trkpt>
      <trkpt lat="44.19369" lon="0.40216">
        <ele>77.2</ele>
        <time>2016-02-20T09:49:57Z</time>
      </trkpt>
      <trkpt lat="44.19363" lon="0.4021">
        <ele>77.6</ele>
        <time>2016-02-20T09:49:59Z</time>
      </trkpt>
      <trkpt lat="44.19352" lon="0.40196">
        <ele>78.4</ele>
        <time>2016-02-20T09:50:03Z</time>
      </trkpt>
      <trkpt lat="44.19345" lon="0.40185">
        <ele>78.8</ele>
        <time>2016-02-20T09:50:06Z</time>
      </trkpt>
      <trkpt lat="44.19337" lon="0.40164">
        <ele>79.4</ele>
        <time>2016-02-20T09:50:10Z</time>
      </trkpt>
      <trkpt lat="44.19334" lon="0.40154">
        <ele>80</ele>
        <time>2016-02-20T09:50:12Z</time>
      </trkpt>
      <trkpt lat="44.19332" lon="0.40144">
        <ele>80.6</ele>
        <time>2016-02-20T09:50:14Z</time>
      </trkpt>
      <trkpt lat="44.19325" lon="0.40126">
        <ele>81.8</ele>
        <time>2016-02-20T09:50:18Z</time>
      </trkpt>
      <trkpt lat="44.19323" lon="0.40122">
        <ele>81.8</ele>
        <time>2016-02-20T09:50:19Z</time>
      </trkpt>
      <trkpt lat="44.1931" lon="0.40105">
        <ele>82.8</ele>
        <time>2016-02-20T09:50:24Z</time>
      </trkpt>
      <trkpt lat="44.19308" lon="0.40102">
        <ele>83</ele>
        <time>2016-02-20T09:50:25Z</time>
      </trkpt>
      <trkpt lat="44.1929" lon="0.40086">
        <ele>83.8</ele>
        <time>2016-02-20T09:50:31Z</time>
      </trkpt>
      <trkpt lat="44.19286" lon="0.40084">
        <ele>84</ele>
        <time>2016-02-20T09:50:32Z</time>
      </trkpt>
      <trkpt lat="44.19276" lon="0.40075">
        <ele>84.6</ele>
        <time>2016-02-20T09:50:35Z</time>
      </trkpt>
      <trkpt lat="44.19267" lon="0.40067">
        <ele>85.2</ele>
        <time>2016-02-20T09:50:38Z</time>
      </trkpt>
      <trkpt lat="44.19252" lon="0.40049">
        <ele>86.4</ele>
        <time>2016-02-20T09:50:43Z</time>
      </trkpt>
      <trkpt lat="44.19243" lon="0.40039">
        <ele>86.8</ele>
        <time>2016-02-20T09:50:46Z</time>
      </trkpt>
      <trkpt lat="44.19237" lon="0.40032">
        <ele>87.4</ele>
        <time>2016-02-20T09:50:48Z</time>
      </trkpt>
      <trkpt lat="44.19223" lon="0.40017">
        <ele>88.4</ele>
        <time>2016-02-20T09:50:53Z</time>
      </trkpt>
      <trkpt lat="44.1922" lon="0.40015">
        <ele>88.6</ele>
        <time>2016-02-20T09:50:54Z</time>
      </trkpt>
      <trkpt lat="44.192" lon="0.39995">
        <ele>89.8</ele>
        <time>2016-02-20T09:51:01Z</time>
      </trkpt>
      <trkpt lat="44.19197" lon="0.39991">
        <ele>90</ele>
        <time>2016-02-20T09:51:02Z</time>
      </trkpt>
      <trkpt lat="44.19188" lon="0.39984">
        <ele>90.8</ele>
        <time>2016-02-20T09:51:05Z</time>
      </trkpt>
      <trkpt lat="44.19181" lon="0.3998">
        <ele>91</ele>
        <time>2016-02-20T09:51:08Z</time>
      </trkpt>
      <trkpt lat="44.19176" lon="0.39977">
        <ele>91.4</ele>
        <time>2016-02-20T09:51:13Z</time>
      </trkpt>
      <trkpt lat="44.19169" lon="0.39974">
        <ele>91.4</ele>
        <time>2016-02-20T09:53:08Z</time>
      </trkpt>
      <trkpt lat="44.19167" lon="0.39973">
        <ele>91.4</ele>
        <time>2016-02-20T09:53:09Z</time>
      </trkpt>
      <trkpt lat="44.19159" lon="0.39967">
        <ele>91.8</ele>
        <time>2016-02-20T09:53:12Z</time>
      </trkpt>
      <trkpt lat="44.19151" lon="0.39963">
        <ele>92.4</ele>
        <time>2016-02-20T09:53:15Z</time>
      </trkpt>
      <trkpt lat="44.19139" lon="0.39958">
        <ele>92.8</ele>
        <time>2016-02-20T09:53:19Z</time>
      </trkpt>
      <trkpt lat="44.19127" lon="0.39953">
        <ele>93.2</ele>
        <time>2016-02-20T09:53:23Z</time>
      </trkpt>
      <trkpt lat="44.19121" lon="0.39951">
        <ele>93.8</ele>
        <time>2016-02-20T09:53:25Z</time>
      </trkpt>
      <trkpt lat="44.19108" lon="0.39946">
        <ele>94.2</ele>
        <time>2016-02-20T09:53:29Z</time>
      </trkpt>
      <trkpt lat="44.19098" lon="0.39942">
        <ele>95</ele>
        <time>2016-02-20T09:53:32Z</time>
      </trkpt>
      <trkpt lat="44.19085" lon="0.39938">
        <ele>95.2</ele>
        <time>2016-02-20T09:53:36Z</time>
      </trkpt>
      <trkpt lat="44.19073" lon="0.39933">
        <ele>96</ele>
        <time>2016-02-20T09:53:40Z</time>
      </trkpt>
      <trkpt lat="44.19064" lon="0.3993">
        <ele>96.4</ele>
        <time>2016-02-20T09:53:43Z</time>
      </trkpt>
      <trkpt lat="44.19061" lon="0.39929">
        <ele>96.6</ele>
        <time>2016-02-20T09:53:44Z</time>
      </trkpt>
      <trkpt lat="44.19052" lon="0.39927">
        <ele>97.2</ele>
        <time>2016-02-20T09:53:47Z</time>
      </trkpt>
      <trkpt lat="44.19043" lon="0.39923">
        <ele>97.2</ele>
        <time>2016-02-20T09:53:50Z</time>
      </trkpt>
      <trkpt lat="44.19028" lon="0.39918">
        <ele>98.2</ele>
        <time>2016-02-20T09:53:55Z</time>
      </trkpt>
      <trkpt lat="44.19016" lon="0.39914">
        <ele>98.4</ele>
        <time>2016-02-20T09:53:59Z</time>
      </trkpt>
      <trkpt lat="44.19007" lon="0.3991">
        <ele>99.4</ele>
        <time>2016-02-20T09:54:02Z</time>
      </trkpt>
      <trkpt lat="44.18987" lon="0.39904">
        <ele>100.4</ele>
        <time>2016-02-20T09:54:08Z</time>
      </trkpt>
      <trkpt lat="44.18984" lon="0.39903">
        <ele>100.6</ele>
        <time>2016-02-20T09:54:09Z</time>
      </trkpt>
      <trkpt lat="44.18965" lon="0.39897">
        <ele>101.6</ele>
        <time>2016-02-20T09:54:15Z</time>
      </trkpt>
      <trkpt lat="44.18958" lon="0.39895">
        <ele>101.8</ele>
        <time>2016-02-20T09:54:17Z</time>
      </trkpt>
      <trkpt lat="44.1894" lon="0.39888">
        <ele>103</ele>
        <time>2016-02-20T09:54:23Z</time>
      </trkpt>
      <trkpt lat="44.18933" lon="0.39886">
        <ele>103.4</ele>
        <time>2016-02-20T09:54:25Z</time>
      </trkpt>
      <trkpt lat="44.1892" lon="0.39882">
        <ele>104.2</ele>
        <time>2016-02-20T09:54:29Z</time>
      </trkpt>
      <trkpt lat="44.18907" lon="0.39876">
        <ele>104.6</ele>
        <time>2016-02-20T09:54:33Z</time>
      </trkpt>
      <trkpt lat="44.18894" lon="0.39872">
        <ele>105.2</ele>
        <time>2016-02-20T09:54:37Z</time>
      </trkpt>
      <trkpt lat="44.18881" lon="0.39868">
        <ele>106</ele>
        <time>2016-02-20T09:54:41Z</time>
      </trkpt>
      <trkpt lat="44.18874" lon="0.39865">
        <ele>106.6</ele>
        <time>2016-02-20T09:54:43Z</time>
      </trkpt>
      <trkpt lat="44.18856" lon="0.39859">
        <ele>107.2</ele>
        <time>2016-02-20T09:54:49Z</time>
      </trkpt>
      <trkpt lat="44.18847" lon="0.39856">
        <ele>107.6</ele>
        <time>2016-02-20T09:54:52Z</time>
      </trkpt>
      <trkpt lat="44.18828" lon="0.39849">
        <ele>109</ele>
        <time>2016-02-20T09:54:58Z</time>
      </trkpt>
      <trkpt lat="44.18825" lon="0.39848">
        <ele>109</ele>
        <time>2016-02-20T09:54:59Z</time>
      </trkpt>
      <trkpt lat="44.18808" lon="0.39842">
        <ele>110</ele>
        <time>2016-02-20T09:55:05Z</time>
      </trkpt>
      <trkpt lat="44.18802" lon="0.3984">
        <ele>110.4</ele>
        <time>2016-02-20T09:55:07Z</time>
      </trkpt>
      <trkpt lat="44.18786" lon="0.39835">
        <ele>111</ele>
        <time>2016-02-20T09:55:12Z</time>
      </trkpt>
      <trkpt lat="44.18771" lon="0.39829">
        <ele>112</ele>
        <time>2016-02-20T09:55:17Z</time>
      </trkpt>
      <trkpt lat="44.18762" lon="0.39828">
        <ele>112.2</ele>
        <time>2016-02-20T09:55:20Z</time>
      </trkpt>
      <trkpt lat="44.18753" lon="0.39827">
        <ele>112.6</ele>
        <time>2016-02-20T09:55:23Z</time>
      </trkpt>
      <trkpt lat="44.18734" lon="0.39829">
        <ele>113.4</ele>
        <time>2016-02-20T09:55:29Z</time>
      </trkpt>
      <trkpt lat="44.18731" lon="0.39829">
        <ele>113.6</ele>
        <time>2016-02-20T09:55:30Z</time>
      </trkpt>
      <trkpt lat="44.18714" lon="0.39833">
        <ele>114.6</ele>
        <time>2016-02-20T09:55:36Z</time>
      </trkpt>
      <trkpt lat="44.18712" lon="0.39834">
        <ele>114.8</ele>
        <time>2016-02-20T09:55:37Z</time>
      </trkpt>
      <trkpt lat="44.18691" lon="0.39845">
        <ele>115.6</ele>
        <time>2016-02-20T09:55:45Z</time>
      </trkpt>
      <trkpt lat="44.18676" lon="0.39855">
        <ele>116.6</ele>
        <time>2016-02-20T09:55:51Z</time>
      </trkpt>
      <trkpt lat="44.18674" lon="0.39856">
        <ele>116.8</ele>
        <time>2016-02-20T09:55:52Z</time>
      </trkpt>
      <trkpt lat="44.18657" lon="0.39865">
        <ele>117.4</ele>
        <time>2016-02-20T09:55:59Z</time>
      </trkpt>
      <trkpt lat="44.18651" lon="0.39868">
        <ele>117.8</ele>
        <time>2016-02-20T09:56:01Z</time>
      </trkpt>
      <trkpt lat="44.18635" lon="0.39872">
        <ele>118.8</ele>
        <time>2016-02-20T09:56:07Z</time>
      </trkpt>
      <trkpt lat="44.18614" lon="0.39875">
        <ele>119.8</ele>
        <time>2016-02-20T09:56:15Z</time>
      </trkpt>
      <trkpt lat="44.18611" lon="0.39875">
        <ele>120</ele>
        <time>2016-02-20T09:56:16Z</time>
      </trkpt>
      <trkpt lat="44.18592" lon="0.39872">
        <ele>121</ele>
        <time>2016-02-20T09:56:23Z</time>
      </trkpt>
      <trkpt lat="44.18586" lon="0.39871">
        <ele>121.4</ele>
        <time>2016-02-20T09:56:25Z</time>
      </trkpt>
      <trkpt lat="44.18571" lon="0.39869">
        <ele>122.2</ele>
        <time>2016-02-20T09:56:30Z</time>
      </trkpt>
      <trkpt lat="44.18555" lon="0.39866">
        <ele>122.8</ele>
        <time>2016-02-20T09:56:35Z</time>
      </trkpt>
      <trkpt lat="44.18545" lon="0.39865">
        <ele>123.4</ele>
        <time>2016-02-20T09:56:38Z</time>
      </trkpt>
      <trkpt lat="44.18524" lon="0.39861">
        <ele>124.6</ele>
        <time>2016-02-20T09:56:45Z</time>
      </trkpt>
      <trkpt lat="44.18501" lon="0.39857">
        <ele>125.6</ele>
        <time>2016-02-20T09:56:53Z</time>
      </trkpt>
      <trkpt lat="44.18498" lon="0.39856">
        <ele>125.6</ele>
        <time>2016-02-20T09:56:54Z</time>
      </trkpt>
      <trkpt lat="44.18477" lon="0.39852">
        <ele>126.8</ele>
        <time>2016-02-20T09:57:01Z</time>
      </trkpt>
      <trkpt lat="44.18471" lon="0.39851">
        <ele>127</ele>
        <time>2016-02-20T09:57:03Z</time>
      </trkpt>
      <trkpt lat="44.18454" lon="0.39849">
        <ele>128.4</ele>
        <time>2016-02-20T09:57:09Z</time>
      </trkpt>
      <trkpt lat="44.18445" lon="0.39848">
        <ele>128.6</ele>
        <time>2016-02-20T09:57:12Z</time>
      </trkpt>
      <trkpt lat="44.18427" lon="0.39846">
        <ele>129.4</ele>
        <time>2016-02-20T09:57:18Z</time>
      </trkpt>
      <trkpt lat="44.18424" lon="0.39845">
        <ele>129.6</ele>
        <time>2016-02-20T09:57:19Z</time>
      </trkpt>
      <trkpt lat="44.18403" lon="0.39842">
        <ele>130.4</ele>
        <time>2016-02-20T09:57:26Z</time>
      </trkpt>
      <trkpt lat="44.184" lon="0.39842">
        <ele>130.6</ele>
        <time>2016-02-20T09:57:27Z</time>
      </trkpt>
      <trkpt lat="44.18378" lon="0.39838">
        <ele>131.4</ele>
        <time>2016-02-20T09:57:35Z</time>
      </trkpt>
      <trkpt lat="44.18375" lon="0.39837">
        <ele>131.8</ele>
        <time>2016-02-20T09:57:36Z</time>
      </trkpt>
      <trkpt lat="44.18358" lon="0.39834">
        <ele>132.8</ele>
        <time>2016-02-20T09:57:42Z</time>
      </trkpt>
      <trkpt lat="44.18334" lon="0.3983">
        <ele>134</ele>
        <time>2016-02-20T09:57:50Z</time>
      </trkpt>
      <trkpt lat="44.18313" lon="0.39825">
        <ele>134.8</ele>
        <time>2016-02-20T09:57:57Z</time>
      </trkpt>
      <trkpt lat="44.1831" lon="0.39824">
        <ele>135</ele>
        <time>2016-02-20T09:57:58Z</time>
      </trkpt>
      <trkpt lat="44.18288" lon="0.39816">
        <ele>136</ele>
        <time>2016-02-20T09:58:05Z</time>
      </trkpt>
      <trkpt lat="44.18282" lon="0.39813">
        <ele>136.4</ele>
        <time>2016-02-20T09:58:07Z</time>
      </trkpt>
      <trkpt lat="44.18274" lon="0.39808">
        <ele>137</ele>
        <time>2016-02-20T09:58:10Z</time>
      </trkpt>
      <trkpt lat="44.1826" lon="0.39798">
        <ele>137.6</ele>
        <time>2016-02-20T09:58:15Z</time>
      </trkpt>
      <trkpt lat="44.18254" lon="0.39794">
        <ele>138.2</ele>
        <time>2016-02-20T09:58:17Z</time>
      </trkpt>
      <trkpt lat="44.18238" lon="0.39778">
        <ele>139.2</ele>
        <time>2016-02-20T09:58:23Z</time>
      </trkpt>
      <trkpt lat="44.18236" lon="0.39776">
        <ele>139.4</ele>
        <time>2016-02-20T09:58:24Z</time>
      </trkpt>
      <trkpt lat="44.18227" lon="0.39766">
        <ele>140.2</ele>
        <time>2016-02-20T09:58:28Z</time>
      </trkpt>
      <trkpt lat="44.18222" lon="0.39761">
        <ele>140.4</ele>
        <time>2016-02-20T09:58:30Z</time>
      </trkpt>
      <trkpt lat="44.18211" lon="0.39746">
        <ele>141.2</ele>
        <time>2016-02-20T09:58:35Z</time>
      </trkpt>
      <trkpt lat="44.18201" lon="0.39735">
        <ele>142</ele>
        <time>2016-02-20T09:58:39Z</time>
      </trkpt>
      <trkpt lat="44.18192" lon="0.39722">
        <ele>142.8</ele>
        <time>2016-02-20T09:58:43Z</time>
      </trkpt>
      <trkpt lat="44.1818" lon="0.39705">
        <ele>143.4</ele>
        <time>2016-02-20T09:58:48Z</time>
      </trkpt>
      <trkpt lat="44.18173" lon="0.39695">
        <ele>143.8</ele>
        <time>2016-02-20T09:58:51Z</time>
      </trkpt>
      <trkpt lat="44.18162" lon="0.3968">
        <ele>144.4</ele>
        <time>2016-02-20T09:58:56Z</time>
      </trkpt>
      <trkpt lat="44.18157" lon="0.39674">
        <ele>144.8</ele>
        <time>2016-02-20T09:58:58Z</time>
      </trkpt>
      <trkpt lat="44.18143" lon="0.39657">
        <ele>145.8</ele>
        <time>2016-02-20T09:59:04Z</time>
      </trkpt>
      <trkpt lat="44.18141" lon="0.39654">
        <ele>146</ele>
        <time>2016-02-20T09:59:05Z</time>
      </trkpt>
      <trkpt lat="44.18124" lon="0.39631">
        <ele>147.2</ele>
        <time>2016-02-20T09:59:12Z</time>
      </trkpt>
      <trkpt lat="44.1811" lon="0.39611">
        <ele>148.2</ele>
        <time>2016-02-20T09:59:18Z</time>
      </trkpt>
      <trkpt lat="44.18105" lon="0.39604">
        <ele>148.6</ele>
        <time>2016-02-20T09:59:20Z</time>
      </trkpt>
      <trkpt lat="44.18094" lon="0.39586">
        <ele>149.4</ele>
        <time>2016-02-20T09:59:25Z</time>
      </trkpt>
      <trkpt lat="44.18087" lon="0.39574">
        <ele>149.8</ele>
        <time>2016-02-20T09:59:28Z</time>
      </trkpt>
      <trkpt lat="44.18077" lon="0.39558">
        <ele>150.6</ele>
        <time>2016-02-20T09:59:33Z</time>
      </trkpt>
      <trkpt lat="44.18074" lon="0.39551">
        <ele>150.8</ele>
        <time>2016-02-20T09:59:35Z</time>
      </trkpt>
      <trkpt lat="44.18065" lon="0.39531">
        <ele>151.6</ele>
        <time>2016-02-20T09:59:41Z</time>
      </trkpt>
      <trkpt lat="44.1806" lon="0.39521">
        <ele>152.2</ele>
        <time>2016-02-20T09:59:44Z</time>
      </trkpt>
      <trkpt lat="44.18056" lon="0.3951">
        <ele>153</ele>
        <time>2016-02-20T09:59:47Z</time>
      </trkpt>
      <trkpt lat="44.18049" lon="0.39492">
        <ele>154</ele>
        <time>2016-02-20T09:59:52Z</time>
      </trkpt>
      <trkpt lat="44.18047" lon="0.39488">
        <ele>154</ele>
        <time>2016-02-20T09:59:53Z</time>
      </trkpt>
      <trkpt lat="44.18036" lon="0.39459">
        <ele>155</ele>
        <time>2016-02-20T10:00:01Z</time>
      </trkpt>
      <trkpt lat="44.18035" lon="0.39456">
        <ele>155</ele>
        <time>2016-02-20T10:00:02Z</time>
      </trkpt>
      <trkpt lat="44.18029" lon="0.39436">
        <ele>155.8</ele>
        <time>2016-02-20T10:00:08Z</time>
      </trkpt>
      <trkpt lat="44.18029" lon="0.39437">
        <ele>155.6</ele>
        <time>2016-02-20T10:00:12Z</time>
      </trkpt>
      <trkpt lat="44.18028" lon="0.39431">
        <ele>156</ele>
        <time>2016-02-20T10:00:19Z</time>
      </trkpt>
      <trkpt lat="44.18026" lon="0.39424">
        <ele>155.8</ele>
        <time>2016-02-20T10:00:21Z</time>
      </trkpt>
      <trkpt lat="44.18023" lon="0.39415">
        <ele>156.2</ele>
        <time>2016-02-20T10:00:23Z</time>
      </trkpt>
      <trkpt lat="44.18018" lon="0.3939">
        <ele>157</ele>
        <time>2016-02-20T10:00:29Z</time>
      </trkpt>
      <trkpt lat="44.18016" lon="0.39378">
        <ele>157.2</ele>
        <time>2016-02-20T10:00:32Z</time>
      </trkpt>
      <trkpt lat="44.18016" lon="0.39366">
        <ele>157.6</ele>
        <time>2016-02-20T10:00:36Z</time>
      </trkpt>
      <trkpt lat="44.18017" lon="0.39366">
        <ele>157.8</ele>
        <time>2016-02-20T10:00:40Z</time>
      </trkpt>
      <trkpt lat="44.18013" lon="0.39358">
        <ele>157.6</ele>
        <time>2016-02-20T10:03:32Z</time>
      </trkpt>
      <trkpt lat="44.18012" lon="0.39351">
        <ele>157.8</ele>
        <time>2016-02-20T10:03:34Z</time>
      </trkpt>
      <trkpt lat="44.18011" lon="0.39334">
        <ele>158.4</ele>
        <time>2016-02-20T10:03:38Z</time>
      </trkpt>
      <trkpt lat="44.18009" lon="0.39318">
        <ele>158.8</ele>
        <time>2016-02-20T10:03:42Z</time>
      </trkpt>
      <trkpt lat="44.18008" lon="0.39302">
        <ele>159.4</ele>
        <time>2016-02-20T10:03:46Z</time>
      </trkpt>
      <trkpt lat="44.18008" lon="0.39285">
        <ele>160</ele>
        <time>2016-02-20T10:03:50Z</time>
      </trkpt>
      <trkpt lat="44.18008" lon="0.39272">
        <ele>160.6</ele>
        <time>2016-02-20T10:03:53Z</time>
      </trkpt>
      <trkpt lat="44.18006" lon="0.39244">
        <ele>161.2</ele>
        <time>2016-02-20T10:03:59Z</time>
      </trkpt>
      <trkpt lat="44.18006" lon="0.39228">
        <ele>161.6</ele>
        <time>2016-02-20T10:04:02Z</time>
      </trkpt>
      <trkpt lat="44.18003" lon="0.39206">
        <ele>162.4</ele>
        <time>2016-02-20T10:04:06Z</time>
      </trkpt>
      <trkpt lat="44.18001" lon="0.39194">
        <ele>162.6</ele>
        <time>2016-02-20T10:04:08Z</time>
      </trkpt>
      <trkpt lat="44.17995" lon="0.39167">
        <ele>163.2</ele>
        <time>2016-02-20T10:04:12Z</time>
      </trkpt>
      <trkpt lat="44.17987" lon="0.39135">
        <ele>163.8</ele>
        <time>2016-02-20T10:04:16Z</time>
      </trkpt>
      <trkpt lat="44.17983" lon="0.3912">
        <ele>164.2</ele>
        <time>2016-02-20T10:04:18Z</time>
      </trkpt>
      <trkpt lat="44.17971" lon="0.39082">
        <ele>165</ele>
        <time>2016-02-20T10:04:24Z</time>
      </trkpt>
      <trkpt lat="44.17969" lon="0.39076">
        <ele>165.2</ele>
        <time>2016-02-20T10:04:25Z</time>
      </trkpt>
      <trkpt lat="44.1796" lon="0.39049">
        <ele>165.6</ele>
        <time>2016-02-20T10:04:31Z</time>
      </trkpt>
      <trkpt lat="44.17955" lon="0.39037">
        <ele>165.2</ele>
        <time>2016-02-20T10:04:37Z</time>
      </trkpt>
      <trkpt lat="44.17953" lon="0.39032">
        <ele>165.8</ele>
        <time>2016-02-20T10:05:14Z</time>
      </trkpt>
      <trkpt lat="44.17952" lon="0.39029">
        <ele>165.6</ele>
        <time>2016-02-20T10:05:15Z</time>
      </trkpt>
      <trkpt lat="44.17946" lon="0.39015">
        <ele>166</ele>
        <time>2016-02-20T10:05:19Z</time>
      </trkpt>
      <trkpt lat="44.17938" lon="0.38995">
        <ele>166</ele>
        <time>2016-02-20T10:05:23Z</time>
      </trkpt>
      <trkpt lat="44.17934" lon="0.38984">
        <ele>166</ele>
        <time>2016-02-20T10:05:25Z</time>
      </trkpt>
      <trkpt lat="44.17918" lon="0.38948">
        <ele>166.4</ele>
        <time>2016-02-20T10:05:32Z</time>
      </trkpt>
      <trkpt lat="44.17913" lon="0.38933">
        <ele>166.4</ele>
        <time>2016-02-20T10:05:35Z</time>
      </trkpt>
      <trkpt lat="44.17909" lon="0.38922">
        <ele>166.2</ele>
        <time>2016-02-20T10:05:37Z</time>
      </trkpt>
      <trkpt lat="44.17907" lon="0.38917">
        <ele>166.2</ele>
        <time>2016-02-20T10:05:38Z</time>
      </trkpt>
      <trkpt lat="44.179" lon="0.38899">
        <ele>166.2</ele>
        <time>2016-02-20T10:05:41Z</time>
      </trkpt>
      <trkpt lat="44.17893" lon="0.38881">
        <ele>166.2</ele>
        <time>2016-02-20T10:05:44Z</time>
      </trkpt>
      <trkpt lat="44.1789" lon="0.38874">
        <ele>166.2</ele>
        <time>2016-02-20T10:05:45Z</time>
      </trkpt>
      <trkpt lat="44.17868" lon="0.38819">
        <ele>166.4</ele>
        <time>2016-02-20T10:05:54Z</time>
      </trkpt>
      <trkpt lat="44.17848" lon="0.38771">
        <ele>166.6</ele>
        <time>2016-02-20T10:06:02Z</time>
      </trkpt>
      <trkpt lat="44.17838" lon="0.38747">
        <ele>167</ele>
        <time>2016-02-20T10:06:06Z</time>
      </trkpt>
      <trkpt lat="44.17825" lon="0.38716">
        <ele>167.6</ele>
        <time>2016-02-20T10:06:12Z</time>
      </trkpt>
      <trkpt lat="44.17806" lon="0.38678">
        <ele>167.8</ele>
        <time>2016-02-20T10:06:19Z</time>
      </trkpt>
      <trkpt lat="44.17779" lon="0.38634">
        <ele>167.4</ele>
        <time>2016-02-20T10:06:27Z</time>
      </trkpt>
      <trkpt lat="44.17753" lon="0.38602">
        <ele>166.4</ele>
        <time>2016-02-20T10:06:33Z</time>
      </trkpt>
      <trkpt lat="44.17739" lon="0.38586">
        <ele>166</ele>
        <time>2016-02-20T10:06:36Z</time>
      </trkpt>
      <trkpt lat="44.17713" lon="0.38554">
        <ele>165.2</ele>
        <time>2016-02-20T10:06:42Z</time>
      </trkpt>
      <trkpt lat="44.1769" lon="0.3853">
        <ele>165</ele>
        <time>2016-02-20T10:06:47Z</time>
      </trkpt>
      <trkpt lat="44.17664" lon="0.38499">
        <ele>165</ele>
        <time>2016-02-20T10:06:53Z</time>
      </trkpt>
      <trkpt lat="44.17637" lon="0.38456">
        <ele>165.8</ele>
        <time>2016-02-20T10:07:01Z</time>
      </trkpt>
      <trkpt lat="44.17634" lon="0.3845">
        <ele>166</ele>
        <time>2016-02-20T10:07:02Z</time>
      </trkpt>
      <trkpt lat="44.1762" lon="0.38423">
        <ele>166.4</ele>
        <time>2016-02-20T10:07:07Z</time>
      </trkpt>
      <trkpt lat="44.17605" lon="0.38392">
        <ele>167.6</ele>
        <time>2016-02-20T10:07:13Z</time>
      </trkpt>
      <trkpt lat="44.17601" lon="0.38384">
        <ele>167.8</ele>
        <time>2016-02-20T10:07:15Z</time>
      </trkpt>
      <trkpt lat="44.17592" lon="0.38363">
        <ele>168.2</ele>
        <time>2016-02-20T10:07:20Z</time>
      </trkpt>
      <trkpt lat="44.17578" lon="0.38332">
        <ele>167.6</ele>
        <time>2016-02-20T10:07:27Z</time>
      </trkpt>
      <trkpt lat="44.17577" lon="0.38327">
        <ele>167.8</ele>
        <time>2016-02-20T10:07:28Z</time>
      </trkpt>
      <trkpt lat="44.17573" lon="0.38317">
        <ele>167.8</ele>
        <time>2016-02-20T10:07:30Z</time>
      </trkpt>
      <trkpt lat="44.17565" lon="0.38302">
        <ele>167.6</ele>
        <time>2016-02-20T10:07:33Z</time>
      </trkpt>
      <trkpt lat="44.17556" lon="0.38284">
        <ele>166.4</ele>
        <time>2016-02-20T10:07:36Z</time>
      </trkpt>
      <trkpt lat="44.17541" lon="0.38261">
        <ele>165.2</ele>
        <time>2016-02-20T10:07:40Z</time>
      </trkpt>
      <trkpt lat="44.17524" lon="0.38246">
        <ele>164.2</ele>
        <time>2016-02-20T10:07:43Z</time>
      </trkpt>
      <trkpt lat="44.17516" lon="0.38241">
        <ele>164</ele>
        <time>2016-02-20T10:07:44Z</time>
      </trkpt>
      <trkpt lat="44.17493" lon="0.38227">
        <ele>162.8</ele>
        <time>2016-02-20T10:07:47Z</time>
      </trkpt>
      <trkpt lat="44.17468" lon="0.38213">
        <ele>162</ele>
        <time>2016-02-20T10:07:50Z</time>
      </trkpt>
      <trkpt lat="44.1746" lon="0.38208">
        <ele>161.4</ele>
        <time>2016-02-20T10:07:51Z</time>
      </trkpt>
      <trkpt lat="44.17434" lon="0.38192">
        <ele>160.2</ele>
        <time>2016-02-20T10:07:54Z</time>
      </trkpt>
      <trkpt lat="44.17426" lon="0.38186">
        <ele>159</ele>
        <time>2016-02-20T10:07:55Z</time>
      </trkpt>
      <trkpt lat="44.17408" lon="0.38174">
        <ele>157.8</ele>
        <time>2016-02-20T10:07:57Z</time>
      </trkpt>
      <trkpt lat="44.17398" lon="0.38167">
        <ele>157.8</ele>
        <time>2016-02-20T10:07:58Z</time>
      </trkpt>
      <trkpt lat="44.17381" lon="0.38153">
        <ele>156.8</ele>
        <time>2016-02-20T10:08:00Z</time>
      </trkpt>
      <trkpt lat="44.17356" lon="0.38129">
        <ele>155.6</ele>
        <time>2016-02-20T10:08:03Z</time>
      </trkpt>
      <trkpt lat="44.17349" lon="0.38121">
        <ele>155.6</ele>
        <time>2016-02-20T10:08:04Z</time>
      </trkpt>
      <trkpt lat="44.17327" lon="0.38095">
        <ele>154.4</ele>
        <time>2016-02-20T10:08:07Z</time>
      </trkpt>
      <trkpt lat="44.17315" lon="0.38076">
        <ele>154.2</ele>
        <time>2016-02-20T10:08:09Z</time>
      </trkpt>
      <trkpt lat="44.17286" lon="0.3802">
        <ele>154.2</ele>
        <time>2016-02-20T10:08:15Z</time>
      </trkpt>
      <trkpt lat="44.17263" lon="0.37958">
        <ele>154</ele>
        <time>2016-02-20T10:08:22Z</time>
      </trkpt>
      <trkpt lat="44.17249" lon="0.37914">
        <ele>155</ele>
        <time>2016-02-20T10:08:28Z</time>
      </trkpt>
      <trkpt lat="44.17237" lon="0.37874">
        <ele>155.6</ele>
        <time>2016-02-20T10:08:34Z</time>
      </trkpt>
      <trkpt lat="44.17236" lon="0.37867">
        <ele>155.6</ele>
        <time>2016-02-20T10:08:35Z</time>
      </trkpt>
      <trkpt lat="44.17234" lon="0.37861">
        <ele>156</ele>
        <time>2016-02-20T10:08:36Z</time>
      </trkpt>
      <trkpt lat="44.17226" lon="0.3783">
        <ele>156.6</ele>
        <time>2016-02-20T10:08:41Z</time>
      </trkpt>
      <trkpt lat="44.17223" lon="0.37818">
        <ele>157.6</ele>
        <time>2016-02-20T10:08:43Z</time>
      </trkpt>
      <trkpt lat="44.1722" lon="0.37806">
        <ele>157.6</ele>
        <time>2016-02-20T10:08:45Z</time>
      </trkpt>
      <trkpt lat="44.17214" lon="0.37785">
        <ele>158.8</ele>
        <time>2016-02-20T10:08:49Z</time>
      </trkpt>
      <trkpt lat="44.17212" lon="0.37775">
        <ele>159.2</ele>
        <time>2016-02-20T10:08:51Z</time>
      </trkpt>
      <trkpt lat="44.17204" lon="0.37743">
        <ele>159.8</ele>
        <time>2016-02-20T10:08:58Z</time>
      </trkpt>
      <trkpt lat="44.17202" lon="0.37737">
        <ele>160</ele>
        <time>2016-02-20T10:08:59Z</time>
      </trkpt>
      <trkpt lat="44.1719" lon="0.37694">
        <ele>161</ele>
        <time>2016-02-20T10:09:07Z</time>
      </trkpt>
      <trkpt lat="44.17178" lon="0.37646">
        <ele>162</ele>
        <time>2016-02-20T10:09:16Z</time>
      </trkpt>
      <trkpt lat="44.17176" lon="0.37641">
        <ele>162.4</ele>
        <time>2016-02-20T10:09:17Z</time>
      </trkpt>
      <trkpt lat="44.17167" lon="0.37605">
        <ele>163.2</ele>
        <time>2016-02-20T10:09:24Z</time>
      </trkpt>
      <trkpt lat="44.17165" lon="0.376">
        <ele>163.2</ele>
        <time>2016-02-20T10:09:25Z</time>
      </trkpt>
      <trkpt lat="44.17155" lon="0.3756">
        <ele>164.4</ele>
        <time>2016-02-20T10:09:33Z</time>
      </trkpt>
      <trkpt lat="44.17145" lon="0.37525">
        <ele>165.2</ele>
        <time>2016-02-20T10:09:41Z</time>
      </trkpt>
      <trkpt lat="44.17143" lon="0.37516">
        <ele>165.6</ele>
        <time>2016-02-20T10:09:43Z</time>
      </trkpt>
      <trkpt lat="44.17136" lon="0.37491">
        <ele>166</ele>
        <time>2016-02-20T10:09:49Z</time>
      </trkpt>
      <trkpt lat="44.1713" lon="0.3747">
        <ele>166.6</ele>
        <time>2016-02-20T10:09:54Z</time>
      </trkpt>
      <trkpt lat="44.17126" lon="0.37452">
        <ele>167</ele>
        <time>2016-02-20T10:09:58Z</time>
      </trkpt>
      <trkpt lat="44.17115" lon="0.37415">
        <ele>167.2</ele>
        <time>2016-02-20T10:10:06Z</time>
      </trkpt>
      <trkpt lat="44.17102" lon="0.37368">
        <ele>167.6</ele>
        <time>2016-02-20T10:10:15Z</time>
      </trkpt>
      <trkpt lat="44.171" lon="0.37363">
        <ele>167.4</ele>
        <time>2016-02-20T10:10:16Z</time>
      </trkpt>
      <trkpt lat="44.17092" lon="0.37327">
        <ele>167</ele>
        <time>2016-02-20T10:10:23Z</time>
      </trkpt>
      <trkpt lat="44.17083" lon="0.37298">
        <ele>166.6</ele>
        <time>2016-02-20T10:10:30Z</time>
      </trkpt>
      <trkpt lat="44.17082" lon="0.37293">
        <ele>166.4</ele>
        <time>2016-02-20T10:10:32Z</time>
      </trkpt>
      <trkpt lat="44.1708" lon="0.37288">
        <ele>166.2</ele>
        <time>2016-02-20T10:10:35Z</time>
      </trkpt>
      <trkpt lat="44.17079" lon="0.37282">
        <ele>166</ele>
        <time>2016-02-20T10:10:39Z</time>
      </trkpt>
      <trkpt lat="44.1708" lon="0.37282">
        <ele>166</ele>
        <time>2016-02-20T10:10:41Z</time>
      </trkpt>
      <trkpt lat="44.17075" lon="0.37276">
        <ele>166</ele>
        <time>2016-02-20T10:11:44Z</time>
      </trkpt>
      <trkpt lat="44.17074" lon="0.37273">
        <ele>166</ele>
        <time>2016-02-20T10:11:45Z</time>
      </trkpt>
      <trkpt lat="44.17075" lon="0.37275">
        <ele>166</ele>
        <time>2016-02-20T10:11:46Z</time>
      </trkpt>
      <trkpt lat="44.17073" lon="0.37272">
        <ele>165.8</ele>
        <time>2016-02-20T10:12:18Z</time>
      </trkpt>
      <trkpt lat="44.1707" lon="0.37262">
        <ele>165.8</ele>
        <time>2016-02-20T10:12:21Z</time>
      </trkpt>
      <trkpt lat="44.17066" lon="0.3725">
        <ele>165.6</ele>
        <time>2016-02-20T10:12:23Z</time>
      </trkpt>
      <trkpt lat="44.17062" lon="0.37237">
        <ele>165.4</ele>
        <time>2016-02-20T10:12:25Z</time>
      </trkpt>
      <trkpt lat="44.17052" lon="0.37216">
        <ele>164.8</ele>
        <time>2016-02-20T10:12:28Z</time>
      </trkpt>
      <trkpt lat="44.17046" lon="0.37202">
        <ele>163.8</ele>
        <time>2016-02-20T10:12:30Z</time>
      </trkpt>
      <trkpt lat="44.17025" lon="0.37168">
        <ele>162.8</ele>
        <time>2016-02-20T10:12:35Z</time>
      </trkpt>
      <trkpt lat="44.1702" lon="0.37161">
        <ele>162.6</ele>
        <time>2016-02-20T10:12:36Z</time>
      </trkpt>
      <trkpt lat="44.17015" lon="0.37155">
        <ele>162.4</ele>
        <time>2016-02-20T10:12:37Z</time>
      </trkpt>
      <trkpt lat="44.16998" lon="0.37138">
        <ele>161.4</ele>
        <time>2016-02-20T10:12:40Z</time>
      </trkpt>
      <trkpt lat="44.16978" lon="0.37125">
        <ele>159.8</ele>
        <time>2016-02-20T10:12:43Z</time>
      </trkpt>
      <trkpt lat="44.16964" lon="0.37117">
        <ele>159</ele>
        <time>2016-02-20T10:12:45Z</time>
      </trkpt>
      <trkpt lat="44.16956" lon="0.37114">
        <ele>158.8</ele>
        <time>2016-02-20T10:12:46Z</time>
      </trkpt>
      <trkpt lat="44.16933" lon="0.37108">
        <ele>157.2</ele>
        <time>2016-02-20T10:12:49Z</time>
      </trkpt>
      <trkpt lat="44.16925" lon="0.37107">
        <ele>157</ele>
        <time>2016-02-20T10:12:50Z</time>
      </trkpt>
      <trkpt lat="44.16893" lon="0.37107">
        <ele>156</ele>
        <time>2016-02-20T10:12:54Z</time>
      </trkpt>
      <trkpt lat="44.16869" lon="0.37109">
        <ele>155</ele>
        <time>2016-02-20T10:12:57Z</time>
      </trkpt>
      <trkpt lat="44.16861" lon="0.3711">
        <ele>155</ele>
        <time>2016-02-20T10:12:58Z</time>
      </trkpt>
      <trkpt lat="44.16836" lon="0.37115">
        <ele>153.8</ele>
        <time>2016-02-20T10:13:01Z</time>
      </trkpt>
      <trkpt lat="44.16818" lon="0.37118">
        <ele>153</ele>
        <time>2016-02-20T10:13:03Z</time>
      </trkpt>
      <trkpt lat="44.1681" lon="0.37119">
        <ele>152.6</ele>
        <time>2016-02-20T10:13:04Z</time>
      </trkpt>
      <trkpt lat="44.16792" lon="0.37121">
        <ele>151.4</ele>
        <time>2016-02-20T10:13:06Z</time>
      </trkpt>
      <trkpt lat="44.16766" lon="0.37122">
        <ele>149.6</ele>
        <time>2016-02-20T10:13:09Z</time>
      </trkpt>
      <trkpt lat="44.16757" lon="0.37121">
        <ele>149.2</ele>
        <time>2016-02-20T10:13:10Z</time>
      </trkpt>
      <trkpt lat="44.16739" lon="0.37118">
        <ele>148.6</ele>
        <time>2016-02-20T10:13:12Z</time>
      </trkpt>
      <trkpt lat="44.16713" lon="0.37108">
        <ele>147.2</ele>
        <time>2016-02-20T10:13:15Z</time>
      </trkpt>
      <trkpt lat="44.16705" lon="0.37103">
        <ele>146.6</ele>
        <time>2016-02-20T10:13:16Z</time>
      </trkpt>
      <trkpt lat="44.16697" lon="0.37098">
        <ele>145.8</ele>
        <time>2016-02-20T10:13:17Z</time>
      </trkpt>
      <trkpt lat="44.16675" lon="0.3708">
        <ele>145.6</ele>
        <time>2016-02-20T10:13:20Z</time>
      </trkpt>
      <trkpt lat="44.16647" lon="0.37046">
        <ele>145.4</ele>
        <time>2016-02-20T10:13:25Z</time>
      </trkpt>
      <trkpt lat="44.16624" lon="0.37005">
        <ele>146</ele>
        <time>2016-02-20T10:13:31Z</time>
      </trkpt>
      <trkpt lat="44.16602" lon="0.3695">
        <ele>145.4</ele>
        <time>2016-02-20T10:13:39Z</time>
      </trkpt>
      <trkpt lat="44.16596" lon="0.36936">
        <ele>144.8</ele>
        <time>2016-02-20T10:13:41Z</time>
      </trkpt>
      <trkpt lat="44.16581" lon="0.36896">
        <ele>143.6</ele>
        <time>2016-02-20T10:13:46Z</time>
      </trkpt>
      <trkpt lat="44.16578" lon="0.36888">
        <ele>143.2</ele>
        <time>2016-02-20T10:13:47Z</time>
      </trkpt>
      <trkpt lat="44.16564" lon="0.36854">
        <ele>142</ele>
        <time>2016-02-20T10:13:51Z</time>
      </trkpt>
      <trkpt lat="44.16551" lon="0.36827">
        <ele>140.6</ele>
        <time>2016-02-20T10:13:54Z</time>
      </trkpt>
      <trkpt lat="44.16546" lon="0.36818">
        <ele>140.6</ele>
        <time>2016-02-20T10:13:55Z</time>
      </trkpt>
      <trkpt lat="44.1653" lon="0.36794">
        <ele>139.4</ele>
        <time>2016-02-20T10:13:58Z</time>
      </trkpt>
      <trkpt lat="44.16512" lon="0.36771">
        <ele>138</ele>
        <time>2016-02-20T10:14:01Z</time>
      </trkpt>
      <trkpt lat="44.16498" lon="0.36758">
        <ele>136.6</ele>
        <time>2016-02-20T10:14:03Z</time>
      </trkpt>
      <trkpt lat="44.16474" lon="0.36742">
        <ele>135.4</ele>
        <time>2016-02-20T10:14:06Z</time>
      </trkpt>
      <trkpt lat="44.16457" lon="0.36737">
        <ele>135</ele>
        <time>2016-02-20T10:14:08Z</time>
      </trkpt>
      <trkpt lat="44.16448" lon="0.36735">
        <ele>134.2</ele>
        <time>2016-02-20T10:14:09Z</time>
      </trkpt>
      <trkpt lat="44.16439" lon="0.36735">
        <ele>134</ele>
        <time>2016-02-20T10:14:10Z</time>
      </trkpt>
      <trkpt lat="44.16429" lon="0.36737">
        <ele>133.2</ele>
        <time>2016-02-20T10:14:11Z</time>
      </trkpt>
      <trkpt lat="44.16411" lon="0.36743">
        <ele>132.2</ele>
        <time>2016-02-20T10:14:13Z</time>
      </trkpt>
      <trkpt lat="44.16402" lon="0.36747">
        <ele>132.2</ele>
        <time>2016-02-20T10:14:14Z</time>
      </trkpt>
      <trkpt lat="44.16383" lon="0.36756">
        <ele>130.6</ele>
        <time>2016-02-20T10:14:16Z</time>
      </trkpt>
      <trkpt lat="44.16365" lon="0.36766">
        <ele>129.4</ele>
        <time>2016-02-20T10:14:18Z</time>
      </trkpt>
      <trkpt lat="44.16356" lon="0.3677">
        <ele>128.8</ele>
        <time>2016-02-20T10:14:19Z</time>
      </trkpt>
      <trkpt lat="44.16346" lon="0.36775">
        <ele>127.8</ele>
        <time>2016-02-20T10:14:20Z</time>
      </trkpt>
      <trkpt lat="44.16308" lon="0.36793">
        <ele>125.4</ele>
        <time>2016-02-20T10:14:24Z</time>
      </trkpt>
      <trkpt lat="44.16298" lon="0.36796">
        <ele>125.4</ele>
        <time>2016-02-20T10:14:25Z</time>
      </trkpt>
      <trkpt lat="44.16288" lon="0.36799">
        <ele>125</ele>
        <time>2016-02-20T10:14:26Z</time>
      </trkpt>
      <trkpt lat="44.16268" lon="0.36797">
        <ele>124.2</ele>
        <time>2016-02-20T10:14:28Z</time>
      </trkpt>
      <trkpt lat="44.16248" lon="0.36785">
        <ele>122.6</ele>
        <time>2016-02-20T10:14:30Z</time>
      </trkpt>
      <trkpt lat="44.1624" lon="0.36776">
        <ele>122</ele>
        <time>2016-02-20T10:14:31Z</time>
      </trkpt>
      <trkpt lat="44.16233" lon="0.36765">
        <ele>121.6</ele>
        <time>2016-02-20T10:14:32Z</time>
      </trkpt>
      <trkpt lat="44.16222" lon="0.3674">
        <ele>121</ele>
        <time>2016-02-20T10:14:34Z</time>
      </trkpt>
      <trkpt lat="44.16218" lon="0.36727">
        <ele>120.6</ele>
        <time>2016-02-20T10:14:35Z</time>
      </trkpt>
      <trkpt lat="44.16213" lon="0.367">
        <ele>120.4</ele>
        <time>2016-02-20T10:14:37Z</time>
      </trkpt>
      <trkpt lat="44.16211" lon="0.36687">
        <ele>120.4</ele>
        <time>2016-02-20T10:14:38Z</time>
      </trkpt>
      <trkpt lat="44.16207" lon="0.36625">
        <ele>120</ele>
        <time>2016-02-20T10:14:43Z</time>
      </trkpt>
      <trkpt lat="44.16205" lon="0.36592">
        <ele>120.8</ele>
        <time>2016-02-20T10:14:46Z</time>
      </trkpt>
      <trkpt lat="44.16202" lon="0.36581">
        <ele>120.6</ele>
        <time>2016-02-20T10:14:47Z</time>
      </trkpt>
      <trkpt lat="44.16187" lon="0.36547">
        <ele>120.8</ele>
        <time>2016-02-20T10:14:51Z</time>
      </trkpt>
      <trkpt lat="44.16157" lon="0.36497">
        <ele>121.2</ele>
        <time>2016-02-20T10:14:58Z</time>
      </trkpt>
      <trkpt lat="44.16123" lon="0.36452">
        <ele>121</ele>
        <time>2016-02-20T10:15:06Z</time>
      </trkpt>
      <trkpt lat="44.16115" lon="0.36443">
        <ele>121.2</ele>
        <time>2016-02-20T10:15:08Z</time>
      </trkpt>
      <trkpt lat="44.16102" lon="0.36431">
        <ele>121.6</ele>
        <time>2016-02-20T10:15:11Z</time>
      </trkpt>
      <trkpt lat="44.16094" lon="0.36423">
        <ele>121.6</ele>
        <time>2016-02-20T10:15:13Z</time>
      </trkpt>
      <trkpt lat="44.16068" lon="0.36399">
        <ele>122</ele>
        <time>2016-02-20T10:15:20Z</time>
      </trkpt>
      <trkpt lat="44.16052" lon="0.36387">
        <ele>122.8</ele>
        <time>2016-02-20T10:15:24Z</time>
      </trkpt>
      <trkpt lat="44.16035" lon="0.36376">
        <ele>122.4</ele>
        <time>2016-02-20T10:15:28Z</time>
      </trkpt>
      <trkpt lat="44.16001" lon="0.36356">
        <ele>123</ele>
        <time>2016-02-20T10:15:36Z</time>
      </trkpt>
      <trkpt lat="44.15992" lon="0.36351">
        <ele>123.4</ele>
        <time>2016-02-20T10:15:38Z</time>
      </trkpt>
      <trkpt lat="44.1597" lon="0.36339">
        <ele>123.6</ele>
        <time>2016-02-20T10:15:43Z</time>
      </trkpt>
      <trkpt lat="44.15966" lon="0.36337">
        <ele>123.8</ele>
        <time>2016-02-20T10:15:44Z</time>
      </trkpt>
      <trkpt lat="44.15918" lon="0.36311">
        <ele>124.6</ele>
        <time>2016-02-20T10:15:55Z</time>
      </trkpt>
      <trkpt lat="44.15905" lon="0.36304">
        <ele>125</ele>
        <time>2016-02-20T10:15:58Z</time>
      </trkpt>
      <trkpt lat="44.15875" lon="0.36289">
        <ele>125.2</ele>
        <time>2016-02-20T10:16:05Z</time>
      </trkpt>
      <trkpt lat="44.15846" lon="0.36273">
        <ele>125.4</ele>
        <time>2016-02-20T10:16:13Z</time>
      </trkpt>
      <trkpt lat="44.1582" lon="0.36259">
        <ele>125.2</ele>
        <time>2016-02-20T10:16:21Z</time>
      </trkpt>
      <trkpt lat="44.15794" lon="0.36245">
        <ele>126</ele>
        <time>2016-02-20T10:16:29Z</time>
      </trkpt>
      <trkpt lat="44.15788" lon="0.36241">
        <ele>126</ele>
        <time>2016-02-20T10:16:31Z</time>
      </trkpt>
      <trkpt lat="44.15767" lon="0.3623">
        <ele>126.6</ele>
        <time>2016-02-20T10:16:38Z</time>
      </trkpt>
      <trkpt lat="44.15753" lon="0.36222">
        <ele>126.8</ele>
        <time>2016-02-20T10:16:43Z</time>
      </trkpt>
      <trkpt lat="44.15735" lon="0.36212">
        <ele>127</ele>
        <time>2016-02-20T10:16:50Z</time>
      </trkpt>
      <trkpt lat="44.15727" lon="0.36208">
        <ele>127.2</ele>
        <time>2016-02-20T10:16:53Z</time>
      </trkpt>
      <trkpt lat="44.15703" lon="0.36198">
        <ele>127.4</ele>
        <time>2016-02-20T10:17:01Z</time>
      </trkpt>
      <trkpt lat="44.15675" lon="0.36192">
        <ele>128</ele>
        <time>2016-02-20T10:17:10Z</time>
      </trkpt>
      <trkpt lat="44.15657" lon="0.36188">
        <ele>128</ele>
        <time>2016-02-20T10:17:16Z</time>
      </trkpt>
      <trkpt lat="44.1565" lon="0.36187">
        <ele>128.2</ele>
        <time>2016-02-20T10:17:18Z</time>
      </trkpt>
      <trkpt lat="44.15625" lon="0.36185">
        <ele>128.6</ele>
        <time>2016-02-20T10:17:25Z</time>
      </trkpt>
      <trkpt lat="44.15601" lon="0.36184">
        <ele>128.6</ele>
        <time>2016-02-20T10:17:31Z</time>
      </trkpt>
      <trkpt lat="44.15572" lon="0.36179">
        <ele>129</ele>
        <time>2016-02-20T10:17:39Z</time>
      </trkpt>
      <trkpt lat="44.15564" lon="0.36178">
        <ele>129</ele>
        <time>2016-02-20T10:17:41Z</time>
      </trkpt>
      <trkpt lat="44.15561" lon="0.36177">
        <ele>129</ele>
        <time>2016-02-20T10:17:42Z</time>
      </trkpt>
      <trkpt lat="44.15533" lon="0.36174">
        <ele>129.8</ele>
        <time>2016-02-20T10:17:50Z</time>
      </trkpt>
      <trkpt lat="44.15526" lon="0.36174">
        <ele>130</ele>
        <time>2016-02-20T10:17:52Z</time>
      </trkpt>
      <trkpt lat="44.15514" lon="0.36173">
        <ele>130.2</ele>
        <time>2016-02-20T10:17:56Z</time>
      </trkpt>
      <trkpt lat="44.15488" lon="0.3617">
        <ele>131.2</ele>
        <time>2016-02-20T10:18:05Z</time>
      </trkpt>
      <trkpt lat="44.15485" lon="0.36169">
        <ele>131.2</ele>
        <time>2016-02-20T10:18:06Z</time>
      </trkpt>
      <trkpt lat="44.15469" lon="0.36168">
        <ele>132.2</ele>
        <time>2016-02-20T10:18:12Z</time>
      </trkpt>
      <trkpt lat="44.15467" lon="0.36167">
        <ele>132.2</ele>
        <time>2016-02-20T10:18:13Z</time>
      </trkpt>
      <trkpt lat="44.15447" lon="0.36166">
        <ele>132.6</ele>
        <time>2016-02-20T10:18:20Z</time>
      </trkpt>
      <trkpt lat="44.15439" lon="0.36165">
        <ele>133.2</ele>
        <time>2016-02-20T10:18:23Z</time>
      </trkpt>
      <trkpt lat="44.15428" lon="0.36163">
        <ele>133.4</ele>
        <time>2016-02-20T10:18:27Z</time>
      </trkpt>
      <trkpt lat="44.15404" lon="0.36161">
        <ele>134.2</ele>
        <time>2016-02-20T10:18:36Z</time>
      </trkpt>
      <trkpt lat="44.15402" lon="0.3616">
        <ele>134.4</ele>
        <time>2016-02-20T10:18:37Z</time>
      </trkpt>
      <trkpt lat="44.15383" lon="0.36159">
        <ele>135</ele>
        <time>2016-02-20T10:18:45Z</time>
      </trkpt>
      <trkpt lat="44.15376" lon="0.36157">
        <ele>135.4</ele>
        <time>2016-02-20T10:18:48Z</time>
      </trkpt>
      <trkpt lat="44.15365" lon="0.36155">
        <ele>135.8</ele>
        <time>2016-02-20T10:18:52Z</time>
      </trkpt>
      <trkpt lat="44.15345" lon="0.36153">
        <ele>136.4</ele>
        <time>2016-02-20T10:18:59Z</time>
      </trkpt>
      <trkpt lat="44.15342" lon="0.36153">
        <ele>136.4</ele>
        <time>2016-02-20T10:19:00Z</time>
      </trkpt>
      <trkpt lat="44.15311" lon="0.36149">
        <ele>137.2</ele>
        <time>2016-02-20T10:19:11Z</time>
      </trkpt>
      <trkpt lat="44.15303" lon="0.36149">
        <ele>137.4</ele>
        <time>2016-02-20T10:19:14Z</time>
      </trkpt>
      <trkpt lat="44.15293" lon="0.36148">
        <ele>137.8</ele>
        <time>2016-02-20T10:19:18Z</time>
      </trkpt>
      <trkpt lat="44.15274" lon="0.36146">
        <ele>138.6</ele>
        <time>2016-02-20T10:19:26Z</time>
      </trkpt>
      <trkpt lat="44.15272" lon="0.36146">
        <ele>138.8</ele>
        <time>2016-02-20T10:19:27Z</time>
      </trkpt>
      <trkpt lat="44.15254" lon="0.36145">
        <ele>139.4</ele>
        <time>2016-02-20T10:19:36Z</time>
      </trkpt>
      <trkpt lat="44.15251" lon="0.36144">
        <ele>139.6</ele>
        <time>2016-02-20T10:19:43Z</time>
      </trkpt>
      <trkpt lat="44.15244" lon="0.36143">
        <ele>139.6</ele>
        <time>2016-02-20T10:19:47Z</time>
      </trkpt>
      <trkpt lat="44.15227" lon="0.36141">
        <ele>140.4</ele>
        <time>2016-02-20T10:19:54Z</time>
      </trkpt>
      <trkpt lat="44.15222" lon="0.36141">
        <ele>140.8</ele>
        <time>2016-02-20T10:19:56Z</time>
      </trkpt>
      <trkpt lat="44.15207" lon="0.36138">
        <ele>141.4</ele>
        <time>2016-02-20T10:20:02Z</time>
      </trkpt>
      <trkpt lat="44.15205" lon="0.36136">
        <ele>141.6</ele>
        <time>2016-02-20T10:20:06Z</time>
      </trkpt>
      <trkpt lat="44.15201" lon="0.36137">
        <ele>142.6</ele>
        <time>2016-02-20T10:33:37Z</time>
      </trkpt>
      <trkpt lat="44.15199" lon="0.36137">
        <ele>142.8</ele>
        <time>2016-02-20T10:33:38Z</time>
      </trkpt>
      <trkpt lat="44.15183" lon="0.36134">
        <ele>143.6</ele>
        <time>2016-02-20T10:33:44Z</time>
      </trkpt>
      <trkpt lat="44.15178" lon="0.36134">
        <ele>144</ele>
        <time>2016-02-20T10:33:46Z</time>
      </trkpt>
      <trkpt lat="44.15165" lon="0.36133">
        <ele>144.6</ele>
        <time>2016-02-20T10:33:51Z</time>
      </trkpt>
      <trkpt lat="44.15153" lon="0.36132">
        <ele>145.4</ele>
        <time>2016-02-20T10:33:55Z</time>
      </trkpt>
      <trkpt lat="44.15142" lon="0.3613">
        <ele>145.8</ele>
        <time>2016-02-20T10:33:59Z</time>
      </trkpt>
      <trkpt lat="44.15125" lon="0.36129">
        <ele>147</ele>
        <time>2016-02-20T10:34:05Z</time>
      </trkpt>
      <trkpt lat="44.15122" lon="0.36128">
        <ele>147.2</ele>
        <time>2016-02-20T10:34:06Z</time>
      </trkpt>
      <trkpt lat="44.15105" lon="0.36127">
        <ele>148.2</ele>
        <time>2016-02-20T10:34:12Z</time>
      </trkpt>
      <trkpt lat="44.15102" lon="0.36127">
        <ele>148.2</ele>
        <time>2016-02-20T10:34:13Z</time>
      </trkpt>
      <trkpt lat="44.15085" lon="0.36126">
        <ele>149.2</ele>
        <time>2016-02-20T10:34:20Z</time>
      </trkpt>
      <trkpt lat="44.15081" lon="0.36125">
        <ele>149.4</ele>
        <time>2016-02-20T10:34:22Z</time>
      </trkpt>
      <trkpt lat="44.15079" lon="0.36124">
        <ele>149.4</ele>
        <time>2016-02-20T10:34:25Z</time>
      </trkpt>
      <trkpt lat="44.15077" lon="0.36125">
        <ele>149.4</ele>
        <time>2016-02-20T10:34:31Z</time>
      </trkpt>
      <trkpt lat="44.15073" lon="0.36125">
        <ele>149.8</ele>
        <time>2016-02-20T10:34:33Z</time>
      </trkpt>
      <trkpt lat="44.15058" lon="0.36124">
        <ele>150.4</ele>
        <time>2016-02-20T10:34:39Z</time>
      </trkpt>
      <trkpt lat="44.15056" lon="0.36124">
        <ele>150.6</ele>
        <time>2016-02-20T10:34:40Z</time>
      </trkpt>
      <trkpt lat="44.15041" lon="0.36122">
        <ele>151.6</ele>
        <time>2016-02-20T10:34:46Z</time>
      </trkpt>
      <trkpt lat="44.15036" lon="0.36122">
        <ele>151.8</ele>
        <time>2016-02-20T10:34:48Z</time>
      </trkpt>
      <trkpt lat="44.15021" lon="0.3612">
        <ele>152.8</ele>
        <time>2016-02-20T10:34:54Z</time>
      </trkpt>
      <trkpt lat="44.15016" lon="0.3612">
        <ele>153</ele>
        <time>2016-02-20T10:34:56Z</time>
      </trkpt>
      <trkpt lat="44.15007" lon="0.36119">
        <ele>153.8</ele>
        <time>2016-02-20T10:35:00Z</time>
      </trkpt>
      <trkpt lat="44.14999" lon="0.36119">
        <ele>154.2</ele>
        <time>2016-02-20T10:35:03Z</time>
      </trkpt>
      <trkpt lat="44.14991" lon="0.3612">
        <ele>154.8</ele>
        <time>2016-02-20T10:35:06Z</time>
      </trkpt>
      <trkpt lat="44.14982" lon="0.3612">
        <ele>155.8</ele>
        <time>2016-02-20T10:35:10Z</time>
      </trkpt>
      <trkpt lat="44.14978" lon="0.36121">
        <ele>155.8</ele>
        <time>2016-02-20T10:35:12Z</time>
      </trkpt>
      <trkpt lat="44.14966" lon="0.36122">
        <ele>156.4</ele>
        <time>2016-02-20T10:35:16Z</time>
      </trkpt>
      <trkpt lat="44.14961" lon="0.36123">
        <ele>156.8</ele>
        <time>2016-02-20T10:35:18Z</time>
      </trkpt>
      <trkpt lat="44.14939" lon="0.36129">
        <ele>157.8</ele>
        <time>2016-02-20T10:35:26Z</time>
      </trkpt>
      <trkpt lat="44.14936" lon="0.3613">
        <ele>158.2</ele>
        <time>2016-02-20T10:35:27Z</time>
      </trkpt>
      <trkpt lat="44.14912" lon="0.36139">
        <ele>159.4</ele>
        <time>2016-02-20T10:35:36Z</time>
      </trkpt>
      <trkpt lat="44.14909" lon="0.3614">
        <ele>159.4</ele>
        <time>2016-02-20T10:35:37Z</time>
      </trkpt>
      <trkpt lat="44.14888" lon="0.36148">
        <ele>160.4</ele>
        <time>2016-02-20T10:35:45Z</time>
      </trkpt>
      <trkpt lat="44.1488" lon="0.36151">
        <ele>160.8</ele>
        <time>2016-02-20T10:35:48Z</time>
      </trkpt>
      <trkpt lat="44.14869" lon="0.36155">
        <ele>161.4</ele>
        <time>2016-02-20T10:35:52Z</time>
      </trkpt>
      <trkpt lat="44.14857" lon="0.36159">
        <ele>162.2</ele>
        <time>2016-02-20T10:35:57Z</time>
      </trkpt>
      <trkpt lat="44.14851" lon="0.3616">
        <ele>162.6</ele>
        <time>2016-02-20T10:35:59Z</time>
      </trkpt>
      <trkpt lat="44.14829" lon="0.36164">
        <ele>163.6</ele>
        <time>2016-02-20T10:36:08Z</time>
      </trkpt>
      <trkpt lat="44.14809" lon="0.36166">
        <ele>164.8</ele>
        <time>2016-02-20T10:36:16Z</time>
      </trkpt>
      <trkpt lat="44.14807" lon="0.36166">
        <ele>164.8</ele>
        <time>2016-02-20T10:36:17Z</time>
      </trkpt>
      <trkpt lat="44.14789" lon="0.36167">
        <ele>165.8</ele>
        <time>2016-02-20T10:36:24Z</time>
      </trkpt>
      <trkpt lat="44.14786" lon="0.36168">
        <ele>166.2</ele>
        <time>2016-02-20T10:36:25Z</time>
      </trkpt>
      <trkpt lat="44.14773" lon="0.36168">
        <ele>166.8</ele>
        <time>2016-02-20T10:36:30Z</time>
      </trkpt>
      <trkpt lat="44.14762" lon="0.36169">
        <ele>167.6</ele>
        <time>2016-02-20T10:36:34Z</time>
      </trkpt>
      <trkpt lat="44.14754" lon="0.36169">
        <ele>167.8</ele>
        <time>2016-02-20T10:36:37Z</time>
      </trkpt>
      <trkpt lat="44.14738" lon="0.3617">
        <ele>168.8</ele>
        <time>2016-02-20T10:36:43Z</time>
      </trkpt>
      <trkpt lat="44.14736" lon="0.36171">
        <ele>169</ele>
        <time>2016-02-20T10:36:44Z</time>
      </trkpt>
      <trkpt lat="44.1472" lon="0.36171">
        <ele>170</ele>
        <time>2016-02-20T10:36:50Z</time>
      </trkpt>
      <trkpt lat="44.14714" lon="0.36171">
        <ele>170.4</ele>
        <time>2016-02-20T10:36:52Z</time>
      </trkpt>
      <trkpt lat="44.14698" lon="0.36172">
        <ele>171</ele>
        <time>2016-02-20T10:36:58Z</time>
      </trkpt>
      <trkpt lat="44.14692" lon="0.36173">
        <ele>171.2</ele>
        <time>2016-02-20T10:37:00Z</time>
      </trkpt>
      <trkpt lat="44.14682" lon="0.36173">
        <ele>172</ele>
        <time>2016-02-20T10:37:04Z</time>
      </trkpt>
      <trkpt lat="44.14664" lon="0.36174">
        <ele>173</ele>
        <time>2016-02-20T10:37:10Z</time>
      </trkpt>
      <trkpt lat="44.14661" lon="0.36174">
        <ele>173</ele>
        <time>2016-02-20T10:37:11Z</time>
      </trkpt>
      <trkpt lat="44.14635" lon="0.36175">
        <ele>174</ele>
        <time>2016-02-20T10:37:19Z</time>
      </trkpt>
      <trkpt lat="44.14633" lon="0.36175">
        <ele>174.2</ele>
        <time>2016-02-20T10:37:20Z</time>
      </trkpt>
      <trkpt lat="44.14618" lon="0.36176">
        <ele>175.2</ele>
        <time>2016-02-20T10:37:25Z</time>
      </trkpt>
      <trkpt lat="44.1461" lon="0.36175">
        <ele>175.4</ele>
        <time>2016-02-20T10:37:28Z</time>
      </trkpt>
      <trkpt lat="44.14601" lon="0.36176">
        <ele>176.4</ele>
        <time>2016-02-20T10:37:32Z</time>
      </trkpt>
      <trkpt lat="44.14595" lon="0.36177">
        <ele>176.4</ele>
        <time>2016-02-20T10:37:34Z</time>
      </trkpt>
      <trkpt lat="44.14578" lon="0.36178">
        <ele>177.2</ele>
        <time>2016-02-20T10:37:40Z</time>
      </trkpt>
      <trkpt lat="44.14574" lon="0.36179">
        <ele>177.6</ele>
        <time>2016-02-20T10:37:42Z</time>
      </trkpt>
      <trkpt lat="44.1456" lon="0.36181">
        <ele>177.8</ele>
        <time>2016-02-20T10:37:48Z</time>
      </trkpt>
      <trkpt lat="44.14546" lon="0.3618">
        <ele>178</ele>
        <time>2016-02-20T10:37:55Z</time>
      </trkpt>
      <trkpt lat="44.14545" lon="0.3618">
        <ele>177.8</ele>
        <time>2016-02-20T10:37:59Z</time>
      </trkpt>
      <trkpt lat="44.14538" lon="0.36182">
        <ele>177.8</ele>
        <time>2016-02-20T10:38:36Z</time>
      </trkpt>
      <trkpt lat="44.14533" lon="0.36182">
        <ele>177.8</ele>
        <time>2016-02-20T10:38:38Z</time>
      </trkpt>
      <trkpt lat="44.14516" lon="0.36182">
        <ele>177.2</ele>
        <time>2016-02-20T10:38:43Z</time>
      </trkpt>
      <trkpt lat="44.14492" lon="0.36185">
        <ele>176.6</ele>
        <time>2016-02-20T10:38:48Z</time>
      </trkpt>
      <trkpt lat="44.14487" lon="0.36185">
        <ele>176.4</ele>
        <time>2016-02-20T10:38:49Z</time>
      </trkpt>
      <trkpt lat="44.14471" lon="0.36187">
        <ele>175.4</ele>
        <time>2016-02-20T10:38:52Z</time>
      </trkpt>
      <trkpt lat="44.14447" lon="0.36187">
        <ele>174.2</ele>
        <time>2016-02-20T10:38:56Z</time>
      </trkpt>
      <trkpt lat="44.14434" lon="0.36188">
        <ele>173</ele>
        <time>2016-02-20T10:38:58Z</time>
      </trkpt>
      <trkpt lat="44.14399" lon="0.3619">
        <ele>171.8</ele>
        <time>2016-02-20T10:39:03Z</time>
      </trkpt>
      <trkpt lat="44.14384" lon="0.36191">
        <ele>170.8</ele>
        <time>2016-02-20T10:39:05Z</time>
      </trkpt>
      <trkpt lat="44.14352" lon="0.36193">
        <ele>169.2</ele>
        <time>2016-02-20T10:39:09Z</time>
      </trkpt>
      <trkpt lat="44.14343" lon="0.36194">
        <ele>168.6</ele>
        <time>2016-02-20T10:39:10Z</time>
      </trkpt>
      <trkpt lat="44.14335" lon="0.36195">
        <ele>168</ele>
        <time>2016-02-20T10:39:11Z</time>
      </trkpt>
      <trkpt lat="44.14309" lon="0.36196">
        <ele>166.8</ele>
        <time>2016-02-20T10:39:14Z</time>
      </trkpt>
      <trkpt lat="44.14291" lon="0.36194">
        <ele>166</ele>
        <time>2016-02-20T10:39:16Z</time>
      </trkpt>
      <trkpt lat="44.14282" lon="0.36193">
        <ele>165.6</ele>
        <time>2016-02-20T10:39:17Z</time>
      </trkpt>
      <trkpt lat="44.14256" lon="0.3619">
        <ele>164.2</ele>
        <time>2016-02-20T10:39:20Z</time>
      </trkpt>
      <trkpt lat="44.14229" lon="0.36186">
        <ele>163</ele>
        <time>2016-02-20T10:39:23Z</time>
      </trkpt>
      <trkpt lat="44.14202" lon="0.36181">
        <ele>161.6</ele>
        <time>2016-02-20T10:39:26Z</time>
      </trkpt>
      <trkpt lat="44.14183" lon="0.36178">
        <ele>160.4</ele>
        <time>2016-02-20T10:39:28Z</time>
      </trkpt>
      <trkpt lat="44.14155" lon="0.36173">
        <ele>158.8</ele>
        <time>2016-02-20T10:39:31Z</time>
      </trkpt>
      <trkpt lat="44.14146" lon="0.36172">
        <ele>158.4</ele>
        <time>2016-02-20T10:39:32Z</time>
      </trkpt>
      <trkpt lat="44.14127" lon="0.36168">
        <ele>157.2</ele>
        <time>2016-02-20T10:39:34Z</time>
      </trkpt>
      <trkpt lat="44.14107" lon="0.36164">
        <ele>155.6</ele>
        <time>2016-02-20T10:39:36Z</time>
      </trkpt>
      <trkpt lat="44.14079" lon="0.36154">
        <ele>154.2</ele>
        <time>2016-02-20T10:39:39Z</time>
      </trkpt>
      <trkpt lat="44.14051" lon="0.36141">
        <ele>153.2</ele>
        <time>2016-02-20T10:39:42Z</time>
      </trkpt>
      <trkpt lat="44.14035" lon="0.36129">
        <ele>151.8</ele>
        <time>2016-02-20T10:39:44Z</time>
      </trkpt>
      <trkpt lat="44.1402" lon="0.36113">
        <ele>150.8</ele>
        <time>2016-02-20T10:39:46Z</time>
      </trkpt>
      <trkpt lat="44.14009" lon="0.36093">
        <ele>149.6</ele>
        <time>2016-02-20T10:39:48Z</time>
      </trkpt>
      <trkpt lat="44.14001" lon="0.3607">
        <ele>148.2</ele>
        <time>2016-02-20T10:39:50Z</time>
      </trkpt>
      <trkpt lat="44.13996" lon="0.36044">
        <ele>147.4</ele>
        <time>2016-02-20T10:39:52Z</time>
      </trkpt>
      <trkpt lat="44.13995" lon="0.3603">
        <ele>147</ele>
        <time>2016-02-20T10:39:53Z</time>
      </trkpt>
      <trkpt lat="44.13994" lon="0.36002">
        <ele>145.6</ele>
        <time>2016-02-20T10:39:55Z</time>
      </trkpt>
      <trkpt lat="44.13994" lon="0.35988">
        <ele>144.6</ele>
        <time>2016-02-20T10:39:56Z</time>
      </trkpt>
      <trkpt lat="44.13994" lon="0.35974">
        <ele>144.2</ele>
        <time>2016-02-20T10:39:57Z</time>
      </trkpt>
      <trkpt lat="44.13998" lon="0.35932">
        <ele>142.8</ele>
        <time>2016-02-20T10:40:00Z</time>
      </trkpt>
      <trkpt lat="44.14" lon="0.35918">
        <ele>142.4</ele>
        <time>2016-02-20T10:40:01Z</time>
      </trkpt>
      <trkpt lat="44.14003" lon="0.35905">
        <ele>141.4</ele>
        <time>2016-02-20T10:40:02Z</time>
      </trkpt>
      <trkpt lat="44.14015" lon="0.35866">
        <ele>139.6</ele>
        <time>2016-02-20T10:40:05Z</time>
      </trkpt>
      <trkpt lat="44.14031" lon="0.35829">
        <ele>138.4</ele>
        <time>2016-02-20T10:40:08Z</time>
      </trkpt>
      <trkpt lat="44.14042" lon="0.35805">
        <ele>137.2</ele>
        <time>2016-02-20T10:40:10Z</time>
      </trkpt>
      <trkpt lat="44.14047" lon="0.35792">
        <ele>136.6</ele>
        <time>2016-02-20T10:40:11Z</time>
      </trkpt>
      <trkpt lat="44.14052" lon="0.35779">
        <ele>135.8</ele>
        <time>2016-02-20T10:40:12Z</time>
      </trkpt>
      <trkpt lat="44.1406" lon="0.35753">
        <ele>134.6</ele>
        <time>2016-02-20T10:40:14Z</time>
      </trkpt>
      <trkpt lat="44.14067" lon="0.35725">
        <ele>134</ele>
        <time>2016-02-20T10:40:16Z</time>
      </trkpt>
      <trkpt lat="44.14071" lon="0.35695">
        <ele>133.4</ele>
        <time>2016-02-20T10:40:18Z</time>
      </trkpt>
      <trkpt lat="44.14075" lon="0.35665">
        <ele>132.2</ele>
        <time>2016-02-20T10:40:20Z</time>
      </trkpt>
      <trkpt lat="44.14078" lon="0.35634">
        <ele>130.6</ele>
        <time>2016-02-20T10:40:22Z</time>
      </trkpt>
      <trkpt lat="44.14081" lon="0.35603">
        <ele>129.4</ele>
        <time>2016-02-20T10:40:24Z</time>
      </trkpt>
      <trkpt lat="44.14085" lon="0.35572">
        <ele>128</ele>
        <time>2016-02-20T10:40:26Z</time>
      </trkpt>
      <trkpt lat="44.14092" lon="0.35526">
        <ele>126.8</ele>
        <time>2016-02-20T10:40:29Z</time>
      </trkpt>
      <trkpt lat="44.14099" lon="0.35497">
        <ele>125.8</ele>
        <time>2016-02-20T10:40:31Z</time>
      </trkpt>
      <trkpt lat="44.14103" lon="0.35482">
        <ele>124.8</ele>
        <time>2016-02-20T10:40:32Z</time>
      </trkpt>
      <trkpt lat="44.14107" lon="0.35468">
        <ele>124.4</ele>
        <time>2016-02-20T10:40:33Z</time>
      </trkpt>
      <trkpt lat="44.14116" lon="0.35438">
        <ele>122.6</ele>
        <time>2016-02-20T10:40:35Z</time>
      </trkpt>
      <trkpt lat="44.14125" lon="0.35408">
        <ele>121.6</ele>
        <time>2016-02-20T10:40:37Z</time>
      </trkpt>
      <trkpt lat="44.14129" lon="0.35392">
        <ele>121</ele>
        <time>2016-02-20T10:40:38Z</time>
      </trkpt>
      <trkpt lat="44.14138" lon="0.35363">
        <ele>119.8</ele>
        <time>2016-02-20T10:40:40Z</time>
      </trkpt>
      <trkpt lat="44.14148" lon="0.35318">
        <ele>118.2</ele>
        <time>2016-02-20T10:40:43Z</time>
      </trkpt>
      <trkpt lat="44.14151" lon="0.35303">
        <ele>117.2</ele>
        <time>2016-02-20T10:40:44Z</time>
      </trkpt>
      <trkpt lat="44.14157" lon="0.35273">
        <ele>115.8</ele>
        <time>2016-02-20T10:40:46Z</time>
      </trkpt>
      <trkpt lat="44.14164" lon="0.35243">
        <ele>114.6</ele>
        <time>2016-02-20T10:40:48Z</time>
      </trkpt>
      <trkpt lat="44.14172" lon="0.35214">
        <ele>113.4</ele>
        <time>2016-02-20T10:40:50Z</time>
      </trkpt>
      <trkpt lat="44.14177" lon="0.352">
        <ele>113</ele>
        <time>2016-02-20T10:40:51Z</time>
      </trkpt>
      <trkpt lat="44.14185" lon="0.35172">
        <ele>112</ele>
        <time>2016-02-20T10:40:53Z</time>
      </trkpt>
      <trkpt lat="44.1419" lon="0.35144">
        <ele>111.2</ele>
        <time>2016-02-20T10:40:55Z</time>
      </trkpt>
      <trkpt lat="44.14191" lon="0.35129">
        <ele>110.4</ele>
        <time>2016-02-20T10:40:56Z</time>
      </trkpt>
      <trkpt lat="44.1419" lon="0.351">
        <ele>109</ele>
        <time>2016-02-20T10:40:58Z</time>
      </trkpt>
      <trkpt lat="44.14186" lon="0.35071">
        <ele>107.4</ele>
        <time>2016-02-20T10:41:00Z</time>
      </trkpt>
      <trkpt lat="44.14183" lon="0.35043">
        <ele>106.4</ele>
        <time>2016-02-20T10:41:02Z</time>
      </trkpt>
      <trkpt lat="44.14179" lon="0.35016">
        <ele>105</ele>
        <time>2016-02-20T10:41:04Z</time>
      </trkpt>
      <trkpt lat="44.14174" lon="0.34988">
        <ele>103.8</ele>
        <time>2016-02-20T10:41:06Z</time>
      </trkpt>
      <trkpt lat="44.14172" lon="0.34975">
        <ele>103.4</ele>
        <time>2016-02-20T10:41:07Z</time>
      </trkpt>
      <trkpt lat="44.14168" lon="0.34947">
        <ele>102.4</ele>
        <time>2016-02-20T10:41:09Z</time>
      </trkpt>
      <trkpt lat="44.14162" lon="0.34908">
        <ele>101.4</ele>
        <time>2016-02-20T10:41:12Z</time>
      </trkpt>
      <trkpt lat="44.14157" lon="0.34882">
        <ele>99.8</ele>
        <time>2016-02-20T10:41:14Z</time>
      </trkpt>
      <trkpt lat="44.14144" lon="0.34846">
        <ele>98.4</ele>
        <time>2016-02-20T10:41:17Z</time>
      </trkpt>
      <trkpt lat="44.14138" lon="0.34835">
        <ele>97.8</ele>
        <time>2016-02-20T10:41:18Z</time>
      </trkpt>
      <trkpt lat="44.14125" lon="0.34814">
        <ele>97</ele>
        <time>2016-02-20T10:41:20Z</time>
      </trkpt>
      <trkpt lat="44.14111" lon="0.34796">
        <ele>95.8</ele>
        <time>2016-02-20T10:41:22Z</time>
      </trkpt>
      <trkpt lat="44.14095" lon="0.34781">
        <ele>94.8</ele>
        <time>2016-02-20T10:41:24Z</time>
      </trkpt>
      <trkpt lat="44.14082" lon="0.34769">
        <ele>93.8</ele>
        <time>2016-02-20T10:41:26Z</time>
      </trkpt>
      <trkpt lat="44.14076" lon="0.34763">
        <ele>93.2</ele>
        <time>2016-02-20T10:41:27Z</time>
      </trkpt>
      <trkpt lat="44.14071" lon="0.34757">
        <ele>92.6</ele>
        <time>2016-02-20T10:41:28Z</time>
      </trkpt>
      <trkpt lat="44.14068" lon="0.34743">
        <ele>91.4</ele>
        <time>2016-02-20T10:41:30Z</time>
      </trkpt>
      <trkpt lat="44.14065" lon="0.34729">
        <ele>90.6</ele>
        <time>2016-02-20T10:41:32Z</time>
      </trkpt>
      <trkpt lat="44.14062" lon="0.34724">
        <ele>90.2</ele>
        <time>2016-02-20T10:41:33Z</time>
      </trkpt>
      <trkpt lat="44.14058" lon="0.34722">
        <ele>89.6</ele>
        <time>2016-02-20T10:41:34Z</time>
      </trkpt>
      <trkpt lat="44.14047" lon="0.34722">
        <ele>89.4</ele>
        <time>2016-02-20T10:41:37Z</time>
      </trkpt>
      <trkpt lat="44.14043" lon="0.34723">
        <ele>89</ele>
        <time>2016-02-20T10:41:39Z</time>
      </trkpt>
      <trkpt lat="44.14037" lon="0.34721">
        <ele>88.8</ele>
        <time>2016-02-20T10:41:41Z</time>
      </trkpt>
      <trkpt lat="44.14019" lon="0.34707">
        <ele>88</ele>
        <time>2016-02-20T10:41:46Z</time>
      </trkpt>
      <trkpt lat="44.14015" lon="0.34703">
        <ele>87.8</ele>
        <time>2016-02-20T10:41:47Z</time>
      </trkpt>
      <trkpt lat="44.13996" lon="0.34684">
        <ele>86.6</ele>
        <time>2016-02-20T10:41:51Z</time>
      </trkpt>
      <trkpt lat="44.13991" lon="0.34679">
        <ele>86.2</ele>
        <time>2016-02-20T10:41:52Z</time>
      </trkpt>
      <trkpt lat="44.1398" lon="0.34668">
        <ele>85.4</ele>
        <time>2016-02-20T10:41:54Z</time>
      </trkpt>
      <trkpt lat="44.13969" lon="0.34656">
        <ele>85</ele>
        <time>2016-02-20T10:41:56Z</time>
      </trkpt>
      <trkpt lat="44.13957" lon="0.34644">
        <ele>84.4</ele>
        <time>2016-02-20T10:41:58Z</time>
      </trkpt>
      <trkpt lat="44.13932" lon="0.34618">
        <ele>83.2</ele>
        <time>2016-02-20T10:42:02Z</time>
      </trkpt>
      <trkpt lat="44.13919" lon="0.34605">
        <ele>82</ele>
        <time>2016-02-20T10:42:04Z</time>
      </trkpt>
      <trkpt lat="44.13906" lon="0.34592">
        <ele>81.2</ele>
        <time>2016-02-20T10:42:06Z</time>
      </trkpt>
      <trkpt lat="44.13899" lon="0.34585">
        <ele>80.8</ele>
        <time>2016-02-20T10:42:07Z</time>
      </trkpt>
      <trkpt lat="44.13885" lon="0.34571">
        <ele>79.6</ele>
        <time>2016-02-20T10:42:09Z</time>
      </trkpt>
      <trkpt lat="44.13864" lon="0.34549">
        <ele>78.2</ele>
        <time>2016-02-20T10:42:12Z</time>
      </trkpt>
      <trkpt lat="44.1385" lon="0.34534">
        <ele>77</ele>
        <time>2016-02-20T10:42:14Z</time>
      </trkpt>
      <trkpt lat="44.13829" lon="0.34511">
        <ele>75.8</ele>
        <time>2016-02-20T10:42:17Z</time>
      </trkpt>
      <trkpt lat="44.13819" lon="0.34497">
        <ele>74.8</ele>
        <time>2016-02-20T10:42:19Z</time>
      </trkpt>
      <trkpt lat="44.13818" lon="0.34492">
        <ele>74.4</ele>
        <time>2016-02-20T10:42:20Z</time>
      </trkpt>
      <trkpt lat="44.13814" lon="0.34482">
        <ele>73.6</ele>
        <time>2016-02-20T10:42:22Z</time>
      </trkpt>
      <trkpt lat="44.1381" lon="0.34478">
        <ele>73.6</ele>
        <time>2016-02-20T10:42:23Z</time>
      </trkpt>
      <trkpt lat="44.13802" lon="0.34479">
        <ele>73.6</ele>
        <time>2016-02-20T10:42:25Z</time>
      </trkpt>
      <trkpt lat="44.138" lon="0.3449">
        <ele>73.4</ele>
        <time>2016-02-20T10:42:27Z</time>
      </trkpt>
      <trkpt lat="44.13809" lon="0.34499">
        <ele>73.4</ele>
        <time>2016-02-20T10:42:30Z</time>
      </trkpt>
      <trkpt lat="44.13814" lon="0.34488">
        <ele>73.6</ele>
        <time>2016-02-20T10:42:33Z</time>
      </trkpt>
      <trkpt lat="44.13805" lon="0.34478">
        <ele>73.2</ele>
        <time>2016-02-20T10:42:36Z</time>
      </trkpt>
      <trkpt lat="44.13792" lon="0.34458">
        <ele>72.8</ele>
        <time>2016-02-20T10:42:40Z</time>
      </trkpt>
      <trkpt lat="44.13781" lon="0.34433">
        <ele>72.2</ele>
        <time>2016-02-20T10:42:44Z</time>
      </trkpt>
      <trkpt lat="44.13778" lon="0.34418">
        <ele>71.6</ele>
        <time>2016-02-20T10:42:46Z</time>
      </trkpt>
      <trkpt lat="44.13776" lon="0.34402">
        <ele>71</ele>
        <time>2016-02-20T10:42:48Z</time>
      </trkpt>
      <trkpt lat="44.13768" lon="0.34364">
        <ele>70.6</ele>
        <time>2016-02-20T10:42:53Z</time>
      </trkpt>
      <trkpt lat="44.13762" lon="0.34345">
        <ele>70</ele>
        <time>2016-02-20T10:42:56Z</time>
      </trkpt>
      <trkpt lat="44.13758" lon="0.34339">
        <ele>69.8</ele>
        <time>2016-02-20T10:42:57Z</time>
      </trkpt>
      <trkpt lat="44.13755" lon="0.34334">
        <ele>69.6</ele>
        <time>2016-02-20T10:42:58Z</time>
      </trkpt>
      <trkpt lat="44.13747" lon="0.3432">
        <ele>68.8</ele>
        <time>2016-02-20T10:43:01Z</time>
      </trkpt>
      <trkpt lat="44.13741" lon="0.34313">
        <ele>68</ele>
        <time>2016-02-20T10:43:03Z</time>
      </trkpt>
      <trkpt lat="44.13739" lon="0.34309">
        <ele>67.8</ele>
        <time>2016-02-20T10:43:04Z</time>
      </trkpt>
      <trkpt lat="44.13733" lon="0.34301">
        <ele>66.4</ele>
        <time>2016-02-20T10:43:07Z</time>
      </trkpt>
      <trkpt lat="44.13731" lon="0.34299">
        <ele>66.2</ele>
        <time>2016-02-20T10:43:08Z</time>
      </trkpt>
      <trkpt lat="44.1373" lon="0.34297">
        <ele>65.6</ele>
        <time>2016-02-20T10:43:10Z</time>
      </trkpt>
      <trkpt lat="44.13729" lon="0.34296">
        <ele>65.4</ele>
        <time>2016-02-20T10:43:12Z</time>
      </trkpt>
      <trkpt lat="44.13725" lon="0.34296">
        <ele>64.8</ele>
        <time>2016-02-20T10:44:09Z</time>
      </trkpt>
      <trkpt lat="44.13724" lon="0.34296">
        <ele>64.6</ele>
        <time>2016-02-20T10:44:11Z</time>
      </trkpt>
      <trkpt lat="44.13722" lon="0.34298">
        <ele>64.4</ele>
        <time>2016-02-20T10:44:12Z</time>
      </trkpt>
      <trkpt lat="44.13716" lon="0.34301">
        <ele>63.4</ele>
        <time>2016-02-20T10:44:16Z</time>
      </trkpt>
      <trkpt lat="44.13714" lon="0.34303">
        <ele>63.2</ele>
        <time>2016-02-20T10:44:17Z</time>
      </trkpt>
      <trkpt lat="44.13707" lon="0.34304">
        <ele>62.4</ele>
        <time>2016-02-20T10:44:20Z</time>
      </trkpt>
      <trkpt lat="44.13705" lon="0.34303">
        <ele>62</ele>
        <time>2016-02-20T10:44:21Z</time>
      </trkpt>
      <trkpt lat="44.13706" lon="0.34306">
        <ele>61.4</ele>
        <time>2016-02-20T10:44:24Z</time>
      </trkpt>
      <trkpt lat="44.13702" lon="0.34307">
        <ele>61.6</ele>
        <time>2016-02-20T10:44:28Z</time>
      </trkpt>
      <trkpt lat="44.137" lon="0.34308">
        <ele>61.8</ele>
        <time>2016-02-20T10:44:30Z</time>
      </trkpt>
      <trkpt lat="44.13687" lon="0.34311">
        <ele>61.8</ele>
        <time>2016-02-20T10:44:37Z</time>
      </trkpt>
      <trkpt lat="44.13672" lon="0.34315">
        <ele>61.6</ele>
        <time>2016-02-20T10:44:43Z</time>
      </trkpt>
      <trkpt lat="44.13667" lon="0.34317">
        <ele>61</ele>
        <time>2016-02-20T10:44:46Z</time>
      </trkpt>
      <trkpt lat="44.13663" lon="0.34317">
        <ele>61</ele>
        <time>2016-02-20T10:44:49Z</time>
      </trkpt>
      <trkpt lat="44.13662" lon="0.34319">
        <ele>60.8</ele>
        <time>2016-02-20T10:44:51Z</time>
      </trkpt>
      <trkpt lat="44.13658" lon="0.3432">
        <ele>60.8</ele>
        <time>2016-02-20T10:44:55Z</time>
      </trkpt>
      <trkpt lat="44.13658" lon="0.34313">
        <ele>59.8</ele>
        <time>2016-02-20T10:45:34Z</time>
      </trkpt>
      <trkpt lat="44.13666" lon="0.34303">
        <ele>58.6</ele>
        <time>2016-02-20T10:45:38Z</time>
      </trkpt>
      <trkpt lat="44.13668" lon="0.343">
        <ele>58.4</ele>
        <time>2016-02-20T10:45:39Z</time>
      </trkpt>
      <trkpt lat="44.13673" lon="0.34293">
        <ele>57.4</ele>
        <time>2016-02-20T10:45:42Z</time>
      </trkpt>
      <trkpt lat="44.13673" lon="0.34291">
        <ele>57.2</ele>
        <time>2016-02-20T10:45:43Z</time>
      </trkpt>
      <trkpt lat="44.13674" lon="0.34278">
        <ele>56.2</ele>
        <time>2016-02-20T10:45:46Z</time>
      </trkpt>
      <trkpt lat="44.13675" lon="0.34266">
        <ele>55.2</ele>
        <time>2016-02-20T10:45:48Z</time>
      </trkpt>
      <trkpt lat="44.13678" lon="0.3424">
        <ele>53.8</ele>
        <time>2016-02-20T10:45:52Z</time>
      </trkpt>
      <trkpt lat="44.1368" lon="0.34223">
        <ele>53</ele>
        <time>2016-02-20T10:45:55Z</time>
      </trkpt>
      <trkpt lat="44.13681" lon="0.34216">
        <ele>52.8</ele>
        <time>2016-02-20T10:45:57Z</time>
      </trkpt>
      <trkpt lat="44.13683" lon="0.34207">
        <ele>52.8</ele>
        <time>2016-02-20T10:46:00Z</time>
      </trkpt>
      <trkpt lat="44.13684" lon="0.3419">
        <ele>53.8</ele>
        <time>2016-02-20T10:46:07Z</time>
      </trkpt>
      <trkpt lat="44.13684" lon="0.34188">
        <ele>54</ele>
        <time>2016-02-20T10:46:08Z</time>
      </trkpt>
      <trkpt lat="44.13685" lon="0.34181">
        <ele>54.4</ele>
        <time>2016-02-20T10:46:13Z</time>
      </trkpt>
      <trkpt lat="44.13684" lon="0.3418">
        <ele>54.4</ele>
        <time>2016-02-20T10:46:14Z</time>
      </trkpt>
      <trkpt lat="44.13684" lon="0.34181">
        <ele>54.4</ele>
        <time>2016-02-20T10:46:18Z</time>
      </trkpt>
      <trkpt lat="44.13684" lon="0.34179">
        <ele>54.4</ele>
        <time>2016-02-20T10:46:23Z</time>
      </trkpt>
      <trkpt lat="44.13685" lon="0.34164">
        <ele>54.4</ele>
        <time>2016-02-20T10:48:03Z</time>
      </trkpt>
      <trkpt lat="44.13686" lon="0.34158">
        <ele>53.4</ele>
        <time>2016-02-20T10:48:05Z</time>
      </trkpt>
      <trkpt lat="44.13687" lon="0.34156">
        <ele>53</ele>
        <time>2016-02-20T10:48:07Z</time>
      </trkpt>
      <trkpt lat="44.13688" lon="0.34155">
        <ele>52.6</ele>
        <time>2016-02-20T10:48:10Z</time>
      </trkpt>
      <trkpt lat="44.13688" lon="0.34154">
        <ele>52.6</ele>
        <time>2016-02-20T10:48:17Z</time>
      </trkpt>
      <trkpt lat="44.13687" lon="0.34151">
        <ele>52.6</ele>
        <time>2016-02-20T10:48:32Z</time>
      </trkpt>
      <trkpt lat="44.13684" lon="0.34143">
        <ele>52.4</ele>
        <time>2016-02-20T10:48:35Z</time>
      </trkpt>
      <trkpt lat="44.13681" lon="0.34128">
        <ele>52.4</ele>
        <time>2016-02-20T10:48:39Z</time>
      </trkpt>
      <trkpt lat="44.13681" lon="0.34104">
        <ele>53.6</ele>
        <time>2016-02-20T10:48:45Z</time>
      </trkpt>
      <trkpt lat="44.13681" lon="0.34097">
        <ele>54</ele>
        <time>2016-02-20T10:48:47Z</time>
      </trkpt>
      <trkpt lat="44.13679" lon="0.34084">
        <ele>55.4</ele>
        <time>2016-02-20T10:48:51Z</time>
      </trkpt>
      <trkpt lat="44.13678" lon="0.34078">
        <ele>55.8</ele>
        <time>2016-02-20T10:48:53Z</time>
      </trkpt>
      <trkpt lat="44.13675" lon="0.34071">
        <ele>56.6</ele>
        <time>2016-02-20T10:48:55Z</time>
      </trkpt>
      <trkpt lat="44.1367" lon="0.34066">
        <ele>57.6</ele>
        <time>2016-02-20T10:48:58Z</time>
      </trkpt>
      <trkpt lat="44.13668" lon="0.34065">
        <ele>58</ele>
        <time>2016-02-20T10:48:59Z</time>
      </trkpt>
      <trkpt lat="44.13655" lon="0.34063">
        <ele>59.2</ele>
        <time>2016-02-20T10:49:04Z</time>
      </trkpt>
      <trkpt lat="44.13648" lon="0.34055">
        <ele>60.4</ele>
        <time>2016-02-20T10:49:08Z</time>
      </trkpt>
      <trkpt lat="44.13644" lon="0.3405">
        <ele>61.2</ele>
        <time>2016-02-20T10:49:12Z</time>
      </trkpt>
      <trkpt lat="44.13643" lon="0.34048">
        <ele>61.4</ele>
        <time>2016-02-20T10:49:13Z</time>
      </trkpt>
      <trkpt lat="44.13639" lon="0.34043">
        <ele>62.6</ele>
        <time>2016-02-20T10:49:17Z</time>
      </trkpt>
      <trkpt lat="44.13635" lon="0.34039">
        <ele>63.6</ele>
        <time>2016-02-20T10:49:20Z</time>
      </trkpt>
      <trkpt lat="44.13634" lon="0.34037">
        <ele>63.8</ele>
        <time>2016-02-20T10:49:21Z</time>
      </trkpt>
      <trkpt lat="44.1363" lon="0.34028">
        <ele>64.8</ele>
        <time>2016-02-20T10:49:25Z</time>
      </trkpt>
      <trkpt lat="44.13625" lon="0.34016">
        <ele>65.4</ele>
        <time>2016-02-20T10:49:30Z</time>
      </trkpt>
      <trkpt lat="44.13622" lon="0.34012">
        <ele>65.6</ele>
        <time>2016-02-20T10:49:35Z</time>
      </trkpt>
      <trkpt lat="44.1362" lon="0.34013">
        <ele>65.8</ele>
        <time>2016-02-20T10:49:37Z</time>
      </trkpt>
      <trkpt lat="44.13621" lon="0.34013">
        <ele>66</ele>
        <time>2016-02-20T10:49:38Z</time>
      </trkpt>
      <trkpt lat="44.13618" lon="0.34017">
        <ele>66</ele>
        <time>2016-02-20T10:49:40Z</time>
      </trkpt>
      <trkpt lat="44.13612" lon="0.34019">
        <ele>66.4</ele>
        <time>2016-02-20T10:49:43Z</time>
      </trkpt>
      <trkpt lat="44.13611" lon="0.34017">
        <ele>66.6</ele>
        <time>2016-02-20T10:49:44Z</time>
      </trkpt>
      <trkpt lat="44.13607" lon="0.34006">
        <ele>66.4</ele>
        <time>2016-02-20T10:49:48Z</time>
      </trkpt>
      <trkpt lat="44.13605" lon="0.34004">
        <ele>66.4</ele>
        <time>2016-02-20T10:49:49Z</time>
      </trkpt>
      <trkpt lat="44.13602" lon="0.34002">
        <ele>66.4</ele>
        <time>2016-02-20T10:49:51Z</time>
      </trkpt>
      <trkpt lat="44.13599" lon="0.33999">
        <ele>66.6</ele>
        <time>2016-02-20T10:49:55Z</time>
      </trkpt>
      <trkpt lat="44.13593" lon="0.34001">
        <ele>67</ele>
        <time>2016-02-20T10:50:01Z</time>
      </trkpt>
      <trkpt lat="44.13584" lon="0.3401">
        <ele>66.6</ele>
        <time>2016-02-20T10:50:06Z</time>
      </trkpt>
      <trkpt lat="44.13566" lon="0.34026">
        <ele>66.8</ele>
        <time>2016-02-20T10:50:12Z</time>
      </trkpt>
      <trkpt lat="44.1355" lon="0.34029">
        <ele>66.6</ele>
        <time>2016-02-20T10:50:17Z</time>
      </trkpt>
      <trkpt lat="44.13539" lon="0.34022">
        <ele>67.4</ele>
        <time>2016-02-20T10:50:23Z</time>
      </trkpt>
      <trkpt lat="44.13528" lon="0.34015">
        <ele>67.8</ele>
        <time>2016-02-20T10:50:29Z</time>
      </trkpt>
      <trkpt lat="44.13526" lon="0.34015">
        <ele>68</ele>
        <time>2016-02-20T10:50:30Z</time>
      </trkpt>
      <trkpt lat="44.13525" lon="0.3399">
        <ele>68.2</ele>
        <time>2016-02-20T10:50:34Z</time>
      </trkpt>
      <trkpt lat="44.13528" lon="0.3396">
        <ele>67.8</ele>
        <time>2016-02-20T10:50:39Z</time>
      </trkpt>
      <trkpt lat="44.13527" lon="0.33949">
        <ele>68</ele>
        <time>2016-02-20T10:50:43Z</time>
      </trkpt>
      <trkpt lat="44.13525" lon="0.33948">
        <ele>67.8</ele>
        <time>2016-02-20T10:50:45Z</time>
      </trkpt>
      <trkpt lat="44.13514" lon="0.33948">
        <ele>67.6</ele>
        <time>2016-02-20T10:50:52Z</time>
      </trkpt>
      <trkpt lat="44.13507" lon="0.33949">
        <ele>67.6</ele>
        <time>2016-02-20T10:50:57Z</time>
      </trkpt>
      <trkpt lat="44.135" lon="0.33947">
        <ele>67.2</ele>
        <time>2016-02-20T10:51:02Z</time>
      </trkpt>
      <trkpt lat="44.13496" lon="0.33946">
        <ele>67</ele>
        <time>2016-02-20T10:51:04Z</time>
      </trkpt>
      <trkpt lat="44.13491" lon="0.33942">
        <ele>66.8</ele>
        <time>2016-02-20T10:51:08Z</time>
      </trkpt>
      <trkpt lat="44.13489" lon="0.33934">
        <ele>67</ele>
        <time>2016-02-20T10:51:20Z</time>
      </trkpt>
      <trkpt lat="44.13492" lon="0.33919">
        <ele>67.2</ele>
        <time>2016-02-20T10:51:25Z</time>
      </trkpt>
      <trkpt lat="44.13499" lon="0.33911">
        <ele>67.2</ele>
        <time>2016-02-20T10:51:30Z</time>
      </trkpt>
      <trkpt lat="44.13505" lon="0.33906">
        <ele>67</ele>
        <time>2016-02-20T10:51:35Z</time>
      </trkpt>
      <trkpt lat="44.13512" lon="0.33897">
        <ele>67.2</ele>
        <time>2016-02-20T10:51:40Z</time>
      </trkpt>
      <trkpt lat="44.13528" lon="0.33882">
        <ele>67.4</ele>
        <time>2016-02-20T10:51:48Z</time>
      </trkpt>
      <trkpt lat="44.13542" lon="0.33869">
        <ele>67.8</ele>
        <time>2016-02-20T10:51:55Z</time>
      </trkpt>
      <trkpt lat="44.1355" lon="0.33861">
        <ele>67.8</ele>
        <time>2016-02-20T10:52:00Z</time>
      </trkpt>
      <trkpt lat="44.13558" lon="0.33854">
        <ele>68</ele>
        <time>2016-02-20T10:52:05Z</time>
      </trkpt>
      <trkpt lat="44.13563" lon="0.3385">
        <ele>67.8</ele>
        <time>2016-02-20T10:52:08Z</time>
      </trkpt>
      <trkpt lat="44.13575" lon="0.33843">
        <ele>68.2</ele>
        <time>2016-02-20T10:52:15Z</time>
      </trkpt>
      <trkpt lat="44.13588" lon="0.33839">
        <ele>68</ele>
        <time>2016-02-20T10:52:21Z</time>
      </trkpt>
      <trkpt lat="44.13595" lon="0.33842">
        <ele>67.8</ele>
        <time>2016-02-20T10:52:27Z</time>
      </trkpt>
      <trkpt lat="44.13601" lon="0.33844">
        <ele>67.8</ele>
        <time>2016-02-20T10:52:34Z</time>
      </trkpt>
      <trkpt lat="44.13592" lon="0.33841">
        <ele>71</ele>
        <time>2016-02-20T11:10:22Z</time>
      </trkpt>
      <trkpt lat="44.13591" lon="0.3384">
        <ele>71</ele>
        <time>2016-02-20T11:10:23Z</time>
      </trkpt>
      <trkpt lat="44.13588" lon="0.3384">
        <ele>71</ele>
        <time>2016-02-20T11:10:25Z</time>
      </trkpt>
      <trkpt lat="44.13583" lon="0.33841">
        <ele>71</ele>
        <time>2016-02-20T11:10:28Z</time>
      </trkpt>
      <trkpt lat="44.13579" lon="0.33843">
        <ele>71</ele>
        <time>2016-02-20T11:10:30Z</time>
      </trkpt>
      <trkpt lat="44.13569" lon="0.33849">
        <ele>71.4</ele>
        <time>2016-02-20T11:10:35Z</time>
      </trkpt>
      <trkpt lat="44.1356" lon="0.33854">
        <ele>71.4</ele>
        <time>2016-02-20T11:10:41Z</time>
      </trkpt>
      <trkpt lat="44.13548" lon="0.33866">
        <ele>71.2</ele>
        <time>2016-02-20T11:10:48Z</time>
      </trkpt>
      <trkpt lat="44.13539" lon="0.33874">
        <ele>71</ele>
        <time>2016-02-20T11:10:53Z</time>
      </trkpt>
      <trkpt lat="44.13533" lon="0.33872">
        <ele>71</ele>
        <time>2016-02-20T11:10:58Z</time>
      </trkpt>
      <trkpt lat="44.13534" lon="0.33888">
        <ele>70.8</ele>
        <time>2016-02-20T11:17:38Z</time>
      </trkpt>
      <trkpt lat="44.13532" lon="0.3389">
        <ele>70.8</ele>
        <time>2016-02-20T11:17:39Z</time>
      </trkpt>
      <trkpt lat="44.13514" lon="0.33899">
        <ele>70.6</ele>
        <time>2016-02-20T11:17:47Z</time>
      </trkpt>
      <trkpt lat="44.13504" lon="0.33911">
        <ele>70.6</ele>
        <time>2016-02-20T11:17:55Z</time>
      </trkpt>
      <trkpt lat="44.13496" lon="0.33914">
        <ele>71</ele>
        <time>2016-02-20T11:18:01Z</time>
      </trkpt>
      <trkpt lat="44.13489" lon="0.339">
        <ele>71</ele>
        <time>2016-02-20T11:18:38Z</time>
      </trkpt>
      <trkpt lat="44.13487" lon="0.33897">
        <ele>71</ele>
        <time>2016-02-20T11:18:39Z</time>
      </trkpt>
      <trkpt lat="44.13481" lon="0.33871">
        <ele>71.4</ele>
        <time>2016-02-20T11:18:45Z</time>
      </trkpt>
      <trkpt lat="44.13475" lon="0.33852">
        <ele>71.6</ele>
        <time>2016-02-20T11:18:49Z</time>
      </trkpt>
      <trkpt lat="44.13471" lon="0.33813">
        <ele>72</ele>
        <time>2016-02-20T11:18:56Z</time>
      </trkpt>
      <trkpt lat="44.1347" lon="0.33807">
        <ele>72.2</ele>
        <time>2016-02-20T11:18:57Z</time>
      </trkpt>
      <trkpt lat="44.13467" lon="0.3379">
        <ele>72.2</ele>
        <time>2016-02-20T11:19:00Z</time>
      </trkpt>
      <trkpt lat="44.13463" lon="0.33774">
        <ele>72.4</ele>
        <time>2016-02-20T11:19:03Z</time>
      </trkpt>
      <trkpt lat="44.13457" lon="0.33745">
        <ele>72.6</ele>
        <time>2016-02-20T11:19:09Z</time>
      </trkpt>
      <trkpt lat="44.1346" lon="0.33733">
        <ele>73.2</ele>
        <time>2016-02-20T11:19:12Z</time>
      </trkpt>
      <trkpt lat="44.13463" lon="0.3373">
        <ele>73.4</ele>
        <time>2016-02-20T11:19:13Z</time>
      </trkpt>
      <trkpt lat="44.13492" lon="0.33711">
        <ele>73.4</ele>
        <time>2016-02-20T11:19:21Z</time>
      </trkpt>
      <trkpt lat="44.13525" lon="0.33688">
        <ele>74</ele>
        <time>2016-02-20T11:19:30Z</time>
      </trkpt>
      <trkpt lat="44.13544" lon="0.33678">
        <ele>74</ele>
        <time>2016-02-20T11:19:35Z</time>
      </trkpt>
      <trkpt lat="44.13552" lon="0.33672">
        <ele>74.2</ele>
        <time>2016-02-20T11:19:37Z</time>
      </trkpt>
      <trkpt lat="44.13574" lon="0.33655">
        <ele>73.6</ele>
        <time>2016-02-20T11:19:43Z</time>
      </trkpt>
      <trkpt lat="44.1358" lon="0.33651">
        <ele>73.6</ele>
        <time>2016-02-20T11:19:46Z</time>
      </trkpt>
      <trkpt lat="44.13582" lon="0.33649">
        <ele>73.6</ele>
        <time>2016-02-20T11:19:47Z</time>
      </trkpt>
      <trkpt lat="44.13581" lon="0.33644">
        <ele>73.6</ele>
        <time>2016-02-20T11:19:50Z</time>
      </trkpt>
      <trkpt lat="44.13582" lon="0.33641">
        <ele>73.4</ele>
        <time>2016-02-20T11:19:53Z</time>
      </trkpt>
      <trkpt lat="44.13583" lon="0.3364">
        <ele>73.4</ele>
        <time>2016-02-20T11:19:54Z</time>
      </trkpt>
      <trkpt lat="44.13579" lon="0.33641">
        <ele>73.2</ele>
        <time>2016-02-20T11:20:13Z</time>
      </trkpt>
      <trkpt lat="44.1357" lon="0.33644">
        <ele>73.8</ele>
        <time>2016-02-20T11:20:18Z</time>
      </trkpt>
      <trkpt lat="44.13558" lon="0.33656">
        <ele>73.8</ele>
        <time>2016-02-20T11:20:22Z</time>
      </trkpt>
      <trkpt lat="44.13543" lon="0.33654">
        <ele>74</ele>
        <time>2016-02-20T11:20:26Z</time>
      </trkpt>
      <trkpt lat="44.13535" lon="0.33633">
        <ele>74.4</ele>
        <time>2016-02-20T11:20:30Z</time>
      </trkpt>
      <trkpt lat="44.13533" lon="0.33628">
        <ele>74.6</ele>
        <time>2016-02-20T11:20:31Z</time>
      </trkpt>
      <trkpt lat="44.13523" lon="0.33601">
        <ele>74.8</ele>
        <time>2016-02-20T11:20:36Z</time>
      </trkpt>
      <trkpt lat="44.13516" lon="0.33584">
        <ele>74.8</ele>
        <time>2016-02-20T11:20:39Z</time>
      </trkpt>
      <trkpt lat="44.13506" lon="0.33558">
        <ele>75.2</ele>
        <time>2016-02-20T11:20:44Z</time>
      </trkpt>
      <trkpt lat="44.135" lon="0.33544">
        <ele>75.4</ele>
        <time>2016-02-20T11:20:47Z</time>
      </trkpt>
      <trkpt lat="44.13491" lon="0.3351">
        <ele>75.8</ele>
        <time>2016-02-20T11:20:54Z</time>
      </trkpt>
      <trkpt lat="44.13483" lon="0.33489">
        <ele>76.4</ele>
        <time>2016-02-20T11:20:59Z</time>
      </trkpt>
      <trkpt lat="44.1348" lon="0.33481">
        <ele>76.8</ele>
        <time>2016-02-20T11:21:01Z</time>
      </trkpt>
      <trkpt lat="44.13472" lon="0.33461">
        <ele>77.6</ele>
        <time>2016-02-20T11:21:07Z</time>
      </trkpt>
      <trkpt lat="44.13471" lon="0.33457">
        <ele>78</ele>
        <time>2016-02-20T11:21:08Z</time>
      </trkpt>
      <trkpt lat="44.13466" lon="0.33434">
        <ele>78.8</ele>
        <time>2016-02-20T11:21:14Z</time>
      </trkpt>
      <trkpt lat="44.13461" lon="0.33419">
        <ele>79.8</ele>
        <time>2016-02-20T11:21:18Z</time>
      </trkpt>
      <trkpt lat="44.13459" lon="0.33416">
        <ele>80</ele>
        <time>2016-02-20T11:21:19Z</time>
      </trkpt>
      <trkpt lat="44.13456" lon="0.33405">
        <ele>81</ele>
        <time>2016-02-20T11:21:22Z</time>
      </trkpt>
      <trkpt lat="44.13452" lon="0.33395">
        <ele>81.6</ele>
        <time>2016-02-20T11:21:25Z</time>
      </trkpt>
      <trkpt lat="44.13451" lon="0.33392">
        <ele>82</ele>
        <time>2016-02-20T11:21:26Z</time>
      </trkpt>
      <trkpt lat="44.13445" lon="0.33372">
        <ele>83.2</ele>
        <time>2016-02-20T11:21:32Z</time>
      </trkpt>
      <trkpt lat="44.13439" lon="0.33356">
        <ele>84.4</ele>
        <time>2016-02-20T11:21:37Z</time>
      </trkpt>
      <trkpt lat="44.13434" lon="0.33342">
        <ele>85.2</ele>
        <time>2016-02-20T11:21:41Z</time>
      </trkpt>
      <trkpt lat="44.13433" lon="0.33339">
        <ele>85.4</ele>
        <time>2016-02-20T11:21:42Z</time>
      </trkpt>
      <trkpt lat="44.13428" lon="0.33327">
        <ele>86.6</ele>
        <time>2016-02-20T11:21:46Z</time>
      </trkpt>
      <trkpt lat="44.13427" lon="0.33324">
        <ele>87</ele>
        <time>2016-02-20T11:21:47Z</time>
      </trkpt>
      <trkpt lat="44.13426" lon="0.3332">
        <ele>87.2</ele>
        <time>2016-02-20T11:21:48Z</time>
      </trkpt>
      <trkpt lat="44.13423" lon="0.3331">
        <ele>88</ele>
        <time>2016-02-20T11:21:51Z</time>
      </trkpt>
      <trkpt lat="44.13418" lon="0.33296">
        <ele>88.8</ele>
        <time>2016-02-20T11:21:56Z</time>
      </trkpt>
      <trkpt lat="44.13417" lon="0.33294">
        <ele>89</ele>
        <time>2016-02-20T11:21:57Z</time>
      </trkpt>
      <trkpt lat="44.13414" lon="0.33285">
        <ele>90.2</ele>
        <time>2016-02-20T11:22:01Z</time>
      </trkpt>
      <trkpt lat="44.13411" lon="0.3328">
        <ele>90.4</ele>
        <time>2016-02-20T11:22:03Z</time>
      </trkpt>
      <trkpt lat="44.13407" lon="0.33269">
        <ele>91.2</ele>
        <time>2016-02-20T11:22:07Z</time>
      </trkpt>
      <trkpt lat="44.13405" lon="0.33263">
        <ele>91.6</ele>
        <time>2016-02-20T11:22:09Z</time>
      </trkpt>
      <trkpt lat="44.13401" lon="0.3325">
        <ele>92.4</ele>
        <time>2016-02-20T11:22:13Z</time>
      </trkpt>
      <trkpt lat="44.13397" lon="0.33238">
        <ele>93.2</ele>
        <time>2016-02-20T11:22:17Z</time>
      </trkpt>
      <trkpt lat="44.13396" lon="0.33235">
        <ele>93.4</ele>
        <time>2016-02-20T11:22:18Z</time>
      </trkpt>
      <trkpt lat="44.13392" lon="0.3322">
        <ele>94.6</ele>
        <time>2016-02-20T11:22:23Z</time>
      </trkpt>
      <trkpt lat="44.1339" lon="0.33217">
        <ele>94.8</ele>
        <time>2016-02-20T11:22:24Z</time>
      </trkpt>
      <trkpt lat="44.13385" lon="0.332">
        <ele>96</ele>
        <time>2016-02-20T11:22:30Z</time>
      </trkpt>
      <trkpt lat="44.13384" lon="0.33198">
        <ele>96.4</ele>
        <time>2016-02-20T11:22:31Z</time>
      </trkpt>
      <trkpt lat="44.1338" lon="0.33185">
        <ele>97</ele>
        <time>2016-02-20T11:22:36Z</time>
      </trkpt>
      <trkpt lat="44.13379" lon="0.33183">
        <ele>97</ele>
        <time>2016-02-20T11:22:37Z</time>
      </trkpt>
      <trkpt lat="44.13375" lon="0.3317">
        <ele>98.2</ele>
        <time>2016-02-20T11:22:42Z</time>
      </trkpt>
      <trkpt lat="44.13374" lon="0.33168">
        <ele>98.4</ele>
        <time>2016-02-20T11:22:43Z</time>
      </trkpt>
      <trkpt lat="44.13367" lon="0.33149">
        <ele>99.4</ele>
        <time>2016-02-20T11:22:50Z</time>
      </trkpt>
      <trkpt lat="44.13362" lon="0.33131">
        <ele>100.8</ele>
        <time>2016-02-20T11:22:57Z</time>
      </trkpt>
      <trkpt lat="44.13358" lon="0.33118">
        <ele>101.6</ele>
        <time>2016-02-20T11:23:02Z</time>
      </trkpt>
      <trkpt lat="44.13356" lon="0.33113">
        <ele>101.8</ele>
        <time>2016-02-20T11:23:04Z</time>
      </trkpt>
      <trkpt lat="44.13352" lon="0.331">
        <ele>103</ele>
        <time>2016-02-20T11:23:09Z</time>
      </trkpt>
      <trkpt lat="44.13351" lon="0.33097">
        <ele>103.2</ele>
        <time>2016-02-20T11:23:10Z</time>
      </trkpt>
      <trkpt lat="44.13346" lon="0.33085">
        <ele>104.2</ele>
        <time>2016-02-20T11:23:15Z</time>
      </trkpt>
      <trkpt lat="44.13344" lon="0.33079">
        <ele>104.4</ele>
        <time>2016-02-20T11:23:17Z</time>
      </trkpt>
      <trkpt lat="44.13341" lon="0.33068">
        <ele>105.2</ele>
        <time>2016-02-20T11:23:21Z</time>
      </trkpt>
      <trkpt lat="44.13337" lon="0.3306">
        <ele>105.6</ele>
        <time>2016-02-20T11:23:24Z</time>
      </trkpt>
      <trkpt lat="44.13332" lon="0.33049">
        <ele>106.2</ele>
        <time>2016-02-20T11:23:28Z</time>
      </trkpt>
      <trkpt lat="44.13328" lon="0.33035">
        <ele>107.4</ele>
        <time>2016-02-20T11:23:33Z</time>
      </trkpt>
      <trkpt lat="44.13319" lon="0.33012">
        <ele>108.6</ele>
        <time>2016-02-20T11:23:41Z</time>
      </trkpt>
      <trkpt lat="44.13314" lon="0.32997">
        <ele>109.8</ele>
        <time>2016-02-20T11:23:47Z</time>
      </trkpt>
      <trkpt lat="44.13312" lon="0.32991">
        <ele>110.2</ele>
        <time>2016-02-20T11:23:49Z</time>
      </trkpt>
      <trkpt lat="44.1331" lon="0.32986">
        <ele>110.8</ele>
        <time>2016-02-20T11:23:51Z</time>
      </trkpt>
      <trkpt lat="44.13304" lon="0.32969">
        <ele>111.8</ele>
        <time>2016-02-20T11:23:57Z</time>
      </trkpt>
      <trkpt lat="44.133" lon="0.32953">
        <ele>112.8</ele>
        <time>2016-02-20T11:24:02Z</time>
      </trkpt>
      <trkpt lat="44.13297" lon="0.32942">
        <ele>113.4</ele>
        <time>2016-02-20T11:24:06Z</time>
      </trkpt>
      <trkpt lat="44.13295" lon="0.32937">
        <ele>114</ele>
        <time>2016-02-20T11:24:08Z</time>
      </trkpt>
      <trkpt lat="44.13292" lon="0.32927">
        <ele>114.8</ele>
        <time>2016-02-20T11:24:12Z</time>
      </trkpt>
      <trkpt lat="44.13291" lon="0.32925">
        <ele>115</ele>
        <time>2016-02-20T11:24:13Z</time>
      </trkpt>
      <trkpt lat="44.13287" lon="0.32911">
        <ele>116</ele>
        <time>2016-02-20T11:24:18Z</time>
      </trkpt>
      <trkpt lat="44.13286" lon="0.32908">
        <ele>116.2</ele>
        <time>2016-02-20T11:24:19Z</time>
      </trkpt>
      <trkpt lat="44.13281" lon="0.32897">
        <ele>117.2</ele>
        <time>2016-02-20T11:24:23Z</time>
      </trkpt>
      <trkpt lat="44.13276" lon="0.32882">
        <ele>118.2</ele>
        <time>2016-02-20T11:24:28Z</time>
      </trkpt>
      <trkpt lat="44.13271" lon="0.32866">
        <ele>119.2</ele>
        <time>2016-02-20T11:24:33Z</time>
      </trkpt>
      <trkpt lat="44.13267" lon="0.32855">
        <ele>120</ele>
        <time>2016-02-20T11:24:37Z</time>
      </trkpt>
      <trkpt lat="44.13264" lon="0.32849">
        <ele>120.4</ele>
        <time>2016-02-20T11:24:39Z</time>
      </trkpt>
      <trkpt lat="44.13259" lon="0.32835">
        <ele>121.6</ele>
        <time>2016-02-20T11:24:44Z</time>
      </trkpt>
      <trkpt lat="44.13256" lon="0.32826">
        <ele>122.2</ele>
        <time>2016-02-20T11:24:47Z</time>
      </trkpt>
      <trkpt lat="44.13251" lon="0.32812">
        <ele>122.8</ele>
        <time>2016-02-20T11:24:52Z</time>
      </trkpt>
      <trkpt lat="44.13244" lon="0.32795">
        <ele>123.8</ele>
        <time>2016-02-20T11:24:58Z</time>
      </trkpt>
      <trkpt lat="44.13242" lon="0.3279">
        <ele>124</ele>
        <time>2016-02-20T11:25:00Z</time>
      </trkpt>
      <trkpt lat="44.13239" lon="0.32777">
        <ele>124.4</ele>
        <time>2016-02-20T11:25:06Z</time>
      </trkpt>
      <trkpt lat="44.13237" lon="0.32773">
        <ele>124.4</ele>
        <time>2016-02-20T11:25:12Z</time>
      </trkpt>
      <trkpt lat="44.13236" lon="0.3277">
        <ele>124.2</ele>
        <time>2016-02-20T11:27:21Z</time>
      </trkpt>
      <trkpt lat="44.13233" lon="0.32764">
        <ele>124.6</ele>
        <time>2016-02-20T11:27:23Z</time>
      </trkpt>
      <trkpt lat="44.13228" lon="0.32749">
        <ele>125</ele>
        <time>2016-02-20T11:27:27Z</time>
      </trkpt>
      <trkpt lat="44.13222" lon="0.32735">
        <ele>125.2</ele>
        <time>2016-02-20T11:27:31Z</time>
      </trkpt>
      <trkpt lat="44.13209" lon="0.32703">
        <ele>125.4</ele>
        <time>2016-02-20T11:27:38Z</time>
      </trkpt>
      <trkpt lat="44.13196" lon="0.32667">
        <ele>126</ele>
        <time>2016-02-20T11:27:46Z</time>
      </trkpt>
      <trkpt lat="44.13194" lon="0.32662">
        <ele>126</ele>
        <time>2016-02-20T11:27:47Z</time>
      </trkpt>
      <trkpt lat="44.13176" lon="0.32619">
        <ele>126.8</ele>
        <time>2016-02-20T11:27:56Z</time>
      </trkpt>
      <trkpt lat="44.13167" lon="0.32596">
        <ele>127</ele>
        <time>2016-02-20T11:28:02Z</time>
      </trkpt>
      <trkpt lat="44.13161" lon="0.32579">
        <ele>127.4</ele>
        <time>2016-02-20T11:28:06Z</time>
      </trkpt>
      <trkpt lat="44.13147" lon="0.32542">
        <ele>128</ele>
        <time>2016-02-20T11:28:15Z</time>
      </trkpt>
      <trkpt lat="44.13135" lon="0.3251">
        <ele>128.8</ele>
        <time>2016-02-20T11:28:23Z</time>
      </trkpt>
      <trkpt lat="44.13132" lon="0.32503">
        <ele>129.2</ele>
        <time>2016-02-20T11:28:25Z</time>
      </trkpt>
      <trkpt lat="44.13125" lon="0.32485">
        <ele>129.8</ele>
        <time>2016-02-20T11:28:30Z</time>
      </trkpt>
      <trkpt lat="44.13122" lon="0.32475">
        <ele>130.4</ele>
        <time>2016-02-20T11:28:33Z</time>
      </trkpt>
      <trkpt lat="44.13118" lon="0.32464">
        <ele>131</ele>
        <time>2016-02-20T11:28:36Z</time>
      </trkpt>
      <trkpt lat="44.13116" lon="0.32457">
        <ele>131.6</ele>
        <time>2016-02-20T11:28:38Z</time>
      </trkpt>
      <trkpt lat="44.13108" lon="0.32437">
        <ele>132.4</ele>
        <time>2016-02-20T11:28:44Z</time>
      </trkpt>
      <trkpt lat="44.13108" lon="0.32438">
        <ele>132.8</ele>
        <time>2016-02-20T11:28:48Z</time>
      </trkpt>
      <trkpt lat="44.13107" lon="0.32435">
        <ele>132.8</ele>
        <time>2016-02-20T11:28:50Z</time>
      </trkpt>
      <trkpt lat="44.13108" lon="0.32438">
        <ele>132.4</ele>
        <time>2016-02-20T11:28:53Z</time>
      </trkpt>
      <trkpt lat="44.13106" lon="0.32432">
        <ele>132.6</ele>
        <time>2016-02-20T11:29:24Z</time>
      </trkpt>
      <trkpt lat="44.13099" lon="0.32415">
        <ele>133.6</ele>
        <time>2016-02-20T11:29:28Z</time>
      </trkpt>
      <trkpt lat="44.13096" lon="0.32405">
        <ele>133.8</ele>
        <time>2016-02-20T11:29:30Z</time>
      </trkpt>
      <trkpt lat="44.13088" lon="0.32387">
        <ele>134.8</ele>
        <time>2016-02-20T11:29:34Z</time>
      </trkpt>
      <trkpt lat="44.13087" lon="0.32383">
        <ele>135</ele>
        <time>2016-02-20T11:29:35Z</time>
      </trkpt>
      <trkpt lat="44.13077" lon="0.32359">
        <ele>136.2</ele>
        <time>2016-02-20T11:29:41Z</time>
      </trkpt>
      <trkpt lat="44.13075" lon="0.32351">
        <ele>136.4</ele>
        <time>2016-02-20T11:29:43Z</time>
      </trkpt>
      <trkpt lat="44.13067" lon="0.32332">
        <ele>137.2</ele>
        <time>2016-02-20T11:29:48Z</time>
      </trkpt>
      <trkpt lat="44.13062" lon="0.32319">
        <ele>137.2</ele>
        <time>2016-02-20T11:29:51Z</time>
      </trkpt>
      <trkpt lat="44.13046" lon="0.32275">
        <ele>138</ele>
        <time>2016-02-20T11:30:00Z</time>
      </trkpt>
      <trkpt lat="44.13041" lon="0.3226">
        <ele>138.2</ele>
        <time>2016-02-20T11:30:03Z</time>
      </trkpt>
      <trkpt lat="44.13031" lon="0.32222">
        <ele>137.6</ele>
        <time>2016-02-20T11:30:09Z</time>
      </trkpt>
      <trkpt lat="44.13023" lon="0.32194">
        <ele>137</ele>
        <time>2016-02-20T11:30:13Z</time>
      </trkpt>
      <trkpt lat="44.13015" lon="0.32162">
        <ele>136.2</ele>
        <time>2016-02-20T11:30:17Z</time>
      </trkpt>
      <trkpt lat="44.1301" lon="0.32145">
        <ele>136</ele>
        <time>2016-02-20T11:30:19Z</time>
      </trkpt>
      <trkpt lat="44.13" lon="0.32108">
        <ele>135.4</ele>
        <time>2016-02-20T11:30:23Z</time>
      </trkpt>
      <trkpt lat="44.12994" lon="0.32088">
        <ele>135</ele>
        <time>2016-02-20T11:30:25Z</time>
      </trkpt>
      <trkpt lat="44.12988" lon="0.32068">
        <ele>133.4</ele>
        <time>2016-02-20T11:30:27Z</time>
      </trkpt>
      <trkpt lat="44.12974" lon="0.32015">
        <ele>132.4</ele>
        <time>2016-02-20T11:30:32Z</time>
      </trkpt>
      <trkpt lat="44.12971" lon="0.32005">
        <ele>131.8</ele>
        <time>2016-02-20T11:30:33Z</time>
      </trkpt>
      <trkpt lat="44.12968" lon="0.31994">
        <ele>131</ele>
        <time>2016-02-20T11:30:34Z</time>
      </trkpt>
      <trkpt lat="44.12952" lon="0.3194">
        <ele>129.6</ele>
        <time>2016-02-20T11:30:39Z</time>
      </trkpt>
      <trkpt lat="44.12946" lon="0.31918">
        <ele>128.6</ele>
        <time>2016-02-20T11:30:41Z</time>
      </trkpt>
      <trkpt lat="44.12934" lon="0.31875">
        <ele>127.4</ele>
        <time>2016-02-20T11:30:45Z</time>
      </trkpt>
      <trkpt lat="44.12931" lon="0.31865">
        <ele>126.8</ele>
        <time>2016-02-20T11:30:46Z</time>
      </trkpt>
      <trkpt lat="44.1292" lon="0.31822">
        <ele>126.2</ele>
        <time>2016-02-20T11:30:50Z</time>
      </trkpt>
      <trkpt lat="44.12905" lon="0.31768">
        <ele>125.2</ele>
        <time>2016-02-20T11:30:55Z</time>
      </trkpt>
      <trkpt lat="44.12897" lon="0.31737">
        <ele>124.6</ele>
        <time>2016-02-20T11:30:58Z</time>
      </trkpt>
      <trkpt lat="44.12891" lon="0.31718">
        <ele>123.8</ele>
        <time>2016-02-20T11:31:00Z</time>
      </trkpt>
      <trkpt lat="44.12881" lon="0.31678">
        <ele>122.6</ele>
        <time>2016-02-20T11:31:04Z</time>
      </trkpt>
      <trkpt lat="44.12871" lon="0.31645">
        <ele>121.2</ele>
        <time>2016-02-20T11:31:07Z</time>
      </trkpt>
      <trkpt lat="44.12864" lon="0.3162">
        <ele>120</ele>
        <time>2016-02-20T11:31:09Z</time>
      </trkpt>
      <trkpt lat="44.12861" lon="0.31607">
        <ele>119</ele>
        <time>2016-02-20T11:31:10Z</time>
      </trkpt>
      <trkpt lat="44.12857" lon="0.31594">
        <ele>117.6</ele>
        <time>2016-02-20T11:31:11Z</time>
      </trkpt>
      <trkpt lat="44.12853" lon="0.3158">
        <ele>116.8</ele>
        <time>2016-02-20T11:31:12Z</time>
      </trkpt>
      <trkpt lat="44.1285" lon="0.31565">
        <ele>115.8</ele>
        <time>2016-02-20T11:31:13Z</time>
      </trkpt>
      <trkpt lat="44.12841" lon="0.31535">
        <ele>114</ele>
        <time>2016-02-20T11:31:15Z</time>
      </trkpt>
      <trkpt lat="44.12833" lon="0.31503">
        <ele>112</ele>
        <time>2016-02-20T11:31:17Z</time>
      </trkpt>
      <trkpt lat="44.12828" lon="0.31487">
        <ele>111.4</ele>
        <time>2016-02-20T11:31:18Z</time>
      </trkpt>
      <trkpt lat="44.12824" lon="0.31471">
        <ele>110.2</ele>
        <time>2016-02-20T11:31:19Z</time>
      </trkpt>
      <trkpt lat="44.12819" lon="0.31455">
        <ele>109</ele>
        <time>2016-02-20T11:31:20Z</time>
      </trkpt>
      <trkpt lat="44.12814" lon="0.31439">
        <ele>108</ele>
        <time>2016-02-20T11:31:21Z</time>
      </trkpt>
      <trkpt lat="44.12806" lon="0.31407">
        <ele>106.4</ele>
        <time>2016-02-20T11:31:23Z</time>
      </trkpt>
      <trkpt lat="44.12801" lon="0.31391">
        <ele>105.2</ele>
        <time>2016-02-20T11:31:24Z</time>
      </trkpt>
      <trkpt lat="44.12797" lon="0.31375">
        <ele>104.2</ele>
        <time>2016-02-20T11:31:25Z</time>
      </trkpt>
      <trkpt lat="44.12788" lon="0.31344">
        <ele>103.2</ele>
        <time>2016-02-20T11:31:27Z</time>
      </trkpt>
      <trkpt lat="44.1278" lon="0.31313">
        <ele>101.4</ele>
        <time>2016-02-20T11:31:29Z</time>
      </trkpt>
      <trkpt lat="44.12767" lon="0.31269">
        <ele>100.2</ele>
        <time>2016-02-20T11:31:32Z</time>
      </trkpt>
      <trkpt lat="44.12763" lon="0.31255">
        <ele>99.8</ele>
        <time>2016-02-20T11:31:33Z</time>
      </trkpt>
      <trkpt lat="44.12747" lon="0.31193">
        <ele>99.2</ele>
        <time>2016-02-20T11:31:38Z</time>
      </trkpt>
      <trkpt lat="44.12741" lon="0.31172">
        <ele>99</ele>
        <time>2016-02-20T11:31:40Z</time>
      </trkpt>
      <trkpt lat="44.1273" lon="0.3113">
        <ele>99</ele>
        <time>2016-02-20T11:31:44Z</time>
      </trkpt>
      <trkpt lat="44.12709" lon="0.31054">
        <ele>99.2</ele>
        <time>2016-02-20T11:31:52Z</time>
      </trkpt>
      <trkpt lat="44.12698" lon="0.31011">
        <ele>100</ele>
        <time>2016-02-20T11:31:57Z</time>
      </trkpt>
      <trkpt lat="44.12695" lon="0.31004">
        <ele>100</ele>
        <time>2016-02-20T11:31:58Z</time>
      </trkpt>
      <trkpt lat="44.12678" lon="0.30942">
        <ele>100.2</ele>
        <time>2016-02-20T11:32:06Z</time>
      </trkpt>
      <trkpt lat="44.12663" lon="0.30885">
        <ele>100.8</ele>
        <time>2016-02-20T11:32:13Z</time>
      </trkpt>
      <trkpt lat="44.12658" lon="0.30868">
        <ele>101</ele>
        <time>2016-02-20T11:32:15Z</time>
      </trkpt>
      <trkpt lat="44.12647" lon="0.30822">
        <ele>101.2</ele>
        <time>2016-02-20T11:32:21Z</time>
      </trkpt>
      <trkpt lat="44.12626" lon="0.30752">
        <ele>101</ele>
        <time>2016-02-20T11:32:30Z</time>
      </trkpt>
      <trkpt lat="44.12612" lon="0.30698">
        <ele>100.4</ele>
        <time>2016-02-20T11:32:37Z</time>
      </trkpt>
      <trkpt lat="44.12598" lon="0.30647">
        <ele>101.4</ele>
        <time>2016-02-20T11:32:45Z</time>
      </trkpt>
      <trkpt lat="44.12589" lon="0.30614">
        <ele>102</ele>
        <time>2016-02-20T11:32:51Z</time>
      </trkpt>
      <trkpt lat="44.12588" lon="0.30609">
        <ele>102.2</ele>
        <time>2016-02-20T11:32:52Z</time>
      </trkpt>
      <trkpt lat="44.12572" lon="0.30552">
        <ele>102.6</ele>
        <time>2016-02-20T11:33:02Z</time>
      </trkpt>
      <trkpt lat="44.12555" lon="0.30489">
        <ele>102.2</ele>
        <time>2016-02-20T11:33:11Z</time>
      </trkpt>
      <trkpt lat="44.1255" lon="0.3047">
        <ele>101</ele>
        <time>2016-02-20T11:33:14Z</time>
      </trkpt>
      <trkpt lat="44.12547" lon="0.30461">
        <ele>100.8</ele>
        <time>2016-02-20T11:33:16Z</time>
      </trkpt>
      <trkpt lat="44.12542" lon="0.30442">
        <ele>101</ele>
        <time>2016-02-20T11:33:21Z</time>
      </trkpt>
      <trkpt lat="44.12538" lon="0.30426">
        <ele>100.8</ele>
        <time>2016-02-20T11:33:24Z</time>
      </trkpt>
      <trkpt lat="44.12536" lon="0.3041">
        <ele>100.6</ele>
        <time>2016-02-20T11:33:26Z</time>
      </trkpt>
      <trkpt lat="44.12535" lon="0.30374">
        <ele>100</ele>
        <time>2016-02-20T11:33:30Z</time>
      </trkpt>
      <trkpt lat="44.12535" lon="0.30364">
        <ele>100</ele>
        <time>2016-02-20T11:33:31Z</time>
      </trkpt>
      <trkpt lat="44.12538" lon="0.30334">
        <ele>98.8</ele>
        <time>2016-02-20T11:33:34Z</time>
      </trkpt>
      <trkpt lat="44.12541" lon="0.30302">
        <ele>98.2</ele>
        <time>2016-02-20T11:33:37Z</time>
      </trkpt>
      <trkpt lat="44.12546" lon="0.30258">
        <ele>97.6</ele>
        <time>2016-02-20T11:33:41Z</time>
      </trkpt>
      <trkpt lat="44.1255" lon="0.30224">
        <ele>96</ele>
        <time>2016-02-20T11:33:44Z</time>
      </trkpt>
      <trkpt lat="44.12551" lon="0.30213">
        <ele>96</ele>
        <time>2016-02-20T11:33:45Z</time>
      </trkpt>
      <trkpt lat="44.12556" lon="0.30156">
        <ele>94.8</ele>
        <time>2016-02-20T11:33:50Z</time>
      </trkpt>
      <trkpt lat="44.12559" lon="0.30122">
        <ele>94.4</ele>
        <time>2016-02-20T11:33:53Z</time>
      </trkpt>
      <trkpt lat="44.1256" lon="0.30111">
        <ele>93.4</ele>
        <time>2016-02-20T11:33:54Z</time>
      </trkpt>
      <trkpt lat="44.12564" lon="0.30066">
        <ele>92.4</ele>
        <time>2016-02-20T11:33:58Z</time>
      </trkpt>
      <trkpt lat="44.12568" lon="0.30021">
        <ele>91.2</ele>
        <time>2016-02-20T11:34:02Z</time>
      </trkpt>
      <trkpt lat="44.12569" lon="0.30009">
        <ele>91.2</ele>
        <time>2016-02-20T11:34:03Z</time>
      </trkpt>
      <trkpt lat="44.12569" lon="0.29998">
        <ele>90.2</ele>
        <time>2016-02-20T11:34:04Z</time>
      </trkpt>
      <trkpt lat="44.1257" lon="0.29986">
        <ele>90</ele>
        <time>2016-02-20T11:34:05Z</time>
      </trkpt>
      <trkpt lat="44.1257" lon="0.29952">
        <ele>88.8</ele>
        <time>2016-02-20T11:34:08Z</time>
      </trkpt>
      <trkpt lat="44.1257" lon="0.29929">
        <ele>87.8</ele>
        <time>2016-02-20T11:34:10Z</time>
      </trkpt>
      <trkpt lat="44.12568" lon="0.2986">
        <ele>86</ele>
        <time>2016-02-20T11:34:16Z</time>
      </trkpt>
      <trkpt lat="44.12568" lon="0.29849">
        <ele>85.8</ele>
        <time>2016-02-20T11:34:17Z</time>
      </trkpt>
      <trkpt lat="44.12564" lon="0.29801">
        <ele>85</ele>
        <time>2016-02-20T11:34:21Z</time>
      </trkpt>
      <trkpt lat="44.1256" lon="0.29765">
        <ele>83.8</ele>
        <time>2016-02-20T11:34:24Z</time>
      </trkpt>
      <trkpt lat="44.12558" lon="0.29754">
        <ele>83.2</ele>
        <time>2016-02-20T11:34:25Z</time>
      </trkpt>
      <trkpt lat="44.12555" lon="0.2973">
        <ele>82.4</ele>
        <time>2016-02-20T11:34:27Z</time>
      </trkpt>
      <trkpt lat="44.12547" lon="0.29683">
        <ele>81.2</ele>
        <time>2016-02-20T11:34:31Z</time>
      </trkpt>
      <trkpt lat="44.1254" lon="0.29648">
        <ele>80.4</ele>
        <time>2016-02-20T11:34:34Z</time>
      </trkpt>
      <trkpt lat="44.12537" lon="0.29637">
        <ele>80</ele>
        <time>2016-02-20T11:34:35Z</time>
      </trkpt>
      <trkpt lat="44.12528" lon="0.29602">
        <ele>78.8</ele>
        <time>2016-02-20T11:34:38Z</time>
      </trkpt>
      <trkpt lat="44.12518" lon="0.29567">
        <ele>77.8</ele>
        <time>2016-02-20T11:34:41Z</time>
      </trkpt>
      <trkpt lat="44.12515" lon="0.29555">
        <ele>77.6</ele>
        <time>2016-02-20T11:34:42Z</time>
      </trkpt>
      <trkpt lat="44.125" lon="0.29509">
        <ele>76.4</ele>
        <time>2016-02-20T11:34:46Z</time>
      </trkpt>
      <trkpt lat="44.12488" lon="0.29477">
        <ele>75.8</ele>
        <time>2016-02-20T11:34:49Z</time>
      </trkpt>
      <trkpt lat="44.12479" lon="0.29455">
        <ele>75</ele>
        <time>2016-02-20T11:34:51Z</time>
      </trkpt>
      <trkpt lat="44.12461" lon="0.29414">
        <ele>73.8</ele>
        <time>2016-02-20T11:34:55Z</time>
      </trkpt>
      <trkpt lat="44.12456" lon="0.29404">
        <ele>73.8</ele>
        <time>2016-02-20T11:34:56Z</time>
      </trkpt>
      <trkpt lat="44.12442" lon="0.29374">
        <ele>72.8</ele>
        <time>2016-02-20T11:34:59Z</time>
      </trkpt>
      <trkpt lat="44.12417" lon="0.29329">
        <ele>71.4</ele>
        <time>2016-02-20T11:35:04Z</time>
      </trkpt>
      <trkpt lat="44.12402" lon="0.29303">
        <ele>70.2</ele>
        <time>2016-02-20T11:35:07Z</time>
      </trkpt>
      <trkpt lat="44.12377" lon="0.29264">
        <ele>69.4</ele>
        <time>2016-02-20T11:35:12Z</time>
      </trkpt>
      <trkpt lat="44.12371" lon="0.29257">
        <ele>69.2</ele>
        <time>2016-02-20T11:35:13Z</time>
      </trkpt>
      <trkpt lat="44.12347" lon="0.29235">
        <ele>68.2</ele>
        <time>2016-02-20T11:35:17Z</time>
      </trkpt>
      <trkpt lat="44.1234" lon="0.29231">
        <ele>67.8</ele>
        <time>2016-02-20T11:35:18Z</time>
      </trkpt>
      <trkpt lat="44.12312" lon="0.29222">
        <ele>67</ele>
        <time>2016-02-20T11:35:22Z</time>
      </trkpt>
      <trkpt lat="44.12298" lon="0.29221">
        <ele>66.6</ele>
        <time>2016-02-20T11:35:24Z</time>
      </trkpt>
      <trkpt lat="44.12268" lon="0.29222">
        <ele>65.8</ele>
        <time>2016-02-20T11:35:28Z</time>
      </trkpt>
      <trkpt lat="44.12247" lon="0.29223">
        <ele>65.4</ele>
        <time>2016-02-20T11:35:31Z</time>
      </trkpt>
      <trkpt lat="44.1222" lon="0.29225">
        <ele>65.2</ele>
        <time>2016-02-20T11:35:35Z</time>
      </trkpt>
      <trkpt lat="44.12172" lon="0.29229">
        <ele>65.6</ele>
        <time>2016-02-20T11:35:43Z</time>
      </trkpt>
      <trkpt lat="44.12126" lon="0.29232">
        <ele>66.4</ele>
        <time>2016-02-20T11:35:52Z</time>
      </trkpt>
      <trkpt lat="44.12121" lon="0.29232">
        <ele>66.6</ele>
        <time>2016-02-20T11:35:53Z</time>
      </trkpt>
      <trkpt lat="44.12084" lon="0.29231">
        <ele>66.6</ele>
        <time>2016-02-20T11:36:01Z</time>
      </trkpt>
      <trkpt lat="44.12067" lon="0.29228">
        <ele>66.6</ele>
        <time>2016-02-20T11:36:05Z</time>
      </trkpt>
      <trkpt lat="44.12055" lon="0.29223">
        <ele>66.6</ele>
        <time>2016-02-20T11:36:08Z</time>
      </trkpt>
      <trkpt lat="44.12028" lon="0.29204">
        <ele>66.8</ele>
        <time>2016-02-20T11:36:16Z</time>
      </trkpt>
      <trkpt lat="44.12003" lon="0.29179">
        <ele>67.4</ele>
        <time>2016-02-20T11:36:25Z</time>
      </trkpt>
      <trkpt lat="44.11997" lon="0.29174">
        <ele>67.6</ele>
        <time>2016-02-20T11:36:27Z</time>
      </trkpt>
      <trkpt lat="44.1198" lon="0.29156">
        <ele>68.2</ele>
        <time>2016-02-20T11:36:34Z</time>
      </trkpt>
      <trkpt lat="44.11967" lon="0.29143">
        <ele>68.8</ele>
        <time>2016-02-20T11:36:39Z</time>
      </trkpt>
      <trkpt lat="44.11958" lon="0.29135">
        <ele>69</ele>
        <time>2016-02-20T11:36:42Z</time>
      </trkpt>
      <trkpt lat="44.11937" lon="0.29113">
        <ele>69.2</ele>
        <time>2016-02-20T11:36:50Z</time>
      </trkpt>
      <trkpt lat="44.11911" lon="0.29087">
        <ele>69.2</ele>
        <time>2016-02-20T11:37:00Z</time>
      </trkpt>
      <trkpt lat="44.11889" lon="0.29065">
        <ele>69</ele>
        <time>2016-02-20T11:37:08Z</time>
      </trkpt>
      <trkpt lat="44.11855" lon="0.29032">
        <ele>68.8</ele>
        <time>2016-02-20T11:37:20Z</time>
      </trkpt>
      <trkpt lat="44.1183" lon="0.29007">
        <ele>68.8</ele>
        <time>2016-02-20T11:37:29Z</time>
      </trkpt>
      <trkpt lat="44.11814" lon="0.2899">
        <ele>68.8</ele>
        <time>2016-02-20T11:37:36Z</time>
      </trkpt>
      <trkpt lat="44.11792" lon="0.28969">
        <ele>68.6</ele>
        <time>2016-02-20T11:37:44Z</time>
      </trkpt>
      <trkpt lat="44.11766" lon="0.28944">
        <ele>69</ele>
        <time>2016-02-20T11:37:53Z</time>
      </trkpt>
      <trkpt lat="44.11737" lon="0.28918">
        <ele>69.8</ele>
        <time>2016-02-20T11:38:03Z</time>
      </trkpt>
      <trkpt lat="44.11712" lon="0.289">
        <ele>70.4</ele>
        <time>2016-02-20T11:38:11Z</time>
      </trkpt>
      <trkpt lat="44.11679" lon="0.28881">
        <ele>70.8</ele>
        <time>2016-02-20T11:38:20Z</time>
      </trkpt>
      <trkpt lat="44.11639" lon="0.28858">
        <ele>70.4</ele>
        <time>2016-02-20T11:38:31Z</time>
      </trkpt>
      <trkpt lat="44.11615" lon="0.28844">
        <ele>70.6</ele>
        <time>2016-02-20T11:38:38Z</time>
      </trkpt>
      <trkpt lat="44.11608" lon="0.2884">
        <ele>70.6</ele>
        <time>2016-02-20T11:38:40Z</time>
      </trkpt>
      <trkpt lat="44.11602" lon="0.28837">
        <ele>70.8</ele>
        <time>2016-02-20T11:38:42Z</time>
      </trkpt>
      <trkpt lat="44.11581" lon="0.28824">
        <ele>71.2</ele>
        <time>2016-02-20T11:38:48Z</time>
      </trkpt>
      <trkpt lat="44.11551" lon="0.28806">
        <ele>71</ele>
        <time>2016-02-20T11:38:56Z</time>
      </trkpt>
      <trkpt lat="44.11525" lon="0.28791">
        <ele>71.6</ele>
        <time>2016-02-20T11:39:04Z</time>
      </trkpt>
      <trkpt lat="44.11516" lon="0.28786">
        <ele>71.8</ele>
        <time>2016-02-20T11:39:07Z</time>
      </trkpt>
      <trkpt lat="44.11505" lon="0.28778">
        <ele>72.4</ele>
        <time>2016-02-20T11:39:11Z</time>
      </trkpt>
      <trkpt lat="44.1149" lon="0.2877">
        <ele>73</ele>
        <time>2016-02-20T11:39:16Z</time>
      </trkpt>
      <trkpt lat="44.1148" lon="0.28764">
        <ele>73.6</ele>
        <time>2016-02-20T11:39:20Z</time>
      </trkpt>
      <trkpt lat="44.11466" lon="0.28756">
        <ele>74.2</ele>
        <time>2016-02-20T11:39:26Z</time>
      </trkpt>
      <trkpt lat="44.11462" lon="0.28752">
        <ele>74.4</ele>
        <time>2016-02-20T11:39:28Z</time>
      </trkpt>
      <trkpt lat="44.11442" lon="0.28741">
        <ele>75</ele>
        <time>2016-02-20T11:39:36Z</time>
      </trkpt>
      <trkpt lat="44.1144" lon="0.2874">
        <ele>75.2</ele>
        <time>2016-02-20T11:39:37Z</time>
      </trkpt>
      <trkpt lat="44.11425" lon="0.2873">
        <ele>75.8</ele>
        <time>2016-02-20T11:39:43Z</time>
      </trkpt>
      <trkpt lat="44.11415" lon="0.28724">
        <ele>76.4</ele>
        <time>2016-02-20T11:39:47Z</time>
      </trkpt>
      <trkpt lat="44.11408" lon="0.28721">
        <ele>77</ele>
        <time>2016-02-20T11:39:50Z</time>
      </trkpt>
      <trkpt lat="44.11399" lon="0.28715">
        <ele>77.4</ele>
        <time>2016-02-20T11:39:54Z</time>
      </trkpt>
      <trkpt lat="44.11395" lon="0.28712">
        <ele>77.8</ele>
        <time>2016-02-20T11:39:56Z</time>
      </trkpt>
      <trkpt lat="44.11381" lon="0.28704">
        <ele>78.4</ele>
        <time>2016-02-20T11:40:02Z</time>
      </trkpt>
      <trkpt lat="44.11379" lon="0.28703">
        <ele>78.8</ele>
        <time>2016-02-20T11:40:03Z</time>
      </trkpt>
      <trkpt lat="44.11366" lon="0.28695">
        <ele>79.4</ele>
        <time>2016-02-20T11:40:09Z</time>
      </trkpt>
      <trkpt lat="44.11361" lon="0.28693">
        <ele>79.6</ele>
        <time>2016-02-20T11:40:11Z</time>
      </trkpt>
      <trkpt lat="44.11351" lon="0.28687">
        <ele>80.2</ele>
        <time>2016-02-20T11:40:16Z</time>
      </trkpt>
      <trkpt lat="44.11343" lon="0.28682">
        <ele>80.8</ele>
        <time>2016-02-20T11:40:20Z</time>
      </trkpt>
      <trkpt lat="44.11334" lon="0.28677">
        <ele>81</ele>
        <time>2016-02-20T11:40:24Z</time>
      </trkpt>
      <trkpt lat="44.11323" lon="0.2867">
        <ele>82</ele>
        <time>2016-02-20T11:40:29Z</time>
      </trkpt>
      <trkpt lat="44.11313" lon="0.28665">
        <ele>82.4</ele>
        <time>2016-02-20T11:40:33Z</time>
      </trkpt>
      <trkpt lat="44.11309" lon="0.28662">
        <ele>83</ele>
        <time>2016-02-20T11:40:35Z</time>
      </trkpt>
      <trkpt lat="44.11296" lon="0.28654">
        <ele>83.8</ele>
        <time>2016-02-20T11:40:41Z</time>
      </trkpt>
      <trkpt lat="44.11294" lon="0.28653">
        <ele>84.2</ele>
        <time>2016-02-20T11:40:42Z</time>
      </trkpt>
      <trkpt lat="44.11281" lon="0.28645">
        <ele>84.6</ele>
        <time>2016-02-20T11:40:48Z</time>
      </trkpt>
      <trkpt lat="44.1127" lon="0.28638">
        <ele>85.2</ele>
        <time>2016-02-20T11:40:54Z</time>
      </trkpt>
      <trkpt lat="44.11265" lon="0.28635">
        <ele>85.6</ele>
        <time>2016-02-20T11:40:56Z</time>
      </trkpt>
      <trkpt lat="44.1125" lon="0.28626">
        <ele>86.2</ele>
        <time>2016-02-20T11:41:03Z</time>
      </trkpt>
      <trkpt lat="44.11239" lon="0.2862">
        <ele>86.8</ele>
        <time>2016-02-20T11:41:08Z</time>
      </trkpt>
      <trkpt lat="44.1123" lon="0.28615">
        <ele>87.4</ele>
        <time>2016-02-20T11:41:12Z</time>
      </trkpt>
      <trkpt lat="44.11219" lon="0.28607">
        <ele>87.8</ele>
        <time>2016-02-20T11:41:17Z</time>
      </trkpt>
      <trkpt lat="44.11208" lon="0.28601">
        <ele>89.4</ele>
        <time>2016-02-20T11:41:21Z</time>
      </trkpt>
      <trkpt lat="44.11206" lon="0.28599">
        <ele>90.6</ele>
        <time>2016-02-20T11:41:22Z</time>
      </trkpt>
      <trkpt lat="44.11203" lon="0.28598">
        <ele>88.8</ele>
        <time>2016-02-20T11:41:23Z</time>
      </trkpt>
      <trkpt lat="44.11198" lon="0.28595">
        <ele>89</ele>
        <time>2016-02-20T11:41:25Z</time>
      </trkpt>
      <trkpt lat="44.11183" lon="0.28586">
        <ele>89.6</ele>
        <time>2016-02-20T11:41:31Z</time>
      </trkpt>
      <trkpt lat="44.11176" lon="0.28582">
        <ele>90</ele>
        <time>2016-02-20T11:41:34Z</time>
      </trkpt>
      <trkpt lat="44.11171" lon="0.28579">
        <ele>90</ele>
        <time>2016-02-20T11:41:36Z</time>
      </trkpt>
      <trkpt lat="44.1115" lon="0.28566">
        <ele>91</ele>
        <time>2016-02-20T11:41:44Z</time>
      </trkpt>
      <trkpt lat="44.11144" lon="0.28563">
        <ele>91</ele>
        <time>2016-02-20T11:41:46Z</time>
      </trkpt>
      <trkpt lat="44.11131" lon="0.28555">
        <ele>92.2</ele>
        <time>2016-02-20T11:41:52Z</time>
      </trkpt>
      <trkpt lat="44.11127" lon="0.28553">
        <ele>92.4</ele>
        <time>2016-02-20T11:41:54Z</time>
      </trkpt>
      <trkpt lat="44.11114" lon="0.28545">
        <ele>93.2</ele>
        <time>2016-02-20T11:42:00Z</time>
      </trkpt>
      <trkpt lat="44.111" lon="0.28537">
        <ele>94.2</ele>
        <time>2016-02-20T11:42:06Z</time>
      </trkpt>
      <trkpt lat="44.11097" lon="0.28535">
        <ele>94.4</ele>
        <time>2016-02-20T11:42:07Z</time>
      </trkpt>
      <trkpt lat="44.11081" lon="0.28526">
        <ele>95.4</ele>
        <time>2016-02-20T11:42:14Z</time>
      </trkpt>
      <trkpt lat="44.11076" lon="0.28523">
        <ele>95.6</ele>
        <time>2016-02-20T11:42:16Z</time>
      </trkpt>
      <trkpt lat="44.11056" lon="0.2851">
        <ele>96.6</ele>
        <time>2016-02-20T11:42:24Z</time>
      </trkpt>
      <trkpt lat="44.11029" lon="0.28495">
        <ele>96.6</ele>
        <time>2016-02-20T11:42:33Z</time>
      </trkpt>
      <trkpt lat="44.11005" lon="0.2848">
        <ele>97.4</ele>
        <time>2016-02-20T11:42:42Z</time>
      </trkpt>
      <trkpt lat="44.10994" lon="0.28474">
        <ele>97.6</ele>
        <time>2016-02-20T11:42:46Z</time>
      </trkpt>
      <trkpt lat="44.10974" lon="0.28461">
        <ele>98.2</ele>
        <time>2016-02-20T11:42:53Z</time>
      </trkpt>
      <trkpt lat="44.10961" lon="0.28453">
        <ele>98.6</ele>
        <time>2016-02-20T11:42:58Z</time>
      </trkpt>
      <trkpt lat="44.10953" lon="0.28448">
        <ele>99.2</ele>
        <time>2016-02-20T11:43:01Z</time>
      </trkpt>
      <trkpt lat="44.1095" lon="0.28447">
        <ele>99.2</ele>
        <time>2016-02-20T11:43:02Z</time>
      </trkpt>
      <trkpt lat="44.10936" lon="0.28439">
        <ele>99.8</ele>
        <time>2016-02-20T11:43:07Z</time>
      </trkpt>
      <trkpt lat="44.10926" lon="0.28435">
        <ele>100.2</ele>
        <time>2016-02-20T11:43:11Z</time>
      </trkpt>
      <trkpt lat="44.10909" lon="0.28432">
        <ele>100.8</ele>
        <time>2016-02-20T11:43:18Z</time>
      </trkpt>
      <trkpt lat="44.10887" lon="0.2843">
        <ele>101.6</ele>
        <time>2016-02-20T11:43:26Z</time>
      </trkpt>
      <trkpt lat="44.10878" lon="0.2843">
        <ele>101.8</ele>
        <time>2016-02-20T11:43:29Z</time>
      </trkpt>
      <trkpt lat="44.10861" lon="0.28427">
        <ele>102.4</ele>
        <time>2016-02-20T11:43:35Z</time>
      </trkpt>
      <trkpt lat="44.10846" lon="0.28426">
        <ele>102.8</ele>
        <time>2016-02-20T11:43:41Z</time>
      </trkpt>
      <trkpt lat="44.10841" lon="0.28425">
        <ele>103.2</ele>
        <time>2016-02-20T11:43:43Z</time>
      </trkpt>
      <trkpt lat="44.10822" lon="0.28424">
        <ele>104</ele>
        <time>2016-02-20T11:43:50Z</time>
      </trkpt>
      <trkpt lat="44.10819" lon="0.28423">
        <ele>104.2</ele>
        <time>2016-02-20T11:43:51Z</time>
      </trkpt>
      <trkpt lat="44.10801" lon="0.28421">
        <ele>105</ele>
        <time>2016-02-20T11:43:58Z</time>
      </trkpt>
      <trkpt lat="44.10798" lon="0.28421">
        <ele>105.2</ele>
        <time>2016-02-20T11:43:59Z</time>
      </trkpt>
      <trkpt lat="44.10782" lon="0.28419">
        <ele>106.2</ele>
        <time>2016-02-20T11:44:05Z</time>
      </trkpt>
      <trkpt lat="44.10771" lon="0.28419">
        <ele>107</ele>
        <time>2016-02-20T11:44:09Z</time>
      </trkpt>
      <trkpt lat="44.10766" lon="0.28419">
        <ele>107.2</ele>
        <time>2016-02-20T11:44:11Z</time>
      </trkpt>
      <trkpt lat="44.10753" lon="0.28416">
        <ele>108.4</ele>
        <time>2016-02-20T11:44:16Z</time>
      </trkpt>
      <trkpt lat="44.10751" lon="0.28416">
        <ele>108.4</ele>
        <time>2016-02-20T11:44:17Z</time>
      </trkpt>
      <trkpt lat="44.10733" lon="0.28414">
        <ele>109.6</ele>
        <time>2016-02-20T11:44:24Z</time>
      </trkpt>
      <trkpt lat="44.10728" lon="0.28414">
        <ele>110</ele>
        <time>2016-02-20T11:44:26Z</time>
      </trkpt>
      <trkpt lat="44.1072" lon="0.28413">
        <ele>110.6</ele>
        <time>2016-02-20T11:44:29Z</time>
      </trkpt>
      <trkpt lat="44.10707" lon="0.28412">
        <ele>111.2</ele>
        <time>2016-02-20T11:44:34Z</time>
      </trkpt>
      <trkpt lat="44.10701" lon="0.28412">
        <ele>111.8</ele>
        <time>2016-02-20T11:44:36Z</time>
      </trkpt>
      <trkpt lat="44.10686" lon="0.2841">
        <ele>112.8</ele>
        <time>2016-02-20T11:44:42Z</time>
      </trkpt>
      <trkpt lat="44.10684" lon="0.2841">
        <ele>113.2</ele>
        <time>2016-02-20T11:44:43Z</time>
      </trkpt>
      <trkpt lat="44.10676" lon="0.28409">
        <ele>114</ele>
        <time>2016-02-20T11:44:46Z</time>
      </trkpt>
      <trkpt lat="44.10663" lon="0.28408">
        <ele>115</ele>
        <time>2016-02-20T11:44:51Z</time>
      </trkpt>
      <trkpt lat="44.1065" lon="0.28406">
        <ele>116.2</ele>
        <time>2016-02-20T11:44:57Z</time>
      </trkpt>
      <trkpt lat="44.10647" lon="0.28405">
        <ele>116.2</ele>
        <time>2016-02-20T11:44:58Z</time>
      </trkpt>
      <trkpt lat="44.10638" lon="0.28405">
        <ele>117.2</ele>
        <time>2016-02-20T11:45:02Z</time>
      </trkpt>
      <trkpt lat="44.10634" lon="0.28403">
        <ele>117.6</ele>
        <time>2016-02-20T11:45:04Z</time>
      </trkpt>
      <trkpt lat="44.10632" lon="0.28402">
        <ele>118.2</ele>
        <time>2016-02-20T11:45:06Z</time>
      </trkpt>
      <trkpt lat="44.10632" lon="0.28402">
        <ele>118</ele>
        <time>2016-02-20T11:45:09Z</time>
      </trkpt>
      <trkpt lat="44.10628" lon="0.28403">
        <ele>117.6</ele>
        <time>2016-02-20T11:50:26Z</time>
      </trkpt>
      <trkpt lat="44.1062" lon="0.28403">
        <ele>118.4</ele>
        <time>2016-02-20T11:50:29Z</time>
      </trkpt>
      <trkpt lat="44.10602" lon="0.28401">
        <ele>119.4</ele>
        <time>2016-02-20T11:50:36Z</time>
      </trkpt>
      <trkpt lat="44.10599" lon="0.28401">
        <ele>119.8</ele>
        <time>2016-02-20T11:50:37Z</time>
      </trkpt>
      <trkpt lat="44.10578" lon="0.28398">
        <ele>120.4</ele>
        <time>2016-02-20T11:50:44Z</time>
      </trkpt>
      <trkpt lat="44.10576" lon="0.28398">
        <ele>120.4</ele>
        <time>2016-02-20T11:50:45Z</time>
      </trkpt>
      <trkpt lat="44.10552" lon="0.28396">
        <ele>121.6</ele>
        <time>2016-02-20T11:50:53Z</time>
      </trkpt>
      <trkpt lat="44.10549" lon="0.28396">
        <ele>121.6</ele>
        <time>2016-02-20T11:50:54Z</time>
      </trkpt>
      <trkpt lat="44.10521" lon="0.28393">
        <ele>122.2</ele>
        <time>2016-02-20T11:51:03Z</time>
      </trkpt>
      <trkpt lat="44.10493" lon="0.28389">
        <ele>122.6</ele>
        <time>2016-02-20T11:51:12Z</time>
      </trkpt>
      <trkpt lat="44.10478" lon="0.28388">
        <ele>122.6</ele>
        <time>2016-02-20T11:51:17Z</time>
      </trkpt>
      <trkpt lat="44.10475" lon="0.28388">
        <ele>122.8</ele>
        <time>2016-02-20T11:51:18Z</time>
      </trkpt>
      <trkpt lat="44.10446" lon="0.28384">
        <ele>123</ele>
        <time>2016-02-20T11:51:27Z</time>
      </trkpt>
      <trkpt lat="44.10412" lon="0.2838">
        <ele>123.2</ele>
        <time>2016-02-20T11:51:36Z</time>
      </trkpt>
      <trkpt lat="44.10378" lon="0.28376">
        <ele>123</ele>
        <time>2016-02-20T11:51:45Z</time>
      </trkpt>
      <trkpt lat="44.10336" lon="0.28372">
        <ele>123</ele>
        <time>2016-02-20T11:51:55Z</time>
      </trkpt>
      <trkpt lat="44.10297" lon="0.28368">
        <ele>122.6</ele>
        <time>2016-02-20T11:52:03Z</time>
      </trkpt>
      <trkpt lat="44.10257" lon="0.28364">
        <ele>122</ele>
        <time>2016-02-20T11:52:11Z</time>
      </trkpt>
      <trkpt lat="44.10217" lon="0.28359">
        <ele>122</ele>
        <time>2016-02-20T11:52:19Z</time>
      </trkpt>
      <trkpt lat="44.10207" lon="0.28357">
        <ele>121.6</ele>
        <time>2016-02-20T11:52:21Z</time>
      </trkpt>
      <trkpt lat="44.10172" lon="0.28351">
        <ele>121.2</ele>
        <time>2016-02-20T11:52:28Z</time>
      </trkpt>
      <trkpt lat="44.10125" lon="0.28342">
        <ele>121.2</ele>
        <time>2016-02-20T11:52:38Z</time>
      </trkpt>
      <trkpt lat="44.1008" lon="0.28333">
        <ele>120.8</ele>
        <time>2016-02-20T11:52:48Z</time>
      </trkpt>
      <trkpt lat="44.10031" lon="0.28321">
        <ele>121</ele>
        <time>2016-02-20T11:52:59Z</time>
      </trkpt>
      <trkpt lat="44.09982" lon="0.28308">
        <ele>120.6</ele>
        <time>2016-02-20T11:53:10Z</time>
      </trkpt>
      <trkpt lat="44.09945" lon="0.28297">
        <ele>120.6</ele>
        <time>2016-02-20T11:53:18Z</time>
      </trkpt>
      <trkpt lat="44.09936" lon="0.28295">
        <ele>120.6</ele>
        <time>2016-02-20T11:53:20Z</time>
      </trkpt>
      <trkpt lat="44.09895" lon="0.28283">
        <ele>120.8</ele>
        <time>2016-02-20T11:53:29Z</time>
      </trkpt>
      <trkpt lat="44.09859" lon="0.28273">
        <ele>121.2</ele>
        <time>2016-02-20T11:53:38Z</time>
      </trkpt>
      <trkpt lat="44.0984" lon="0.28265">
        <ele>121.6</ele>
        <time>2016-02-20T11:53:43Z</time>
      </trkpt>
      <trkpt lat="44.0982" lon="0.28259">
        <ele>121.2</ele>
        <time>2016-02-20T11:53:48Z</time>
      </trkpt>
      <trkpt lat="44.09773" lon="0.28246">
        <ele>121.8</ele>
        <time>2016-02-20T11:54:00Z</time>
      </trkpt>
      <trkpt lat="44.09735" lon="0.28235">
        <ele>121.8</ele>
        <time>2016-02-20T11:54:09Z</time>
      </trkpt>
      <trkpt lat="44.09689" lon="0.28221">
        <ele>121.4</ele>
        <time>2016-02-20T11:54:19Z</time>
      </trkpt>
      <trkpt lat="44.09639" lon="0.28206">
        <ele>120.6</ele>
        <time>2016-02-20T11:54:29Z</time>
      </trkpt>
      <trkpt lat="44.09634" lon="0.28204">
        <ele>120.4</ele>
        <time>2016-02-20T11:54:30Z</time>
      </trkpt>
      <trkpt lat="44.09588" lon="0.28191">
        <ele>119.4</ele>
        <time>2016-02-20T11:54:38Z</time>
      </trkpt>
      <trkpt lat="44.09582" lon="0.28189">
        <ele>119</ele>
        <time>2016-02-20T11:54:39Z</time>
      </trkpt>
      <trkpt lat="44.09563" lon="0.28183">
        <ele>118.4</ele>
        <time>2016-02-20T11:54:42Z</time>
      </trkpt>
      <trkpt lat="44.09536" lon="0.28175">
        <ele>117.4</ele>
        <time>2016-02-20T11:54:46Z</time>
      </trkpt>
      <trkpt lat="44.09529" lon="0.28173">
        <ele>117</ele>
        <time>2016-02-20T11:54:47Z</time>
      </trkpt>
      <trkpt lat="44.09506" lon="0.28166">
        <ele>116.2</ele>
        <time>2016-02-20T11:54:50Z</time>
      </trkpt>
      <trkpt lat="44.09475" lon="0.28157">
        <ele>115</ele>
        <time>2016-02-20T11:54:54Z</time>
      </trkpt>
      <trkpt lat="44.09432" lon="0.28146">
        <ele>114.6</ele>
        <time>2016-02-20T11:55:00Z</time>
      </trkpt>
      <trkpt lat="44.09406" lon="0.28138">
        <ele>116</ele>
        <time>2016-02-20T11:55:05Z</time>
      </trkpt>
      <trkpt lat="44.09401" lon="0.28137">
        <ele>116</ele>
        <time>2016-02-20T11:55:06Z</time>
      </trkpt>
      <trkpt lat="44.09387" lon="0.28133">
        <ele>117.2</ele>
        <time>2016-02-20T11:55:09Z</time>
      </trkpt>
      <trkpt lat="44.09371" lon="0.28128">
        <ele>117.6</ele>
        <time>2016-02-20T11:55:13Z</time>
      </trkpt>
      <trkpt lat="44.09367" lon="0.28127">
        <ele>118.4</ele>
        <time>2016-02-20T11:55:14Z</time>
      </trkpt>
      <trkpt lat="44.09341" lon="0.28119">
        <ele>119.2</ele>
        <time>2016-02-20T11:55:21Z</time>
      </trkpt>
      <trkpt lat="44.09331" lon="0.28117">
        <ele>119.6</ele>
        <time>2016-02-20T11:55:24Z</time>
      </trkpt>
      <trkpt lat="44.09318" lon="0.28112">
        <ele>120.2</ele>
        <time>2016-02-20T11:55:28Z</time>
      </trkpt>
      <trkpt lat="44.09309" lon="0.28109">
        <ele>120.6</ele>
        <time>2016-02-20T11:55:32Z</time>
      </trkpt>
      <trkpt lat="44.09308" lon="0.28108">
        <ele>120.6</ele>
        <time>2016-02-20T11:55:33Z</time>
      </trkpt>
      <trkpt lat="44.09291" lon="0.28103">
        <ele>121</ele>
        <time>2016-02-20T11:55:41Z</time>
      </trkpt>
      <trkpt lat="44.09265" lon="0.28095">
        <ele>121.6</ele>
        <time>2016-02-20T11:55:50Z</time>
      </trkpt>
      <trkpt lat="44.09259" lon="0.28093">
        <ele>121.6</ele>
        <time>2016-02-20T11:55:52Z</time>
      </trkpt>
      <trkpt lat="44.09242" lon="0.28088">
        <ele>121.8</ele>
        <time>2016-02-20T11:55:58Z</time>
      </trkpt>
      <trkpt lat="44.09233" lon="0.28085">
        <ele>122.8</ele>
        <time>2016-02-20T11:56:01Z</time>
      </trkpt>
      <trkpt lat="44.09223" lon="0.28082">
        <ele>123</ele>
        <time>2016-02-20T11:56:05Z</time>
      </trkpt>
      <trkpt lat="44.09204" lon="0.28076">
        <ele>123.8</ele>
        <time>2016-02-20T11:56:13Z</time>
      </trkpt>
      <trkpt lat="44.09201" lon="0.28076">
        <ele>124</ele>
        <time>2016-02-20T11:56:14Z</time>
      </trkpt>
      <trkpt lat="44.0918" lon="0.28071">
        <ele>124.2</ele>
        <time>2016-02-20T11:56:21Z</time>
      </trkpt>
      <trkpt lat="44.09146" lon="0.28061">
        <ele>124.4</ele>
        <time>2016-02-20T11:56:31Z</time>
      </trkpt>
      <trkpt lat="44.09111" lon="0.2805">
        <ele>124.6</ele>
        <time>2016-02-20T11:56:40Z</time>
      </trkpt>
      <trkpt lat="44.09067" lon="0.28037">
        <ele>124</ele>
        <time>2016-02-20T11:56:51Z</time>
      </trkpt>
      <trkpt lat="44.09026" lon="0.28025">
        <ele>122.6</ele>
        <time>2016-02-20T11:57:00Z</time>
      </trkpt>
      <trkpt lat="44.09021" lon="0.28024">
        <ele>122.8</ele>
        <time>2016-02-20T11:57:01Z</time>
      </trkpt>
      <trkpt lat="44.08986" lon="0.28013">
        <ele>123</ele>
        <time>2016-02-20T11:57:09Z</time>
      </trkpt>
      <trkpt lat="44.08952" lon="0.28003">
        <ele>122.8</ele>
        <time>2016-02-20T11:57:18Z</time>
      </trkpt>
      <trkpt lat="44.0893" lon="0.27997">
        <ele>123.8</ele>
        <time>2016-02-20T11:57:24Z</time>
      </trkpt>
      <trkpt lat="44.08927" lon="0.27996">
        <ele>123.8</ele>
        <time>2016-02-20T11:57:25Z</time>
      </trkpt>
      <trkpt lat="44.08901" lon="0.27988">
        <ele>124.8</ele>
        <time>2016-02-20T11:57:33Z</time>
      </trkpt>
      <trkpt lat="44.08892" lon="0.27984">
        <ele>124.8</ele>
        <time>2016-02-20T11:57:36Z</time>
      </trkpt>
      <trkpt lat="44.08873" lon="0.27979">
        <ele>125.4</ele>
        <time>2016-02-20T11:57:43Z</time>
      </trkpt>
      <trkpt lat="44.08868" lon="0.27977">
        <ele>125.8</ele>
        <time>2016-02-20T11:57:45Z</time>
      </trkpt>
      <trkpt lat="44.08848" lon="0.27972">
        <ele>126.8</ele>
        <time>2016-02-20T11:57:52Z</time>
      </trkpt>
      <trkpt lat="44.0884" lon="0.27969">
        <ele>127</ele>
        <time>2016-02-20T11:57:55Z</time>
      </trkpt>
      <trkpt lat="44.08819" lon="0.27964">
        <ele>127</ele>
        <time>2016-02-20T11:58:01Z</time>
      </trkpt>
      <trkpt lat="44.08784" lon="0.27953">
        <ele>126.8</ele>
        <time>2016-02-20T11:58:11Z</time>
      </trkpt>
      <trkpt lat="44.08752" lon="0.27944">
        <ele>126.8</ele>
        <time>2016-02-20T11:58:20Z</time>
      </trkpt>
      <trkpt lat="44.08721" lon="0.27935">
        <ele>126.8</ele>
        <time>2016-02-20T11:58:29Z</time>
      </trkpt>
      <trkpt lat="44.08693" lon="0.27926">
        <ele>127.4</ele>
        <time>2016-02-20T11:58:38Z</time>
      </trkpt>
      <trkpt lat="44.08659" lon="0.27917">
        <ele>127.4</ele>
        <time>2016-02-20T11:58:48Z</time>
      </trkpt>
      <trkpt lat="44.08642" lon="0.27912">
        <ele>128</ele>
        <time>2016-02-20T11:58:53Z</time>
      </trkpt>
      <trkpt lat="44.08635" lon="0.2791">
        <ele>127.8</ele>
        <time>2016-02-20T11:58:55Z</time>
      </trkpt>
      <trkpt lat="44.08594" lon="0.27897">
        <ele>128.2</ele>
        <time>2016-02-20T11:59:08Z</time>
      </trkpt>
      <trkpt lat="44.08556" lon="0.27886">
        <ele>129</ele>
        <time>2016-02-20T11:59:20Z</time>
      </trkpt>
      <trkpt lat="44.08552" lon="0.27885">
        <ele>129</ele>
        <time>2016-02-20T11:59:21Z</time>
      </trkpt>
      <trkpt lat="44.08517" lon="0.27875">
        <ele>129.6</ele>
        <time>2016-02-20T11:59:32Z</time>
      </trkpt>
      <trkpt lat="44.085" lon="0.27869">
        <ele>130</ele>
        <time>2016-02-20T11:59:38Z</time>
      </trkpt>
      <trkpt lat="44.08494" lon="0.27867">
        <ele>130.4</ele>
        <time>2016-02-20T11:59:40Z</time>
      </trkpt>
      <trkpt lat="44.08471" lon="0.2786">
        <ele>131.2</ele>
        <time>2016-02-20T11:59:48Z</time>
      </trkpt>
      <trkpt lat="44.08451" lon="0.27854">
        <ele>132.2</ele>
        <time>2016-02-20T11:59:56Z</time>
      </trkpt>
      <trkpt lat="44.08427" lon="0.27848">
        <ele>133</ele>
        <time>2016-02-20T12:00:05Z</time>
      </trkpt>
      <trkpt lat="44.08424" lon="0.27847">
        <ele>133.2</ele>
        <time>2016-02-20T12:00:06Z</time>
      </trkpt>
      <trkpt lat="44.08405" lon="0.27841">
        <ele>133.6</ele>
        <time>2016-02-20T12:00:13Z</time>
      </trkpt>
      <trkpt lat="44.08395" lon="0.27838">
        <ele>134.2</ele>
        <time>2016-02-20T12:00:17Z</time>
      </trkpt>
      <trkpt lat="44.0839" lon="0.27836">
        <ele>134.2</ele>
        <time>2016-02-20T12:00:19Z</time>
      </trkpt>
      <trkpt lat="44.08369" lon="0.27829">
        <ele>134.8</ele>
        <time>2016-02-20T12:00:27Z</time>
      </trkpt>
      <trkpt lat="44.08351" lon="0.27824">
        <ele>135.2</ele>
        <time>2016-02-20T12:00:34Z</time>
      </trkpt>
      <trkpt lat="44.08347" lon="0.27824">
        <ele>135.4</ele>
        <time>2016-02-20T12:00:36Z</time>
      </trkpt>
      <trkpt lat="44.0833" lon="0.2782">
        <ele>136</ele>
        <time>2016-02-20T12:00:43Z</time>
      </trkpt>
      <trkpt lat="44.08326" lon="0.27819">
        <ele>136.4</ele>
        <time>2016-02-20T12:00:45Z</time>
      </trkpt>
      <trkpt lat="44.08314" lon="0.27816">
        <ele>136.8</ele>
        <time>2016-02-20T12:00:50Z</time>
      </trkpt>
      <trkpt lat="44.08304" lon="0.27812">
        <ele>137.4</ele>
        <time>2016-02-20T12:00:55Z</time>
      </trkpt>
      <trkpt lat="44.08299" lon="0.27811">
        <ele>137.8</ele>
        <time>2016-02-20T12:00:57Z</time>
      </trkpt>
      <trkpt lat="44.08283" lon="0.27806">
        <ele>138.2</ele>
        <time>2016-02-20T12:01:04Z</time>
      </trkpt>
      <trkpt lat="44.08272" lon="0.27803">
        <ele>138.4</ele>
        <time>2016-02-20T12:01:09Z</time>
      </trkpt>
      <trkpt lat="44.08264" lon="0.278">
        <ele>138.8</ele>
        <time>2016-02-20T12:01:12Z</time>
      </trkpt>
      <trkpt lat="44.08247" lon="0.27796">
        <ele>139.2</ele>
        <time>2016-02-20T12:01:19Z</time>
      </trkpt>
      <trkpt lat="44.08242" lon="0.27794">
        <ele>139.4</ele>
        <time>2016-02-20T12:01:21Z</time>
      </trkpt>
      <trkpt lat="44.08225" lon="0.27789">
        <ele>139.6</ele>
        <time>2016-02-20T12:01:28Z</time>
      </trkpt>
      <trkpt lat="44.08206" lon="0.27783">
        <ele>139.8</ele>
        <time>2016-02-20T12:01:35Z</time>
      </trkpt>
      <trkpt lat="44.08198" lon="0.27781">
        <ele>140.8</ele>
        <time>2016-02-20T12:01:38Z</time>
      </trkpt>
      <trkpt lat="44.08186" lon="0.27777">
        <ele>141.2</ele>
        <time>2016-02-20T12:01:43Z</time>
      </trkpt>
      <trkpt lat="44.08168" lon="0.27772">
        <ele>141.2</ele>
        <time>2016-02-20T12:01:50Z</time>
      </trkpt>
      <trkpt lat="44.08147" lon="0.27766">
        <ele>141.6</ele>
        <time>2016-02-20T12:01:58Z</time>
      </trkpt>
      <trkpt lat="44.08144" lon="0.27765">
        <ele>141.8</ele>
        <time>2016-02-20T12:01:59Z</time>
      </trkpt>
      <trkpt lat="44.08117" lon="0.27756">
        <ele>142.2</ele>
        <time>2016-02-20T12:02:09Z</time>
      </trkpt>
      <trkpt lat="44.08093" lon="0.27749">
        <ele>142.2</ele>
        <time>2016-02-20T12:02:18Z</time>
      </trkpt>
      <trkpt lat="44.08084" lon="0.27747">
        <ele>142.8</ele>
        <time>2016-02-20T12:02:21Z</time>
      </trkpt>
      <trkpt lat="44.0807" lon="0.27742">
        <ele>143</ele>
        <time>2016-02-20T12:02:26Z</time>
      </trkpt>
      <trkpt lat="44.0805" lon="0.27737">
        <ele>143.4</ele>
        <time>2016-02-20T12:02:34Z</time>
      </trkpt>
      <trkpt lat="44.08036" lon="0.27731">
        <ele>143.2</ele>
        <time>2016-02-20T12:02:40Z</time>
      </trkpt>
      <trkpt lat="44.08016" lon="0.27727">
        <ele>143</ele>
        <time>2016-02-20T12:02:47Z</time>
      </trkpt>
      <trkpt lat="44.07992" lon="0.27719">
        <ele>142</ele>
        <time>2016-02-20T12:02:53Z</time>
      </trkpt>
      <trkpt lat="44.07987" lon="0.27718">
        <ele>141.6</ele>
        <time>2016-02-20T12:02:54Z</time>
      </trkpt>
      <trkpt lat="44.07964" lon="0.27711">
        <ele>140.6</ele>
        <time>2016-02-20T12:02:58Z</time>
      </trkpt>
      <trkpt lat="44.07957" lon="0.27709">
        <ele>140.2</ele>
        <time>2016-02-20T12:02:59Z</time>
      </trkpt>
      <trkpt lat="44.07937" lon="0.27702">
        <ele>139</ele>
        <time>2016-02-20T12:03:02Z</time>
      </trkpt>
      <trkpt lat="44.07915" lon="0.27696">
        <ele>138.2</ele>
        <time>2016-02-20T12:03:05Z</time>
      </trkpt>
      <trkpt lat="44.07901" lon="0.27692">
        <ele>138</ele>
        <time>2016-02-20T12:03:07Z</time>
      </trkpt>
      <trkpt lat="44.07867" lon="0.27682">
        <ele>137.2</ele>
        <time>2016-02-20T12:03:12Z</time>
      </trkpt>
      <trkpt lat="44.07854" lon="0.27678">
        <ele>137</ele>
        <time>2016-02-20T12:03:14Z</time>
      </trkpt>
      <trkpt lat="44.07816" lon="0.27666">
        <ele>136</ele>
        <time>2016-02-20T12:03:20Z</time>
      </trkpt>
      <trkpt lat="44.07804" lon="0.27663">
        <ele>135.8</ele>
        <time>2016-02-20T12:03:22Z</time>
      </trkpt>
      <trkpt lat="44.07771" lon="0.27652">
        <ele>136.8</ele>
        <time>2016-02-20T12:03:28Z</time>
      </trkpt>
      <trkpt lat="44.07766" lon="0.27651">
        <ele>137</ele>
        <time>2016-02-20T12:03:29Z</time>
      </trkpt>
      <trkpt lat="44.07744" lon="0.27645">
        <ele>138.2</ele>
        <time>2016-02-20T12:03:34Z</time>
      </trkpt>
      <trkpt lat="44.07739" lon="0.27644">
        <ele>138.4</ele>
        <time>2016-02-20T12:03:35Z</time>
      </trkpt>
      <trkpt lat="44.07714" lon="0.27636">
        <ele>139.2</ele>
        <time>2016-02-20T12:03:42Z</time>
      </trkpt>
      <trkpt lat="44.07711" lon="0.27635">
        <ele>139.4</ele>
        <time>2016-02-20T12:03:43Z</time>
      </trkpt>
      <trkpt lat="44.07689" lon="0.27629">
        <ele>140.2</ele>
        <time>2016-02-20T12:03:49Z</time>
      </trkpt>
      <trkpt lat="44.07678" lon="0.27625">
        <ele>140.4</ele>
        <time>2016-02-20T12:03:52Z</time>
      </trkpt>
      <trkpt lat="44.07659" lon="0.27619">
        <ele>141.2</ele>
        <time>2016-02-20T12:03:57Z</time>
      </trkpt>
      <trkpt lat="44.07647" lon="0.27617">
        <ele>140.6</ele>
        <time>2016-02-20T12:04:00Z</time>
      </trkpt>
      <trkpt lat="44.07626" lon="0.2761">
        <ele>140.2</ele>
        <time>2016-02-20T12:04:06Z</time>
      </trkpt>
      <trkpt lat="44.0759" lon="0.276">
        <ele>140.6</ele>
        <time>2016-02-20T12:04:16Z</time>
      </trkpt>
      <trkpt lat="44.07562" lon="0.2759">
        <ele>140.8</ele>
        <time>2016-02-20T12:04:24Z</time>
      </trkpt>
      <trkpt lat="44.07535" lon="0.27582">
        <ele>140.2</ele>
        <time>2016-02-20T12:04:31Z</time>
      </trkpt>
      <trkpt lat="44.07503" lon="0.27574">
        <ele>140</ele>
        <time>2016-02-20T12:04:38Z</time>
      </trkpt>
      <trkpt lat="44.07472" lon="0.27564">
        <ele>140.2</ele>
        <time>2016-02-20T12:04:46Z</time>
      </trkpt>
      <trkpt lat="44.07442" lon="0.27554">
        <ele>140.2</ele>
        <time>2016-02-20T12:04:54Z</time>
      </trkpt>
      <trkpt lat="44.07405" lon="0.27543">
        <ele>139.8</ele>
        <time>2016-02-20T12:05:02Z</time>
      </trkpt>
      <trkpt lat="44.0738" lon="0.27536">
        <ele>139.2</ele>
        <time>2016-02-20T12:05:07Z</time>
      </trkpt>
      <trkpt lat="44.07369" lon="0.27534">
        <ele>139</ele>
        <time>2016-02-20T12:05:09Z</time>
      </trkpt>
      <trkpt lat="44.0734" lon="0.27525">
        <ele>137.8</ele>
        <time>2016-02-20T12:05:14Z</time>
      </trkpt>
      <trkpt lat="44.07322" lon="0.27519">
        <ele>137.2</ele>
        <time>2016-02-20T12:05:17Z</time>
      </trkpt>
      <trkpt lat="44.07293" lon="0.2751">
        <ele>136.6</ele>
        <time>2016-02-20T12:05:22Z</time>
      </trkpt>
      <trkpt lat="44.07268" lon="0.27502">
        <ele>135.6</ele>
        <time>2016-02-20T12:05:26Z</time>
      </trkpt>
      <trkpt lat="44.07262" lon="0.275">
        <ele>135.4</ele>
        <time>2016-02-20T12:05:27Z</time>
      </trkpt>
      <trkpt lat="44.07236" lon="0.27492">
        <ele>134.4</ele>
        <time>2016-02-20T12:05:31Z</time>
      </trkpt>
      <trkpt lat="44.07199" lon="0.27481">
        <ele>133.6</ele>
        <time>2016-02-20T12:05:37Z</time>
      </trkpt>
      <trkpt lat="44.07187" lon="0.27478">
        <ele>133.4</ele>
        <time>2016-02-20T12:05:39Z</time>
      </trkpt>
      <trkpt lat="44.07148" lon="0.27466">
        <ele>133</ele>
        <time>2016-02-20T12:05:46Z</time>
      </trkpt>
      <trkpt lat="44.07107" lon="0.27453">
        <ele>132.4</ele>
        <time>2016-02-20T12:05:54Z</time>
      </trkpt>
      <trkpt lat="44.07092" lon="0.2745">
        <ele>132.4</ele>
        <time>2016-02-20T12:05:57Z</time>
      </trkpt>
      <trkpt lat="44.07047" lon="0.27436">
        <ele>132.6</ele>
        <time>2016-02-20T12:06:07Z</time>
      </trkpt>
      <trkpt lat="44.07005" lon="0.27423">
        <ele>132.6</ele>
        <time>2016-02-20T12:06:17Z</time>
      </trkpt>
      <trkpt lat="44.06976" lon="0.27414">
        <ele>132.4</ele>
        <time>2016-02-20T12:06:24Z</time>
      </trkpt>
      <trkpt lat="44.06921" lon="0.27398">
        <ele>132.6</ele>
        <time>2016-02-20T12:06:37Z</time>
      </trkpt>
      <trkpt lat="44.06884" lon="0.27387">
        <ele>132.8</ele>
        <time>2016-02-20T12:06:46Z</time>
      </trkpt>
      <trkpt lat="44.06844" lon="0.27375">
        <ele>133</ele>
        <time>2016-02-20T12:06:56Z</time>
      </trkpt>
      <trkpt lat="44.06829" lon="0.27371">
        <ele>133.4</ele>
        <time>2016-02-20T12:07:00Z</time>
      </trkpt>
      <trkpt lat="44.06811" lon="0.27365">
        <ele>133.8</ele>
        <time>2016-02-20T12:07:05Z</time>
      </trkpt>
      <trkpt lat="44.06784" lon="0.27357">
        <ele>134</ele>
        <time>2016-02-20T12:07:13Z</time>
      </trkpt>
      <trkpt lat="44.06761" lon="0.2735">
        <ele>134.2</ele>
        <time>2016-02-20T12:07:20Z</time>
      </trkpt>
      <trkpt lat="44.06754" lon="0.27348">
        <ele>134.4</ele>
        <time>2016-02-20T12:07:22Z</time>
      </trkpt>
      <trkpt lat="44.06731" lon="0.27341">
        <ele>134.2</ele>
        <time>2016-02-20T12:07:29Z</time>
      </trkpt>
      <trkpt lat="44.06694" lon="0.27329">
        <ele>134.2</ele>
        <time>2016-02-20T12:07:39Z</time>
      </trkpt>
      <trkpt lat="44.06665" lon="0.27321">
        <ele>134.8</ele>
        <time>2016-02-20T12:07:47Z</time>
      </trkpt>
      <trkpt lat="44.06637" lon="0.27313">
        <ele>134.6</ele>
        <time>2016-02-20T12:07:56Z</time>
      </trkpt>
      <trkpt lat="44.06622" lon="0.27309">
        <ele>135.6</ele>
        <time>2016-02-20T12:08:02Z</time>
      </trkpt>
      <trkpt lat="44.06614" lon="0.27306">
        <ele>136</ele>
        <time>2016-02-20T12:08:05Z</time>
      </trkpt>
      <trkpt lat="44.06604" lon="0.27303">
        <ele>136.8</ele>
        <time>2016-02-20T12:08:09Z</time>
      </trkpt>
      <trkpt lat="44.06593" lon="0.273">
        <ele>137.2</ele>
        <time>2016-02-20T12:08:13Z</time>
      </trkpt>
      <trkpt lat="44.06579" lon="0.27293">
        <ele>138</ele>
        <time>2016-02-20T12:08:19Z</time>
      </trkpt>
      <trkpt lat="44.06574" lon="0.27291">
        <ele>138.4</ele>
        <time>2016-02-20T12:08:21Z</time>
      </trkpt>
      <trkpt lat="44.06559" lon="0.27289">
        <ele>139</ele>
        <time>2016-02-20T12:08:27Z</time>
      </trkpt>
      <trkpt lat="44.06545" lon="0.27286">
        <ele>140</ele>
        <time>2016-02-20T12:08:33Z</time>
      </trkpt>
      <trkpt lat="44.0654" lon="0.27283">
        <ele>140.2</ele>
        <time>2016-02-20T12:08:35Z</time>
      </trkpt>
      <trkpt lat="44.06528" lon="0.27279">
        <ele>140.4</ele>
        <time>2016-02-20T12:08:40Z</time>
      </trkpt>
      <trkpt lat="44.0651" lon="0.27275">
        <ele>140.8</ele>
        <time>2016-02-20T12:08:47Z</time>
      </trkpt>
      <trkpt lat="44.06491" lon="0.27269">
        <ele>141.4</ele>
        <time>2016-02-20T12:08:55Z</time>
      </trkpt>
      <trkpt lat="44.06466" lon="0.27262">
        <ele>141.6</ele>
        <time>2016-02-20T12:09:04Z</time>
      </trkpt>
      <trkpt lat="44.06444" lon="0.27255">
        <ele>141.8</ele>
        <time>2016-02-20T12:09:12Z</time>
      </trkpt>
      <trkpt lat="44.06423" lon="0.27249">
        <ele>141.6</ele>
        <time>2016-02-20T12:09:20Z</time>
      </trkpt>
      <trkpt lat="44.06398" lon="0.27241">
        <ele>141.4</ele>
        <time>2016-02-20T12:09:27Z</time>
      </trkpt>
      <trkpt lat="44.06354" lon="0.27229">
        <ele>140.8</ele>
        <time>2016-02-20T12:09:37Z</time>
      </trkpt>
      <trkpt lat="44.06346" lon="0.27226">
        <ele>140.2</ele>
        <time>2016-02-20T12:09:39Z</time>
      </trkpt>
      <trkpt lat="44.06324" lon="0.27218">
        <ele>139.8</ele>
        <time>2016-02-20T12:09:44Z</time>
      </trkpt>
      <trkpt lat="44.06304" lon="0.27212">
        <ele>139.2</ele>
        <time>2016-02-20T12:09:48Z</time>
      </trkpt>
      <trkpt lat="44.06286" lon="0.27207">
        <ele>138.8</ele>
        <time>2016-02-20T12:09:51Z</time>
      </trkpt>
      <trkpt lat="44.06259" lon="0.27199">
        <ele>138.2</ele>
        <time>2016-02-20T12:09:55Z</time>
      </trkpt>
      <trkpt lat="44.06251" lon="0.27196">
        <ele>137.8</ele>
        <time>2016-02-20T12:09:56Z</time>
      </trkpt>
      <trkpt lat="44.06235" lon="0.27191">
        <ele>136.6</ele>
        <time>2016-02-20T12:09:58Z</time>
      </trkpt>
      <trkpt lat="44.06218" lon="0.27186">
        <ele>135.2</ele>
        <time>2016-02-20T12:10:00Z</time>
      </trkpt>
      <trkpt lat="44.062" lon="0.27181">
        <ele>134.2</ele>
        <time>2016-02-20T12:10:02Z</time>
      </trkpt>
      <trkpt lat="44.06172" lon="0.27172">
        <ele>133</ele>
        <time>2016-02-20T12:10:05Z</time>
      </trkpt>
      <trkpt lat="44.06153" lon="0.27167">
        <ele>132</ele>
        <time>2016-02-20T12:10:07Z</time>
      </trkpt>
      <trkpt lat="44.06133" lon="0.27161">
        <ele>130.4</ele>
        <time>2016-02-20T12:10:09Z</time>
      </trkpt>
      <trkpt lat="44.06114" lon="0.27155">
        <ele>129.2</ele>
        <time>2016-02-20T12:10:11Z</time>
      </trkpt>
      <trkpt lat="44.06076" lon="0.27144">
        <ele>128</ele>
        <time>2016-02-20T12:10:15Z</time>
      </trkpt>
      <trkpt lat="44.06058" lon="0.27139">
        <ele>126.8</ele>
        <time>2016-02-20T12:10:17Z</time>
      </trkpt>
      <trkpt lat="44.06039" lon="0.27133">
        <ele>125.8</ele>
        <time>2016-02-20T12:10:19Z</time>
      </trkpt>
      <trkpt lat="44.06029" lon="0.27131">
        <ele>125.4</ele>
        <time>2016-02-20T12:10:20Z</time>
      </trkpt>
      <trkpt lat="44.06011" lon="0.27125">
        <ele>124.8</ele>
        <time>2016-02-20T12:10:22Z</time>
      </trkpt>
      <trkpt lat="44.05977" lon="0.27115">
        <ele>123.6</ele>
        <time>2016-02-20T12:10:26Z</time>
      </trkpt>
      <trkpt lat="44.05946" lon="0.27106">
        <ele>123.2</ele>
        <time>2016-02-20T12:10:31Z</time>
      </trkpt>
      <trkpt lat="44.05923" lon="0.271">
        <ele>124</ele>
        <time>2016-02-20T12:10:36Z</time>
      </trkpt>
      <trkpt lat="44.05919" lon="0.27099">
        <ele>124</ele>
        <time>2016-02-20T12:10:37Z</time>
      </trkpt>
      <trkpt lat="44.05904" lon="0.27095">
        <ele>124.6</ele>
        <time>2016-02-20T12:10:41Z</time>
      </trkpt>
      <trkpt lat="44.05893" lon="0.27091">
        <ele>125.2</ele>
        <time>2016-02-20T12:10:44Z</time>
      </trkpt>
      <trkpt lat="44.05872" lon="0.27084">
        <ele>125.8</ele>
        <time>2016-02-20T12:10:50Z</time>
      </trkpt>
      <trkpt lat="44.05861" lon="0.2708">
        <ele>126</ele>
        <time>2016-02-20T12:10:53Z</time>
      </trkpt>
      <trkpt lat="44.05843" lon="0.27074">
        <ele>126.8</ele>
        <time>2016-02-20T12:10:59Z</time>
      </trkpt>
      <trkpt lat="44.05835" lon="0.27072">
        <ele>127.6</ele>
        <time>2016-02-20T12:11:02Z</time>
      </trkpt>
      <trkpt lat="44.0583" lon="0.27071">
        <ele>127.8</ele>
        <time>2016-02-20T12:11:04Z</time>
      </trkpt>
      <trkpt lat="44.05818" lon="0.27069">
        <ele>129</ele>
        <time>2016-02-20T12:11:09Z</time>
      </trkpt>
      <trkpt lat="44.05808" lon="0.27066">
        <ele>130</ele>
        <time>2016-02-20T12:11:13Z</time>
      </trkpt>
      <trkpt lat="44.05801" lon="0.27063">
        <ele>130.4</ele>
        <time>2016-02-20T12:11:16Z</time>
      </trkpt>
      <trkpt lat="44.0579" lon="0.2706">
        <ele>131.2</ele>
        <time>2016-02-20T12:11:20Z</time>
      </trkpt>
      <trkpt lat="44.0578" lon="0.27057">
        <ele>132.4</ele>
        <time>2016-02-20T12:11:24Z</time>
      </trkpt>
      <trkpt lat="44.05754" lon="0.2705">
        <ele>133.4</ele>
        <time>2016-02-20T12:11:33Z</time>
      </trkpt>
      <trkpt lat="44.05748" lon="0.27048">
        <ele>134</ele>
        <time>2016-02-20T12:11:35Z</time>
      </trkpt>
      <trkpt lat="44.05737" lon="0.27044">
        <ele>134.4</ele>
        <time>2016-02-20T12:11:39Z</time>
      </trkpt>
      <trkpt lat="44.05723" lon="0.2704">
        <ele>135.6</ele>
        <time>2016-02-20T12:11:44Z</time>
      </trkpt>
      <trkpt lat="44.05709" lon="0.27036">
        <ele>136.8</ele>
        <time>2016-02-20T12:11:49Z</time>
      </trkpt>
      <trkpt lat="44.05701" lon="0.27034">
        <ele>136.8</ele>
        <time>2016-02-20T12:11:52Z</time>
      </trkpt>
      <trkpt lat="44.05685" lon="0.27029">
        <ele>138</ele>
        <time>2016-02-20T12:11:58Z</time>
      </trkpt>
      <trkpt lat="44.05682" lon="0.27028">
        <ele>138.2</ele>
        <time>2016-02-20T12:11:59Z</time>
      </trkpt>
      <trkpt lat="44.05671" lon="0.27024">
        <ele>139.2</ele>
        <time>2016-02-20T12:12:03Z</time>
      </trkpt>
      <trkpt lat="44.05663" lon="0.27022">
        <ele>139.8</ele>
        <time>2016-02-20T12:12:06Z</time>
      </trkpt>
      <trkpt lat="44.05656" lon="0.2702">
        <ele>140.2</ele>
        <time>2016-02-20T12:12:09Z</time>
      </trkpt>
      <trkpt lat="44.0565" lon="0.27019">
        <ele>140.8</ele>
        <time>2016-02-20T12:12:12Z</time>
      </trkpt>
      <trkpt lat="44.05646" lon="0.27017">
        <ele>141.4</ele>
        <time>2016-02-20T12:12:14Z</time>
      </trkpt>
      <trkpt lat="44.05638" lon="0.27014">
        <ele>142.2</ele>
        <time>2016-02-20T12:12:18Z</time>
      </trkpt>
      <trkpt lat="44.05636" lon="0.27013">
        <ele>142.6</ele>
        <time>2016-02-20T12:12:19Z</time>
      </trkpt>
      <trkpt lat="44.05628" lon="0.27011">
        <ele>143.6</ele>
        <time>2016-02-20T12:12:23Z</time>
      </trkpt>
      <trkpt lat="44.05621" lon="0.27008">
        <ele>143.8</ele>
        <time>2016-02-20T12:12:26Z</time>
      </trkpt>
      <trkpt lat="44.05609" lon="0.27005">
        <ele>145</ele>
        <time>2016-02-20T12:12:31Z</time>
      </trkpt>
      <trkpt lat="44.05602" lon="0.27003">
        <ele>145.4</ele>
        <time>2016-02-20T12:12:34Z</time>
      </trkpt>
      <trkpt lat="44.05597" lon="0.27002">
        <ele>146</ele>
        <time>2016-02-20T12:12:36Z</time>
      </trkpt>
      <trkpt lat="44.05584" lon="0.26998">
        <ele>147.2</ele>
        <time>2016-02-20T12:12:42Z</time>
      </trkpt>
      <trkpt lat="44.05579" lon="0.26997">
        <ele>148.8</ele>
        <time>2016-02-20T12:12:44Z</time>
      </trkpt>
      <trkpt lat="44.05576" lon="0.26996">
        <ele>147.6</ele>
        <time>2016-02-20T12:12:45Z</time>
      </trkpt>
      <trkpt lat="44.05567" lon="0.26993">
        <ele>148.6</ele>
        <time>2016-02-20T12:12:49Z</time>
      </trkpt>
      <trkpt lat="44.05565" lon="0.26993">
        <ele>149</ele>
        <time>2016-02-20T12:12:50Z</time>
      </trkpt>
      <trkpt lat="44.05553" lon="0.26988">
        <ele>149.4</ele>
        <time>2016-02-20T12:12:56Z</time>
      </trkpt>
      <trkpt lat="44.05545" lon="0.26983">
        <ele>150</ele>
        <time>2016-02-20T12:13:00Z</time>
      </trkpt>
      <trkpt lat="44.05541" lon="0.26981">
        <ele>150.4</ele>
        <time>2016-02-20T12:13:02Z</time>
      </trkpt>
      <trkpt lat="44.05533" lon="0.26975">
        <ele>151.2</ele>
        <time>2016-02-20T12:13:07Z</time>
      </trkpt>
      <trkpt lat="44.0553" lon="0.26974">
        <ele>151.4</ele>
        <time>2016-02-20T12:13:09Z</time>
      </trkpt>
      <trkpt lat="44.05519" lon="0.2697">
        <ele>152.4</ele>
        <time>2016-02-20T12:13:15Z</time>
      </trkpt>
      <trkpt lat="44.05518" lon="0.26968">
        <ele>152.2</ele>
        <time>2016-02-20T12:13:16Z</time>
      </trkpt>
      <trkpt lat="44.05512" lon="0.26966">
        <ele>152.4</ele>
        <time>2016-02-20T12:13:20Z</time>
      </trkpt>
      <trkpt lat="44.0551" lon="0.26966">
        <ele>152.6</ele>
        <time>2016-02-20T12:13:22Z</time>
      </trkpt>
      <trkpt lat="44.055" lon="0.26963">
        <ele>153.2</ele>
        <time>2016-02-20T12:18:25Z</time>
      </trkpt>
      <trkpt lat="44.05498" lon="0.26962">
        <ele>153.4</ele>
        <time>2016-02-20T12:18:26Z</time>
      </trkpt>
      <trkpt lat="44.05497" lon="0.26961">
        <ele>153.4</ele>
        <time>2016-02-20T12:18:27Z</time>
      </trkpt>
      <trkpt lat="44.05488" lon="0.26954">
        <ele>153.6</ele>
        <time>2016-02-20T12:18:32Z</time>
      </trkpt>
      <trkpt lat="44.05486" lon="0.26953">
        <ele>153.8</ele>
        <time>2016-02-20T12:18:33Z</time>
      </trkpt>
      <trkpt lat="44.05476" lon="0.26941">
        <ele>153.4</ele>
        <time>2016-02-20T12:18:40Z</time>
      </trkpt>
      <trkpt lat="44.05463" lon="0.26922">
        <ele>153.6</ele>
        <time>2016-02-20T12:18:49Z</time>
      </trkpt>
      <trkpt lat="44.05451" lon="0.26898">
        <ele>153</ele>
        <time>2016-02-20T12:18:56Z</time>
      </trkpt>
      <trkpt lat="44.05445" lon="0.26884">
        <ele>152.8</ele>
        <time>2016-02-20T12:18:59Z</time>
      </trkpt>
      <trkpt lat="44.05443" lon="0.26871">
        <ele>152.2</ele>
        <time>2016-02-20T12:19:01Z</time>
      </trkpt>
      <trkpt lat="44.05439" lon="0.26848">
        <ele>151</ele>
        <time>2016-02-20T12:19:04Z</time>
      </trkpt>
      <trkpt lat="44.05438" lon="0.26831">
        <ele>150.4</ele>
        <time>2016-02-20T12:19:06Z</time>
      </trkpt>
      <trkpt lat="44.05438" lon="0.26823">
        <ele>150</ele>
        <time>2016-02-20T12:19:07Z</time>
      </trkpt>
      <trkpt lat="44.05438" lon="0.26804">
        <ele>148.6</ele>
        <time>2016-02-20T12:19:09Z</time>
      </trkpt>
      <trkpt lat="44.0544" lon="0.26775">
        <ele>147.6</ele>
        <time>2016-02-20T12:19:12Z</time>
      </trkpt>
      <trkpt lat="44.05441" lon="0.26754">
        <ele>146.4</ele>
        <time>2016-02-20T12:19:14Z</time>
      </trkpt>
      <trkpt lat="44.05443" lon="0.26732">
        <ele>145.4</ele>
        <time>2016-02-20T12:19:16Z</time>
      </trkpt>
      <trkpt lat="44.05444" lon="0.26698">
        <ele>144</ele>
        <time>2016-02-20T12:19:19Z</time>
      </trkpt>
      <trkpt lat="44.05445" lon="0.26663">
        <ele>142.6</ele>
        <time>2016-02-20T12:19:22Z</time>
      </trkpt>
      <trkpt lat="44.05446" lon="0.26638">
        <ele>141.6</ele>
        <time>2016-02-20T12:19:24Z</time>
      </trkpt>
      <trkpt lat="44.05447" lon="0.26627">
        <ele>141</ele>
        <time>2016-02-20T12:19:25Z</time>
      </trkpt>
      <trkpt lat="44.05448" lon="0.26591">
        <ele>140</ele>
        <time>2016-02-20T12:19:28Z</time>
      </trkpt>
      <trkpt lat="44.0545" lon="0.26557">
        <ele>139.2</ele>
        <time>2016-02-20T12:19:31Z</time>
      </trkpt>
      <trkpt lat="44.05451" lon="0.26546">
        <ele>138.8</ele>
        <time>2016-02-20T12:19:32Z</time>
      </trkpt>
      <trkpt lat="44.05452" lon="0.26503">
        <ele>137.8</ele>
        <time>2016-02-20T12:19:36Z</time>
      </trkpt>
      <trkpt lat="44.05453" lon="0.26483">
        <ele>137.2</ele>
        <time>2016-02-20T12:19:38Z</time>
      </trkpt>
      <trkpt lat="44.05455" lon="0.26463">
        <ele>136.2</ele>
        <time>2016-02-20T12:19:40Z</time>
      </trkpt>
      <trkpt lat="44.05457" lon="0.26423">
        <ele>135.6</ele>
        <time>2016-02-20T12:19:44Z</time>
      </trkpt>
      <trkpt lat="44.05457" lon="0.26412">
        <ele>135.2</ele>
        <time>2016-02-20T12:19:45Z</time>
      </trkpt>
      <trkpt lat="44.05459" lon="0.26383">
        <ele>134</ele>
        <time>2016-02-20T12:19:48Z</time>
      </trkpt>
      <trkpt lat="44.05462" lon="0.26344">
        <ele>132.8</ele>
        <time>2016-02-20T12:19:52Z</time>
      </trkpt>
      <trkpt lat="44.05462" lon="0.26335">
        <ele>132.6</ele>
        <time>2016-02-20T12:19:53Z</time>
      </trkpt>
      <trkpt lat="44.05465" lon="0.26298">
        <ele>131.8</ele>
        <time>2016-02-20T12:19:57Z</time>
      </trkpt>
      <trkpt lat="44.05467" lon="0.26261">
        <ele>131.4</ele>
        <time>2016-02-20T12:20:01Z</time>
      </trkpt>
      <trkpt lat="44.05469" lon="0.26233">
        <ele>130.2</ele>
        <time>2016-02-20T12:20:04Z</time>
      </trkpt>
      <trkpt lat="44.0547" lon="0.26193">
        <ele>128.6</ele>
        <time>2016-02-20T12:20:08Z</time>
      </trkpt>
      <trkpt lat="44.05471" lon="0.26183">
        <ele>128</ele>
        <time>2016-02-20T12:20:09Z</time>
      </trkpt>
      <trkpt lat="44.05471" lon="0.26173">
        <ele>127.4</ele>
        <time>2016-02-20T12:20:10Z</time>
      </trkpt>
      <trkpt lat="44.05472" lon="0.26154">
        <ele>126</ele>
        <time>2016-02-20T12:20:12Z</time>
      </trkpt>
      <trkpt lat="44.05472" lon="0.26139">
        <ele>125.2</ele>
        <time>2016-02-20T12:20:14Z</time>
      </trkpt>
      <trkpt lat="44.05472" lon="0.26133">
        <ele>124.6</ele>
        <time>2016-02-20T12:20:15Z</time>
      </trkpt>
      <trkpt lat="44.05472" lon="0.26126">
        <ele>123.8</ele>
        <time>2016-02-20T12:20:17Z</time>
      </trkpt>
      <trkpt lat="44.05469" lon="0.26119">
        <ele>123.4</ele>
        <time>2016-02-20T12:20:20Z</time>
      </trkpt>
      <trkpt lat="44.05468" lon="0.26117">
        <ele>123</ele>
        <time>2016-02-20T12:20:21Z</time>
      </trkpt>
      <trkpt lat="44.05463" lon="0.26111">
        <ele>122.6</ele>
        <time>2016-02-20T12:20:24Z</time>
      </trkpt>
      <trkpt lat="44.05458" lon="0.26107">
        <ele>122.4</ele>
        <time>2016-02-20T12:20:26Z</time>
      </trkpt>
      <trkpt lat="44.05454" lon="0.26104">
        <ele>122.2</ele>
        <time>2016-02-20T12:20:27Z</time>
      </trkpt>
      <trkpt lat="44.05439" lon="0.26094">
        <ele>121.6</ele>
        <time>2016-02-20T12:20:31Z</time>
      </trkpt>
      <trkpt lat="44.05431" lon="0.26088">
        <ele>121</ele>
        <time>2016-02-20T12:20:33Z</time>
      </trkpt>
      <trkpt lat="44.05412" lon="0.26073">
        <ele>119.8</ele>
        <time>2016-02-20T12:20:37Z</time>
      </trkpt>
      <trkpt lat="44.054" lon="0.26064">
        <ele>118.6</ele>
        <time>2016-02-20T12:20:39Z</time>
      </trkpt>
      <trkpt lat="44.05383" lon="0.26046">
        <ele>117.2</ele>
        <time>2016-02-20T12:20:42Z</time>
      </trkpt>
      <trkpt lat="44.05369" lon="0.26021">
        <ele>115.6</ele>
        <time>2016-02-20T12:20:45Z</time>
      </trkpt>
      <trkpt lat="44.05365" lon="0.26011">
        <ele>115.2</ele>
        <time>2016-02-20T12:20:46Z</time>
      </trkpt>
      <trkpt lat="44.05364" lon="0.26001">
        <ele>114.6</ele>
        <time>2016-02-20T12:20:47Z</time>
      </trkpt>
      <trkpt lat="44.05364" lon="0.25991">
        <ele>114.2</ele>
        <time>2016-02-20T12:20:48Z</time>
      </trkpt>
      <trkpt lat="44.05369" lon="0.25971">
        <ele>113.6</ele>
        <time>2016-02-20T12:20:50Z</time>
      </trkpt>
      <trkpt lat="44.05375" lon="0.25961">
        <ele>112.8</ele>
        <time>2016-02-20T12:20:51Z</time>
      </trkpt>
      <trkpt lat="44.05385" lon="0.25942">
        <ele>112</ele>
        <time>2016-02-20T12:20:53Z</time>
      </trkpt>
      <trkpt lat="44.0539" lon="0.25933">
        <ele>111.8</ele>
        <time>2016-02-20T12:20:54Z</time>
      </trkpt>
      <trkpt lat="44.05396" lon="0.25924">
        <ele>110.6</ele>
        <time>2016-02-20T12:20:55Z</time>
      </trkpt>
      <trkpt lat="44.05407" lon="0.25906">
        <ele>109.6</ele>
        <time>2016-02-20T12:20:57Z</time>
      </trkpt>
      <trkpt lat="44.05418" lon="0.25888">
        <ele>108.4</ele>
        <time>2016-02-20T12:20:59Z</time>
      </trkpt>
      <trkpt lat="44.05423" lon="0.25878">
        <ele>107.2</ele>
        <time>2016-02-20T12:21:00Z</time>
      </trkpt>
      <trkpt lat="44.05429" lon="0.25868">
        <ele>106.4</ele>
        <time>2016-02-20T12:21:01Z</time>
      </trkpt>
      <trkpt lat="44.05434" lon="0.25859">
        <ele>105.8</ele>
        <time>2016-02-20T12:21:02Z</time>
      </trkpt>
      <trkpt lat="44.05444" lon="0.25842">
        <ele>104.4</ele>
        <time>2016-02-20T12:21:04Z</time>
      </trkpt>
      <trkpt lat="44.05453" lon="0.25826">
        <ele>103.4</ele>
        <time>2016-02-20T12:21:06Z</time>
      </trkpt>
      <trkpt lat="44.05465" lon="0.258">
        <ele>102</ele>
        <time>2016-02-20T12:21:09Z</time>
      </trkpt>
      <trkpt lat="44.05473" lon="0.25781">
        <ele>100.8</ele>
        <time>2016-02-20T12:21:11Z</time>
      </trkpt>
      <trkpt lat="44.0548" lon="0.25762">
        <ele>99.4</ele>
        <time>2016-02-20T12:21:13Z</time>
      </trkpt>
      <trkpt lat="44.05487" lon="0.25741">
        <ele>98.4</ele>
        <time>2016-02-20T12:21:15Z</time>
      </trkpt>
      <trkpt lat="44.05497" lon="0.25706">
        <ele>97.2</ele>
        <time>2016-02-20T12:21:18Z</time>
      </trkpt>
      <trkpt lat="44.05499" lon="0.25693">
        <ele>96.6</ele>
        <time>2016-02-20T12:21:19Z</time>
      </trkpt>
      <trkpt lat="44.05501" lon="0.25679">
        <ele>95.8</ele>
        <time>2016-02-20T12:21:20Z</time>
      </trkpt>
      <trkpt lat="44.05509" lon="0.25653">
        <ele>94.2</ele>
        <time>2016-02-20T12:21:22Z</time>
      </trkpt>
      <trkpt lat="44.05518" lon="0.25628">
        <ele>93</ele>
        <time>2016-02-20T12:21:24Z</time>
      </trkpt>
      <trkpt lat="44.05528" lon="0.25605">
        <ele>92</ele>
        <time>2016-02-20T12:21:26Z</time>
      </trkpt>
      <trkpt lat="44.05545" lon="0.25574">
        <ele>90.8</ele>
        <time>2016-02-20T12:21:29Z</time>
      </trkpt>
      <trkpt lat="44.05578" lon="0.25525">
        <ele>90.2</ele>
        <time>2016-02-20T12:21:35Z</time>
      </trkpt>
      <trkpt lat="44.05591" lon="0.25503">
        <ele>89.8</ele>
        <time>2016-02-20T12:21:38Z</time>
      </trkpt>
      <trkpt lat="44.05598" lon="0.2549">
        <ele>89.8</ele>
        <time>2016-02-20T12:21:40Z</time>
      </trkpt>
      <trkpt lat="44.05623" lon="0.25454">
        <ele>90</ele>
        <time>2016-02-20T12:21:47Z</time>
      </trkpt>
      <trkpt lat="44.05628" lon="0.2545">
        <ele>89.6</ele>
        <time>2016-02-20T12:21:48Z</time>
      </trkpt>
      <trkpt lat="44.05636" lon="0.25441">
        <ele>88.4</ele>
        <time>2016-02-20T12:21:50Z</time>
      </trkpt>
      <trkpt lat="44.05645" lon="0.25433">
        <ele>88.4</ele>
        <time>2016-02-20T12:21:52Z</time>
      </trkpt>
      <trkpt lat="44.05694" lon="0.25387">
        <ele>87.6</ele>
        <time>2016-02-20T12:22:02Z</time>
      </trkpt>
      <trkpt lat="44.05698" lon="0.25382">
        <ele>87.4</ele>
        <time>2016-02-20T12:22:03Z</time>
      </trkpt>
      <trkpt lat="44.05711" lon="0.25362">
        <ele>86.8</ele>
        <time>2016-02-20T12:22:06Z</time>
      </trkpt>
      <trkpt lat="44.05713" lon="0.25353">
        <ele>86.8</ele>
        <time>2016-02-20T12:22:07Z</time>
      </trkpt>
      <trkpt lat="44.05715" lon="0.25335">
        <ele>86.4</ele>
        <time>2016-02-20T12:22:09Z</time>
      </trkpt>
      <trkpt lat="44.05714" lon="0.25315">
        <ele>86.2</ele>
        <time>2016-02-20T12:22:11Z</time>
      </trkpt>
      <trkpt lat="44.05713" lon="0.2527">
        <ele>85</ele>
        <time>2016-02-20T12:22:16Z</time>
      </trkpt>
      <trkpt lat="44.05713" lon="0.25253">
        <ele>84.4</ele>
        <time>2016-02-20T12:22:18Z</time>
      </trkpt>
      <trkpt lat="44.05713" lon="0.25244">
        <ele>84</ele>
        <time>2016-02-20T12:22:19Z</time>
      </trkpt>
      <trkpt lat="44.05713" lon="0.25208">
        <ele>82.8</ele>
        <time>2016-02-20T12:22:23Z</time>
      </trkpt>
      <trkpt lat="44.05713" lon="0.25188">
        <ele>81.6</ele>
        <time>2016-02-20T12:22:25Z</time>
      </trkpt>
      <trkpt lat="44.05714" lon="0.25178">
        <ele>81.2</ele>
        <time>2016-02-20T12:22:26Z</time>
      </trkpt>
      <trkpt lat="44.05713" lon="0.25156">
        <ele>80.4</ele>
        <time>2016-02-20T12:22:28Z</time>
      </trkpt>
      <trkpt lat="44.05713" lon="0.2512">
        <ele>78.6</ele>
        <time>2016-02-20T12:22:31Z</time>
      </trkpt>
      <trkpt lat="44.05713" lon="0.25107">
        <ele>78.2</ele>
        <time>2016-02-20T12:22:32Z</time>
      </trkpt>
      <trkpt lat="44.05713" lon="0.25095">
        <ele>77.4</ele>
        <time>2016-02-20T12:22:33Z</time>
      </trkpt>
      <trkpt lat="44.05713" lon="0.25058">
        <ele>76.4</ele>
        <time>2016-02-20T12:22:36Z</time>
      </trkpt>
      <trkpt lat="44.05714" lon="0.25036">
        <ele>75.2</ele>
        <time>2016-02-20T12:22:38Z</time>
      </trkpt>
      <trkpt lat="44.05714" lon="0.25015">
        <ele>74</ele>
        <time>2016-02-20T12:22:40Z</time>
      </trkpt>
      <trkpt lat="44.05715" lon="0.24963">
        <ele>73.2</ele>
        <time>2016-02-20T12:22:45Z</time>
      </trkpt>
      <trkpt lat="44.05715" lon="0.24953">
        <ele>73</ele>
        <time>2016-02-20T12:22:46Z</time>
      </trkpt>
      <trkpt lat="44.05713" lon="0.24911">
        <ele>72.2</ele>
        <time>2016-02-20T12:22:51Z</time>
      </trkpt>
      <trkpt lat="44.05712" lon="0.24896">
        <ele>72.2</ele>
        <time>2016-02-20T12:22:53Z</time>
      </trkpt>
      <trkpt lat="44.05707" lon="0.24884">
        <ele>72.4</ele>
        <time>2016-02-20T12:22:55Z</time>
      </trkpt>
      <trkpt lat="44.05694" lon="0.24876">
        <ele>72</ele>
        <time>2016-02-20T12:22:58Z</time>
      </trkpt>
      <trkpt lat="44.05689" lon="0.24875">
        <ele>72</ele>
        <time>2016-02-20T12:22:59Z</time>
      </trkpt>
      <trkpt lat="44.0568" lon="0.24873">
        <ele>71.8</ele>
        <time>2016-02-20T12:23:01Z</time>
      </trkpt>
      <trkpt lat="44.05664" lon="0.24872">
        <ele>71</ele>
        <time>2016-02-20T12:23:04Z</time>
      </trkpt>
      <trkpt lat="44.05658" lon="0.24873">
        <ele>70.8</ele>
        <time>2016-02-20T12:23:05Z</time>
      </trkpt>
      <trkpt lat="44.05653" lon="0.24873">
        <ele>71</ele>
        <time>2016-02-20T12:23:06Z</time>
      </trkpt>
      <trkpt lat="44.05635" lon="0.24876">
        <ele>70.8</ele>
        <time>2016-02-20T12:23:09Z</time>
      </trkpt>
      <trkpt lat="44.0563" lon="0.24876">
        <ele>70.6</ele>
        <time>2016-02-20T12:23:10Z</time>
      </trkpt>
      <trkpt lat="44.05584" lon="0.2488">
        <ele>70.4</ele>
        <time>2016-02-20T12:23:19Z</time>
      </trkpt>
      <trkpt lat="44.05566" lon="0.2488">
        <ele>70.2</ele>
        <time>2016-02-20T12:23:23Z</time>
      </trkpt>
      <trkpt lat="44.05557" lon="0.24879">
        <ele>70.4</ele>
        <time>2016-02-20T12:23:25Z</time>
      </trkpt>
      <trkpt lat="44.05534" lon="0.24872">
        <ele>71</ele>
        <time>2016-02-20T12:23:31Z</time>
      </trkpt>
      <trkpt lat="44.0553" lon="0.2487">
        <ele>70.8</ele>
        <time>2016-02-20T12:23:32Z</time>
      </trkpt>
      <trkpt lat="44.055" lon="0.24857">
        <ele>70.8</ele>
        <time>2016-02-20T12:23:40Z</time>
      </trkpt>
      <trkpt lat="44.05478" lon="0.24847">
        <ele>71.2</ele>
        <time>2016-02-20T12:23:46Z</time>
      </trkpt>
      <trkpt lat="44.05458" lon="0.24839">
        <ele>71.4</ele>
        <time>2016-02-20T12:23:51Z</time>
      </trkpt>
      <trkpt lat="44.05451" lon="0.24835">
        <ele>71.2</ele>
        <time>2016-02-20T12:23:53Z</time>
      </trkpt>
      <trkpt lat="44.0543" lon="0.24826">
        <ele>71.4</ele>
        <time>2016-02-20T12:23:59Z</time>
      </trkpt>
      <trkpt lat="44.05408" lon="0.24815">
        <ele>71.4</ele>
        <time>2016-02-20T12:24:05Z</time>
      </trkpt>
      <trkpt lat="44.05385" lon="0.24803">
        <ele>72</ele>
        <time>2016-02-20T12:24:12Z</time>
      </trkpt>
      <trkpt lat="44.05363" lon="0.24793">
        <ele>71.8</ele>
        <time>2016-02-20T12:24:18Z</time>
      </trkpt>
      <trkpt lat="44.05338" lon="0.24782">
        <ele>72</ele>
        <time>2016-02-20T12:24:25Z</time>
      </trkpt>
      <trkpt lat="44.05326" lon="0.24777">
        <ele>73.2</ele>
        <time>2016-02-20T12:24:28Z</time>
      </trkpt>
      <trkpt lat="44.05315" lon="0.24772">
        <ele>71.6</ele>
        <time>2016-02-20T12:24:31Z</time>
      </trkpt>
      <trkpt lat="44.05312" lon="0.2477">
        <ele>72.2</ele>
        <time>2016-02-20T12:24:32Z</time>
      </trkpt>
      <trkpt lat="44.05283" lon="0.24758">
        <ele>72</ele>
        <time>2016-02-20T12:24:39Z</time>
      </trkpt>
      <trkpt lat="44.05253" lon="0.24747">
        <ele>72.8</ele>
        <time>2016-02-20T12:24:46Z</time>
      </trkpt>
      <trkpt lat="44.05248" lon="0.24746">
        <ele>72.6</ele>
        <time>2016-02-20T12:24:47Z</time>
      </trkpt>
      <trkpt lat="44.0522" lon="0.24737">
        <ele>73</ele>
        <time>2016-02-20T12:24:54Z</time>
      </trkpt>
      <trkpt lat="44.05192" lon="0.24726">
        <ele>73.2</ele>
        <time>2016-02-20T12:25:02Z</time>
      </trkpt>
      <trkpt lat="44.05167" lon="0.24716">
        <ele>73.4</ele>
        <time>2016-02-20T12:25:09Z</time>
      </trkpt>
      <trkpt lat="44.05146" lon="0.24703">
        <ele>73.8</ele>
        <time>2016-02-20T12:25:15Z</time>
      </trkpt>
      <trkpt lat="44.05139" lon="0.24697">
        <ele>73.6</ele>
        <time>2016-02-20T12:25:17Z</time>
      </trkpt>
      <trkpt lat="44.05121" lon="0.24677">
        <ele>73.4</ele>
        <time>2016-02-20T12:25:23Z</time>
      </trkpt>
      <trkpt lat="44.05097" lon="0.24653">
        <ele>73.4</ele>
        <time>2016-02-20T12:25:31Z</time>
      </trkpt>
      <trkpt lat="44.05081" lon="0.24642">
        <ele>73.6</ele>
        <time>2016-02-20T12:25:37Z</time>
      </trkpt>
      <trkpt lat="44.05072" lon="0.24639">
        <ele>73.4</ele>
        <time>2016-02-20T12:25:41Z</time>
      </trkpt>
      <trkpt lat="44.05053" lon="0.24646">
        <ele>73.2</ele>
        <time>2016-02-20T12:25:46Z</time>
      </trkpt>
      <trkpt lat="44.0505" lon="0.24648">
        <ele>73.4</ele>
        <time>2016-02-20T12:25:47Z</time>
      </trkpt>
      <trkpt lat="44.05042" lon="0.24656">
        <ele>73</ele>
        <time>2016-02-20T12:25:52Z</time>
      </trkpt>
      <trkpt lat="44.05033" lon="0.24665">
        <ele>73.2</ele>
        <time>2016-02-20T12:25:58Z</time>
      </trkpt>
      <trkpt lat="44.05017" lon="0.24668">
        <ele>73.4</ele>
        <time>2016-02-20T12:26:04Z</time>
      </trkpt>
      <trkpt lat="44.05" lon="0.24661">
        <ele>73.8</ele>
        <time>2016-02-20T12:26:10Z</time>
      </trkpt>
      <trkpt lat="44.04985" lon="0.24644">
        <ele>74</ele>
        <time>2016-02-20T12:26:16Z</time>
      </trkpt>
      <trkpt lat="44.04968" lon="0.24625">
        <ele>74</ele>
        <time>2016-02-20T12:26:22Z</time>
      </trkpt>
      <trkpt lat="44.04948" lon="0.246">
        <ele>74.4</ele>
        <time>2016-02-20T12:26:29Z</time>
      </trkpt>
      <trkpt lat="44.04929" lon="0.24571">
        <ele>74.8</ele>
        <time>2016-02-20T12:26:37Z</time>
      </trkpt>
      <trkpt lat="44.04913" lon="0.24542">
        <ele>74.6</ele>
        <time>2016-02-20T12:26:44Z</time>
      </trkpt>
      <trkpt lat="44.04891" lon="0.24506">
        <ele>74</ele>
        <time>2016-02-20T12:26:51Z</time>
      </trkpt>
      <trkpt lat="44.04866" lon="0.24465">
        <ele>72.8</ele>
        <time>2016-02-20T12:26:58Z</time>
      </trkpt>
      <trkpt lat="44.04863" lon="0.24459">
        <ele>73.2</ele>
        <time>2016-02-20T12:26:59Z</time>
      </trkpt>
      <trkpt lat="44.04834" lon="0.24422">
        <ele>72.4</ele>
        <time>2016-02-20T12:27:06Z</time>
      </trkpt>
      <trkpt lat="44.04826" lon="0.24413">
        <ele>72.2</ele>
        <time>2016-02-20T12:27:08Z</time>
      </trkpt>
      <trkpt lat="44.04803" lon="0.24393">
        <ele>72</ele>
        <time>2016-02-20T12:27:13Z</time>
      </trkpt>
      <trkpt lat="44.04776" lon="0.24374">
        <ele>71.6</ele>
        <time>2016-02-20T12:27:19Z</time>
      </trkpt>
      <trkpt lat="44.04763" lon="0.24365">
        <ele>72</ele>
        <time>2016-02-20T12:27:22Z</time>
      </trkpt>
      <trkpt lat="44.0473" lon="0.24341">
        <ele>72</ele>
        <time>2016-02-20T12:27:30Z</time>
      </trkpt>
      <trkpt lat="44.04725" lon="0.24338">
        <ele>72</ele>
        <time>2016-02-20T12:27:31Z</time>
      </trkpt>
      <trkpt lat="44.04702" lon="0.24323">
        <ele>72.2</ele>
        <time>2016-02-20T12:27:37Z</time>
      </trkpt>
      <trkpt lat="44.04694" lon="0.2432">
        <ele>72.2</ele>
        <time>2016-02-20T12:27:39Z</time>
      </trkpt>
      <trkpt lat="44.04672" lon="0.24312">
        <ele>72.2</ele>
        <time>2016-02-20T12:27:44Z</time>
      </trkpt>
      <trkpt lat="44.04637" lon="0.24308">
        <ele>72.6</ele>
        <time>2016-02-20T12:27:52Z</time>
      </trkpt>
      <trkpt lat="44.04605" lon="0.24304">
        <ele>72.6</ele>
        <time>2016-02-20T12:28:00Z</time>
      </trkpt>
      <trkpt lat="44.04571" lon="0.24299">
        <ele>73</ele>
        <time>2016-02-20T12:28:08Z</time>
      </trkpt>
      <trkpt lat="44.04555" lon="0.24295">
        <ele>73.4</ele>
        <time>2016-02-20T12:28:12Z</time>
      </trkpt>
      <trkpt lat="44.04542" lon="0.24294">
        <ele>73.2</ele>
        <time>2016-02-20T12:28:15Z</time>
      </trkpt>
      <trkpt lat="44.04535" lon="0.24292">
        <ele>73.6</ele>
        <time>2016-02-20T12:28:17Z</time>
      </trkpt>
      <trkpt lat="44.04522" lon="0.24291">
        <ele>73.8</ele>
        <time>2016-02-20T12:28:20Z</time>
      </trkpt>
      <trkpt lat="44.0451" lon="0.24289">
        <ele>74.4</ele>
        <time>2016-02-20T12:28:23Z</time>
      </trkpt>
      <trkpt lat="44.04487" lon="0.24291">
        <ele>74.6</ele>
        <time>2016-02-20T12:28:29Z</time>
      </trkpt>
      <trkpt lat="44.04467" lon="0.24293">
        <ele>75</ele>
        <time>2016-02-20T12:28:35Z</time>
      </trkpt>
      <trkpt lat="44.04449" lon="0.24294">
        <ele>75.6</ele>
        <time>2016-02-20T12:28:41Z</time>
      </trkpt>
      <trkpt lat="44.04427" lon="0.24297">
        <ele>75.6</ele>
        <time>2016-02-20T12:28:47Z</time>
      </trkpt>
      <trkpt lat="44.04414" lon="0.24295">
        <ele>75.8</ele>
        <time>2016-02-20T12:28:52Z</time>
      </trkpt>
      <trkpt lat="44.04396" lon="0.24288">
        <ele>75.8</ele>
        <time>2016-02-20T12:28:58Z</time>
      </trkpt>
      <trkpt lat="44.04372" lon="0.2428">
        <ele>76.2</ele>
        <time>2016-02-20T12:29:03Z</time>
      </trkpt>
      <trkpt lat="44.04347" lon="0.24272">
        <ele>76.8</ele>
        <time>2016-02-20T12:29:10Z</time>
      </trkpt>
      <trkpt lat="44.04323" lon="0.24267">
        <ele>76.8</ele>
        <time>2016-02-20T12:29:17Z</time>
      </trkpt>
      <trkpt lat="44.04288" lon="0.24265">
        <ele>77</ele>
        <time>2016-02-20T12:29:26Z</time>
      </trkpt>
      <trkpt lat="44.0426" lon="0.24263">
        <ele>76.6</ele>
        <time>2016-02-20T12:29:33Z</time>
      </trkpt>
      <trkpt lat="44.04236" lon="0.24261">
        <ele>76.8</ele>
        <time>2016-02-20T12:29:39Z</time>
      </trkpt>
      <trkpt lat="44.04232" lon="0.24261">
        <ele>76.6</ele>
        <time>2016-02-20T12:29:40Z</time>
      </trkpt>
      <trkpt lat="44.04204" lon="0.24259">
        <ele>76.4</ele>
        <time>2016-02-20T12:29:46Z</time>
      </trkpt>
      <trkpt lat="44.042" lon="0.2426">
        <ele>76.2</ele>
        <time>2016-02-20T12:29:47Z</time>
      </trkpt>
      <trkpt lat="44.04196" lon="0.24259">
        <ele>75.8</ele>
        <time>2016-02-20T12:29:48Z</time>
      </trkpt>
      <trkpt lat="44.04183" lon="0.2426">
        <ele>76.4</ele>
        <time>2016-02-20T12:29:51Z</time>
      </trkpt>
      <trkpt lat="44.04179" lon="0.24261">
        <ele>76</ele>
        <time>2016-02-20T12:29:52Z</time>
      </trkpt>
      <trkpt lat="44.04163" lon="0.24264">
        <ele>75.8</ele>
        <time>2016-02-20T12:29:56Z</time>
      </trkpt>
      <trkpt lat="44.04157" lon="0.24266">
        <ele>75.8</ele>
        <time>2016-02-20T12:29:57Z</time>
      </trkpt>
      <trkpt lat="44.04124" lon="0.24277">
        <ele>75.2</ele>
        <time>2016-02-20T12:30:03Z</time>
      </trkpt>
      <trkpt lat="44.04076" lon="0.24296">
        <ele>74.6</ele>
        <time>2016-02-20T12:30:11Z</time>
      </trkpt>
      <trkpt lat="44.0407" lon="0.24298">
        <ele>74.8</ele>
        <time>2016-02-20T12:30:12Z</time>
      </trkpt>
      <trkpt lat="44.04064" lon="0.24298">
        <ele>75</ele>
        <time>2016-02-20T12:30:13Z</time>
      </trkpt>
      <trkpt lat="44.04048" lon="0.24301">
        <ele>74.6</ele>
        <time>2016-02-20T12:30:16Z</time>
      </trkpt>
      <trkpt lat="44.04028" lon="0.24297">
        <ele>74.8</ele>
        <time>2016-02-20T12:30:20Z</time>
      </trkpt>
      <trkpt lat="44.03998" lon="0.2428">
        <ele>75</ele>
        <time>2016-02-20T12:30:27Z</time>
      </trkpt>
      <trkpt lat="44.03975" lon="0.24265">
        <ele>75.4</ele>
        <time>2016-02-20T12:30:33Z</time>
      </trkpt>
      <trkpt lat="44.03948" lon="0.24243">
        <ele>75.6</ele>
        <time>2016-02-20T12:30:40Z</time>
      </trkpt>
      <trkpt lat="44.03939" lon="0.24237">
        <ele>75.4</ele>
        <time>2016-02-20T12:30:42Z</time>
      </trkpt>
      <trkpt lat="44.03918" lon="0.24219">
        <ele>75.8</ele>
        <time>2016-02-20T12:30:48Z</time>
      </trkpt>
      <trkpt lat="44.03891" lon="0.24199">
        <ele>75.8</ele>
        <time>2016-02-20T12:30:55Z</time>
      </trkpt>
      <trkpt lat="44.03857" lon="0.24177">
        <ele>76</ele>
        <time>2016-02-20T12:31:04Z</time>
      </trkpt>
      <trkpt lat="44.03813" lon="0.2416">
        <ele>75.4</ele>
        <time>2016-02-20T12:31:14Z</time>
      </trkpt>
      <trkpt lat="44.038" lon="0.24156">
        <ele>75.4</ele>
        <time>2016-02-20T12:31:17Z</time>
      </trkpt>
      <trkpt lat="44.03788" lon="0.24152">
        <ele>75.4</ele>
        <time>2016-02-20T12:31:20Z</time>
      </trkpt>
      <trkpt lat="44.03776" lon="0.24148">
        <ele>75.4</ele>
        <time>2016-02-20T12:31:23Z</time>
      </trkpt>
      <trkpt lat="44.03761" lon="0.24143">
        <ele>75.6</ele>
        <time>2016-02-20T12:31:27Z</time>
      </trkpt>
      <trkpt lat="44.03733" lon="0.24136">
        <ele>76.2</ele>
        <time>2016-02-20T12:31:34Z</time>
      </trkpt>
      <trkpt lat="44.03708" lon="0.24127">
        <ele>76.4</ele>
        <time>2016-02-20T12:31:41Z</time>
      </trkpt>
      <trkpt lat="44.03685" lon="0.24113">
        <ele>76.4</ele>
        <time>2016-02-20T12:31:48Z</time>
      </trkpt>
      <trkpt lat="44.03658" lon="0.24089">
        <ele>76.6</ele>
        <time>2016-02-20T12:31:56Z</time>
      </trkpt>
      <trkpt lat="44.03647" lon="0.24079">
        <ele>76.8</ele>
        <time>2016-02-20T12:31:59Z</time>
      </trkpt>
      <trkpt lat="44.03628" lon="0.24062">
        <ele>76.8</ele>
        <time>2016-02-20T12:32:04Z</time>
      </trkpt>
      <trkpt lat="44.03617" lon="0.24054">
        <ele>76.8</ele>
        <time>2016-02-20T12:32:07Z</time>
      </trkpt>
      <trkpt lat="44.03599" lon="0.24043">
        <ele>77.2</ele>
        <time>2016-02-20T12:32:12Z</time>
      </trkpt>
      <trkpt lat="44.03569" lon="0.24032">
        <ele>76.8</ele>
        <time>2016-02-20T12:32:19Z</time>
      </trkpt>
      <trkpt lat="44.03533" lon="0.24019">
        <ele>76.8</ele>
        <time>2016-02-20T12:32:27Z</time>
      </trkpt>
      <trkpt lat="44.03503" lon="0.24002">
        <ele>76.8</ele>
        <time>2016-02-20T12:32:34Z</time>
      </trkpt>
      <trkpt lat="44.03484" lon="0.23991">
        <ele>76.8</ele>
        <time>2016-02-20T12:32:38Z</time>
      </trkpt>
      <trkpt lat="44.03474" lon="0.23986">
        <ele>76.6</ele>
        <time>2016-02-20T12:32:40Z</time>
      </trkpt>
      <trkpt lat="44.0347" lon="0.23983">
        <ele>76.8</ele>
        <time>2016-02-20T12:32:41Z</time>
      </trkpt>
      <trkpt lat="44.03457" lon="0.23973">
        <ele>76.4</ele>
        <time>2016-02-20T12:32:44Z</time>
      </trkpt>
      <trkpt lat="44.0343" lon="0.23953">
        <ele>76.2</ele>
        <time>2016-02-20T12:32:51Z</time>
      </trkpt>
      <trkpt lat="44.03423" lon="0.23948">
        <ele>76</ele>
        <time>2016-02-20T12:32:53Z</time>
      </trkpt>
      <trkpt lat="44.03415" lon="0.23942">
        <ele>76.2</ele>
        <time>2016-02-20T12:32:55Z</time>
      </trkpt>
      <trkpt lat="44.03407" lon="0.23937">
        <ele>76</ele>
        <time>2016-02-20T12:32:57Z</time>
      </trkpt>
      <trkpt lat="44.03395" lon="0.2393">
        <ele>75.8</ele>
        <time>2016-02-20T12:33:00Z</time>
      </trkpt>
      <trkpt lat="44.03379" lon="0.23922">
        <ele>75.8</ele>
        <time>2016-02-20T12:33:04Z</time>
      </trkpt>
      <trkpt lat="44.03375" lon="0.2392">
        <ele>75.6</ele>
        <time>2016-02-20T12:33:05Z</time>
      </trkpt>
      <trkpt lat="44.03345" lon="0.23909">
        <ele>75.6</ele>
        <time>2016-02-20T12:33:11Z</time>
      </trkpt>
      <trkpt lat="44.03315" lon="0.23899">
        <ele>75.2</ele>
        <time>2016-02-20T12:33:17Z</time>
      </trkpt>
      <trkpt lat="44.03286" lon="0.23888">
        <ele>75.4</ele>
        <time>2016-02-20T12:33:24Z</time>
      </trkpt>
      <trkpt lat="44.0328" lon="0.23887">
        <ele>75</ele>
        <time>2016-02-20T12:33:25Z</time>
      </trkpt>
      <trkpt lat="44.03266" lon="0.2388">
        <ele>75.8</ele>
        <time>2016-02-20T12:33:28Z</time>
      </trkpt>
      <trkpt lat="44.03261" lon="0.23879">
        <ele>75.6</ele>
        <time>2016-02-20T12:33:29Z</time>
      </trkpt>
      <trkpt lat="44.03239" lon="0.23871">
        <ele>75.6</ele>
        <time>2016-02-20T12:33:34Z</time>
      </trkpt>
      <trkpt lat="44.03231" lon="0.23867">
        <ele>75.8</ele>
        <time>2016-02-20T12:33:36Z</time>
      </trkpt>
      <trkpt lat="44.03222" lon="0.23863">
        <ele>76</ele>
        <time>2016-02-20T12:33:38Z</time>
      </trkpt>
      <trkpt lat="44.03217" lon="0.23861">
        <ele>76</ele>
        <time>2016-02-20T12:33:39Z</time>
      </trkpt>
      <trkpt lat="44.03187" lon="0.23851">
        <ele>76.2</ele>
        <time>2016-02-20T12:33:46Z</time>
      </trkpt>
      <trkpt lat="44.03149" lon="0.23838">
        <ele>76.6</ele>
        <time>2016-02-20T12:33:55Z</time>
      </trkpt>
      <trkpt lat="44.03123" lon="0.2383">
        <ele>77</ele>
        <time>2016-02-20T12:34:01Z</time>
      </trkpt>
      <trkpt lat="44.0311" lon="0.23828">
        <ele>77</ele>
        <time>2016-02-20T12:34:04Z</time>
      </trkpt>
      <trkpt lat="44.03106" lon="0.23825">
        <ele>77.2</ele>
        <time>2016-02-20T12:34:05Z</time>
      </trkpt>
      <trkpt lat="44.03093" lon="0.23821">
        <ele>77.2</ele>
        <time>2016-02-20T12:34:08Z</time>
      </trkpt>
      <trkpt lat="44.03072" lon="0.23815">
        <ele>77.4</ele>
        <time>2016-02-20T12:34:13Z</time>
      </trkpt>
      <trkpt lat="44.0306" lon="0.23812">
        <ele>77.2</ele>
        <time>2016-02-20T12:34:16Z</time>
      </trkpt>
      <trkpt lat="44.03033" lon="0.23802">
        <ele>77.4</ele>
        <time>2016-02-20T12:34:23Z</time>
      </trkpt>
      <trkpt lat="44.03019" lon="0.23795">
        <ele>77.2</ele>
        <time>2016-02-20T12:34:27Z</time>
      </trkpt>
      <trkpt lat="44.03001" lon="0.23788">
        <ele>77.8</ele>
        <time>2016-02-20T12:34:32Z</time>
      </trkpt>
      <trkpt lat="44.0299" lon="0.23775">
        <ele>78</ele>
        <time>2016-02-20T12:34:36Z</time>
      </trkpt>
      <trkpt lat="44.02976" lon="0.23765">
        <ele>78</ele>
        <time>2016-02-20T12:34:40Z</time>
      </trkpt>
      <trkpt lat="44.02973" lon="0.23761">
        <ele>77.8</ele>
        <time>2016-02-20T12:34:41Z</time>
      </trkpt>
      <trkpt lat="44.02958" lon="0.23748">
        <ele>78</ele>
        <time>2016-02-20T12:34:45Z</time>
      </trkpt>
      <trkpt lat="44.02955" lon="0.23744">
        <ele>78</ele>
        <time>2016-02-20T12:34:46Z</time>
      </trkpt>
      <trkpt lat="44.02935" lon="0.23726">
        <ele>77.4</ele>
        <time>2016-02-20T12:34:51Z</time>
      </trkpt>
      <trkpt lat="44.02894" lon="0.2369">
        <ele>77.2</ele>
        <time>2016-02-20T12:35:01Z</time>
      </trkpt>
      <trkpt lat="44.02871" lon="0.23672">
        <ele>77.4</ele>
        <time>2016-02-20T12:35:08Z</time>
      </trkpt>
      <trkpt lat="44.02852" lon="0.23663">
        <ele>77.6</ele>
        <time>2016-02-20T12:35:14Z</time>
      </trkpt>
      <trkpt lat="44.02828" lon="0.23652">
        <ele>78.2</ele>
        <time>2016-02-20T12:35:21Z</time>
      </trkpt>
      <trkpt lat="44.02804" lon="0.23643">
        <ele>78.4</ele>
        <time>2016-02-20T12:35:28Z</time>
      </trkpt>
      <trkpt lat="44.02783" lon="0.23635">
        <ele>78.8</ele>
        <time>2016-02-20T12:35:35Z</time>
      </trkpt>
      <trkpt lat="44.02779" lon="0.23635">
        <ele>79</ele>
        <time>2016-02-20T12:35:36Z</time>
      </trkpt>
      <trkpt lat="44.02761" lon="0.23628">
        <ele>78.8</ele>
        <time>2016-02-20T12:35:41Z</time>
      </trkpt>
      <trkpt lat="44.02739" lon="0.23619">
        <ele>78.4</ele>
        <time>2016-02-20T12:35:47Z</time>
      </trkpt>
      <trkpt lat="44.02711" lon="0.2361">
        <ele>78.2</ele>
        <time>2016-02-20T12:35:54Z</time>
      </trkpt>
      <trkpt lat="44.02703" lon="0.23607">
        <ele>78</ele>
        <time>2016-02-20T12:35:56Z</time>
      </trkpt>
      <trkpt lat="44.02699" lon="0.23606">
        <ele>77.6</ele>
        <time>2016-02-20T12:35:57Z</time>
      </trkpt>
      <trkpt lat="44.02681" lon="0.23603">
        <ele>77.8</ele>
        <time>2016-02-20T12:36:01Z</time>
      </trkpt>
      <trkpt lat="44.02673" lon="0.23602">
        <ele>77.8</ele>
        <time>2016-02-20T12:36:03Z</time>
      </trkpt>
      <trkpt lat="44.02656" lon="0.23601">
        <ele>77.6</ele>
        <time>2016-02-20T12:36:07Z</time>
      </trkpt>
      <trkpt lat="44.02625" lon="0.236">
        <ele>77</ele>
        <time>2016-02-20T12:36:14Z</time>
      </trkpt>
      <trkpt lat="44.02616" lon="0.23599">
        <ele>77.2</ele>
        <time>2016-02-20T12:36:16Z</time>
      </trkpt>
      <trkpt lat="44.02599" lon="0.23599">
        <ele>77.4</ele>
        <time>2016-02-20T12:36:20Z</time>
      </trkpt>
      <trkpt lat="44.02579" lon="0.23599">
        <ele>77</ele>
        <time>2016-02-20T12:36:25Z</time>
      </trkpt>
      <trkpt lat="44.02571" lon="0.23599">
        <ele>77.2</ele>
        <time>2016-02-20T12:36:27Z</time>
      </trkpt>
      <trkpt lat="44.02551" lon="0.23598">
        <ele>77.2</ele>
        <time>2016-02-20T12:36:32Z</time>
      </trkpt>
      <trkpt lat="44.02535" lon="0.23597">
        <ele>77</ele>
        <time>2016-02-20T12:36:37Z</time>
      </trkpt>
      <trkpt lat="44.02502" lon="0.23597">
        <ele>77.6</ele>
        <time>2016-02-20T12:36:47Z</time>
      </trkpt>
      <trkpt lat="44.02491" lon="0.23596">
        <ele>78</ele>
        <time>2016-02-20T12:36:50Z</time>
      </trkpt>
      <trkpt lat="44.02477" lon="0.23596">
        <ele>78.2</ele>
        <time>2016-02-20T12:36:54Z</time>
      </trkpt>
      <trkpt lat="44.02455" lon="0.23598">
        <ele>79</ele>
        <time>2016-02-20T12:37:01Z</time>
      </trkpt>
      <trkpt lat="44.02452" lon="0.23598">
        <ele>79</ele>
        <time>2016-02-20T12:37:02Z</time>
      </trkpt>
      <trkpt lat="44.02435" lon="0.23598">
        <ele>79.4</ele>
        <time>2016-02-20T12:37:07Z</time>
      </trkpt>
      <trkpt lat="44.02412" lon="0.23598">
        <ele>79.8</ele>
        <time>2016-02-20T12:37:14Z</time>
      </trkpt>
      <trkpt lat="44.02383" lon="0.23601">
        <ele>80</ele>
        <time>2016-02-20T12:37:22Z</time>
      </trkpt>
      <trkpt lat="44.02376" lon="0.23601">
        <ele>80</ele>
        <time>2016-02-20T12:37:24Z</time>
      </trkpt>
      <trkpt lat="44.02354" lon="0.23601">
        <ele>80.6</ele>
        <time>2016-02-20T12:37:30Z</time>
      </trkpt>
      <trkpt lat="44.02328" lon="0.23603">
        <ele>80.6</ele>
        <time>2016-02-20T12:37:37Z</time>
      </trkpt>
      <trkpt lat="44.02301" lon="0.23604">
        <ele>81</ele>
        <time>2016-02-20T12:37:44Z</time>
      </trkpt>
      <trkpt lat="44.02294" lon="0.23603">
        <ele>81.2</ele>
        <time>2016-02-20T12:37:46Z</time>
      </trkpt>
      <trkpt lat="44.02278" lon="0.23601">
        <ele>81.2</ele>
        <time>2016-02-20T12:37:50Z</time>
      </trkpt>
      <trkpt lat="44.02274" lon="0.23601">
        <ele>81.2</ele>
        <time>2016-02-20T12:37:51Z</time>
      </trkpt>
      <trkpt lat="44.02243" lon="0.23597">
        <ele>81.6</ele>
        <time>2016-02-20T12:37:59Z</time>
      </trkpt>
      <trkpt lat="44.0221" lon="0.23593">
        <ele>82</ele>
        <time>2016-02-20T12:38:08Z</time>
      </trkpt>
      <trkpt lat="44.02195" lon="0.23593">
        <ele>82.2</ele>
        <time>2016-02-20T12:38:13Z</time>
      </trkpt>
      <trkpt lat="44.02182" lon="0.23591">
        <ele>82.2</ele>
        <time>2016-02-20T12:38:19Z</time>
      </trkpt>
      <trkpt lat="44.02171" lon="0.23589">
        <ele>82.2</ele>
        <time>2016-02-20T12:38:23Z</time>
      </trkpt>
      <trkpt lat="44.02147" lon="0.23587">
        <ele>82.2</ele>
        <time>2016-02-20T12:38:31Z</time>
      </trkpt>
      <trkpt lat="44.02123" lon="0.23587">
        <ele>81.8</ele>
        <time>2016-02-20T12:38:37Z</time>
      </trkpt>
      <trkpt lat="44.02088" lon="0.23588">
        <ele>81.6</ele>
        <time>2016-02-20T12:38:45Z</time>
      </trkpt>
      <trkpt lat="44.0207" lon="0.23591">
        <ele>81.2</ele>
        <time>2016-02-20T12:38:49Z</time>
      </trkpt>
      <trkpt lat="44.02052" lon="0.23593">
        <ele>80.8</ele>
        <time>2016-02-20T12:38:53Z</time>
      </trkpt>
      <trkpt lat="44.02012" lon="0.236">
        <ele>80.6</ele>
        <time>2016-02-20T12:39:02Z</time>
      </trkpt>
      <trkpt lat="44.01978" lon="0.23609">
        <ele>80.4</ele>
        <time>2016-02-20T12:39:09Z</time>
      </trkpt>
      <trkpt lat="44.01963" lon="0.23612">
        <ele>80.2</ele>
        <time>2016-02-20T12:39:12Z</time>
      </trkpt>
      <trkpt lat="44.01933" lon="0.23618">
        <ele>79.8</ele>
        <time>2016-02-20T12:39:18Z</time>
      </trkpt>
      <trkpt lat="44.01887" lon="0.23626">
        <ele>79.8</ele>
        <time>2016-02-20T12:39:27Z</time>
      </trkpt>
      <trkpt lat="44.01853" lon="0.23626">
        <ele>79.8</ele>
        <time>2016-02-20T12:39:34Z</time>
      </trkpt>
      <trkpt lat="44.01824" lon="0.23616">
        <ele>80.2</ele>
        <time>2016-02-20T12:39:41Z</time>
      </trkpt>
      <trkpt lat="44.0182" lon="0.23614">
        <ele>80.4</ele>
        <time>2016-02-20T12:39:42Z</time>
      </trkpt>
      <trkpt lat="44.0179" lon="0.23596">
        <ele>81</ele>
        <time>2016-02-20T12:39:50Z</time>
      </trkpt>
      <trkpt lat="44.01786" lon="0.23594">
        <ele>81.2</ele>
        <time>2016-02-20T12:39:51Z</time>
      </trkpt>
      <trkpt lat="44.01765" lon="0.23581">
        <ele>81.6</ele>
        <time>2016-02-20T12:39:57Z</time>
      </trkpt>
      <trkpt lat="44.0175" lon="0.23572">
        <ele>81.6</ele>
        <time>2016-02-20T12:40:01Z</time>
      </trkpt>
      <trkpt lat="44.01742" lon="0.23568">
        <ele>81.6</ele>
        <time>2016-02-20T12:40:03Z</time>
      </trkpt>
      <trkpt lat="44.01739" lon="0.23565">
        <ele>81.4</ele>
        <time>2016-02-20T12:40:04Z</time>
      </trkpt>
      <trkpt lat="44.01714" lon="0.2355">
        <ele>81.6</ele>
        <time>2016-02-20T12:40:10Z</time>
      </trkpt>
      <trkpt lat="44.01689" lon="0.23536">
        <ele>81.6</ele>
        <time>2016-02-20T12:40:17Z</time>
      </trkpt>
      <trkpt lat="44.01656" lon="0.23516">
        <ele>82</ele>
        <time>2016-02-20T12:40:27Z</time>
      </trkpt>
      <trkpt lat="44.01626" lon="0.235">
        <ele>81.6</ele>
        <time>2016-02-20T12:40:35Z</time>
      </trkpt>
      <trkpt lat="44.01623" lon="0.23498">
        <ele>81.6</ele>
        <time>2016-02-20T12:40:36Z</time>
      </trkpt>
      <trkpt lat="44.01603" lon="0.23487">
        <ele>81.6</ele>
        <time>2016-02-20T12:40:41Z</time>
      </trkpt>
      <trkpt lat="44.0157" lon="0.23471">
        <ele>81.4</ele>
        <time>2016-02-20T12:40:49Z</time>
      </trkpt>
      <trkpt lat="44.01549" lon="0.23462">
        <ele>81.2</ele>
        <time>2016-02-20T12:40:55Z</time>
      </trkpt>
      <trkpt lat="44.01521" lon="0.23447">
        <ele>81.2</ele>
        <time>2016-02-20T12:41:03Z</time>
      </trkpt>
      <trkpt lat="44.01494" lon="0.23434">
        <ele>81.4</ele>
        <time>2016-02-20T12:41:12Z</time>
      </trkpt>
      <trkpt lat="44.01474" lon="0.23425">
        <ele>80.8</ele>
        <time>2016-02-20T12:41:19Z</time>
      </trkpt>
      <trkpt lat="44.01443" lon="0.2341">
        <ele>80.2</ele>
        <time>2016-02-20T12:41:30Z</time>
      </trkpt>
      <trkpt lat="44.01427" lon="0.23402">
        <ele>80</ele>
        <time>2016-02-20T12:41:35Z</time>
      </trkpt>
      <trkpt lat="44.01414" lon="0.23396">
        <ele>80.2</ele>
        <time>2016-02-20T12:41:39Z</time>
      </trkpt>
      <trkpt lat="44.01386" lon="0.23381">
        <ele>80.4</ele>
        <time>2016-02-20T12:41:47Z</time>
      </trkpt>
      <trkpt lat="44.01366" lon="0.23372">
        <ele>80.4</ele>
        <time>2016-02-20T12:41:52Z</time>
      </trkpt>
      <trkpt lat="44.01328" lon="0.23353">
        <ele>80.6</ele>
        <time>2016-02-20T12:42:02Z</time>
      </trkpt>
      <trkpt lat="44.01299" lon="0.23338">
        <ele>81</ele>
        <time>2016-02-20T12:42:10Z</time>
      </trkpt>
      <trkpt lat="44.01286" lon="0.23332">
        <ele>81</ele>
        <time>2016-02-20T12:42:14Z</time>
      </trkpt>
      <trkpt lat="44.01276" lon="0.23328">
        <ele>81</ele>
        <time>2016-02-20T12:42:17Z</time>
      </trkpt>
      <trkpt lat="44.01254" lon="0.23318">
        <ele>81.4</ele>
        <time>2016-02-20T12:42:23Z</time>
      </trkpt>
      <trkpt lat="44.01227" lon="0.23304">
        <ele>81.6</ele>
        <time>2016-02-20T12:42:31Z</time>
      </trkpt>
      <trkpt lat="44.01201" lon="0.23293">
        <ele>82</ele>
        <time>2016-02-20T12:42:39Z</time>
      </trkpt>
      <trkpt lat="44.01195" lon="0.2329">
        <ele>82</ele>
        <time>2016-02-20T12:42:41Z</time>
      </trkpt>
      <trkpt lat="44.01193" lon="0.23287">
        <ele>82.2</ele>
        <time>2016-02-20T12:42:42Z</time>
      </trkpt>
      <trkpt lat="44.0119" lon="0.23286">
        <ele>82</ele>
        <time>2016-02-20T12:42:43Z</time>
      </trkpt>
      <trkpt lat="44.01179" lon="0.23283">
        <ele>82.2</ele>
        <time>2016-02-20T12:42:47Z</time>
      </trkpt>
      <trkpt lat="44.01169" lon="0.23276">
        <ele>82.4</ele>
        <time>2016-02-20T12:42:51Z</time>
      </trkpt>
      <trkpt lat="44.01163" lon="0.23273">
        <ele>82.8</ele>
        <time>2016-02-20T12:42:53Z</time>
      </trkpt>
      <trkpt lat="44.01139" lon="0.23263">
        <ele>82.8</ele>
        <time>2016-02-20T12:43:01Z</time>
      </trkpt>
      <trkpt lat="44.01126" lon="0.23255">
        <ele>83.2</ele>
        <time>2016-02-20T12:43:06Z</time>
      </trkpt>
      <trkpt lat="44.0112" lon="0.23253">
        <ele>83.2</ele>
        <time>2016-02-20T12:43:08Z</time>
      </trkpt>
      <trkpt lat="44.01104" lon="0.23244">
        <ele>83.6</ele>
        <time>2016-02-20T12:43:14Z</time>
      </trkpt>
      <trkpt lat="44.01096" lon="0.23241">
        <ele>84.2</ele>
        <time>2016-02-20T12:43:17Z</time>
      </trkpt>
      <trkpt lat="44.01089" lon="0.23237">
        <ele>84.2</ele>
        <time>2016-02-20T12:43:20Z</time>
      </trkpt>
      <trkpt lat="44.01069" lon="0.23227">
        <ele>84.8</ele>
        <time>2016-02-20T12:43:28Z</time>
      </trkpt>
      <trkpt lat="44.01054" lon="0.23219">
        <ele>85.2</ele>
        <time>2016-02-20T12:43:34Z</time>
      </trkpt>
      <trkpt lat="44.01051" lon="0.23218">
        <ele>85.2</ele>
        <time>2016-02-20T12:43:35Z</time>
      </trkpt>
      <trkpt lat="44.01037" lon="0.23211">
        <ele>85.8</ele>
        <time>2016-02-20T12:43:41Z</time>
      </trkpt>
      <trkpt lat="44.01023" lon="0.23204">
        <ele>86.2</ele>
        <time>2016-02-20T12:43:47Z</time>
      </trkpt>
      <trkpt lat="44.01018" lon="0.23202">
        <ele>86.4</ele>
        <time>2016-02-20T12:43:49Z</time>
      </trkpt>
      <trkpt lat="44.01004" lon="0.23196">
        <ele>87</ele>
        <time>2016-02-20T12:43:54Z</time>
      </trkpt>
      <trkpt lat="44.00988" lon="0.2319">
        <ele>87.4</ele>
        <time>2016-02-20T12:44:00Z</time>
      </trkpt>
      <trkpt lat="44.00981" lon="0.23186">
        <ele>88</ele>
        <time>2016-02-20T12:44:03Z</time>
      </trkpt>
      <trkpt lat="44.00967" lon="0.23179">
        <ele>88.6</ele>
        <time>2016-02-20T12:44:08Z</time>
      </trkpt>
      <trkpt lat="44.0096" lon="0.23175">
        <ele>88.8</ele>
        <time>2016-02-20T12:44:11Z</time>
      </trkpt>
      <trkpt lat="44.00941" lon="0.23165">
        <ele>89.4</ele>
        <time>2016-02-20T12:44:19Z</time>
      </trkpt>
      <trkpt lat="44.00938" lon="0.23164">
        <ele>89.6</ele>
        <time>2016-02-20T12:44:20Z</time>
      </trkpt>
      <trkpt lat="44.00922" lon="0.23155">
        <ele>90.2</ele>
        <time>2016-02-20T12:44:27Z</time>
      </trkpt>
      <trkpt lat="44.00917" lon="0.23153">
        <ele>90.6</ele>
        <time>2016-02-20T12:44:29Z</time>
      </trkpt>
      <trkpt lat="44.00901" lon="0.23147">
        <ele>91.2</ele>
        <time>2016-02-20T12:44:35Z</time>
      </trkpt>
      <trkpt lat="44.00888" lon="0.2314">
        <ele>91.6</ele>
        <time>2016-02-20T12:44:40Z</time>
      </trkpt>
      <trkpt lat="44.00875" lon="0.23134">
        <ele>92</ele>
        <time>2016-02-20T12:44:45Z</time>
      </trkpt>
      <trkpt lat="44.00858" lon="0.23125">
        <ele>92.4</ele>
        <time>2016-02-20T12:44:52Z</time>
      </trkpt>
      <trkpt lat="44.00853" lon="0.23122">
        <ele>92.6</ele>
        <time>2016-02-20T12:44:54Z</time>
      </trkpt>
      <trkpt lat="44.00839" lon="0.23117">
        <ele>93.2</ele>
        <time>2016-02-20T12:44:59Z</time>
      </trkpt>
      <trkpt lat="44.00831" lon="0.23112">
        <ele>93.6</ele>
        <time>2016-02-20T12:45:02Z</time>
      </trkpt>
      <trkpt lat="44.00821" lon="0.23108">
        <ele>93.8</ele>
        <time>2016-02-20T12:45:06Z</time>
      </trkpt>
      <trkpt lat="44.00804" lon="0.23099">
        <ele>94.2</ele>
        <time>2016-02-20T12:45:12Z</time>
      </trkpt>
      <trkpt lat="44.00785" lon="0.2309">
        <ele>94.6</ele>
        <time>2016-02-20T12:45:19Z</time>
      </trkpt>
      <trkpt lat="44.0077" lon="0.23083">
        <ele>95.2</ele>
        <time>2016-02-20T12:45:24Z</time>
      </trkpt>
      <trkpt lat="44.00748" lon="0.23072">
        <ele>95.8</ele>
        <time>2016-02-20T12:45:32Z</time>
      </trkpt>
      <trkpt lat="44.00742" lon="0.23069">
        <ele>96</ele>
        <time>2016-02-20T12:45:34Z</time>
      </trkpt>
      <trkpt lat="44.00721" lon="0.23059">
        <ele>97</ele>
        <time>2016-02-20T12:45:42Z</time>
      </trkpt>
      <trkpt lat="44.0071" lon="0.23053">
        <ele>97.2</ele>
        <time>2016-02-20T12:45:46Z</time>
      </trkpt>
      <trkpt lat="44.00681" lon="0.23039">
        <ele>97.8</ele>
        <time>2016-02-20T12:45:56Z</time>
      </trkpt>
      <trkpt lat="44.00676" lon="0.23036">
        <ele>98.2</ele>
        <time>2016-02-20T12:45:58Z</time>
      </trkpt>
      <trkpt lat="44.0066" lon="0.23028">
        <ele>98.4</ele>
        <time>2016-02-20T12:46:04Z</time>
      </trkpt>
      <trkpt lat="44.0064" lon="0.23019">
        <ele>99.4</ele>
        <time>2016-02-20T12:46:12Z</time>
      </trkpt>
      <trkpt lat="44.00614" lon="0.23007">
        <ele>99.8</ele>
        <time>2016-02-20T12:46:22Z</time>
      </trkpt>
      <trkpt lat="44.00591" lon="0.22996">
        <ele>100.6</ele>
        <time>2016-02-20T12:46:31Z</time>
      </trkpt>
      <trkpt lat="44.00589" lon="0.22995">
        <ele>100.6</ele>
        <time>2016-02-20T12:46:32Z</time>
      </trkpt>
      <trkpt lat="44.00571" lon="0.22986">
        <ele>101</ele>
        <time>2016-02-20T12:46:40Z</time>
      </trkpt>
      <trkpt lat="44.00558" lon="0.22979">
        <ele>101.6</ele>
        <time>2016-02-20T12:46:48Z</time>
      </trkpt>
      <trkpt lat="44.00556" lon="0.22979">
        <ele>101.6</ele>
        <time>2016-02-20T12:46:54Z</time>
      </trkpt>
      <trkpt lat="44.00555" lon="0.22979">
        <ele>101.6</ele>
        <time>2016-02-20T12:46:55Z</time>
      </trkpt>
      <trkpt lat="44.00551" lon="0.22978">
        <ele>101.4</ele>
        <time>2016-02-20T12:46:57Z</time>
      </trkpt>
      <trkpt lat="44.00545" lon="0.22974">
        <ele>101.2</ele>
        <time>2016-02-20T12:47:00Z</time>
      </trkpt>
      <trkpt lat="44.00527" lon="0.22965">
        <ele>101</ele>
        <time>2016-02-20T12:47:06Z</time>
      </trkpt>
      <trkpt lat="44.00515" lon="0.22959">
        <ele>100.6</ele>
        <time>2016-02-20T12:47:10Z</time>
      </trkpt>
      <trkpt lat="44.00502" lon="0.22954">
        <ele>100.4</ele>
        <time>2016-02-20T12:47:14Z</time>
      </trkpt>
      <trkpt lat="44.00475" lon="0.2294">
        <ele>99.8</ele>
        <time>2016-02-20T12:47:21Z</time>
      </trkpt>
      <trkpt lat="44.00457" lon="0.22933">
        <ele>99.4</ele>
        <time>2016-02-20T12:47:25Z</time>
      </trkpt>
      <trkpt lat="44.00443" lon="0.22928">
        <ele>98.8</ele>
        <time>2016-02-20T12:47:28Z</time>
      </trkpt>
      <trkpt lat="44.00428" lon="0.22924">
        <ele>98.8</ele>
        <time>2016-02-20T12:47:31Z</time>
      </trkpt>
      <trkpt lat="44.00413" lon="0.22922">
        <ele>98</ele>
        <time>2016-02-20T12:47:34Z</time>
      </trkpt>
      <trkpt lat="44.00408" lon="0.22921">
        <ele>97.8</ele>
        <time>2016-02-20T12:47:35Z</time>
      </trkpt>
      <trkpt lat="44.00373" lon="0.22921">
        <ele>97.2</ele>
        <time>2016-02-20T12:47:42Z</time>
      </trkpt>
      <trkpt lat="44.00365" lon="0.22922">
        <ele>96.8</ele>
        <time>2016-02-20T12:47:44Z</time>
      </trkpt>
      <trkpt lat="44.00353" lon="0.22923">
        <ele>95.8</ele>
        <time>2016-02-20T12:47:47Z</time>
      </trkpt>
      <trkpt lat="44.00338" lon="0.22926">
        <ele>95.4</ele>
        <time>2016-02-20T12:47:52Z</time>
      </trkpt>
      <trkpt lat="44.00334" lon="0.22925">
        <ele>94.8</ele>
        <time>2016-02-20T12:47:56Z</time>
      </trkpt>
      <trkpt lat="44.00334" lon="0.22925">
        <ele>94.8</ele>
        <time>2016-02-20T12:47:57Z</time>
      </trkpt>
      <trkpt lat="44.00328" lon="0.2293">
        <ele>95</ele>
        <time>2016-02-20T12:48:34Z</time>
      </trkpt>
      <trkpt lat="44.00325" lon="0.22931">
        <ele>95</ele>
        <time>2016-02-20T12:48:35Z</time>
      </trkpt>
      <trkpt lat="44.0031" lon="0.22933">
        <ele>94.6</ele>
        <time>2016-02-20T12:48:39Z</time>
      </trkpt>
      <trkpt lat="44.00306" lon="0.22934">
        <ele>94.6</ele>
        <time>2016-02-20T12:48:40Z</time>
      </trkpt>
      <trkpt lat="44.00298" lon="0.22936">
        <ele>94</ele>
        <time>2016-02-20T12:48:42Z</time>
      </trkpt>
      <trkpt lat="44.00289" lon="0.22938">
        <ele>93.8</ele>
        <time>2016-02-20T12:48:44Z</time>
      </trkpt>
      <trkpt lat="44.00279" lon="0.22941">
        <ele>93.4</ele>
        <time>2016-02-20T12:48:46Z</time>
      </trkpt>
      <trkpt lat="44.00244" lon="0.22949">
        <ele>92.6</ele>
        <time>2016-02-20T12:48:52Z</time>
      </trkpt>
      <trkpt lat="44.00232" lon="0.22952">
        <ele>92.4</ele>
        <time>2016-02-20T12:48:54Z</time>
      </trkpt>
      <trkpt lat="44.002" lon="0.2296">
        <ele>91.6</ele>
        <time>2016-02-20T12:48:59Z</time>
      </trkpt>
      <trkpt lat="44.0018" lon="0.22965">
        <ele>91</ele>
        <time>2016-02-20T12:49:02Z</time>
      </trkpt>
      <trkpt lat="44.00145" lon="0.22973">
        <ele>90.2</ele>
        <time>2016-02-20T12:49:07Z</time>
      </trkpt>
      <trkpt lat="44.00117" lon="0.2298">
        <ele>89.4</ele>
        <time>2016-02-20T12:49:11Z</time>
      </trkpt>
      <trkpt lat="44.00102" lon="0.22983">
        <ele>89.2</ele>
        <time>2016-02-20T12:49:13Z</time>
      </trkpt>
      <trkpt lat="44.00058" lon="0.22994">
        <ele>88.6</ele>
        <time>2016-02-20T12:49:19Z</time>
      </trkpt>
      <trkpt lat="44.00037" lon="0.22998">
        <ele>88.2</ele>
        <time>2016-02-20T12:49:22Z</time>
      </trkpt>
      <trkpt lat="44.0001" lon="0.23005">
        <ele>87.8</ele>
        <time>2016-02-20T12:49:26Z</time>
      </trkpt>
      <trkpt lat="43.9999" lon="0.23009">
        <ele>86.8</ele>
        <time>2016-02-20T12:49:29Z</time>
      </trkpt>
      <trkpt lat="43.99966" lon="0.23016">
        <ele>87.4</ele>
        <time>2016-02-20T12:49:33Z</time>
      </trkpt>
      <trkpt lat="43.99932" lon="0.23024">
        <ele>87</ele>
        <time>2016-02-20T12:49:39Z</time>
      </trkpt>
      <trkpt lat="43.99888" lon="0.23033">
        <ele>87</ele>
        <time>2016-02-20T12:49:47Z</time>
      </trkpt>
      <trkpt lat="43.9984" lon="0.23046">
        <ele>86.6</ele>
        <time>2016-02-20T12:49:56Z</time>
      </trkpt>
      <trkpt lat="43.99787" lon="0.23059">
        <ele>86.2</ele>
        <time>2016-02-20T12:50:06Z</time>
      </trkpt>
      <trkpt lat="43.99771" lon="0.23063">
        <ele>85.8</ele>
        <time>2016-02-20T12:50:09Z</time>
      </trkpt>
      <trkpt lat="43.9975" lon="0.23068">
        <ele>85.6</ele>
        <time>2016-02-20T12:50:13Z</time>
      </trkpt>
      <trkpt lat="43.99696" lon="0.23081">
        <ele>85.2</ele>
        <time>2016-02-20T12:50:23Z</time>
      </trkpt>
      <trkpt lat="43.99691" lon="0.23082">
        <ele>85</ele>
        <time>2016-02-20T12:50:24Z</time>
      </trkpt>
      <trkpt lat="43.99653" lon="0.23092">
        <ele>85.6</ele>
        <time>2016-02-20T12:50:32Z</time>
      </trkpt>
      <trkpt lat="43.99612" lon="0.23102">
        <ele>85.4</ele>
        <time>2016-02-20T12:50:41Z</time>
      </trkpt>
      <trkpt lat="43.99573" lon="0.23112">
        <ele>85.4</ele>
        <time>2016-02-20T12:50:50Z</time>
      </trkpt>
      <trkpt lat="43.99541" lon="0.2312">
        <ele>85.6</ele>
        <time>2016-02-20T12:50:58Z</time>
      </trkpt>
      <trkpt lat="43.9951" lon="0.23128">
        <ele>85.6</ele>
        <time>2016-02-20T12:51:06Z</time>
      </trkpt>
      <trkpt lat="43.99477" lon="0.23136">
        <ele>85.6</ele>
        <time>2016-02-20T12:51:14Z</time>
      </trkpt>
      <trkpt lat="43.99442" lon="0.23144">
        <ele>85.4</ele>
        <time>2016-02-20T12:51:23Z</time>
      </trkpt>
      <trkpt lat="43.99407" lon="0.23152">
        <ele>86</ele>
        <time>2016-02-20T12:51:32Z</time>
      </trkpt>
      <trkpt lat="43.99391" lon="0.23156">
        <ele>85.6</ele>
        <time>2016-02-20T12:51:36Z</time>
      </trkpt>
      <trkpt lat="43.99378" lon="0.23158">
        <ele>85.8</ele>
        <time>2016-02-20T12:51:39Z</time>
      </trkpt>
      <trkpt lat="43.99331" lon="0.23168">
        <ele>86</ele>
        <time>2016-02-20T12:51:50Z</time>
      </trkpt>
      <trkpt lat="43.99327" lon="0.23169">
        <ele>86</ele>
        <time>2016-02-20T12:51:51Z</time>
      </trkpt>
      <trkpt lat="43.99308" lon="0.23174">
        <ele>85.8</ele>
        <time>2016-02-20T12:51:56Z</time>
      </trkpt>
      <trkpt lat="43.99291" lon="0.23179">
        <ele>85.6</ele>
        <time>2016-02-20T12:52:01Z</time>
      </trkpt>
      <trkpt lat="43.99276" lon="0.23182">
        <ele>86</ele>
        <time>2016-02-20T12:52:06Z</time>
      </trkpt>
      <trkpt lat="43.9926" lon="0.23185">
        <ele>86.2</ele>
        <time>2016-02-20T12:52:13Z</time>
      </trkpt>
      <trkpt lat="43.99249" lon="0.23188">
        <ele>86.4</ele>
        <time>2016-02-20T12:52:19Z</time>
      </trkpt>
      <trkpt lat="43.99246" lon="0.23187">
        <ele>86.4</ele>
        <time>2016-02-20T12:52:21Z</time>
      </trkpt>
      <trkpt lat="43.99243" lon="0.23182">
        <ele>86.4</ele>
        <time>2016-02-20T12:52:24Z</time>
      </trkpt>
      <trkpt lat="43.99244" lon="0.2316">
        <ele>85.8</ele>
        <time>2016-02-20T12:52:29Z</time>
      </trkpt>
      <trkpt lat="43.99244" lon="0.23144">
        <ele>85.4</ele>
        <time>2016-02-20T12:52:33Z</time>
      </trkpt>
      <trkpt lat="43.99245" lon="0.23128">
        <ele>85.6</ele>
        <time>2016-02-20T12:52:39Z</time>
      </trkpt>
      <trkpt lat="43.99247" lon="0.23107">
        <ele>85.6</ele>
        <time>2016-02-20T12:52:46Z</time>
      </trkpt>
      <trkpt lat="43.9925" lon="0.23084">
        <ele>85.4</ele>
        <time>2016-02-20T12:52:53Z</time>
      </trkpt>
      <trkpt lat="43.99252" lon="0.23063">
        <ele>84.6</ele>
        <time>2016-02-20T12:52:59Z</time>
      </trkpt>
      <trkpt lat="43.99255" lon="0.23046">
        <ele>84.4</ele>
        <time>2016-02-20T12:53:04Z</time>
      </trkpt>
      <trkpt lat="43.99254" lon="0.23039">
        <ele>84.2</ele>
        <time>2016-02-20T12:53:09Z</time>
      </trkpt>
      <trkpt lat="43.99254" lon="0.23037">
        <ele>84.2</ele>
        <time>2016-02-20T12:53:14Z</time>
      </trkpt>
      <trkpt lat="43.99253" lon="0.23033">
        <ele>84.4</ele>
        <time>2016-02-20T12:53:17Z</time>
      </trkpt>
      <trkpt lat="43.99252" lon="0.23029">
        <ele>84.4</ele>
        <time>2016-02-20T12:53:20Z</time>
      </trkpt>
      <trkpt lat="43.99251" lon="0.23021">
        <ele>84.6</ele>
        <time>2016-02-20T12:53:24Z</time>
      </trkpt>
      <trkpt lat="43.9925" lon="0.23019">
        <ele>84.6</ele>
        <time>2016-02-20T12:53:26Z</time>
      </trkpt>
      <trkpt lat="43.99259" lon="0.22999">
        <ele>88.4</ele>
        <time>2016-02-20T13:28:33Z</time>
      </trkpt>
      <trkpt lat="43.99259" lon="0.22998">
        <ele>88.6</ele>
        <time>2016-02-20T13:28:34Z</time>
      </trkpt>
      <trkpt lat="43.99262" lon="0.22995">
        <ele>88.4</ele>
        <time>2016-02-20T13:28:43Z</time>
      </trkpt>
      <trkpt lat="43.9927" lon="0.22992">
        <ele>88</ele>
        <time>2016-02-20T13:28:47Z</time>
      </trkpt>
      <trkpt lat="43.99272" lon="0.22992">
        <ele>88</ele>
        <time>2016-02-20T13:28:49Z</time>
      </trkpt>
      <trkpt lat="43.99276" lon="0.22996">
        <ele>88</ele>
        <time>2016-02-20T13:28:56Z</time>
      </trkpt>
      <trkpt lat="43.99278" lon="0.22995">
        <ele>88</ele>
        <time>2016-02-20T13:29:01Z</time>
      </trkpt>
      <trkpt lat="43.99273" lon="0.23004">
        <ele>90.6</ele>
        <time>2016-02-20T13:59:20Z</time>
      </trkpt>
      <trkpt lat="43.99273" lon="0.23009">
        <ele>90.6</ele>
        <time>2016-02-20T13:59:22Z</time>
      </trkpt>
      <trkpt lat="43.9927" lon="0.23027">
        <ele>90.8</ele>
        <time>2016-02-20T13:59:28Z</time>
      </trkpt>
      <trkpt lat="43.99264" lon="0.23036">
        <ele>91</ele>
        <time>2016-02-20T13:59:33Z</time>
      </trkpt>
      <trkpt lat="43.99262" lon="0.23039">
        <ele>91</ele>
        <time>2016-02-20T13:59:34Z</time>
      </trkpt>
      <trkpt lat="43.99254" lon="0.23049">
        <ele>91.2</ele>
        <time>2016-02-20T13:59:39Z</time>
      </trkpt>
      <trkpt lat="43.99252" lon="0.23062">
        <ele>91.6</ele>
        <time>2016-02-20T13:59:43Z</time>
      </trkpt>
      <trkpt lat="43.99252" lon="0.23068">
        <ele>91.8</ele>
        <time>2016-02-20T13:59:45Z</time>
      </trkpt>
      <trkpt lat="43.99249" lon="0.23093">
        <ele>92.2</ele>
        <time>2016-02-20T13:59:53Z</time>
      </trkpt>
      <trkpt lat="43.99248" lon="0.23111">
        <ele>92.6</ele>
        <time>2016-02-20T13:59:58Z</time>
      </trkpt>
      <trkpt lat="43.99245" lon="0.23129">
        <ele>92.8</ele>
        <time>2016-02-20T14:00:03Z</time>
      </trkpt>
      <trkpt lat="43.99242" lon="0.23159">
        <ele>92.6</ele>
        <time>2016-02-20T14:00:11Z</time>
      </trkpt>
      <trkpt lat="43.99237" lon="0.23185">
        <ele>93</ele>
        <time>2016-02-20T14:00:19Z</time>
      </trkpt>
      <trkpt lat="43.99235" lon="0.23189">
        <ele>93.4</ele>
        <time>2016-02-20T14:00:21Z</time>
      </trkpt>
      <trkpt lat="43.99231" lon="0.23191">
        <ele>93.8</ele>
        <time>2016-02-20T14:00:23Z</time>
      </trkpt>
      <trkpt lat="43.99228" lon="0.23192">
        <ele>93.8</ele>
        <time>2016-02-20T14:00:24Z</time>
      </trkpt>
      <trkpt lat="43.99226" lon="0.23193">
        <ele>93.8</ele>
        <time>2016-02-20T14:00:25Z</time>
      </trkpt>
      <trkpt lat="43.99215" lon="0.23208">
        <ele>94.4</ele>
        <time>2016-02-20T14:00:30Z</time>
      </trkpt>
      <trkpt lat="43.99211" lon="0.23216">
        <ele>94.8</ele>
        <time>2016-02-20T14:00:33Z</time>
      </trkpt>
      <trkpt lat="43.99207" lon="0.23217">
        <ele>95</ele>
        <time>2016-02-20T14:00:35Z</time>
      </trkpt>
      <trkpt lat="43.99204" lon="0.23217">
        <ele>95.2</ele>
        <time>2016-02-20T14:00:36Z</time>
      </trkpt>
      <trkpt lat="43.99194" lon="0.2322">
        <ele>95.6</ele>
        <time>2016-02-20T14:00:40Z</time>
      </trkpt>
      <trkpt lat="43.99188" lon="0.23221">
        <ele>95.8</ele>
        <time>2016-02-20T14:00:42Z</time>
      </trkpt>
      <trkpt lat="43.9917" lon="0.23223">
        <ele>96.2</ele>
        <time>2016-02-20T14:00:49Z</time>
      </trkpt>
      <trkpt lat="43.99157" lon="0.23227">
        <ele>97</ele>
        <time>2016-02-20T14:00:54Z</time>
      </trkpt>
      <trkpt lat="43.99149" lon="0.23229">
        <ele>97.2</ele>
        <time>2016-02-20T14:00:57Z</time>
      </trkpt>
      <trkpt lat="43.99141" lon="0.23231">
        <ele>97.6</ele>
        <time>2016-02-20T14:01:01Z</time>
      </trkpt>
      <trkpt lat="43.9914" lon="0.23232">
        <ele>97.6</ele>
        <time>2016-02-20T14:01:02Z</time>
      </trkpt>
      <trkpt lat="43.99133" lon="0.23236">
        <ele>97.8</ele>
        <time>2016-02-20T14:01:07Z</time>
      </trkpt>
      <trkpt lat="43.99128" lon="0.23238">
        <ele>98</ele>
        <time>2016-02-20T14:01:09Z</time>
      </trkpt>
      <trkpt lat="43.99117" lon="0.23242">
        <ele>98.8</ele>
        <time>2016-02-20T14:01:13Z</time>
      </trkpt>
      <trkpt lat="43.99112" lon="0.23245">
        <ele>99.2</ele>
        <time>2016-02-20T14:01:15Z</time>
      </trkpt>
      <trkpt lat="43.99095" lon="0.23255">
        <ele>100</ele>
        <time>2016-02-20T14:01:22Z</time>
      </trkpt>
      <trkpt lat="43.99091" lon="0.23257">
        <ele>100.2</ele>
        <time>2016-02-20T14:01:24Z</time>
      </trkpt>
      <trkpt lat="43.99081" lon="0.23265">
        <ele>100.6</ele>
        <time>2016-02-20T14:01:29Z</time>
      </trkpt>
      <trkpt lat="43.99071" lon="0.23274">
        <ele>101.2</ele>
        <time>2016-02-20T14:01:35Z</time>
      </trkpt>
      <trkpt lat="43.99069" lon="0.23276">
        <ele>101.2</ele>
        <time>2016-02-20T14:01:36Z</time>
      </trkpt>
      <trkpt lat="43.99065" lon="0.23283">
        <ele>101.6</ele>
        <time>2016-02-20T14:01:40Z</time>
      </trkpt>
      <trkpt lat="43.99064" lon="0.23284">
        <ele>101.6</ele>
        <time>2016-02-20T14:01:41Z</time>
      </trkpt>
      <trkpt lat="43.9906" lon="0.23287">
        <ele>101.8</ele>
        <time>2016-02-20T14:01:44Z</time>
      </trkpt>
      <trkpt lat="43.99059" lon="0.23288">
        <ele>102</ele>
        <time>2016-02-20T14:01:46Z</time>
      </trkpt>
      <trkpt lat="43.99055" lon="0.23297">
        <ele>102.2</ele>
        <time>2016-02-20T14:03:11Z</time>
      </trkpt>
      <trkpt lat="43.99051" lon="0.23301">
        <ele>102.4</ele>
        <time>2016-02-20T14:03:13Z</time>
      </trkpt>
      <trkpt lat="43.9904" lon="0.23315">
        <ele>103.2</ele>
        <time>2016-02-20T14:03:19Z</time>
      </trkpt>
      <trkpt lat="43.99036" lon="0.23322">
        <ele>103.6</ele>
        <time>2016-02-20T14:03:21Z</time>
      </trkpt>
      <trkpt lat="43.99025" lon="0.23341">
        <ele>104.6</ele>
        <time>2016-02-20T14:03:27Z</time>
      </trkpt>
      <trkpt lat="43.99024" lon="0.23345">
        <ele>104.8</ele>
        <time>2016-02-20T14:03:28Z</time>
      </trkpt>
      <trkpt lat="43.99015" lon="0.2336">
        <ele>105.8</ele>
        <time>2016-02-20T14:03:33Z</time>
      </trkpt>
      <trkpt lat="43.99013" lon="0.23363">
        <ele>106</ele>
        <time>2016-02-20T14:03:34Z</time>
      </trkpt>
      <trkpt lat="43.99001" lon="0.23392">
        <ele>106.8</ele>
        <time>2016-02-20T14:03:43Z</time>
      </trkpt>
      <trkpt lat="43.98999" lon="0.23395">
        <ele>106.8</ele>
        <time>2016-02-20T14:03:44Z</time>
      </trkpt>
      <trkpt lat="43.98989" lon="0.23428">
        <ele>108.2</ele>
        <time>2016-02-20T14:03:54Z</time>
      </trkpt>
      <trkpt lat="43.98981" lon="0.23454">
        <ele>109.2</ele>
        <time>2016-02-20T14:04:02Z</time>
      </trkpt>
      <trkpt lat="43.98972" lon="0.23478">
        <ele>110</ele>
        <time>2016-02-20T14:04:09Z</time>
      </trkpt>
      <trkpt lat="43.9897" lon="0.23485">
        <ele>110.4</ele>
        <time>2016-02-20T14:04:11Z</time>
      </trkpt>
      <trkpt lat="43.98965" lon="0.23501">
        <ele>111</ele>
        <time>2016-02-20T14:04:16Z</time>
      </trkpt>
      <trkpt lat="43.98962" lon="0.23508">
        <ele>111.6</ele>
        <time>2016-02-20T14:04:18Z</time>
      </trkpt>
      <trkpt lat="43.98957" lon="0.23524">
        <ele>113.2</ele>
        <time>2016-02-20T14:04:23Z</time>
      </trkpt>
      <trkpt lat="43.98956" lon="0.23527">
        <ele>113.4</ele>
        <time>2016-02-20T14:04:24Z</time>
      </trkpt>
      <trkpt lat="43.98949" lon="0.23556">
        <ele>113.4</ele>
        <time>2016-02-20T14:04:32Z</time>
      </trkpt>
      <trkpt lat="43.9894" lon="0.23587">
        <ele>113.8</ele>
        <time>2016-02-20T14:04:40Z</time>
      </trkpt>
      <trkpt lat="43.98936" lon="0.23607">
        <ele>114.4</ele>
        <time>2016-02-20T14:04:45Z</time>
      </trkpt>
      <trkpt lat="43.9893" lon="0.23629">
        <ele>115</ele>
        <time>2016-02-20T14:04:51Z</time>
      </trkpt>
      <trkpt lat="43.98927" lon="0.23641">
        <ele>115.4</ele>
        <time>2016-02-20T14:04:54Z</time>
      </trkpt>
      <trkpt lat="43.98925" lon="0.23654">
        <ele>115.8</ele>
        <time>2016-02-20T14:04:57Z</time>
      </trkpt>
      <trkpt lat="43.98923" lon="0.23676">
        <ele>116.6</ele>
        <time>2016-02-20T14:05:03Z</time>
      </trkpt>
      <trkpt lat="43.98915" lon="0.23699">
        <ele>117.2</ele>
        <time>2016-02-20T14:05:09Z</time>
      </trkpt>
      <trkpt lat="43.98913" lon="0.23711">
        <ele>117.6</ele>
        <time>2016-02-20T14:05:12Z</time>
      </trkpt>
      <trkpt lat="43.98909" lon="0.23725">
        <ele>118</ele>
        <time>2016-02-20T14:05:16Z</time>
      </trkpt>
      <trkpt lat="43.98902" lon="0.23747">
        <ele>118.6</ele>
        <time>2016-02-20T14:05:22Z</time>
      </trkpt>
      <trkpt lat="43.98901" lon="0.23751">
        <ele>118.8</ele>
        <time>2016-02-20T14:05:23Z</time>
      </trkpt>
      <trkpt lat="43.98896" lon="0.23777">
        <ele>119.8</ele>
        <time>2016-02-20T14:05:30Z</time>
      </trkpt>
      <trkpt lat="43.98895" lon="0.23781">
        <ele>119.8</ele>
        <time>2016-02-20T14:05:31Z</time>
      </trkpt>
      <trkpt lat="43.98888" lon="0.23808">
        <ele>121</ele>
        <time>2016-02-20T14:05:38Z</time>
      </trkpt>
      <trkpt lat="43.98887" lon="0.23815">
        <ele>121.4</ele>
        <time>2016-02-20T14:05:40Z</time>
      </trkpt>
      <trkpt lat="43.98881" lon="0.23839">
        <ele>122</ele>
        <time>2016-02-20T14:05:46Z</time>
      </trkpt>
      <trkpt lat="43.98879" lon="0.23847">
        <ele>122.2</ele>
        <time>2016-02-20T14:05:48Z</time>
      </trkpt>
      <trkpt lat="43.98875" lon="0.23864">
        <ele>123.2</ele>
        <time>2016-02-20T14:05:53Z</time>
      </trkpt>
      <trkpt lat="43.98873" lon="0.23871">
        <ele>123.4</ele>
        <time>2016-02-20T14:05:56Z</time>
      </trkpt>
      <trkpt lat="43.98872" lon="0.2388">
        <ele>123.8</ele>
        <time>2016-02-20T14:06:02Z</time>
      </trkpt>
      <trkpt lat="43.98872" lon="0.23881">
        <ele>124</ele>
        <time>2016-02-20T14:06:03Z</time>
      </trkpt>
      <trkpt lat="43.98872" lon="0.23881">
        <ele>124.2</ele>
        <time>2016-02-20T14:06:04Z</time>
      </trkpt>
      <trkpt lat="43.98872" lon="0.23882">
        <ele>124.2</ele>
        <time>2016-02-20T14:06:14Z</time>
      </trkpt>
      <trkpt lat="43.98872" lon="0.23885">
        <ele>124.4</ele>
        <time>2016-02-20T14:06:18Z</time>
      </trkpt>
      <trkpt lat="43.98873" lon="0.23889">
        <ele>124.4</ele>
        <time>2016-02-20T14:06:21Z</time>
      </trkpt>
      <trkpt lat="43.98872" lon="0.23892">
        <ele>124.4</ele>
        <time>2016-02-20T14:06:22Z</time>
      </trkpt>
      <trkpt lat="43.98871" lon="0.23894">
        <ele>124.4</ele>
        <time>2016-02-20T14:06:23Z</time>
      </trkpt>
      <trkpt lat="43.98866" lon="0.23907">
        <ele>125</ele>
        <time>2016-02-20T14:06:28Z</time>
      </trkpt>
      <trkpt lat="43.98866" lon="0.2391">
        <ele>125.2</ele>
        <time>2016-02-20T14:06:29Z</time>
      </trkpt>
      <trkpt lat="43.98865" lon="0.23913">
        <ele>125.4</ele>
        <time>2016-02-20T14:06:30Z</time>
      </trkpt>
      <trkpt lat="43.9886" lon="0.23935">
        <ele>126.4</ele>
        <time>2016-02-20T14:06:38Z</time>
      </trkpt>
      <trkpt lat="43.98854" lon="0.23945">
        <ele>127</ele>
        <time>2016-02-20T14:06:43Z</time>
      </trkpt>
      <trkpt lat="43.98848" lon="0.23961">
        <ele>127.4</ele>
        <time>2016-02-20T14:06:49Z</time>
      </trkpt>
      <trkpt lat="43.98846" lon="0.23966">
        <ele>127.6</ele>
        <time>2016-02-20T14:06:51Z</time>
      </trkpt>
      <trkpt lat="43.98842" lon="0.23974">
        <ele>128.6</ele>
        <time>2016-02-20T14:06:54Z</time>
      </trkpt>
      <trkpt lat="43.98839" lon="0.23982">
        <ele>129</ele>
        <time>2016-02-20T14:06:57Z</time>
      </trkpt>
      <trkpt lat="43.9883" lon="0.23996">
        <ele>129.2</ele>
        <time>2016-02-20T14:07:03Z</time>
      </trkpt>
      <trkpt lat="43.98828" lon="0.23998">
        <ele>129.6</ele>
        <time>2016-02-20T14:07:04Z</time>
      </trkpt>
      <trkpt lat="43.98819" lon="0.24011">
        <ele>130.6</ele>
        <time>2016-02-20T14:07:10Z</time>
      </trkpt>
      <trkpt lat="43.98815" lon="0.24019">
        <ele>130.6</ele>
        <time>2016-02-20T14:07:13Z</time>
      </trkpt>
      <trkpt lat="43.9881" lon="0.24026">
        <ele>131</ele>
        <time>2016-02-20T14:07:16Z</time>
      </trkpt>
      <trkpt lat="43.98807" lon="0.24031">
        <ele>131.6</ele>
        <time>2016-02-20T14:07:18Z</time>
      </trkpt>
      <trkpt lat="43.98801" lon="0.24041">
        <ele>132</ele>
        <time>2016-02-20T14:07:22Z</time>
      </trkpt>
      <trkpt lat="43.98794" lon="0.24053">
        <ele>132.6</ele>
        <time>2016-02-20T14:07:27Z</time>
      </trkpt>
      <trkpt lat="43.98792" lon="0.24059">
        <ele>133</ele>
        <time>2016-02-20T14:07:29Z</time>
      </trkpt>
      <trkpt lat="43.98788" lon="0.24074">
        <ele>133.8</ele>
        <time>2016-02-20T14:07:35Z</time>
      </trkpt>
      <trkpt lat="43.98787" lon="0.24075">
        <ele>133.8</ele>
        <time>2016-02-20T14:07:36Z</time>
      </trkpt>
      <trkpt lat="43.98787" lon="0.24076">
        <ele>134</ele>
        <time>2016-02-20T14:07:37Z</time>
      </trkpt>
      <trkpt lat="43.98786" lon="0.24085">
        <ele>134.2</ele>
        <time>2016-02-20T14:08:22Z</time>
      </trkpt>
      <trkpt lat="43.98785" lon="0.24091">
        <ele>134.4</ele>
        <time>2016-02-20T14:08:24Z</time>
      </trkpt>
      <trkpt lat="43.98784" lon="0.24101">
        <ele>134.8</ele>
        <time>2016-02-20T14:08:27Z</time>
      </trkpt>
      <trkpt lat="43.98784" lon="0.24119">
        <ele>135.6</ele>
        <time>2016-02-20T14:08:32Z</time>
      </trkpt>
      <trkpt lat="43.98784" lon="0.24141">
        <ele>136</ele>
        <time>2016-02-20T14:08:37Z</time>
      </trkpt>
      <trkpt lat="43.98783" lon="0.24155">
        <ele>136.2</ele>
        <time>2016-02-20T14:08:40Z</time>
      </trkpt>
      <trkpt lat="43.98782" lon="0.24177">
        <ele>136.2</ele>
        <time>2016-02-20T14:08:46Z</time>
      </trkpt>
      <trkpt lat="43.98779" lon="0.24184">
        <ele>136.2</ele>
        <time>2016-02-20T14:08:52Z</time>
      </trkpt>
      <trkpt lat="43.98779" lon="0.24186">
        <ele>136</ele>
        <time>2016-02-20T14:08:56Z</time>
      </trkpt>
      <trkpt lat="43.98779" lon="0.24186">
        <ele>136.2</ele>
        <time>2016-02-20T14:09:01Z</time>
      </trkpt>
      <trkpt lat="43.98777" lon="0.24194">
        <ele>136</ele>
        <time>2016-02-20T14:09:05Z</time>
      </trkpt>
      <trkpt lat="43.98777" lon="0.24197">
        <ele>136.2</ele>
        <time>2016-02-20T14:09:06Z</time>
      </trkpt>
      <trkpt lat="43.98767" lon="0.24219">
        <ele>136.4</ele>
        <time>2016-02-20T14:09:13Z</time>
      </trkpt>
      <trkpt lat="43.98751" lon="0.24245">
        <ele>136.4</ele>
        <time>2016-02-20T14:09:21Z</time>
      </trkpt>
      <trkpt lat="43.98728" lon="0.2428">
        <ele>136.8</ele>
        <time>2016-02-20T14:09:31Z</time>
      </trkpt>
      <trkpt lat="43.98721" lon="0.24291">
        <ele>137</ele>
        <time>2016-02-20T14:09:34Z</time>
      </trkpt>
      <trkpt lat="43.98712" lon="0.24309">
        <ele>137</ele>
        <time>2016-02-20T14:09:39Z</time>
      </trkpt>
      <trkpt lat="43.98705" lon="0.24328">
        <ele>137</ele>
        <time>2016-02-20T14:09:44Z</time>
      </trkpt>
      <trkpt lat="43.98701" lon="0.2433">
        <ele>137.2</ele>
        <time>2016-02-20T14:09:45Z</time>
      </trkpt>
      <trkpt lat="43.98697" lon="0.24337">
        <ele>137.2</ele>
        <time>2016-02-20T14:09:47Z</time>
      </trkpt>
      <trkpt lat="43.98682" lon="0.24365">
        <ele>137.4</ele>
        <time>2016-02-20T14:09:54Z</time>
      </trkpt>
      <trkpt lat="43.98664" lon="0.24398">
        <ele>137.2</ele>
        <time>2016-02-20T14:10:01Z</time>
      </trkpt>
      <trkpt lat="43.98641" lon="0.24444">
        <ele>137.2</ele>
        <time>2016-02-20T14:10:10Z</time>
      </trkpt>
      <trkpt lat="43.98621" lon="0.24487">
        <ele>137</ele>
        <time>2016-02-20T14:10:19Z</time>
      </trkpt>
      <trkpt lat="43.98604" lon="0.24525">
        <ele>137.2</ele>
        <time>2016-02-20T14:10:27Z</time>
      </trkpt>
      <trkpt lat="43.98587" lon="0.24582">
        <ele>137.6</ele>
        <time>2016-02-20T14:10:38Z</time>
      </trkpt>
      <trkpt lat="43.98574" lon="0.2463">
        <ele>137.6</ele>
        <time>2016-02-20T14:10:47Z</time>
      </trkpt>
      <trkpt lat="43.98561" lon="0.24681">
        <ele>137.6</ele>
        <time>2016-02-20T14:10:56Z</time>
      </trkpt>
      <trkpt lat="43.98549" lon="0.24727">
        <ele>137.4</ele>
        <time>2016-02-20T14:11:04Z</time>
      </trkpt>
      <trkpt lat="43.9854" lon="0.24761">
        <ele>138</ele>
        <time>2016-02-20T14:11:10Z</time>
      </trkpt>
      <trkpt lat="43.98534" lon="0.24784">
        <ele>138.2</ele>
        <time>2016-02-20T14:11:14Z</time>
      </trkpt>
      <trkpt lat="43.98522" lon="0.2483">
        <ele>138.4</ele>
        <time>2016-02-20T14:11:23Z</time>
      </trkpt>
      <trkpt lat="43.98514" lon="0.24859">
        <ele>139</ele>
        <time>2016-02-20T14:11:30Z</time>
      </trkpt>
      <trkpt lat="43.98511" lon="0.24871">
        <ele>139.2</ele>
        <time>2016-02-20T14:11:33Z</time>
      </trkpt>
      <trkpt lat="43.98505" lon="0.24888">
        <ele>139.8</ele>
        <time>2016-02-20T14:11:38Z</time>
      </trkpt>
      <trkpt lat="43.98501" lon="0.24905">
        <ele>140.2</ele>
        <time>2016-02-20T14:11:43Z</time>
      </trkpt>
      <trkpt lat="43.98499" lon="0.24911">
        <ele>140.2</ele>
        <time>2016-02-20T14:11:45Z</time>
      </trkpt>
      <trkpt lat="43.98493" lon="0.24935">
        <ele>140.4</ele>
        <time>2016-02-20T14:11:52Z</time>
      </trkpt>
      <trkpt lat="43.98484" lon="0.2496">
        <ele>141</ele>
        <time>2016-02-20T14:11:59Z</time>
      </trkpt>
      <trkpt lat="43.98482" lon="0.24966">
        <ele>141.6</ele>
        <time>2016-02-20T14:12:01Z</time>
      </trkpt>
      <trkpt lat="43.98475" lon="0.24979">
        <ele>141.8</ele>
        <time>2016-02-20T14:12:05Z</time>
      </trkpt>
      <trkpt lat="43.98462" lon="0.25012">
        <ele>142</ele>
        <time>2016-02-20T14:12:14Z</time>
      </trkpt>
      <trkpt lat="43.98457" lon="0.25025">
        <ele>142.6</ele>
        <time>2016-02-20T14:12:18Z</time>
      </trkpt>
      <trkpt lat="43.98454" lon="0.25032">
        <ele>142.8</ele>
        <time>2016-02-20T14:12:20Z</time>
      </trkpt>
      <trkpt lat="43.98442" lon="0.2506">
        <ele>143.4</ele>
        <time>2016-02-20T14:12:29Z</time>
      </trkpt>
      <trkpt lat="43.98439" lon="0.25069">
        <ele>143.6</ele>
        <time>2016-02-20T14:12:32Z</time>
      </trkpt>
      <trkpt lat="43.98433" lon="0.25084">
        <ele>144</ele>
        <time>2016-02-20T14:12:37Z</time>
      </trkpt>
      <trkpt lat="43.98427" lon="0.25107">
        <ele>144.6</ele>
        <time>2016-02-20T14:12:44Z</time>
      </trkpt>
      <trkpt lat="43.98425" lon="0.25112">
        <ele>144.6</ele>
        <time>2016-02-20T14:12:46Z</time>
      </trkpt>
      <trkpt lat="43.9842" lon="0.25126">
        <ele>145.2</ele>
        <time>2016-02-20T14:12:51Z</time>
      </trkpt>
      <trkpt lat="43.98413" lon="0.25145">
        <ele>145.8</ele>
        <time>2016-02-20T14:12:58Z</time>
      </trkpt>
      <trkpt lat="43.98412" lon="0.25148">
        <ele>145.8</ele>
        <time>2016-02-20T14:12:59Z</time>
      </trkpt>
      <trkpt lat="43.98406" lon="0.2517">
        <ele>146.4</ele>
        <time>2016-02-20T14:13:06Z</time>
      </trkpt>
      <trkpt lat="43.98402" lon="0.25184">
        <ele>146.8</ele>
        <time>2016-02-20T14:13:11Z</time>
      </trkpt>
      <trkpt lat="43.98398" lon="0.25198">
        <ele>147.4</ele>
        <time>2016-02-20T14:13:16Z</time>
      </trkpt>
      <trkpt lat="43.98394" lon="0.2521">
        <ele>147.8</ele>
        <time>2016-02-20T14:13:20Z</time>
      </trkpt>
      <trkpt lat="43.98392" lon="0.25216">
        <ele>147.8</ele>
        <time>2016-02-20T14:13:23Z</time>
      </trkpt>
      <trkpt lat="43.98391" lon="0.25218">
        <ele>148.2</ele>
        <time>2016-02-20T14:13:28Z</time>
      </trkpt>
      <trkpt lat="43.98389" lon="0.25227">
        <ele>148.6</ele>
        <time>2016-02-20T14:14:52Z</time>
      </trkpt>
      <trkpt lat="43.98387" lon="0.25234">
        <ele>148.8</ele>
        <time>2016-02-20T14:14:54Z</time>
      </trkpt>
      <trkpt lat="43.98384" lon="0.25243">
        <ele>149</ele>
        <time>2016-02-20T14:14:57Z</time>
      </trkpt>
      <trkpt lat="43.9838" lon="0.25256">
        <ele>149.8</ele>
        <time>2016-02-20T14:15:01Z</time>
      </trkpt>
      <trkpt lat="43.98378" lon="0.25264">
        <ele>150</ele>
        <time>2016-02-20T14:15:04Z</time>
      </trkpt>
      <trkpt lat="43.98375" lon="0.25273">
        <ele>150.4</ele>
        <time>2016-02-20T14:15:07Z</time>
      </trkpt>
      <trkpt lat="43.98371" lon="0.25284">
        <ele>151</ele>
        <time>2016-02-20T14:15:12Z</time>
      </trkpt>
      <trkpt lat="43.98368" lon="0.25292">
        <ele>151.4</ele>
        <time>2016-02-20T14:15:17Z</time>
      </trkpt>
      <trkpt lat="43.98368" lon="0.25295">
        <ele>151.6</ele>
        <time>2016-02-20T14:15:22Z</time>
      </trkpt>
      <trkpt lat="43.98365" lon="0.25298">
        <ele>151.8</ele>
        <time>2016-02-20T14:15:30Z</time>
      </trkpt>
      <trkpt lat="43.98363" lon="0.25298">
        <ele>152</ele>
        <time>2016-02-20T14:15:35Z</time>
      </trkpt>
      <trkpt lat="43.98364" lon="0.25302">
        <ele>152.2</ele>
        <time>2016-02-20T14:15:38Z</time>
      </trkpt>
      <trkpt lat="43.9836" lon="0.25314">
        <ele>152.8</ele>
        <time>2016-02-20T14:16:04Z</time>
      </trkpt>
      <trkpt lat="43.98359" lon="0.25317">
        <ele>153</ele>
        <time>2016-02-20T14:16:05Z</time>
      </trkpt>
      <trkpt lat="43.98355" lon="0.25326">
        <ele>153.4</ele>
        <time>2016-02-20T14:16:08Z</time>
      </trkpt>
      <trkpt lat="43.98352" lon="0.25335">
        <ele>153.8</ele>
        <time>2016-02-20T14:16:11Z</time>
      </trkpt>
      <trkpt lat="43.98347" lon="0.25342">
        <ele>154.4</ele>
        <time>2016-02-20T14:16:14Z</time>
      </trkpt>
      <trkpt lat="43.98339" lon="0.25356">
        <ele>155.2</ele>
        <time>2016-02-20T14:16:19Z</time>
      </trkpt>
      <trkpt lat="43.98337" lon="0.25359">
        <ele>155.6</ele>
        <time>2016-02-20T14:16:20Z</time>
      </trkpt>
      <trkpt lat="43.98325" lon="0.25376">
        <ele>156.8</ele>
        <time>2016-02-20T14:16:27Z</time>
      </trkpt>
      <trkpt lat="43.98314" lon="0.25392">
        <ele>158</ele>
        <time>2016-02-20T14:16:33Z</time>
      </trkpt>
      <trkpt lat="43.9831" lon="0.25397">
        <ele>158.4</ele>
        <time>2016-02-20T14:16:35Z</time>
      </trkpt>
      <trkpt lat="43.98302" lon="0.25407">
        <ele>159.2</ele>
        <time>2016-02-20T14:16:39Z</time>
      </trkpt>
      <trkpt lat="43.98296" lon="0.25413">
        <ele>159.6</ele>
        <time>2016-02-20T14:16:42Z</time>
      </trkpt>
      <trkpt lat="43.98292" lon="0.25421">
        <ele>160.4</ele>
        <time>2016-02-20T14:16:45Z</time>
      </trkpt>
      <trkpt lat="43.98282" lon="0.25437">
        <ele>161.4</ele>
        <time>2016-02-20T14:16:51Z</time>
      </trkpt>
      <trkpt lat="43.98269" lon="0.25457">
        <ele>162.4</ele>
        <time>2016-02-20T14:16:57Z</time>
      </trkpt>
      <trkpt lat="43.98267" lon="0.25461">
        <ele>162.6</ele>
        <time>2016-02-20T14:16:58Z</time>
      </trkpt>
      <trkpt lat="43.9826" lon="0.25477">
        <ele>163.6</ele>
        <time>2016-02-20T14:17:02Z</time>
      </trkpt>
      <trkpt lat="43.98255" lon="0.25489">
        <ele>164.2</ele>
        <time>2016-02-20T14:17:05Z</time>
      </trkpt>
      <trkpt lat="43.9825" lon="0.25501">
        <ele>164.8</ele>
        <time>2016-02-20T14:17:08Z</time>
      </trkpt>
      <trkpt lat="43.98244" lon="0.2552">
        <ele>165.6</ele>
        <time>2016-02-20T14:17:12Z</time>
      </trkpt>
      <trkpt lat="43.98242" lon="0.25528">
        <ele>166.2</ele>
        <time>2016-02-20T14:17:14Z</time>
      </trkpt>
      <trkpt lat="43.98238" lon="0.25542">
        <ele>166.8</ele>
        <time>2016-02-20T14:17:18Z</time>
      </trkpt>
      <trkpt lat="43.98234" lon="0.25549">
        <ele>167.2</ele>
        <time>2016-02-20T14:17:20Z</time>
      </trkpt>
      <trkpt lat="43.98229" lon="0.25566">
        <ele>168</ele>
        <time>2016-02-20T14:17:24Z</time>
      </trkpt>
      <trkpt lat="43.98226" lon="0.25574">
        <ele>168.4</ele>
        <time>2016-02-20T14:17:26Z</time>
      </trkpt>
      <trkpt lat="43.98219" lon="0.25596">
        <ele>169.2</ele>
        <time>2016-02-20T14:17:31Z</time>
      </trkpt>
      <trkpt lat="43.98217" lon="0.25604">
        <ele>169.6</ele>
        <time>2016-02-20T14:17:33Z</time>
      </trkpt>
      <trkpt lat="43.98209" lon="0.25626">
        <ele>170</ele>
        <time>2016-02-20T14:17:38Z</time>
      </trkpt>
      <trkpt lat="43.98202" lon="0.25659">
        <ele>170.6</ele>
        <time>2016-02-20T14:17:45Z</time>
      </trkpt>
      <trkpt lat="43.98201" lon="0.25663">
        <ele>170.6</ele>
        <time>2016-02-20T14:17:46Z</time>
      </trkpt>
      <trkpt lat="43.98192" lon="0.2569">
        <ele>170.8</ele>
        <time>2016-02-20T14:17:52Z</time>
      </trkpt>
      <trkpt lat="43.98178" lon="0.25731">
        <ele>171.4</ele>
        <time>2016-02-20T14:18:00Z</time>
      </trkpt>
      <trkpt lat="43.98177" lon="0.25736">
        <ele>171.6</ele>
        <time>2016-02-20T14:18:01Z</time>
      </trkpt>
      <trkpt lat="43.98168" lon="0.25768">
        <ele>171.8</ele>
        <time>2016-02-20T14:18:07Z</time>
      </trkpt>
      <trkpt lat="43.98151" lon="0.25803">
        <ele>172.2</ele>
        <time>2016-02-20T14:18:14Z</time>
      </trkpt>
      <trkpt lat="43.98146" lon="0.25812">
        <ele>172.6</ele>
        <time>2016-02-20T14:18:16Z</time>
      </trkpt>
      <trkpt lat="43.98134" lon="0.25837">
        <ele>172.6</ele>
        <time>2016-02-20T14:18:22Z</time>
      </trkpt>
      <trkpt lat="43.98116" lon="0.2587">
        <ele>173.2</ele>
        <time>2016-02-20T14:18:31Z</time>
      </trkpt>
      <trkpt lat="43.98104" lon="0.25894">
        <ele>173.4</ele>
        <time>2016-02-20T14:18:38Z</time>
      </trkpt>
      <trkpt lat="43.98099" lon="0.25906">
        <ele>173.6</ele>
        <time>2016-02-20T14:18:41Z</time>
      </trkpt>
      <trkpt lat="43.98094" lon="0.25917">
        <ele>173.6</ele>
        <time>2016-02-20T14:18:44Z</time>
      </trkpt>
      <trkpt lat="43.98078" lon="0.25952">
        <ele>174.4</ele>
        <time>2016-02-20T14:18:53Z</time>
      </trkpt>
      <trkpt lat="43.98071" lon="0.25967">
        <ele>175</ele>
        <time>2016-02-20T14:18:57Z</time>
      </trkpt>
      <trkpt lat="43.98065" lon="0.25978">
        <ele>174.8</ele>
        <time>2016-02-20T14:19:00Z</time>
      </trkpt>
      <trkpt lat="43.98048" lon="0.26014">
        <ele>175.6</ele>
        <time>2016-02-20T14:19:09Z</time>
      </trkpt>
      <trkpt lat="43.98041" lon="0.26028">
        <ele>176.2</ele>
        <time>2016-02-20T14:19:13Z</time>
      </trkpt>
      <trkpt lat="43.98036" lon="0.2604">
        <ele>176.6</ele>
        <time>2016-02-20T14:19:16Z</time>
      </trkpt>
      <trkpt lat="43.98028" lon="0.26057">
        <ele>177.2</ele>
        <time>2016-02-20T14:19:21Z</time>
      </trkpt>
      <trkpt lat="43.98022" lon="0.2607">
        <ele>177.6</ele>
        <time>2016-02-20T14:19:25Z</time>
      </trkpt>
      <trkpt lat="43.98013" lon="0.26086">
        <ele>178</ele>
        <time>2016-02-20T14:19:32Z</time>
      </trkpt>
      <trkpt lat="43.98012" lon="0.2609">
        <ele>178.4</ele>
        <time>2016-02-20T14:19:34Z</time>
      </trkpt>
      <trkpt lat="43.98008" lon="0.26096">
        <ele>178.4</ele>
        <time>2016-02-20T14:19:37Z</time>
      </trkpt>
      <trkpt lat="43.97998" lon="0.26117">
        <ele>179.4</ele>
        <time>2016-02-20T14:19:45Z</time>
      </trkpt>
      <trkpt lat="43.97995" lon="0.26123">
        <ele>179.6</ele>
        <time>2016-02-20T14:19:47Z</time>
      </trkpt>
      <trkpt lat="43.97985" lon="0.26147">
        <ele>180.2</ele>
        <time>2016-02-20T14:19:55Z</time>
      </trkpt>
      <trkpt lat="43.97983" lon="0.2615">
        <ele>180.6</ele>
        <time>2016-02-20T14:19:56Z</time>
      </trkpt>
      <trkpt lat="43.97972" lon="0.26169">
        <ele>181.2</ele>
        <time>2016-02-20T14:20:03Z</time>
      </trkpt>
      <trkpt lat="43.97968" lon="0.26177">
        <ele>181.6</ele>
        <time>2016-02-20T14:20:06Z</time>
      </trkpt>
      <trkpt lat="43.97965" lon="0.26184">
        <ele>182</ele>
        <time>2016-02-20T14:20:09Z</time>
      </trkpt>
      <trkpt lat="43.97956" lon="0.26201">
        <ele>182.6</ele>
        <time>2016-02-20T14:20:17Z</time>
      </trkpt>
      <trkpt lat="43.97955" lon="0.26203">
        <ele>182.8</ele>
        <time>2016-02-20T14:20:18Z</time>
      </trkpt>
      <trkpt lat="43.97945" lon="0.26218">
        <ele>183.4</ele>
        <time>2016-02-20T14:20:25Z</time>
      </trkpt>
      <trkpt lat="43.97943" lon="0.2622">
        <ele>183.4</ele>
        <time>2016-02-20T14:20:26Z</time>
      </trkpt>
      <trkpt lat="43.97938" lon="0.2623">
        <ele>183.8</ele>
        <time>2016-02-20T14:20:31Z</time>
      </trkpt>
      <trkpt lat="43.97937" lon="0.26233">
        <ele>184</ele>
        <time>2016-02-20T14:20:33Z</time>
      </trkpt>
      <trkpt lat="43.97932" lon="0.26241">
        <ele>183.8</ele>
        <time>2016-02-20T14:20:37Z</time>
      </trkpt>
      <trkpt lat="43.9793" lon="0.26245">
        <ele>184</ele>
        <time>2016-02-20T14:20:39Z</time>
      </trkpt>
      <trkpt lat="43.97922" lon="0.26259">
        <ele>183.8</ele>
        <time>2016-02-20T14:20:47Z</time>
      </trkpt>
      <trkpt lat="43.97915" lon="0.26273">
        <ele>183.6</ele>
        <time>2016-02-20T14:20:54Z</time>
      </trkpt>
      <trkpt lat="43.97902" lon="0.26297">
        <ele>183</ele>
        <time>2016-02-20T14:21:02Z</time>
      </trkpt>
      <trkpt lat="43.97892" lon="0.26318">
        <ele>182.6</ele>
        <time>2016-02-20T14:21:07Z</time>
      </trkpt>
      <trkpt lat="43.97884" lon="0.26334">
        <ele>182</ele>
        <time>2016-02-20T14:21:10Z</time>
      </trkpt>
      <trkpt lat="43.97881" lon="0.26341">
        <ele>181.8</ele>
        <time>2016-02-20T14:21:11Z</time>
      </trkpt>
      <trkpt lat="43.97878" lon="0.26348">
        <ele>181.4</ele>
        <time>2016-02-20T14:21:12Z</time>
      </trkpt>
      <trkpt lat="43.97865" lon="0.26379">
        <ele>180.4</ele>
        <time>2016-02-20T14:21:16Z</time>
      </trkpt>
      <trkpt lat="43.97861" lon="0.26388">
        <ele>179.8</ele>
        <time>2016-02-20T14:21:17Z</time>
      </trkpt>
      <trkpt lat="43.97852" lon="0.26416">
        <ele>178.4</ele>
        <time>2016-02-20T14:21:20Z</time>
      </trkpt>
      <trkpt lat="43.9785" lon="0.26427">
        <ele>177.8</ele>
        <time>2016-02-20T14:21:21Z</time>
      </trkpt>
      <trkpt lat="43.97846" lon="0.26449">
        <ele>177.2</ele>
        <time>2016-02-20T14:21:23Z</time>
      </trkpt>
      <trkpt lat="43.97844" lon="0.26472">
        <ele>176.8</ele>
        <time>2016-02-20T14:21:25Z</time>
      </trkpt>
      <trkpt lat="43.97842" lon="0.26495">
        <ele>176</ele>
        <time>2016-02-20T14:21:27Z</time>
      </trkpt>
      <trkpt lat="43.97839" lon="0.26518">
        <ele>175</ele>
        <time>2016-02-20T14:21:29Z</time>
      </trkpt>
      <trkpt lat="43.97837" lon="0.2653">
        <ele>174.4</ele>
        <time>2016-02-20T14:21:30Z</time>
      </trkpt>
      <trkpt lat="43.97833" lon="0.26541">
        <ele>173.8</ele>
        <time>2016-02-20T14:21:31Z</time>
      </trkpt>
      <trkpt lat="43.97823" lon="0.26561">
        <ele>172.8</ele>
        <time>2016-02-20T14:21:33Z</time>
      </trkpt>
      <trkpt lat="43.97809" lon="0.26576">
        <ele>172.2</ele>
        <time>2016-02-20T14:21:35Z</time>
      </trkpt>
      <trkpt lat="43.97793" lon="0.26591">
        <ele>171.6</ele>
        <time>2016-02-20T14:21:37Z</time>
      </trkpt>
      <trkpt lat="43.97781" lon="0.26611">
        <ele>170.2</ele>
        <time>2016-02-20T14:21:39Z</time>
      </trkpt>
      <trkpt lat="43.97772" lon="0.26636">
        <ele>168.8</ele>
        <time>2016-02-20T14:21:41Z</time>
      </trkpt>
      <trkpt lat="43.97765" lon="0.26662">
        <ele>167.6</ele>
        <time>2016-02-20T14:21:43Z</time>
      </trkpt>
      <trkpt lat="43.97757" lon="0.26687">
        <ele>166.4</ele>
        <time>2016-02-20T14:21:45Z</time>
      </trkpt>
      <trkpt lat="43.97746" lon="0.26724">
        <ele>165.4</ele>
        <time>2016-02-20T14:21:48Z</time>
      </trkpt>
      <trkpt lat="43.97734" lon="0.26761">
        <ele>164.2</ele>
        <time>2016-02-20T14:21:51Z</time>
      </trkpt>
      <trkpt lat="43.9773" lon="0.26773">
        <ele>163.8</ele>
        <time>2016-02-20T14:21:52Z</time>
      </trkpt>
      <trkpt lat="43.97726" lon="0.26786">
        <ele>162.6</ele>
        <time>2016-02-20T14:21:53Z</time>
      </trkpt>
      <trkpt lat="43.97718" lon="0.2683">
        <ele>162</ele>
        <time>2016-02-20T14:21:56Z</time>
      </trkpt>
      <trkpt lat="43.97716" lon="0.26845">
        <ele>161</ele>
        <time>2016-02-20T14:21:57Z</time>
      </trkpt>
      <trkpt lat="43.97712" lon="0.26891">
        <ele>159.8</ele>
        <time>2016-02-20T14:22:00Z</time>
      </trkpt>
      <trkpt lat="43.97709" lon="0.26907">
        <ele>158.6</ele>
        <time>2016-02-20T14:22:01Z</time>
      </trkpt>
      <trkpt lat="43.97702" lon="0.26954">
        <ele>157.4</ele>
        <time>2016-02-20T14:22:04Z</time>
      </trkpt>
      <trkpt lat="43.97697" lon="0.26986">
        <ele>156</ele>
        <time>2016-02-20T14:22:06Z</time>
      </trkpt>
      <trkpt lat="43.97692" lon="0.27019">
        <ele>154.6</ele>
        <time>2016-02-20T14:22:08Z</time>
      </trkpt>
      <trkpt lat="43.97687" lon="0.27054">
        <ele>152.6</ele>
        <time>2016-02-20T14:22:10Z</time>
      </trkpt>
      <trkpt lat="43.97684" lon="0.27071">
        <ele>152.2</ele>
        <time>2016-02-20T14:22:11Z</time>
      </trkpt>
      <trkpt lat="43.97677" lon="0.27123">
        <ele>151.6</ele>
        <time>2016-02-20T14:22:14Z</time>
      </trkpt>
      <trkpt lat="43.97668" lon="0.27173">
        <ele>150.2</ele>
        <time>2016-02-20T14:22:17Z</time>
      </trkpt>
      <trkpt lat="43.97662" lon="0.27204">
        <ele>149.6</ele>
        <time>2016-02-20T14:22:19Z</time>
      </trkpt>
      <trkpt lat="43.97651" lon="0.27262">
        <ele>149.4</ele>
        <time>2016-02-20T14:22:23Z</time>
      </trkpt>
      <trkpt lat="43.97648" lon="0.27275">
        <ele>149.2</ele>
        <time>2016-02-20T14:22:24Z</time>
      </trkpt>
      <trkpt lat="43.97645" lon="0.27288">
        <ele>149.6</ele>
        <time>2016-02-20T14:22:25Z</time>
      </trkpt>
      <trkpt lat="43.97633" lon="0.27346">
        <ele>149.6</ele>
        <time>2016-02-20T14:22:30Z</time>
      </trkpt>
      <trkpt lat="43.97621" lon="0.27406">
        <ele>149.4</ele>
        <time>2016-02-20T14:22:36Z</time>
      </trkpt>
      <trkpt lat="43.97608" lon="0.27462">
        <ele>149.4</ele>
        <time>2016-02-20T14:22:43Z</time>
      </trkpt>
      <trkpt lat="43.97598" lon="0.27512">
        <ele>148</ele>
        <time>2016-02-20T14:22:49Z</time>
      </trkpt>
      <trkpt lat="43.97594" lon="0.2753">
        <ele>148</ele>
        <time>2016-02-20T14:22:51Z</time>
      </trkpt>
      <trkpt lat="43.97589" lon="0.2756">
        <ele>146.8</ele>
        <time>2016-02-20T14:22:54Z</time>
      </trkpt>
      <trkpt lat="43.97579" lon="0.27603">
        <ele>145.6</ele>
        <time>2016-02-20T14:22:58Z</time>
      </trkpt>
      <trkpt lat="43.97572" lon="0.27637">
        <ele>144.6</ele>
        <time>2016-02-20T14:23:01Z</time>
      </trkpt>
      <trkpt lat="43.97567" lon="0.27661">
        <ele>143.4</ele>
        <time>2016-02-20T14:23:03Z</time>
      </trkpt>
      <trkpt lat="43.97565" lon="0.27674">
        <ele>142.8</ele>
        <time>2016-02-20T14:23:04Z</time>
      </trkpt>
      <trkpt lat="43.97561" lon="0.27699">
        <ele>142.4</ele>
        <time>2016-02-20T14:23:06Z</time>
      </trkpt>
      <trkpt lat="43.97558" lon="0.2774">
        <ele>141</ele>
        <time>2016-02-20T14:23:09Z</time>
      </trkpt>
      <trkpt lat="43.97557" lon="0.27768">
        <ele>139.4</ele>
        <time>2016-02-20T14:23:11Z</time>
      </trkpt>
      <trkpt lat="43.97558" lon="0.27796">
        <ele>138.2</ele>
        <time>2016-02-20T14:23:13Z</time>
      </trkpt>
      <trkpt lat="43.9756" lon="0.27825">
        <ele>136.8</ele>
        <time>2016-02-20T14:23:15Z</time>
      </trkpt>
      <trkpt lat="43.97563" lon="0.27854">
        <ele>135.8</ele>
        <time>2016-02-20T14:23:17Z</time>
      </trkpt>
      <trkpt lat="43.97564" lon="0.27884">
        <ele>134.6</ele>
        <time>2016-02-20T14:23:19Z</time>
      </trkpt>
      <trkpt lat="43.97566" lon="0.27914">
        <ele>133.4</ele>
        <time>2016-02-20T14:23:21Z</time>
      </trkpt>
      <trkpt lat="43.97574" lon="0.27972">
        <ele>132.4</ele>
        <time>2016-02-20T14:23:25Z</time>
      </trkpt>
      <trkpt lat="43.97578" lon="0.27985">
        <ele>132</ele>
        <time>2016-02-20T14:23:26Z</time>
      </trkpt>
      <trkpt lat="43.97588" lon="0.2801">
        <ele>130.8</ele>
        <time>2016-02-20T14:23:28Z</time>
      </trkpt>
      <trkpt lat="43.97593" lon="0.28023">
        <ele>130.6</ele>
        <time>2016-02-20T14:23:29Z</time>
      </trkpt>
      <trkpt lat="43.97604" lon="0.28048">
        <ele>129.4</ele>
        <time>2016-02-20T14:23:31Z</time>
      </trkpt>
      <trkpt lat="43.97614" lon="0.28075">
        <ele>128</ele>
        <time>2016-02-20T14:23:33Z</time>
      </trkpt>
      <trkpt lat="43.97625" lon="0.28103">
        <ele>126.6</ele>
        <time>2016-02-20T14:23:35Z</time>
      </trkpt>
      <trkpt lat="43.97636" lon="0.28132">
        <ele>125.6</ele>
        <time>2016-02-20T14:23:37Z</time>
      </trkpt>
      <trkpt lat="43.97643" lon="0.28162">
        <ele>124.8</ele>
        <time>2016-02-20T14:23:39Z</time>
      </trkpt>
      <trkpt lat="43.97644" lon="0.28221">
        <ele>124.6</ele>
        <time>2016-02-20T14:23:43Z</time>
      </trkpt>
      <trkpt lat="43.97643" lon="0.28235">
        <ele>124.6</ele>
        <time>2016-02-20T14:23:44Z</time>
      </trkpt>
      <trkpt lat="43.97638" lon="0.28272">
        <ele>124.8</ele>
        <time>2016-02-20T14:23:47Z</time>
      </trkpt>
      <trkpt lat="43.97635" lon="0.28284">
        <ele>124.6</ele>
        <time>2016-02-20T14:23:48Z</time>
      </trkpt>
      <trkpt lat="43.97616" lon="0.28351">
        <ele>123.2</ele>
        <time>2016-02-20T14:23:54Z</time>
      </trkpt>
      <trkpt lat="43.97611" lon="0.28361">
        <ele>123</ele>
        <time>2016-02-20T14:23:55Z</time>
      </trkpt>
      <trkpt lat="43.97601" lon="0.2838">
        <ele>123</ele>
        <time>2016-02-20T14:23:57Z</time>
      </trkpt>
      <trkpt lat="43.97586" lon="0.28406">
        <ele>122</ele>
        <time>2016-02-20T14:24:00Z</time>
      </trkpt>
      <trkpt lat="43.97574" lon="0.28434">
        <ele>121.8</ele>
        <time>2016-02-20T14:24:03Z</time>
      </trkpt>
      <trkpt lat="43.97561" lon="0.28474">
        <ele>121</ele>
        <time>2016-02-20T14:24:07Z</time>
      </trkpt>
      <trkpt lat="43.97555" lon="0.28494">
        <ele>121</ele>
        <time>2016-02-20T14:24:09Z</time>
      </trkpt>
      <trkpt lat="43.97536" lon="0.28549">
        <ele>120</ele>
        <time>2016-02-20T14:24:15Z</time>
      </trkpt>
      <trkpt lat="43.97526" lon="0.28576">
        <ele>119.8</ele>
        <time>2016-02-20T14:24:18Z</time>
      </trkpt>
      <trkpt lat="43.97518" lon="0.28601">
        <ele>118.8</ele>
        <time>2016-02-20T14:24:21Z</time>
      </trkpt>
      <trkpt lat="43.97504" lon="0.28645">
        <ele>118.6</ele>
        <time>2016-02-20T14:24:26Z</time>
      </trkpt>
      <trkpt lat="43.97489" lon="0.28676">
        <ele>117.8</ele>
        <time>2016-02-20T14:24:30Z</time>
      </trkpt>
      <trkpt lat="43.97481" lon="0.2869">
        <ele>117.2</ele>
        <time>2016-02-20T14:24:32Z</time>
      </trkpt>
      <trkpt lat="43.97473" lon="0.28702">
        <ele>116.4</ele>
        <time>2016-02-20T14:24:34Z</time>
      </trkpt>
      <trkpt lat="43.97457" lon="0.28727">
        <ele>115.2</ele>
        <time>2016-02-20T14:24:38Z</time>
      </trkpt>
      <trkpt lat="43.97445" lon="0.28748">
        <ele>114.8</ele>
        <time>2016-02-20T14:24:41Z</time>
      </trkpt>
      <trkpt lat="43.97437" lon="0.28763">
        <ele>114.4</ele>
        <time>2016-02-20T14:24:43Z</time>
      </trkpt>
      <trkpt lat="43.97429" lon="0.28779">
        <ele>114</ele>
        <time>2016-02-20T14:24:45Z</time>
      </trkpt>
      <trkpt lat="43.9741" lon="0.28822">
        <ele>113</ele>
        <time>2016-02-20T14:24:50Z</time>
      </trkpt>
      <trkpt lat="43.97406" lon="0.28831">
        <ele>112.8</ele>
        <time>2016-02-20T14:24:51Z</time>
      </trkpt>
      <trkpt lat="43.9738" lon="0.28881">
        <ele>111.6</ele>
        <time>2016-02-20T14:24:57Z</time>
      </trkpt>
      <trkpt lat="43.97372" lon="0.28898">
        <ele>111.4</ele>
        <time>2016-02-20T14:24:59Z</time>
      </trkpt>
      <trkpt lat="43.97345" lon="0.28956">
        <ele>111</ele>
        <time>2016-02-20T14:25:06Z</time>
      </trkpt>
      <trkpt lat="43.9732" lon="0.29012">
        <ele>110.8</ele>
        <time>2016-02-20T14:25:13Z</time>
      </trkpt>
      <trkpt lat="43.97314" lon="0.29028">
        <ele>110.6</ele>
        <time>2016-02-20T14:25:15Z</time>
      </trkpt>
      <trkpt lat="43.97297" lon="0.29077">
        <ele>109.8</ele>
        <time>2016-02-20T14:25:21Z</time>
      </trkpt>
      <trkpt lat="43.97294" lon="0.29086">
        <ele>109.6</ele>
        <time>2016-02-20T14:25:22Z</time>
      </trkpt>
      <trkpt lat="43.97286" lon="0.29118">
        <ele>109.8</ele>
        <time>2016-02-20T14:25:26Z</time>
      </trkpt>
      <trkpt lat="43.97285" lon="0.29126">
        <ele>110</ele>
        <time>2016-02-20T14:25:27Z</time>
      </trkpt>
      <trkpt lat="43.97289" lon="0.29159">
        <ele>109.8</ele>
        <time>2016-02-20T14:25:31Z</time>
      </trkpt>
      <trkpt lat="43.9729" lon="0.29167">
        <ele>109.4</ele>
        <time>2016-02-20T14:25:32Z</time>
      </trkpt>
      <trkpt lat="43.97294" lon="0.29189">
        <ele>109.2</ele>
        <time>2016-02-20T14:25:35Z</time>
      </trkpt>
      <trkpt lat="43.97297" lon="0.29211">
        <ele>109.2</ele>
        <time>2016-02-20T14:25:38Z</time>
      </trkpt>
      <trkpt lat="43.973" lon="0.29241">
        <ele>108.4</ele>
        <time>2016-02-20T14:25:42Z</time>
      </trkpt>
      <trkpt lat="43.973" lon="0.29256">
        <ele>108</ele>
        <time>2016-02-20T14:25:44Z</time>
      </trkpt>
      <trkpt lat="43.97298" lon="0.29281">
        <ele>107.2</ele>
        <time>2016-02-20T14:25:47Z</time>
      </trkpt>
      <trkpt lat="43.97295" lon="0.29309">
        <ele>106.2</ele>
        <time>2016-02-20T14:25:50Z</time>
      </trkpt>
      <trkpt lat="43.97285" lon="0.29374">
        <ele>105.6</ele>
        <time>2016-02-20T14:25:57Z</time>
      </trkpt>
      <trkpt lat="43.97279" lon="0.29408">
        <ele>105</ele>
        <time>2016-02-20T14:26:01Z</time>
      </trkpt>
      <trkpt lat="43.97269" lon="0.29456">
        <ele>104.6</ele>
        <time>2016-02-20T14:26:07Z</time>
      </trkpt>
      <trkpt lat="43.97266" lon="0.29471">
        <ele>104.6</ele>
        <time>2016-02-20T14:26:09Z</time>
      </trkpt>
      <trkpt lat="43.97262" lon="0.29495">
        <ele>104.2</ele>
        <time>2016-02-20T14:26:12Z</time>
      </trkpt>
      <trkpt lat="43.97257" lon="0.29527">
        <ele>103.8</ele>
        <time>2016-02-20T14:26:16Z</time>
      </trkpt>
      <trkpt lat="43.97252" lon="0.2956">
        <ele>103</ele>
        <time>2016-02-20T14:26:20Z</time>
      </trkpt>
      <trkpt lat="43.97251" lon="0.29568">
        <ele>102.6</ele>
        <time>2016-02-20T14:26:21Z</time>
      </trkpt>
      <trkpt lat="43.97246" lon="0.29614">
        <ele>101.4</ele>
        <time>2016-02-20T14:26:26Z</time>
      </trkpt>
      <trkpt lat="43.97245" lon="0.29624">
        <ele>101.2</ele>
        <time>2016-02-20T14:26:27Z</time>
      </trkpt>
      <trkpt lat="43.9724" lon="0.29654">
        <ele>100</ele>
        <time>2016-02-20T14:26:30Z</time>
      </trkpt>
      <trkpt lat="43.97238" lon="0.29662">
        <ele>99.6</ele>
        <time>2016-02-20T14:26:31Z</time>
      </trkpt>
      <trkpt lat="43.97232" lon="0.29676">
        <ele>98.8</ele>
        <time>2016-02-20T14:26:33Z</time>
      </trkpt>
      <trkpt lat="43.9723" lon="0.29682">
        <ele>98.4</ele>
        <time>2016-02-20T14:26:34Z</time>
      </trkpt>
      <trkpt lat="43.97223" lon="0.29693">
        <ele>98</ele>
        <time>2016-02-20T14:26:36Z</time>
      </trkpt>
      <trkpt lat="43.97217" lon="0.29705">
        <ele>97.6</ele>
        <time>2016-02-20T14:26:38Z</time>
      </trkpt>
      <trkpt lat="43.97203" lon="0.29731">
        <ele>96.8</ele>
        <time>2016-02-20T14:26:42Z</time>
      </trkpt>
      <trkpt lat="43.97199" lon="0.29739">
        <ele>96.6</ele>
        <time>2016-02-20T14:26:43Z</time>
      </trkpt>
      <trkpt lat="43.97184" lon="0.29774">
        <ele>96</ele>
        <time>2016-02-20T14:26:47Z</time>
      </trkpt>
      <trkpt lat="43.97176" lon="0.29804">
        <ele>96.2</ele>
        <time>2016-02-20T14:26:50Z</time>
      </trkpt>
      <trkpt lat="43.97172" lon="0.29824">
        <ele>95.6</ele>
        <time>2016-02-20T14:26:52Z</time>
      </trkpt>
      <trkpt lat="43.97177" lon="0.29866">
        <ele>94.6</ele>
        <time>2016-02-20T14:26:56Z</time>
      </trkpt>
      <trkpt lat="43.97178" lon="0.29876">
        <ele>94.4</ele>
        <time>2016-02-20T14:26:57Z</time>
      </trkpt>
      <trkpt lat="43.97188" lon="0.29925">
        <ele>93.8</ele>
        <time>2016-02-20T14:27:02Z</time>
      </trkpt>
      <trkpt lat="43.97199" lon="0.29989">
        <ele>93.6</ele>
        <time>2016-02-20T14:27:09Z</time>
      </trkpt>
      <trkpt lat="43.97201" lon="0.29997">
        <ele>93.4</ele>
        <time>2016-02-20T14:27:10Z</time>
      </trkpt>
      <trkpt lat="43.97208" lon="0.3003">
        <ele>93.4</ele>
        <time>2016-02-20T14:27:14Z</time>
      </trkpt>
      <trkpt lat="43.97209" lon="0.30038">
        <ele>93.4</ele>
        <time>2016-02-20T14:27:15Z</time>
      </trkpt>
      <trkpt lat="43.97219" lon="0.30104">
        <ele>93.2</ele>
        <time>2016-02-20T14:27:23Z</time>
      </trkpt>
      <trkpt lat="43.9723" lon="0.30175">
        <ele>93.2</ele>
        <time>2016-02-20T14:27:32Z</time>
      </trkpt>
      <trkpt lat="43.97236" lon="0.30222">
        <ele>93.2</ele>
        <time>2016-02-20T14:27:38Z</time>
      </trkpt>
      <trkpt lat="43.9724" lon="0.30283">
        <ele>93.8</ele>
        <time>2016-02-20T14:27:46Z</time>
      </trkpt>
      <trkpt lat="43.97234" lon="0.30304">
        <ele>94.6</ele>
        <time>2016-02-20T14:27:50Z</time>
      </trkpt>
      <trkpt lat="43.9722" lon="0.3034">
        <ele>94.8</ele>
        <time>2016-02-20T14:27:57Z</time>
      </trkpt>
      <trkpt lat="43.97212" lon="0.30373">
        <ele>95.2</ele>
        <time>2016-02-20T14:28:03Z</time>
      </trkpt>
      <trkpt lat="43.97209" lon="0.30386">
        <ele>95.8</ele>
        <time>2016-02-20T14:28:06Z</time>
      </trkpt>
      <trkpt lat="43.97205" lon="0.30404">
        <ele>96.8</ele>
        <time>2016-02-20T14:28:10Z</time>
      </trkpt>
      <trkpt lat="43.97202" lon="0.3041">
        <ele>97</ele>
        <time>2016-02-20T14:28:12Z</time>
      </trkpt>
      <trkpt lat="43.97198" lon="0.30412">
        <ele>97.2</ele>
        <time>2016-02-20T14:28:14Z</time>
      </trkpt>
      <trkpt lat="43.97186" lon="0.30405">
        <ele>97.2</ele>
        <time>2016-02-20T14:28:19Z</time>
      </trkpt>
      <trkpt lat="43.97169" lon="0.30398">
        <ele>97</ele>
        <time>2016-02-20T14:28:25Z</time>
      </trkpt>
      <trkpt lat="43.97152" lon="0.30389">
        <ele>96.6</ele>
        <time>2016-02-20T14:28:31Z</time>
      </trkpt>
      <trkpt lat="43.97129" lon="0.30377">
        <ele>96.4</ele>
        <time>2016-02-20T14:28:38Z</time>
      </trkpt>
      <trkpt lat="43.971" lon="0.30364">
        <ele>96.4</ele>
        <time>2016-02-20T14:28:47Z</time>
      </trkpt>
      <trkpt lat="43.97083" lon="0.30357">
        <ele>96.8</ele>
        <time>2016-02-20T14:28:52Z</time>
      </trkpt>
      <trkpt lat="43.9706" lon="0.30346">
        <ele>97.2</ele>
        <time>2016-02-20T14:28:59Z</time>
      </trkpt>
      <trkpt lat="43.97039" lon="0.30335">
        <ele>97.6</ele>
        <time>2016-02-20T14:29:06Z</time>
      </trkpt>
      <trkpt lat="43.97024" lon="0.30331">
        <ele>97.8</ele>
        <time>2016-02-20T14:29:12Z</time>
      </trkpt>
      <trkpt lat="43.97021" lon="0.30329">
        <ele>97.8</ele>
        <time>2016-02-20T14:29:15Z</time>
      </trkpt>
      <trkpt lat="43.9702" lon="0.30328">
        <ele>97.8</ele>
        <time>2016-02-20T14:29:16Z</time>
      </trkpt>
      <trkpt lat="43.97019" lon="0.30328">
        <ele>97.4</ele>
        <time>2016-02-20T14:29:18Z</time>
      </trkpt>
      <trkpt lat="43.97016" lon="0.30327">
        <ele>97.8</ele>
        <time>2016-02-20T14:32:15Z</time>
      </trkpt>
      <trkpt lat="43.9701" lon="0.30324">
        <ele>98</ele>
        <time>2016-02-20T14:32:17Z</time>
      </trkpt>
      <trkpt lat="43.96995" lon="0.3032">
        <ele>97.6</ele>
        <time>2016-02-20T14:32:21Z</time>
      </trkpt>
      <trkpt lat="43.96973" lon="0.30312">
        <ele>97.4</ele>
        <time>2016-02-20T14:32:27Z</time>
      </trkpt>
      <trkpt lat="43.96961" lon="0.30309">
        <ele>97</ele>
        <time>2016-02-20T14:32:30Z</time>
      </trkpt>
      <trkpt lat="43.96953" lon="0.30306">
        <ele>97.2</ele>
        <time>2016-02-20T14:32:32Z</time>
      </trkpt>
      <trkpt lat="43.9694" lon="0.30302">
        <ele>96.8</ele>
        <time>2016-02-20T14:32:35Z</time>
      </trkpt>
      <trkpt lat="43.96917" lon="0.30295">
        <ele>96.6</ele>
        <time>2016-02-20T14:32:41Z</time>
      </trkpt>
      <trkpt lat="43.96882" lon="0.30283">
        <ele>96.2</ele>
        <time>2016-02-20T14:32:50Z</time>
      </trkpt>
      <trkpt lat="43.96878" lon="0.30282">
        <ele>96.2</ele>
        <time>2016-02-20T14:32:51Z</time>
      </trkpt>
      <trkpt lat="43.96852" lon="0.30276">
        <ele>96</ele>
        <time>2016-02-20T14:32:57Z</time>
      </trkpt>
      <trkpt lat="43.96842" lon="0.30275">
        <ele>95.8</ele>
        <time>2016-02-20T14:32:59Z</time>
      </trkpt>
      <trkpt lat="43.96813" lon="0.3027">
        <ele>95.4</ele>
        <time>2016-02-20T14:33:05Z</time>
      </trkpt>
      <trkpt lat="43.96804" lon="0.30268">
        <ele>95.4</ele>
        <time>2016-02-20T14:33:07Z</time>
      </trkpt>
      <trkpt lat="43.9679" lon="0.30265">
        <ele>95.4</ele>
        <time>2016-02-20T14:33:10Z</time>
      </trkpt>
      <trkpt lat="43.96786" lon="0.30266">
        <ele>95.8</ele>
        <time>2016-02-20T14:33:11Z</time>
      </trkpt>
      <trkpt lat="43.96771" lon="0.30265">
        <ele>95.4</ele>
        <time>2016-02-20T14:33:14Z</time>
      </trkpt>
      <trkpt lat="43.96765" lon="0.30265">
        <ele>95.4</ele>
        <time>2016-02-20T14:33:15Z</time>
      </trkpt>
      <trkpt lat="43.9676" lon="0.30265">
        <ele>95.4</ele>
        <time>2016-02-20T14:33:16Z</time>
      </trkpt>
      <trkpt lat="43.96755" lon="0.30265">
        <ele>95.4</ele>
        <time>2016-02-20T14:33:17Z</time>
      </trkpt>
      <trkpt lat="43.96729" lon="0.30264">
        <ele>95</ele>
        <time>2016-02-20T14:33:22Z</time>
      </trkpt>
      <trkpt lat="43.96714" lon="0.30264">
        <ele>94.6</ele>
        <time>2016-02-20T14:33:25Z</time>
      </trkpt>
      <trkpt lat="43.96689" lon="0.30265">
        <ele>94.4</ele>
        <time>2016-02-20T14:33:30Z</time>
      </trkpt>
      <trkpt lat="43.96646" lon="0.30266">
        <ele>94.8</ele>
        <time>2016-02-20T14:33:39Z</time>
      </trkpt>
      <trkpt lat="43.9661" lon="0.30266">
        <ele>94.8</ele>
        <time>2016-02-20T14:33:47Z</time>
      </trkpt>
      <trkpt lat="43.96575" lon="0.30265">
        <ele>95</ele>
        <time>2016-02-20T14:33:55Z</time>
      </trkpt>
      <trkpt lat="43.96543" lon="0.30265">
        <ele>95.6</ele>
        <time>2016-02-20T14:34:03Z</time>
      </trkpt>
      <trkpt lat="43.96539" lon="0.30265">
        <ele>95.8</ele>
        <time>2016-02-20T14:34:04Z</time>
      </trkpt>
      <trkpt lat="43.9652" lon="0.30263">
        <ele>96</ele>
        <time>2016-02-20T14:34:09Z</time>
      </trkpt>
      <trkpt lat="43.96484" lon="0.30263">
        <ele>96.2</ele>
        <time>2016-02-20T14:34:18Z</time>
      </trkpt>
      <trkpt lat="43.96438" lon="0.30265">
        <ele>96</ele>
        <time>2016-02-20T14:34:28Z</time>
      </trkpt>
      <trkpt lat="43.96394" lon="0.30268">
        <ele>96.2</ele>
        <time>2016-02-20T14:34:38Z</time>
      </trkpt>
      <trkpt lat="43.96355" lon="0.30272">
        <ele>96</ele>
        <time>2016-02-20T14:34:47Z</time>
      </trkpt>
      <trkpt lat="43.96325" lon="0.30279">
        <ele>96</ele>
        <time>2016-02-20T14:34:55Z</time>
      </trkpt>
      <trkpt lat="43.96314" lon="0.30284">
        <ele>97.4</ele>
        <time>2016-02-20T14:34:58Z</time>
      </trkpt>
      <trkpt lat="43.96307" lon="0.30285">
        <ele>96.6</ele>
        <time>2016-02-20T14:35:00Z</time>
      </trkpt>
      <trkpt lat="43.96278" lon="0.30288">
        <ele>97.2</ele>
        <time>2016-02-20T14:35:08Z</time>
      </trkpt>
      <trkpt lat="43.96245" lon="0.30287">
        <ele>97</ele>
        <time>2016-02-20T14:35:17Z</time>
      </trkpt>
      <trkpt lat="43.96214" lon="0.30285">
        <ele>96.8</ele>
        <time>2016-02-20T14:35:25Z</time>
      </trkpt>
      <trkpt lat="43.96189" lon="0.30284">
        <ele>96.8</ele>
        <time>2016-02-20T14:35:31Z</time>
      </trkpt>
      <trkpt lat="43.96161" lon="0.3028">
        <ele>96.8</ele>
        <time>2016-02-20T14:35:37Z</time>
      </trkpt>
      <trkpt lat="43.96123" lon="0.3028">
        <ele>96.4</ele>
        <time>2016-02-20T14:35:45Z</time>
      </trkpt>
      <trkpt lat="43.96102" lon="0.30279">
        <ele>96.6</ele>
        <time>2016-02-20T14:35:51Z</time>
      </trkpt>
      <trkpt lat="43.96067" lon="0.30282">
        <ele>97.2</ele>
        <time>2016-02-20T14:36:01Z</time>
      </trkpt>
      <trkpt lat="43.96044" lon="0.30294">
        <ele>97.8</ele>
        <time>2016-02-20T14:36:08Z</time>
      </trkpt>
      <trkpt lat="43.9603" lon="0.30305">
        <ele>98.4</ele>
        <time>2016-02-20T14:36:13Z</time>
      </trkpt>
      <trkpt lat="43.96026" lon="0.30308">
        <ele>98.8</ele>
        <time>2016-02-20T14:36:15Z</time>
      </trkpt>
      <trkpt lat="43.96023" lon="0.30309">
        <ele>99.4</ele>
        <time>2016-02-20T14:36:17Z</time>
      </trkpt>
      <trkpt lat="43.96019" lon="0.30313">
        <ele>99.4</ele>
        <time>2016-02-20T14:36:20Z</time>
      </trkpt>
      <trkpt lat="43.96016" lon="0.30318">
        <ele>99.8</ele>
        <time>2016-02-20T14:36:24Z</time>
      </trkpt>
      <trkpt lat="43.96012" lon="0.30319">
        <ele>100.2</ele>
        <time>2016-02-20T14:36:26Z</time>
      </trkpt>
      <trkpt lat="43.96009" lon="0.30322">
        <ele>100.4</ele>
        <time>2016-02-20T14:36:28Z</time>
      </trkpt>
      <trkpt lat="43.96003" lon="0.30327">
        <ele>100.6</ele>
        <time>2016-02-20T14:36:31Z</time>
      </trkpt>
      <trkpt lat="43.95991" lon="0.30336">
        <ele>101.4</ele>
        <time>2016-02-20T14:36:38Z</time>
      </trkpt>
      <trkpt lat="43.9599" lon="0.30338">
        <ele>101.6</ele>
        <time>2016-02-20T14:36:39Z</time>
      </trkpt>
      <trkpt lat="43.9598" lon="0.30346">
        <ele>102.2</ele>
        <time>2016-02-20T14:36:45Z</time>
      </trkpt>
      <trkpt lat="43.95975" lon="0.30348">
        <ele>102.6</ele>
        <time>2016-02-20T14:36:47Z</time>
      </trkpt>
      <trkpt lat="43.95969" lon="0.30353">
        <ele>103</ele>
        <time>2016-02-20T14:36:51Z</time>
      </trkpt>
      <trkpt lat="43.95961" lon="0.30359">
        <ele>103.6</ele>
        <time>2016-02-20T14:36:55Z</time>
      </trkpt>
      <trkpt lat="43.9596" lon="0.3036">
        <ele>102.6</ele>
        <time>2016-02-20T14:36:56Z</time>
      </trkpt>
      <trkpt lat="43.95958" lon="0.30361">
        <ele>104.6</ele>
        <time>2016-02-20T14:36:57Z</time>
      </trkpt>
      <trkpt lat="43.95957" lon="0.30362">
        <ele>104</ele>
        <time>2016-02-20T14:36:58Z</time>
      </trkpt>
      <trkpt lat="43.95955" lon="0.30364">
        <ele>105.6</ele>
        <time>2016-02-20T14:36:59Z</time>
      </trkpt>
      <trkpt lat="43.95953" lon="0.30364">
        <ele>104.4</ele>
        <time>2016-02-20T14:37:00Z</time>
      </trkpt>
      <trkpt lat="43.95943" lon="0.3037">
        <ele>105.4</ele>
        <time>2016-02-20T14:37:04Z</time>
      </trkpt>
      <trkpt lat="43.95938" lon="0.30374">
        <ele>105.6</ele>
        <time>2016-02-20T14:37:06Z</time>
      </trkpt>
      <trkpt lat="43.95929" lon="0.3038">
        <ele>106.2</ele>
        <time>2016-02-20T14:37:10Z</time>
      </trkpt>
      <trkpt lat="43.95923" lon="0.30384">
        <ele>106.6</ele>
        <time>2016-02-20T14:37:13Z</time>
      </trkpt>
      <trkpt lat="43.95916" lon="0.30389">
        <ele>107</ele>
        <time>2016-02-20T14:37:16Z</time>
      </trkpt>
      <trkpt lat="43.95908" lon="0.30394">
        <ele>107.6</ele>
        <time>2016-02-20T14:37:20Z</time>
      </trkpt>
      <trkpt lat="43.95902" lon="0.30398">
        <ele>108.2</ele>
        <time>2016-02-20T14:37:23Z</time>
      </trkpt>
      <trkpt lat="43.95891" lon="0.30406">
        <ele>108.8</ele>
        <time>2016-02-20T14:37:29Z</time>
      </trkpt>
      <trkpt lat="43.95889" lon="0.30407">
        <ele>109</ele>
        <time>2016-02-20T14:37:30Z</time>
      </trkpt>
      <trkpt lat="43.95875" lon="0.3042">
        <ele>109.6</ele>
        <time>2016-02-20T14:37:37Z</time>
      </trkpt>
      <trkpt lat="43.9587" lon="0.30426">
        <ele>109.8</ele>
        <time>2016-02-20T14:37:40Z</time>
      </trkpt>
      <trkpt lat="43.95864" lon="0.30433">
        <ele>110</ele>
        <time>2016-02-20T14:37:44Z</time>
      </trkpt>
      <trkpt lat="43.95854" lon="0.30443">
        <ele>110</ele>
        <time>2016-02-20T14:37:50Z</time>
      </trkpt>
      <trkpt lat="43.95843" lon="0.30453">
        <ele>110.2</ele>
        <time>2016-02-20T14:37:57Z</time>
      </trkpt>
      <trkpt lat="43.95837" lon="0.30457">
        <ele>109.8</ele>
        <time>2016-02-20T14:38:04Z</time>
      </trkpt>
      <trkpt lat="43.9583" lon="0.30461">
        <ele>110.2</ele>
        <time>2016-02-20T14:38:54Z</time>
      </trkpt>
      <trkpt lat="43.95825" lon="0.30463">
        <ele>110</ele>
        <time>2016-02-20T14:38:56Z</time>
      </trkpt>
      <trkpt lat="43.95807" lon="0.30472">
        <ele>109.4</ele>
        <time>2016-02-20T14:39:02Z</time>
      </trkpt>
      <trkpt lat="43.95779" lon="0.30488">
        <ele>109</ele>
        <time>2016-02-20T14:39:09Z</time>
      </trkpt>
      <trkpt lat="43.95774" lon="0.30491">
        <ele>108.8</ele>
        <time>2016-02-20T14:39:10Z</time>
      </trkpt>
      <trkpt lat="43.95746" lon="0.30503">
        <ele>108.2</ele>
        <time>2016-02-20T14:39:15Z</time>
      </trkpt>
      <trkpt lat="43.95729" lon="0.30512">
        <ele>107.8</ele>
        <time>2016-02-20T14:39:18Z</time>
      </trkpt>
      <trkpt lat="43.95706" lon="0.30522">
        <ele>107.6</ele>
        <time>2016-02-20T14:39:22Z</time>
      </trkpt>
      <trkpt lat="43.95652" lon="0.3055">
        <ele>107.6</ele>
        <time>2016-02-20T14:39:32Z</time>
      </trkpt>
      <trkpt lat="43.95601" lon="0.30576">
        <ele>107.4</ele>
        <time>2016-02-20T14:39:42Z</time>
      </trkpt>
      <trkpt lat="43.95582" lon="0.30587">
        <ele>107.4</ele>
        <time>2016-02-20T14:39:46Z</time>
      </trkpt>
      <trkpt lat="43.95571" lon="0.3059">
        <ele>107.4</ele>
        <time>2016-02-20T14:39:48Z</time>
      </trkpt>
      <trkpt lat="43.95535" lon="0.30606">
        <ele>106.6</ele>
        <time>2016-02-20T14:39:55Z</time>
      </trkpt>
      <trkpt lat="43.95529" lon="0.30608">
        <ele>106.8</ele>
        <time>2016-02-20T14:39:56Z</time>
      </trkpt>
      <trkpt lat="43.95513" lon="0.30614">
        <ele>106.8</ele>
        <time>2016-02-20T14:39:59Z</time>
      </trkpt>
      <trkpt lat="43.95492" lon="0.30623">
        <ele>106.6</ele>
        <time>2016-02-20T14:40:03Z</time>
      </trkpt>
      <trkpt lat="43.95453" lon="0.30636">
        <ele>107.2</ele>
        <time>2016-02-20T14:40:11Z</time>
      </trkpt>
      <trkpt lat="43.9542" lon="0.30647">
        <ele>107.8</ele>
        <time>2016-02-20T14:40:18Z</time>
      </trkpt>
      <trkpt lat="43.95416" lon="0.30648">
        <ele>107.6</ele>
        <time>2016-02-20T14:40:19Z</time>
      </trkpt>
      <trkpt lat="43.95383" lon="0.30654">
        <ele>108.4</ele>
        <time>2016-02-20T14:40:26Z</time>
      </trkpt>
      <trkpt lat="43.95378" lon="0.30654">
        <ele>108.4</ele>
        <time>2016-02-20T14:40:27Z</time>
      </trkpt>
      <trkpt lat="43.95355" lon="0.30648">
        <ele>107.6</ele>
        <time>2016-02-20T14:40:31Z</time>
      </trkpt>
      <trkpt lat="43.95322" lon="0.30635">
        <ele>106</ele>
        <time>2016-02-20T14:40:36Z</time>
      </trkpt>
      <trkpt lat="43.95307" lon="0.30629">
        <ele>104.6</ele>
        <time>2016-02-20T14:40:38Z</time>
      </trkpt>
      <trkpt lat="43.95285" lon="0.30619">
        <ele>104.6</ele>
        <time>2016-02-20T14:40:41Z</time>
      </trkpt>
      <trkpt lat="43.95237" lon="0.306">
        <ele>104</ele>
        <time>2016-02-20T14:40:48Z</time>
      </trkpt>
      <trkpt lat="43.95215" lon="0.3059">
        <ele>103.8</ele>
        <time>2016-02-20T14:40:52Z</time>
      </trkpt>
      <trkpt lat="43.9521" lon="0.30589">
        <ele>103.8</ele>
        <time>2016-02-20T14:40:53Z</time>
      </trkpt>
      <trkpt lat="43.95206" lon="0.30587">
        <ele>104.2</ele>
        <time>2016-02-20T14:40:54Z</time>
      </trkpt>
      <trkpt lat="43.95192" lon="0.30579">
        <ele>105.4</ele>
        <time>2016-02-20T14:40:58Z</time>
      </trkpt>
      <trkpt lat="43.9519" lon="0.30577">
        <ele>105.6</ele>
        <time>2016-02-20T14:40:59Z</time>
      </trkpt>
      <trkpt lat="43.95179" lon="0.30567">
        <ele>106.6</ele>
        <time>2016-02-20T14:41:03Z</time>
      </trkpt>
      <trkpt lat="43.95172" lon="0.30559">
        <ele>107.2</ele>
        <time>2016-02-20T14:41:06Z</time>
      </trkpt>
      <trkpt lat="43.95165" lon="0.3055">
        <ele>107.8</ele>
        <time>2016-02-20T14:41:09Z</time>
      </trkpt>
      <trkpt lat="43.95157" lon="0.30535">
        <ele>109</ele>
        <time>2016-02-20T14:41:14Z</time>
      </trkpt>
      <trkpt lat="43.95147" lon="0.30519">
        <ele>110.2</ele>
        <time>2016-02-20T14:41:19Z</time>
      </trkpt>
      <trkpt lat="43.95138" lon="0.30506">
        <ele>111.2</ele>
        <time>2016-02-20T14:41:23Z</time>
      </trkpt>
      <trkpt lat="43.95136" lon="0.30503">
        <ele>111.4</ele>
        <time>2016-02-20T14:41:24Z</time>
      </trkpt>
      <trkpt lat="43.95126" lon="0.30486">
        <ele>112.6</ele>
        <time>2016-02-20T14:41:30Z</time>
      </trkpt>
      <trkpt lat="43.95124" lon="0.30483">
        <ele>112.6</ele>
        <time>2016-02-20T14:41:31Z</time>
      </trkpt>
      <trkpt lat="43.95113" lon="0.30468">
        <ele>113.6</ele>
        <time>2016-02-20T14:41:37Z</time>
      </trkpt>
      <trkpt lat="43.9511" lon="0.30463">
        <ele>113.8</ele>
        <time>2016-02-20T14:41:39Z</time>
      </trkpt>
      <trkpt lat="43.95104" lon="0.30456">
        <ele>114</ele>
        <time>2016-02-20T14:41:43Z</time>
      </trkpt>
      <trkpt lat="43.95093" lon="0.30437">
        <ele>113.8</ele>
        <time>2016-02-20T14:41:49Z</time>
      </trkpt>
      <trkpt lat="43.95083" lon="0.30427">
        <ele>113.2</ele>
        <time>2016-02-20T14:41:54Z</time>
      </trkpt>
      <trkpt lat="43.95082" lon="0.30426">
        <ele>113.2</ele>
        <time>2016-02-20T14:41:58Z</time>
      </trkpt>
      <trkpt lat="43.95082" lon="0.30422">
        <ele>112.8</ele>
        <time>2016-02-20T14:49:06Z</time>
      </trkpt>
      <trkpt lat="43.95079" lon="0.30427">
        <ele>112.8</ele>
        <time>2016-02-20T14:51:10Z</time>
      </trkpt>
      <trkpt lat="43.95079" lon="0.3043">
        <ele>112.8</ele>
        <time>2016-02-20T14:51:11Z</time>
      </trkpt>
      <trkpt lat="43.95085" lon="0.30447">
        <ele>113.6</ele>
        <time>2016-02-20T14:51:16Z</time>
      </trkpt>
      <trkpt lat="43.9509" lon="0.30459">
        <ele>114</ele>
        <time>2016-02-20T14:51:20Z</time>
      </trkpt>
      <trkpt lat="43.95092" lon="0.30465">
        <ele>114.4</ele>
        <time>2016-02-20T14:51:22Z</time>
      </trkpt>
      <trkpt lat="43.95096" lon="0.30482">
        <ele>114.4</ele>
        <time>2016-02-20T14:51:27Z</time>
      </trkpt>
      <trkpt lat="43.95098" lon="0.30498">
        <ele>115.2</ele>
        <time>2016-02-20T14:51:31Z</time>
      </trkpt>
      <trkpt lat="43.95098" lon="0.30506">
        <ele>115.4</ele>
        <time>2016-02-20T14:51:33Z</time>
      </trkpt>
      <trkpt lat="43.95097" lon="0.30533">
        <ele>116</ele>
        <time>2016-02-20T14:51:40Z</time>
      </trkpt>
      <trkpt lat="43.95096" lon="0.3054">
        <ele>116.4</ele>
        <time>2016-02-20T14:51:42Z</time>
      </trkpt>
      <trkpt lat="43.95091" lon="0.30569">
        <ele>117.4</ele>
        <time>2016-02-20T14:51:50Z</time>
      </trkpt>
      <trkpt lat="43.95091" lon="0.30572">
        <ele>117.6</ele>
        <time>2016-02-20T14:51:51Z</time>
      </trkpt>
      <trkpt lat="43.95086" lon="0.30596">
        <ele>117.8</ele>
        <time>2016-02-20T14:51:58Z</time>
      </trkpt>
      <trkpt lat="43.95081" lon="0.30624">
        <ele>118</ele>
        <time>2016-02-20T14:52:05Z</time>
      </trkpt>
      <trkpt lat="43.95075" lon="0.30657">
        <ele>118.4</ele>
        <time>2016-02-20T14:52:13Z</time>
      </trkpt>
      <trkpt lat="43.95071" lon="0.3068">
        <ele>118.6</ele>
        <time>2016-02-20T14:52:19Z</time>
      </trkpt>
      <trkpt lat="43.9507" lon="0.30684">
        <ele>118.6</ele>
        <time>2016-02-20T14:52:20Z</time>
      </trkpt>
      <trkpt lat="43.95063" lon="0.30707">
        <ele>118.6</ele>
        <time>2016-02-20T14:52:26Z</time>
      </trkpt>
      <trkpt lat="43.95057" lon="0.3071">
        <ele>119</ele>
        <time>2016-02-20T14:52:28Z</time>
      </trkpt>
      <trkpt lat="43.95055" lon="0.3071">
        <ele>119</ele>
        <time>2016-02-20T14:52:29Z</time>
      </trkpt>
      <trkpt lat="43.95049" lon="0.30711">
        <ele>119.8</ele>
        <time>2016-02-20T14:52:32Z</time>
      </trkpt>
      <trkpt lat="43.95042" lon="0.30712">
        <ele>120.8</ele>
        <time>2016-02-20T14:52:36Z</time>
      </trkpt>
      <trkpt lat="43.9504" lon="0.30712">
        <ele>121.2</ele>
        <time>2016-02-20T14:52:37Z</time>
      </trkpt>
      <trkpt lat="43.9503" lon="0.30712">
        <ele>122.2</ele>
        <time>2016-02-20T14:52:42Z</time>
      </trkpt>
      <trkpt lat="43.95028" lon="0.30711">
        <ele>122.4</ele>
        <time>2016-02-20T14:52:43Z</time>
      </trkpt>
      <trkpt lat="43.95021" lon="0.30712">
        <ele>123.4</ele>
        <time>2016-02-20T14:52:47Z</time>
      </trkpt>
      <trkpt lat="43.9502" lon="0.30711">
        <ele>123.4</ele>
        <time>2016-02-20T14:52:48Z</time>
      </trkpt>
      <trkpt lat="43.95012" lon="0.30712">
        <ele>124.6</ele>
        <time>2016-02-20T14:52:52Z</time>
      </trkpt>
      <trkpt lat="43.95008" lon="0.30711">
        <ele>125.2</ele>
        <time>2016-02-20T14:52:54Z</time>
      </trkpt>
      <trkpt lat="43.95004" lon="0.3071">
        <ele>125.8</ele>
        <time>2016-02-20T14:52:56Z</time>
      </trkpt>
      <trkpt lat="43.94997" lon="0.30712">
        <ele>126.8</ele>
        <time>2016-02-20T14:53:00Z</time>
      </trkpt>
      <trkpt lat="43.9499" lon="0.30711">
        <ele>128</ele>
        <time>2016-02-20T14:53:04Z</time>
      </trkpt>
      <trkpt lat="43.94982" lon="0.30709">
        <ele>129</ele>
        <time>2016-02-20T14:53:08Z</time>
      </trkpt>
      <trkpt lat="43.94974" lon="0.30712">
        <ele>130.2</ele>
        <time>2016-02-20T14:53:12Z</time>
      </trkpt>
      <trkpt lat="43.94969" lon="0.30714">
        <ele>131</ele>
        <time>2016-02-20T14:53:15Z</time>
      </trkpt>
      <trkpt lat="43.94967" lon="0.30715">
        <ele>131.2</ele>
        <time>2016-02-20T14:53:16Z</time>
      </trkpt>
      <trkpt lat="43.94961" lon="0.30718">
        <ele>132.2</ele>
        <time>2016-02-20T14:53:20Z</time>
      </trkpt>
      <trkpt lat="43.94949" lon="0.30728">
        <ele>133.2</ele>
        <time>2016-02-20T14:53:28Z</time>
      </trkpt>
      <trkpt lat="43.94948" lon="0.30729">
        <ele>133.4</ele>
        <time>2016-02-20T14:53:29Z</time>
      </trkpt>
      <trkpt lat="43.94944" lon="0.30733">
        <ele>133.8</ele>
        <time>2016-02-20T14:53:33Z</time>
      </trkpt>
      <trkpt lat="43.94942" lon="0.30733">
        <ele>134</ele>
        <time>2016-02-20T14:53:38Z</time>
      </trkpt>
      <trkpt lat="43.9494" lon="0.30735">
        <ele>134.4</ele>
        <time>2016-02-20T14:53:44Z</time>
      </trkpt>
      <trkpt lat="43.94938" lon="0.30736">
        <ele>134.4</ele>
        <time>2016-02-20T14:53:45Z</time>
      </trkpt>
      <trkpt lat="43.94929" lon="0.3074">
        <ele>135</ele>
        <time>2016-02-20T14:53:52Z</time>
      </trkpt>
      <trkpt lat="43.94923" lon="0.30744">
        <ele>135.2</ele>
        <time>2016-02-20T14:53:56Z</time>
      </trkpt>
      <trkpt lat="43.9492" lon="0.30744">
        <ele>135.8</ele>
        <time>2016-02-20T14:53:58Z</time>
      </trkpt>
      <trkpt lat="43.94911" lon="0.30748">
        <ele>136.2</ele>
        <time>2016-02-20T14:54:04Z</time>
      </trkpt>
      <trkpt lat="43.94904" lon="0.30748">
        <ele>136.8</ele>
        <time>2016-02-20T14:54:08Z</time>
      </trkpt>
      <trkpt lat="43.94901" lon="0.30748">
        <ele>137.2</ele>
        <time>2016-02-20T14:54:10Z</time>
      </trkpt>
      <trkpt lat="43.94897" lon="0.30747">
        <ele>137.6</ele>
        <time>2016-02-20T14:54:13Z</time>
      </trkpt>
      <trkpt lat="43.94892" lon="0.30747">
        <ele>138</ele>
        <time>2016-02-20T14:54:15Z</time>
      </trkpt>
      <trkpt lat="43.94884" lon="0.30747">
        <ele>139</ele>
        <time>2016-02-20T14:54:20Z</time>
      </trkpt>
      <trkpt lat="43.94882" lon="0.30746">
        <ele>139.2</ele>
        <time>2016-02-20T14:54:21Z</time>
      </trkpt>
      <trkpt lat="43.94872" lon="0.30744">
        <ele>140.2</ele>
        <time>2016-02-20T14:54:28Z</time>
      </trkpt>
      <trkpt lat="43.94871" lon="0.30745">
        <ele>140.4</ele>
        <time>2016-02-20T14:54:29Z</time>
      </trkpt>
      <trkpt lat="43.94867" lon="0.30743">
        <ele>140.8</ele>
        <time>2016-02-20T14:54:32Z</time>
      </trkpt>
      <trkpt lat="43.94867" lon="0.30743">
        <ele>140.8</ele>
        <time>2016-02-20T14:54:33Z</time>
      </trkpt>
      <trkpt lat="43.94859" lon="0.30746">
        <ele>140.8</ele>
        <time>2016-02-20T14:56:53Z</time>
      </trkpt>
      <trkpt lat="43.94852" lon="0.30746">
        <ele>141.4</ele>
        <time>2016-02-20T14:56:56Z</time>
      </trkpt>
      <trkpt lat="43.94839" lon="0.3075">
        <ele>142.4</ele>
        <time>2016-02-20T14:57:01Z</time>
      </trkpt>
      <trkpt lat="43.9483" lon="0.30755">
        <ele>142.4</ele>
        <time>2016-02-20T14:57:04Z</time>
      </trkpt>
      <trkpt lat="43.94815" lon="0.30762">
        <ele>142.8</ele>
        <time>2016-02-20T14:57:09Z</time>
      </trkpt>
      <trkpt lat="43.948" lon="0.3077">
        <ele>143.6</ele>
        <time>2016-02-20T14:57:14Z</time>
      </trkpt>
      <trkpt lat="43.94795" lon="0.30773">
        <ele>143.2</ele>
        <time>2016-02-20T14:57:16Z</time>
      </trkpt>
      <trkpt lat="43.94781" lon="0.3078">
        <ele>144.6</ele>
        <time>2016-02-20T14:57:21Z</time>
      </trkpt>
      <trkpt lat="43.94775" lon="0.30783">
        <ele>144.8</ele>
        <time>2016-02-20T14:57:23Z</time>
      </trkpt>
      <trkpt lat="43.9475" lon="0.30795">
        <ele>145.6</ele>
        <time>2016-02-20T14:57:31Z</time>
      </trkpt>
      <trkpt lat="43.94744" lon="0.308">
        <ele>145.6</ele>
        <time>2016-02-20T14:57:33Z</time>
      </trkpt>
      <trkpt lat="43.94727" lon="0.30817">
        <ele>146</ele>
        <time>2016-02-20T14:57:39Z</time>
      </trkpt>
      <trkpt lat="43.94715" lon="0.30827">
        <ele>146.6</ele>
        <time>2016-02-20T14:57:43Z</time>
      </trkpt>
      <trkpt lat="43.94708" lon="0.30835">
        <ele>146.6</ele>
        <time>2016-02-20T14:57:45Z</time>
      </trkpt>
      <trkpt lat="43.94685" lon="0.30858">
        <ele>147.2</ele>
        <time>2016-02-20T14:57:52Z</time>
      </trkpt>
      <trkpt lat="43.94674" lon="0.3087">
        <ele>147.6</ele>
        <time>2016-02-20T14:57:56Z</time>
      </trkpt>
      <trkpt lat="43.94667" lon="0.30883">
        <ele>148.2</ele>
        <time>2016-02-20T14:57:59Z</time>
      </trkpt>
      <trkpt lat="43.94651" lon="0.30918">
        <ele>148.4</ele>
        <time>2016-02-20T14:58:07Z</time>
      </trkpt>
      <trkpt lat="43.94649" lon="0.30922">
        <ele>149</ele>
        <time>2016-02-20T14:58:08Z</time>
      </trkpt>
      <trkpt lat="43.9464" lon="0.30946">
        <ele>149.6</ele>
        <time>2016-02-20T14:58:13Z</time>
      </trkpt>
      <trkpt lat="43.94638" lon="0.3095">
        <ele>149.8</ele>
        <time>2016-02-20T14:58:14Z</time>
      </trkpt>
      <trkpt lat="43.94625" lon="0.30986">
        <ele>150.2</ele>
        <time>2016-02-20T14:58:21Z</time>
      </trkpt>
      <trkpt lat="43.94623" lon="0.30991">
        <ele>150.4</ele>
        <time>2016-02-20T14:58:22Z</time>
      </trkpt>
      <trkpt lat="43.9461" lon="0.31024">
        <ele>151.4</ele>
        <time>2016-02-20T14:58:29Z</time>
      </trkpt>
      <trkpt lat="43.94608" lon="0.31028">
        <ele>150.8</ele>
        <time>2016-02-20T14:58:30Z</time>
      </trkpt>
      <trkpt lat="43.94593" lon="0.3105">
        <ele>152.4</ele>
        <time>2016-02-20T14:58:36Z</time>
      </trkpt>
      <trkpt lat="43.9459" lon="0.31052">
        <ele>152.2</ele>
        <time>2016-02-20T14:58:37Z</time>
      </trkpt>
      <trkpt lat="43.94577" lon="0.31063">
        <ele>153.2</ele>
        <time>2016-02-20T14:58:41Z</time>
      </trkpt>
      <trkpt lat="43.94575" lon="0.31065">
        <ele>153.6</ele>
        <time>2016-02-20T14:58:42Z</time>
      </trkpt>
      <trkpt lat="43.94568" lon="0.31071">
        <ele>154.8</ele>
        <time>2016-02-20T14:58:45Z</time>
      </trkpt>
      <trkpt lat="43.94563" lon="0.31076">
        <ele>155.8</ele>
        <time>2016-02-20T14:58:50Z</time>
      </trkpt>
      <trkpt lat="43.94562" lon="0.31078">
        <ele>155.8</ele>
        <time>2016-02-20T14:58:51Z</time>
      </trkpt>
      <trkpt lat="43.94561" lon="0.31078">
        <ele>155.8</ele>
        <time>2016-02-20T14:58:52Z</time>
      </trkpt>
      <trkpt lat="43.94556" lon="0.31082">
        <ele>156.4</ele>
        <time>2016-02-20T14:58:56Z</time>
      </trkpt>
      <trkpt lat="43.94548" lon="0.31081">
        <ele>156.8</ele>
        <time>2016-02-20T14:59:01Z</time>
      </trkpt>
      <trkpt lat="43.94547" lon="0.31082">
        <ele>157.2</ele>
        <time>2016-02-20T14:59:02Z</time>
      </trkpt>
      <trkpt lat="43.94545" lon="0.31082">
        <ele>157.2</ele>
        <time>2016-02-20T14:59:03Z</time>
      </trkpt>
      <trkpt lat="43.94536" lon="0.3108">
        <ele>158</ele>
        <time>2016-02-20T14:59:08Z</time>
      </trkpt>
      <trkpt lat="43.94535" lon="0.31079">
        <ele>158</ele>
        <time>2016-02-20T14:59:09Z</time>
      </trkpt>
      <trkpt lat="43.94528" lon="0.31077">
        <ele>159</ele>
        <time>2016-02-20T14:59:14Z</time>
      </trkpt>
      <trkpt lat="43.94525" lon="0.31075">
        <ele>159.4</ele>
        <time>2016-02-20T14:59:16Z</time>
      </trkpt>
      <trkpt lat="43.94516" lon="0.31074">
        <ele>160.2</ele>
        <time>2016-02-20T14:59:20Z</time>
      </trkpt>
      <trkpt lat="43.9451" lon="0.31073">
        <ele>160.8</ele>
        <time>2016-02-20T14:59:23Z</time>
      </trkpt>
      <trkpt lat="43.94503" lon="0.3107">
        <ele>161.4</ele>
        <time>2016-02-20T14:59:26Z</time>
      </trkpt>
      <trkpt lat="43.94496" lon="0.31069">
        <ele>161.6</ele>
        <time>2016-02-20T14:59:30Z</time>
      </trkpt>
      <trkpt lat="43.94485" lon="0.31065">
        <ele>162.2</ele>
        <time>2016-02-20T14:59:36Z</time>
      </trkpt>
      <trkpt lat="43.94479" lon="0.31064">
        <ele>162.4</ele>
        <time>2016-02-20T14:59:39Z</time>
      </trkpt>
      <trkpt lat="43.94469" lon="0.3106">
        <ele>163</ele>
        <time>2016-02-20T14:59:44Z</time>
      </trkpt>
      <trkpt lat="43.94452" lon="0.31055">
        <ele>163</ele>
        <time>2016-02-20T14:59:52Z</time>
      </trkpt>
      <trkpt lat="43.94446" lon="0.31053">
        <ele>163.4</ele>
        <time>2016-02-20T14:59:55Z</time>
      </trkpt>
      <trkpt lat="43.94441" lon="0.31052">
        <ele>163.6</ele>
        <time>2016-02-20T14:59:58Z</time>
      </trkpt>
      <trkpt lat="43.94431" lon="0.31049">
        <ele>164.4</ele>
        <time>2016-02-20T15:00:04Z</time>
      </trkpt>
      <trkpt lat="43.94424" lon="0.31051">
        <ele>165.6</ele>
        <time>2016-02-20T15:00:09Z</time>
      </trkpt>
      <trkpt lat="43.94421" lon="0.31052">
        <ele>165.8</ele>
        <time>2016-02-20T15:00:11Z</time>
      </trkpt>
      <trkpt lat="43.94414" lon="0.31048">
        <ele>166.2</ele>
        <time>2016-02-20T15:00:16Z</time>
      </trkpt>
      <trkpt lat="43.94411" lon="0.31046">
        <ele>166.4</ele>
        <time>2016-02-20T15:00:18Z</time>
      </trkpt>
      <trkpt lat="43.94407" lon="0.31048">
        <ele>166.6</ele>
        <time>2016-02-20T15:00:21Z</time>
      </trkpt>
      <trkpt lat="43.944" lon="0.31057">
        <ele>167.4</ele>
        <time>2016-02-20T15:00:27Z</time>
      </trkpt>
      <trkpt lat="43.94399" lon="0.31058">
        <ele>167.2</ele>
        <time>2016-02-20T15:00:28Z</time>
      </trkpt>
      <trkpt lat="43.94392" lon="0.31067">
        <ele>167.4</ele>
        <time>2016-02-20T15:00:35Z</time>
      </trkpt>
      <trkpt lat="43.94385" lon="0.31073">
        <ele>167</ele>
        <time>2016-02-20T15:00:41Z</time>
      </trkpt>
      <trkpt lat="43.94379" lon="0.31081">
        <ele>166.8</ele>
        <time>2016-02-20T15:00:46Z</time>
      </trkpt>
      <trkpt lat="43.94378" lon="0.31081">
        <ele>166.8</ele>
        <time>2016-02-20T15:00:47Z</time>
      </trkpt>
      <trkpt lat="43.94373" lon="0.31091">
        <ele>167.2</ele>
        <time>2016-02-20T15:00:52Z</time>
      </trkpt>
      <trkpt lat="43.94365" lon="0.31109">
        <ele>167</ele>
        <time>2016-02-20T15:00:59Z</time>
      </trkpt>
      <trkpt lat="43.94361" lon="0.31127">
        <ele>167.4</ele>
        <time>2016-02-20T15:01:06Z</time>
      </trkpt>
      <trkpt lat="43.94361" lon="0.31129">
        <ele>167.4</ele>
        <time>2016-02-20T15:01:07Z</time>
      </trkpt>
      <trkpt lat="43.94364" lon="0.31132">
        <ele>167.8</ele>
        <time>2016-02-20T15:01:09Z</time>
      </trkpt>
      <trkpt lat="43.94367" lon="0.31136">
        <ele>167.8</ele>
        <time>2016-02-20T15:01:11Z</time>
      </trkpt>
      <trkpt lat="43.94377" lon="0.31143">
        <ele>167.6</ele>
        <time>2016-02-20T15:01:18Z</time>
      </trkpt>
      <trkpt lat="43.94379" lon="0.31143">
        <ele>167.6</ele>
        <time>2016-02-20T15:01:19Z</time>
      </trkpt>
      <trkpt lat="43.94386" lon="0.31138">
        <ele>167.6</ele>
        <time>2016-02-20T15:01:23Z</time>
      </trkpt>
      <trkpt lat="43.94394" lon="0.31126">
        <ele>167.6</ele>
        <time>2016-02-20T15:01:29Z</time>
      </trkpt>
      <trkpt lat="43.94393" lon="0.31122">
        <ele>167.8</ele>
        <time>2016-02-20T15:01:34Z</time>
      </trkpt>
      <trkpt lat="43.94391" lon="0.31119">
        <ele>167.6</ele>
        <time>2016-02-20T15:01:36Z</time>
      </trkpt>
      <trkpt lat="43.94386" lon="0.31114">
        <ele>167.4</ele>
        <time>2016-02-20T15:01:39Z</time>
      </trkpt>
      <trkpt lat="43.94379" lon="0.31102">
        <ele>167.4</ele>
        <time>2016-02-20T15:07:26Z</time>
      </trkpt>
      <trkpt lat="43.94376" lon="0.31096">
        <ele>167.2</ele>
        <time>2016-02-20T15:07:29Z</time>
      </trkpt>
      <trkpt lat="43.94381" lon="0.31088">
        <ele>167.4</ele>
        <time>2016-02-20T15:07:33Z</time>
      </trkpt>
      <trkpt lat="43.94392" lon="0.31074">
        <ele>167</ele>
        <time>2016-02-20T15:07:39Z</time>
      </trkpt>
      <trkpt lat="43.94398" lon="0.31065">
        <ele>167.8</ele>
        <time>2016-02-20T15:07:46Z</time>
      </trkpt>
      <trkpt lat="43.944" lon="0.31062">
        <ele>167.6</ele>
        <time>2016-02-20T15:07:49Z</time>
      </trkpt>
      <trkpt lat="43.94402" lon="0.31056">
        <ele>167.6</ele>
        <time>2016-02-20T15:07:52Z</time>
      </trkpt>
      <trkpt lat="43.94406" lon="0.31051">
        <ele>167.4</ele>
        <time>2016-02-20T15:07:55Z</time>
      </trkpt>
      <trkpt lat="43.94408" lon="0.31046">
        <ele>167.2</ele>
        <time>2016-02-20T15:07:58Z</time>
      </trkpt>
      <trkpt lat="43.94408" lon="0.31042">
        <ele>166.8</ele>
        <time>2016-02-20T15:08:00Z</time>
      </trkpt>
      <trkpt lat="43.94411" lon="0.31041">
        <ele>166.6</ele>
        <time>2016-02-20T15:08:02Z</time>
      </trkpt>
      <trkpt lat="43.94412" lon="0.31042">
        <ele>166.6</ele>
        <time>2016-02-20T15:08:03Z</time>
      </trkpt>
      <trkpt lat="43.94413" lon="0.31044">
        <ele>166.4</ele>
        <time>2016-02-20T15:08:07Z</time>
      </trkpt>
      <trkpt lat="43.94414" lon="0.31036">
        <ele>166.2</ele>
        <time>2016-02-20T15:09:15Z</time>
      </trkpt>
      <trkpt lat="43.94413" lon="0.31031">
        <ele>166.4</ele>
        <time>2016-02-20T15:09:17Z</time>
      </trkpt>
      <trkpt lat="43.94414" lon="0.31029">
        <ele>166.2</ele>
        <time>2016-02-20T15:09:18Z</time>
      </trkpt>
      <trkpt lat="43.94413" lon="0.31026">
        <ele>166.2</ele>
        <time>2016-02-20T15:09:20Z</time>
      </trkpt>
      <trkpt lat="43.94411" lon="0.31023">
        <ele>166.2</ele>
        <time>2016-02-20T15:09:22Z</time>
      </trkpt>
      <trkpt lat="43.94411" lon="0.31022">
        <ele>166.2</ele>
        <time>2016-02-20T15:09:24Z</time>
      </trkpt>
      <trkpt lat="43.94412" lon="0.31023">
        <ele>166.2</ele>
        <time>2016-02-20T15:09:27Z</time>
      </trkpt>
      <trkpt lat="43.94413" lon="0.31017">
        <ele>165.6</ele>
        <time>2016-02-20T15:13:57Z</time>
      </trkpt>
      <trkpt lat="43.94414" lon="0.31011">
        <ele>165.4</ele>
        <time>2016-02-20T15:13:59Z</time>
      </trkpt>
      <trkpt lat="43.94416" lon="0.3099">
        <ele>164.2</ele>
        <time>2016-02-20T15:14:07Z</time>
      </trkpt>
      <trkpt lat="43.94417" lon="0.30984">
        <ele>163.8</ele>
        <time>2016-02-20T15:14:09Z</time>
      </trkpt>
      <trkpt lat="43.94418" lon="0.30974">
        <ele>163.2</ele>
        <time>2016-02-20T15:14:12Z</time>
      </trkpt>
      <trkpt lat="43.94418" lon="0.30969">
        <ele>162.8</ele>
        <time>2016-02-20T15:14:14Z</time>
      </trkpt>
      <trkpt lat="43.94418" lon="0.30961">
        <ele>162</ele>
        <time>2016-02-20T15:14:18Z</time>
      </trkpt>
      <trkpt lat="43.94418" lon="0.30958">
        <ele>162</ele>
        <time>2016-02-20T15:14:20Z</time>
      </trkpt>
      <trkpt lat="43.94412" lon="0.30949">
        <ele>161.6</ele>
        <time>2016-02-20T15:14:50Z</time>
      </trkpt>
      <trkpt lat="43.94405" lon="0.30943">
        <ele>160.6</ele>
        <time>2016-02-20T15:14:52Z</time>
      </trkpt>
      <trkpt lat="43.94395" lon="0.30934">
        <ele>160</ele>
        <time>2016-02-20T15:14:54Z</time>
      </trkpt>
      <trkpt lat="43.9439" lon="0.30928">
        <ele>159.2</ele>
        <time>2016-02-20T15:14:55Z</time>
      </trkpt>
      <trkpt lat="43.94378" lon="0.30913">
        <ele>157.8</ele>
        <time>2016-02-20T15:14:57Z</time>
      </trkpt>
      <trkpt lat="43.94364" lon="0.30895">
        <ele>155.8</ele>
        <time>2016-02-20T15:14:59Z</time>
      </trkpt>
      <trkpt lat="43.94357" lon="0.30885">
        <ele>154.6</ele>
        <time>2016-02-20T15:15:00Z</time>
      </trkpt>
      <trkpt lat="43.94349" lon="0.30875">
        <ele>154</ele>
        <time>2016-02-20T15:15:01Z</time>
      </trkpt>
      <trkpt lat="43.94342" lon="0.30866">
        <ele>153.4</ele>
        <time>2016-02-20T15:15:02Z</time>
      </trkpt>
      <trkpt lat="43.94334" lon="0.30858">
        <ele>153.2</ele>
        <time>2016-02-20T15:15:03Z</time>
      </trkpt>
      <trkpt lat="43.94318" lon="0.30845">
        <ele>153</ele>
        <time>2016-02-20T15:15:05Z</time>
      </trkpt>
      <trkpt lat="43.94306" lon="0.30834">
        <ele>153.4</ele>
        <time>2016-02-20T15:15:07Z</time>
      </trkpt>
      <trkpt lat="43.94302" lon="0.30829">
        <ele>154.2</ele>
        <time>2016-02-20T15:15:08Z</time>
      </trkpt>
      <trkpt lat="43.94295" lon="0.30822">
        <ele>154.8</ele>
        <time>2016-02-20T15:15:10Z</time>
      </trkpt>
      <trkpt lat="43.94293" lon="0.30819">
        <ele>155.2</ele>
        <time>2016-02-20T15:15:11Z</time>
      </trkpt>
      <trkpt lat="43.9429" lon="0.30814">
        <ele>156</ele>
        <time>2016-02-20T15:15:13Z</time>
      </trkpt>
      <trkpt lat="43.94285" lon="0.30805">
        <ele>156.2</ele>
        <time>2016-02-20T15:15:16Z</time>
      </trkpt>
      <trkpt lat="43.94276" lon="0.30792">
        <ele>156.8</ele>
        <time>2016-02-20T15:15:21Z</time>
      </trkpt>
      <trkpt lat="43.94271" lon="0.30784">
        <ele>157</ele>
        <time>2016-02-20T15:15:24Z</time>
      </trkpt>
      <trkpt lat="43.94261" lon="0.30771">
        <ele>157</ele>
        <time>2016-02-20T15:15:29Z</time>
      </trkpt>
      <trkpt lat="43.94245" lon="0.3075">
        <ele>157</ele>
        <time>2016-02-20T15:15:36Z</time>
      </trkpt>
      <trkpt lat="43.94223" lon="0.30738">
        <ele>156.2</ele>
        <time>2016-02-20T15:15:42Z</time>
      </trkpt>
      <trkpt lat="43.94215" lon="0.30737">
        <ele>156.2</ele>
        <time>2016-02-20T15:15:44Z</time>
      </trkpt>
      <trkpt lat="43.94202" lon="0.3074">
        <ele>156.2</ele>
        <time>2016-02-20T15:15:47Z</time>
      </trkpt>
      <trkpt lat="43.94188" lon="0.30742">
        <ele>156.6</ele>
        <time>2016-02-20T15:15:50Z</time>
      </trkpt>
      <trkpt lat="43.94179" lon="0.30746">
        <ele>156.6</ele>
        <time>2016-02-20T15:15:52Z</time>
      </trkpt>
      <trkpt lat="43.94174" lon="0.30748">
        <ele>157</ele>
        <time>2016-02-20T15:15:53Z</time>
      </trkpt>
      <trkpt lat="43.94151" lon="0.30751">
        <ele>157.6</ele>
        <time>2016-02-20T15:15:58Z</time>
      </trkpt>
      <trkpt lat="43.94134" lon="0.30748">
        <ele>158</ele>
        <time>2016-02-20T15:16:02Z</time>
      </trkpt>
      <trkpt lat="43.9413" lon="0.30746">
        <ele>158</ele>
        <time>2016-02-20T15:16:03Z</time>
      </trkpt>
      <trkpt lat="43.94126" lon="0.30743">
        <ele>158.2</ele>
        <time>2016-02-20T15:16:04Z</time>
      </trkpt>
      <trkpt lat="43.94122" lon="0.30741">
        <ele>158.6</ele>
        <time>2016-02-20T15:16:05Z</time>
      </trkpt>
      <trkpt lat="43.94108" lon="0.30729">
        <ele>159</ele>
        <time>2016-02-20T15:16:09Z</time>
      </trkpt>
      <trkpt lat="43.94104" lon="0.30726">
        <ele>159.4</ele>
        <time>2016-02-20T15:16:10Z</time>
      </trkpt>
      <trkpt lat="43.94089" lon="0.30714">
        <ele>160</ele>
        <time>2016-02-20T15:16:16Z</time>
      </trkpt>
      <trkpt lat="43.94088" lon="0.30713">
        <ele>160.2</ele>
        <time>2016-02-20T15:16:17Z</time>
      </trkpt>
      <trkpt lat="43.94081" lon="0.30708">
        <ele>160.4</ele>
        <time>2016-02-20T15:16:22Z</time>
      </trkpt>
      <trkpt lat="43.94073" lon="0.30699">
        <ele>160.2</ele>
        <time>2016-02-20T15:16:29Z</time>
      </trkpt>
      <trkpt lat="43.94067" lon="0.30697">
        <ele>159.8</ele>
        <time>2016-02-20T15:16:33Z</time>
      </trkpt>
      <trkpt lat="43.94066" lon="0.30695">
        <ele>159.6</ele>
        <time>2016-02-20T15:16:34Z</time>
      </trkpt>
      <trkpt lat="43.94064" lon="0.3069">
        <ele>159.2</ele>
        <time>2016-02-20T15:16:38Z</time>
      </trkpt>
      <trkpt lat="43.94063" lon="0.3069">
        <ele>159</ele>
        <time>2016-02-20T15:16:39Z</time>
      </trkpt>
      <trkpt lat="43.94063" lon="0.3069">
        <ele>159</ele>
        <time>2016-02-20T15:16:40Z</time>
      </trkpt>
      <trkpt lat="43.94058" lon="0.30681">
        <ele>158.6</ele>
        <time>2016-02-20T15:17:46Z</time>
      </trkpt>
      <trkpt lat="43.94052" lon="0.30671">
        <ele>158</ele>
        <time>2016-02-20T15:17:48Z</time>
      </trkpt>
      <trkpt lat="43.94043" lon="0.30661">
        <ele>157</ele>
        <time>2016-02-20T15:17:50Z</time>
      </trkpt>
      <trkpt lat="43.94036" lon="0.30656">
        <ele>156.6</ele>
        <time>2016-02-20T15:17:51Z</time>
      </trkpt>
      <trkpt lat="43.9402" lon="0.30647">
        <ele>155</ele>
        <time>2016-02-20T15:17:53Z</time>
      </trkpt>
      <trkpt lat="43.94004" lon="0.30639">
        <ele>153.2</ele>
        <time>2016-02-20T15:17:55Z</time>
      </trkpt>
      <trkpt lat="43.93985" lon="0.30633">
        <ele>151.8</ele>
        <time>2016-02-20T15:17:57Z</time>
      </trkpt>
      <trkpt lat="43.93975" lon="0.30632">
        <ele>151</ele>
        <time>2016-02-20T15:17:58Z</time>
      </trkpt>
      <trkpt lat="43.93965" lon="0.30634">
        <ele>150</ele>
        <time>2016-02-20T15:17:59Z</time>
      </trkpt>
      <trkpt lat="43.93945" lon="0.30641">
        <ele>148.2</ele>
        <time>2016-02-20T15:18:01Z</time>
      </trkpt>
      <trkpt lat="43.93935" lon="0.30644">
        <ele>147.2</ele>
        <time>2016-02-20T15:18:02Z</time>
      </trkpt>
      <trkpt lat="43.93925" lon="0.30643">
        <ele>146.6</ele>
        <time>2016-02-20T15:18:03Z</time>
      </trkpt>
      <trkpt lat="43.93916" lon="0.3064">
        <ele>146.4</ele>
        <time>2016-02-20T15:18:04Z</time>
      </trkpt>
      <trkpt lat="43.93897" lon="0.30626">
        <ele>144.2</ele>
        <time>2016-02-20T15:18:06Z</time>
      </trkpt>
      <trkpt lat="43.93888" lon="0.30618">
        <ele>143</ele>
        <time>2016-02-20T15:18:07Z</time>
      </trkpt>
      <trkpt lat="43.93879" lon="0.3061">
        <ele>141.6</ele>
        <time>2016-02-20T15:18:08Z</time>
      </trkpt>
      <trkpt lat="43.93858" lon="0.30594">
        <ele>140.2</ele>
        <time>2016-02-20T15:18:10Z</time>
      </trkpt>
      <trkpt lat="43.93848" lon="0.30586">
        <ele>139.2</ele>
        <time>2016-02-20T15:18:11Z</time>
      </trkpt>
      <trkpt lat="43.93828" lon="0.30568">
        <ele>136.6</ele>
        <time>2016-02-20T15:18:13Z</time>
      </trkpt>
      <trkpt lat="43.93818" lon="0.3056">
        <ele>135.4</ele>
        <time>2016-02-20T15:18:14Z</time>
      </trkpt>
      <trkpt lat="43.93809" lon="0.30553">
        <ele>134</ele>
        <time>2016-02-20T15:18:15Z</time>
      </trkpt>
      <trkpt lat="43.93802" lon="0.30545">
        <ele>132.8</ele>
        <time>2016-02-20T15:18:16Z</time>
      </trkpt>
      <trkpt lat="43.93791" lon="0.30534">
        <ele>131.2</ele>
        <time>2016-02-20T15:18:18Z</time>
      </trkpt>
      <trkpt lat="43.93788" lon="0.3053">
        <ele>130.4</ele>
        <time>2016-02-20T15:18:19Z</time>
      </trkpt>
      <trkpt lat="43.93786" lon="0.30527">
        <ele>129.8</ele>
        <time>2016-02-20T15:18:20Z</time>
      </trkpt>
      <trkpt lat="43.93782" lon="0.30522">
        <ele>129.2</ele>
        <time>2016-02-20T15:18:23Z</time>
      </trkpt>
      <trkpt lat="43.93781" lon="0.30521">
        <ele>129</ele>
        <time>2016-02-20T15:18:25Z</time>
      </trkpt>
      <trkpt lat="43.9378" lon="0.3052">
        <ele>128.8</ele>
        <time>2016-02-20T15:18:26Z</time>
      </trkpt>
      <trkpt lat="43.9378" lon="0.3052">
        <ele>128.6</ele>
        <time>2016-02-20T15:18:28Z</time>
      </trkpt>
      <trkpt lat="43.93776" lon="0.30516">
        <ele>128.4</ele>
        <time>2016-02-20T15:18:56Z</time>
      </trkpt>
      <trkpt lat="43.93773" lon="0.30513">
        <ele>128</ele>
        <time>2016-02-20T15:18:57Z</time>
      </trkpt>
      <trkpt lat="43.93771" lon="0.3051">
        <ele>127.6</ele>
        <time>2016-02-20T15:18:58Z</time>
      </trkpt>
      <trkpt lat="43.93768" lon="0.30506">
        <ele>127.4</ele>
        <time>2016-02-20T15:18:59Z</time>
      </trkpt>
      <trkpt lat="43.93762" lon="0.30494">
        <ele>127</ele>
        <time>2016-02-20T15:19:01Z</time>
      </trkpt>
      <trkpt lat="43.93759" lon="0.30486">
        <ele>126.6</ele>
        <time>2016-02-20T15:19:02Z</time>
      </trkpt>
      <trkpt lat="43.93752" lon="0.30471">
        <ele>124.6</ele>
        <time>2016-02-20T15:19:04Z</time>
      </trkpt>
      <trkpt lat="43.93745" lon="0.30457">
        <ele>123</ele>
        <time>2016-02-20T15:19:06Z</time>
      </trkpt>
      <trkpt lat="43.93733" lon="0.30449">
        <ele>121.6</ele>
        <time>2016-02-20T15:19:08Z</time>
      </trkpt>
      <trkpt lat="43.93726" lon="0.30447">
        <ele>120.8</ele>
        <time>2016-02-20T15:19:09Z</time>
      </trkpt>
      <trkpt lat="43.93719" lon="0.30447">
        <ele>119.6</ele>
        <time>2016-02-20T15:19:10Z</time>
      </trkpt>
      <trkpt lat="43.93702" lon="0.30449">
        <ele>117.8</ele>
        <time>2016-02-20T15:19:12Z</time>
      </trkpt>
      <trkpt lat="43.93693" lon="0.30451">
        <ele>117.4</ele>
        <time>2016-02-20T15:19:13Z</time>
      </trkpt>
      <trkpt lat="43.93683" lon="0.30451">
        <ele>116.6</ele>
        <time>2016-02-20T15:19:14Z</time>
      </trkpt>
      <trkpt lat="43.93664" lon="0.30453">
        <ele>114.6</ele>
        <time>2016-02-20T15:19:16Z</time>
      </trkpt>
      <trkpt lat="43.93654" lon="0.30455">
        <ele>113.2</ele>
        <time>2016-02-20T15:19:17Z</time>
      </trkpt>
      <trkpt lat="43.93644" lon="0.30458">
        <ele>112.4</ele>
        <time>2016-02-20T15:19:18Z</time>
      </trkpt>
      <trkpt lat="43.93634" lon="0.30462">
        <ele>111.6</ele>
        <time>2016-02-20T15:19:19Z</time>
      </trkpt>
      <trkpt lat="43.93614" lon="0.30472">
        <ele>108.8</ele>
        <time>2016-02-20T15:19:21Z</time>
      </trkpt>
      <trkpt lat="43.93604" lon="0.30479">
        <ele>108.6</ele>
        <time>2016-02-20T15:19:22Z</time>
      </trkpt>
      <trkpt lat="43.93576" lon="0.30501">
        <ele>107.2</ele>
        <time>2016-02-20T15:19:25Z</time>
      </trkpt>
      <trkpt lat="43.93568" lon="0.30509">
        <ele>106.8</ele>
        <time>2016-02-20T15:19:26Z</time>
      </trkpt>
      <trkpt lat="43.9356" lon="0.30516">
        <ele>105.4</ele>
        <time>2016-02-20T15:19:27Z</time>
      </trkpt>
      <trkpt lat="43.93546" lon="0.3053">
        <ele>104.2</ele>
        <time>2016-02-20T15:19:29Z</time>
      </trkpt>
      <trkpt lat="43.93533" lon="0.30543">
        <ele>103</ele>
        <time>2016-02-20T15:19:31Z</time>
      </trkpt>
      <trkpt lat="43.93519" lon="0.30557">
        <ele>101.2</ele>
        <time>2016-02-20T15:19:33Z</time>
      </trkpt>
      <trkpt lat="43.93513" lon="0.30565">
        <ele>100.4</ele>
        <time>2016-02-20T15:19:34Z</time>
      </trkpt>
      <trkpt lat="43.93507" lon="0.30574">
        <ele>100.2</ele>
        <time>2016-02-20T15:19:35Z</time>
      </trkpt>
      <trkpt lat="43.93501" lon="0.30583">
        <ele>100</ele>
        <time>2016-02-20T15:19:36Z</time>
      </trkpt>
      <trkpt lat="43.93473" lon="0.30629">
        <ele>99.4</ele>
        <time>2016-02-20T15:19:41Z</time>
      </trkpt>
      <trkpt lat="43.93468" lon="0.30639">
        <ele>98.8</ele>
        <time>2016-02-20T15:19:42Z</time>
      </trkpt>
      <trkpt lat="43.93445" lon="0.30687">
        <ele>98.4</ele>
        <time>2016-02-20T15:19:47Z</time>
      </trkpt>
      <trkpt lat="43.93434" lon="0.30703">
        <ele>98.4</ele>
        <time>2016-02-20T15:19:49Z</time>
      </trkpt>
      <trkpt lat="43.93422" lon="0.30713">
        <ele>98.8</ele>
        <time>2016-02-20T15:19:51Z</time>
      </trkpt>
      <trkpt lat="43.9341" lon="0.30718">
        <ele>98.6</ele>
        <time>2016-02-20T15:19:53Z</time>
      </trkpt>
      <trkpt lat="43.93399" lon="0.30723">
        <ele>98.4</ele>
        <time>2016-02-20T15:19:55Z</time>
      </trkpt>
      <trkpt lat="43.93394" lon="0.30725">
        <ele>98.2</ele>
        <time>2016-02-20T15:19:56Z</time>
      </trkpt>
      <trkpt lat="43.93361" lon="0.30739">
        <ele>98.6</ele>
        <time>2016-02-20T15:20:03Z</time>
      </trkpt>
      <trkpt lat="43.9333" lon="0.30754">
        <ele>99</ele>
        <time>2016-02-20T15:20:10Z</time>
      </trkpt>
      <trkpt lat="43.93294" lon="0.30769">
        <ele>98.8</ele>
        <time>2016-02-20T15:20:18Z</time>
      </trkpt>
      <trkpt lat="43.93268" lon="0.30776">
        <ele>99.2</ele>
        <time>2016-02-20T15:20:25Z</time>
      </trkpt>
      <trkpt lat="43.93254" lon="0.30782">
        <ele>100</ele>
        <time>2016-02-20T15:20:29Z</time>
      </trkpt>
      <trkpt lat="43.93248" lon="0.30785">
        <ele>100.4</ele>
        <time>2016-02-20T15:20:31Z</time>
      </trkpt>
      <trkpt lat="43.93237" lon="0.30789">
        <ele>101.2</ele>
        <time>2016-02-20T15:20:35Z</time>
      </trkpt>
      <trkpt lat="43.93231" lon="0.3079">
        <ele>101.6</ele>
        <time>2016-02-20T15:20:37Z</time>
      </trkpt>
      <trkpt lat="43.93219" lon="0.30795">
        <ele>102.4</ele>
        <time>2016-02-20T15:20:41Z</time>
      </trkpt>
      <trkpt lat="43.93204" lon="0.30798">
        <ele>102.8</ele>
        <time>2016-02-20T15:20:45Z</time>
      </trkpt>
      <trkpt lat="43.93183" lon="0.30803">
        <ele>103.4</ele>
        <time>2016-02-20T15:20:51Z</time>
      </trkpt>
      <trkpt lat="43.93179" lon="0.30804">
        <ele>103.8</ele>
        <time>2016-02-20T15:20:52Z</time>
      </trkpt>
      <trkpt lat="43.93161" lon="0.3081">
        <ele>103.6</ele>
        <time>2016-02-20T15:20:58Z</time>
      </trkpt>
      <trkpt lat="43.93135" lon="0.30816">
        <ele>103.8</ele>
        <time>2016-02-20T15:21:06Z</time>
      </trkpt>
      <trkpt lat="43.93111" lon="0.30822">
        <ele>104.4</ele>
        <time>2016-02-20T15:21:13Z</time>
      </trkpt>
      <trkpt lat="43.93102" lon="0.30826">
        <ele>104.8</ele>
        <time>2016-02-20T15:21:17Z</time>
      </trkpt>
      <trkpt lat="43.93099" lon="0.30825">
        <ele>104.8</ele>
        <time>2016-02-20T15:21:18Z</time>
      </trkpt>
      <trkpt lat="43.93091" lon="0.30826">
        <ele>105</ele>
        <time>2016-02-20T15:21:21Z</time>
      </trkpt>
      <trkpt lat="43.93086" lon="0.30828">
        <ele>105.2</ele>
        <time>2016-02-20T15:21:23Z</time>
      </trkpt>
      <trkpt lat="43.93076" lon="0.3083">
        <ele>105.6</ele>
        <time>2016-02-20T15:21:27Z</time>
      </trkpt>
      <trkpt lat="43.93072" lon="0.30831">
        <ele>105.6</ele>
        <time>2016-02-20T15:21:29Z</time>
      </trkpt>
      <trkpt lat="43.93053" lon="0.30836">
        <ele>106.2</ele>
        <time>2016-02-20T15:21:37Z</time>
      </trkpt>
      <trkpt lat="43.93046" lon="0.3084">
        <ele>106.6</ele>
        <time>2016-02-20T15:21:40Z</time>
      </trkpt>
      <trkpt lat="43.93031" lon="0.30844">
        <ele>107</ele>
        <time>2016-02-20T15:21:45Z</time>
      </trkpt>
      <trkpt lat="43.93009" lon="0.30852">
        <ele>107.8</ele>
        <time>2016-02-20T15:21:53Z</time>
      </trkpt>
      <trkpt lat="43.93006" lon="0.30853">
        <ele>107.8</ele>
        <time>2016-02-20T15:21:54Z</time>
      </trkpt>
      <trkpt lat="43.92985" lon="0.30862">
        <ele>108</ele>
        <time>2016-02-20T15:22:02Z</time>
      </trkpt>
      <trkpt lat="43.92969" lon="0.30872">
        <ele>107.6</ele>
        <time>2016-02-20T15:22:08Z</time>
      </trkpt>
      <trkpt lat="43.92955" lon="0.3088">
        <ele>107.4</ele>
        <time>2016-02-20T15:22:12Z</time>
      </trkpt>
      <trkpt lat="43.92951" lon="0.30882">
        <ele>107</ele>
        <time>2016-02-20T15:22:13Z</time>
      </trkpt>
      <trkpt lat="43.92941" lon="0.30886">
        <ele>106.8</ele>
        <time>2016-02-20T15:22:15Z</time>
      </trkpt>
      <trkpt lat="43.92931" lon="0.30892">
        <ele>106.2</ele>
        <time>2016-02-20T15:22:17Z</time>
      </trkpt>
      <trkpt lat="43.9292" lon="0.30897">
        <ele>105.6</ele>
        <time>2016-02-20T15:22:19Z</time>
      </trkpt>
      <trkpt lat="43.92913" lon="0.309">
        <ele>105.4</ele>
        <time>2016-02-20T15:22:20Z</time>
      </trkpt>
      <trkpt lat="43.92907" lon="0.30903">
        <ele>104.6</ele>
        <time>2016-02-20T15:22:21Z</time>
      </trkpt>
      <trkpt lat="43.92876" lon="0.30914">
        <ele>103.4</ele>
        <time>2016-02-20T15:22:25Z</time>
      </trkpt>
      <trkpt lat="43.92868" lon="0.30915">
        <ele>103</ele>
        <time>2016-02-20T15:22:26Z</time>
      </trkpt>
      <trkpt lat="43.92853" lon="0.30915">
        <ele>103</ele>
        <time>2016-02-20T15:22:28Z</time>
      </trkpt>
      <trkpt lat="43.92839" lon="0.30912">
        <ele>102.8</ele>
        <time>2016-02-20T15:22:30Z</time>
      </trkpt>
      <trkpt lat="43.92832" lon="0.30911">
        <ele>103</ele>
        <time>2016-02-20T15:22:31Z</time>
      </trkpt>
      <trkpt lat="43.92812" lon="0.30907">
        <ele>102.8</ele>
        <time>2016-02-20T15:22:34Z</time>
      </trkpt>
      <trkpt lat="43.92806" lon="0.30906">
        <ele>102.8</ele>
        <time>2016-02-20T15:22:35Z</time>
      </trkpt>
      <trkpt lat="43.92795" lon="0.30905">
        <ele>103.2</ele>
        <time>2016-02-20T15:22:37Z</time>
      </trkpt>
      <trkpt lat="43.92789" lon="0.30903">
        <ele>103.4</ele>
        <time>2016-02-20T15:22:38Z</time>
      </trkpt>
      <trkpt lat="43.92774" lon="0.30901">
        <ele>103</ele>
        <time>2016-02-20T15:22:41Z</time>
      </trkpt>
      <trkpt lat="43.92765" lon="0.309">
        <ele>103.2</ele>
        <time>2016-02-20T15:22:43Z</time>
      </trkpt>
      <trkpt lat="43.92752" lon="0.30897">
        <ele>103.2</ele>
        <time>2016-02-20T15:22:46Z</time>
      </trkpt>
      <trkpt lat="43.92748" lon="0.30897">
        <ele>103.4</ele>
        <time>2016-02-20T15:22:47Z</time>
      </trkpt>
      <trkpt lat="43.9273" lon="0.30893">
        <ele>103</ele>
        <time>2016-02-20T15:22:52Z</time>
      </trkpt>
      <trkpt lat="43.92712" lon="0.30888">
        <ele>103</ele>
        <time>2016-02-20T15:22:58Z</time>
      </trkpt>
      <trkpt lat="43.92691" lon="0.30883">
        <ele>103</ele>
        <time>2016-02-20T15:23:05Z</time>
      </trkpt>
      <trkpt lat="43.92669" lon="0.30881">
        <ele>103.4</ele>
        <time>2016-02-20T15:23:12Z</time>
      </trkpt>
      <trkpt lat="43.92657" lon="0.30878">
        <ele>103.4</ele>
        <time>2016-02-20T15:23:16Z</time>
      </trkpt>
      <trkpt lat="43.92634" lon="0.30872">
        <ele>103.6</ele>
        <time>2016-02-20T15:23:23Z</time>
      </trkpt>
      <trkpt lat="43.92605" lon="0.30868">
        <ele>103.8</ele>
        <time>2016-02-20T15:23:31Z</time>
      </trkpt>
      <trkpt lat="43.92585" lon="0.30864">
        <ele>103.8</ele>
        <time>2016-02-20T15:23:35Z</time>
      </trkpt>
      <trkpt lat="43.92579" lon="0.30862">
        <ele>104.2</ele>
        <time>2016-02-20T15:23:36Z</time>
      </trkpt>
      <trkpt lat="43.92573" lon="0.3086">
        <ele>104.6</ele>
        <time>2016-02-20T15:23:37Z</time>
      </trkpt>
      <trkpt lat="43.92553" lon="0.30857">
        <ele>104.4</ele>
        <time>2016-02-20T15:23:41Z</time>
      </trkpt>
      <trkpt lat="43.92539" lon="0.30854">
        <ele>104.4</ele>
        <time>2016-02-20T15:23:44Z</time>
      </trkpt>
      <trkpt lat="43.9253" lon="0.30854">
        <ele>104.6</ele>
        <time>2016-02-20T15:23:46Z</time>
      </trkpt>
      <trkpt lat="43.92526" lon="0.30853">
        <ele>104.8</ele>
        <time>2016-02-20T15:23:47Z</time>
      </trkpt>
      <trkpt lat="43.92513" lon="0.30848">
        <ele>105</ele>
        <time>2016-02-20T15:23:50Z</time>
      </trkpt>
      <trkpt lat="43.92496" lon="0.30846">
        <ele>105</ele>
        <time>2016-02-20T15:23:54Z</time>
      </trkpt>
      <trkpt lat="43.92492" lon="0.30844">
        <ele>105</ele>
        <time>2016-02-20T15:23:55Z</time>
      </trkpt>
      <trkpt lat="43.92488" lon="0.30842">
        <ele>105.2</ele>
        <time>2016-02-20T15:23:56Z</time>
      </trkpt>
      <trkpt lat="43.92473" lon="0.30839">
        <ele>105.2</ele>
        <time>2016-02-20T15:24:00Z</time>
      </trkpt>
      <trkpt lat="43.92445" lon="0.30834">
        <ele>104.6</ele>
        <time>2016-02-20T15:24:08Z</time>
      </trkpt>
      <trkpt lat="43.92438" lon="0.30832">
        <ele>104.6</ele>
        <time>2016-02-20T15:24:12Z</time>
      </trkpt>
      <trkpt lat="43.92433" lon="0.30832">
        <ele>104.2</ele>
        <time>2016-02-20T15:24:17Z</time>
      </trkpt>
      <trkpt lat="43.92426" lon="0.3083">
        <ele>104</ele>
        <time>2016-02-20T15:24:59Z</time>
      </trkpt>
      <trkpt lat="43.92424" lon="0.30831">
        <ele>104.2</ele>
        <time>2016-02-20T15:25:00Z</time>
      </trkpt>
      <trkpt lat="43.92419" lon="0.30836">
        <ele>104.2</ele>
        <time>2016-02-20T15:25:03Z</time>
      </trkpt>
      <trkpt lat="43.92414" lon="0.30839">
        <ele>104.6</ele>
        <time>2016-02-20T15:25:05Z</time>
      </trkpt>
      <trkpt lat="43.92395" lon="0.30844">
        <ele>105</ele>
        <time>2016-02-20T15:25:11Z</time>
      </trkpt>
      <trkpt lat="43.92381" lon="0.30843">
        <ele>105.6</ele>
        <time>2016-02-20T15:25:15Z</time>
      </trkpt>
      <trkpt lat="43.92368" lon="0.30839">
        <ele>105.8</ele>
        <time>2016-02-20T15:25:19Z</time>
      </trkpt>
      <trkpt lat="43.92345" lon="0.30829">
        <ele>106.4</ele>
        <time>2016-02-20T15:25:26Z</time>
      </trkpt>
      <trkpt lat="43.92319" lon="0.30814">
        <ele>106.2</ele>
        <time>2016-02-20T15:25:34Z</time>
      </trkpt>
      <trkpt lat="43.92303" lon="0.30805">
        <ele>106.4</ele>
        <time>2016-02-20T15:25:40Z</time>
      </trkpt>
      <trkpt lat="43.92282" lon="0.30793">
        <ele>106.2</ele>
        <time>2016-02-20T15:25:47Z</time>
      </trkpt>
      <trkpt lat="43.92262" lon="0.30781">
        <ele>106.2</ele>
        <time>2016-02-20T15:25:54Z</time>
      </trkpt>
      <trkpt lat="43.92242" lon="0.3077">
        <ele>106</ele>
        <time>2016-02-20T15:26:00Z</time>
      </trkpt>
      <trkpt lat="43.92216" lon="0.30761">
        <ele>105.4</ele>
        <time>2016-02-20T15:26:07Z</time>
      </trkpt>
      <trkpt lat="43.92202" lon="0.30757">
        <ele>105</ele>
        <time>2016-02-20T15:26:10Z</time>
      </trkpt>
      <trkpt lat="43.92188" lon="0.30757">
        <ele>104.6</ele>
        <time>2016-02-20T15:26:13Z</time>
      </trkpt>
      <trkpt lat="43.92183" lon="0.30757">
        <ele>104.4</ele>
        <time>2016-02-20T15:26:14Z</time>
      </trkpt>
      <trkpt lat="43.92168" lon="0.30759">
        <ele>104.2</ele>
        <time>2016-02-20T15:26:17Z</time>
      </trkpt>
      <trkpt lat="43.92157" lon="0.30764">
        <ele>103.6</ele>
        <time>2016-02-20T15:26:19Z</time>
      </trkpt>
      <trkpt lat="43.92152" lon="0.30766">
        <ele>103.4</ele>
        <time>2016-02-20T15:26:20Z</time>
      </trkpt>
      <trkpt lat="43.92116" lon="0.30786">
        <ele>102.8</ele>
        <time>2016-02-20T15:26:27Z</time>
      </trkpt>
      <trkpt lat="43.92076" lon="0.30813">
        <ele>102.6</ele>
        <time>2016-02-20T15:26:35Z</time>
      </trkpt>
      <trkpt lat="43.92056" lon="0.30826">
        <ele>102.4</ele>
        <time>2016-02-20T15:26:39Z</time>
      </trkpt>
      <trkpt lat="43.92032" lon="0.30843">
        <ele>102</ele>
        <time>2016-02-20T15:26:44Z</time>
      </trkpt>
      <trkpt lat="43.92005" lon="0.30863">
        <ele>102</ele>
        <time>2016-02-20T15:26:50Z</time>
      </trkpt>
      <trkpt lat="43.92" lon="0.30866">
        <ele>102</ele>
        <time>2016-02-20T15:26:51Z</time>
      </trkpt>
      <trkpt lat="43.91973" lon="0.30885">
        <ele>101.8</ele>
        <time>2016-02-20T15:26:57Z</time>
      </trkpt>
      <trkpt lat="43.91942" lon="0.30907">
        <ele>101.6</ele>
        <time>2016-02-20T15:27:04Z</time>
      </trkpt>
      <trkpt lat="43.9191" lon="0.30925">
        <ele>101.4</ele>
        <time>2016-02-20T15:27:11Z</time>
      </trkpt>
      <trkpt lat="43.91905" lon="0.30927">
        <ele>101.4</ele>
        <time>2016-02-20T15:27:12Z</time>
      </trkpt>
      <trkpt lat="43.91895" lon="0.30929">
        <ele>101.2</ele>
        <time>2016-02-20T15:27:14Z</time>
      </trkpt>
      <trkpt lat="43.9188" lon="0.3093">
        <ele>101.2</ele>
        <time>2016-02-20T15:27:17Z</time>
      </trkpt>
      <trkpt lat="43.91842" lon="0.30927">
        <ele>101.6</ele>
        <time>2016-02-20T15:27:25Z</time>
      </trkpt>
      <trkpt lat="43.91798" lon="0.30924">
        <ele>102.2</ele>
        <time>2016-02-20T15:27:34Z</time>
      </trkpt>
      <trkpt lat="43.91786" lon="0.30923">
        <ele>102.4</ele>
        <time>2016-02-20T15:27:37Z</time>
      </trkpt>
      <trkpt lat="43.9177" lon="0.30921">
        <ele>103.4</ele>
        <time>2016-02-20T15:27:41Z</time>
      </trkpt>
      <trkpt lat="43.91752" lon="0.3092">
        <ele>104.6</ele>
        <time>2016-02-20T15:27:46Z</time>
      </trkpt>
      <trkpt lat="43.91741" lon="0.30919">
        <ele>105.2</ele>
        <time>2016-02-20T15:27:49Z</time>
      </trkpt>
      <trkpt lat="43.91734" lon="0.30918">
        <ele>105.6</ele>
        <time>2016-02-20T15:27:51Z</time>
      </trkpt>
      <trkpt lat="43.91721" lon="0.30919">
        <ele>106.2</ele>
        <time>2016-02-20T15:27:55Z</time>
      </trkpt>
      <trkpt lat="43.91715" lon="0.30918">
        <ele>106.8</ele>
        <time>2016-02-20T15:27:57Z</time>
      </trkpt>
      <trkpt lat="43.9171" lon="0.30918">
        <ele>107.2</ele>
        <time>2016-02-20T15:27:59Z</time>
      </trkpt>
      <trkpt lat="43.917" lon="0.30917">
        <ele>107.8</ele>
        <time>2016-02-20T15:28:05Z</time>
      </trkpt>
      <trkpt lat="43.9169" lon="0.30917">
        <ele>108.4</ele>
        <time>2016-02-20T15:28:11Z</time>
      </trkpt>
      <trkpt lat="43.91682" lon="0.30914">
        <ele>108.8</ele>
        <time>2016-02-20T15:28:15Z</time>
      </trkpt>
      <trkpt lat="43.91679" lon="0.30914">
        <ele>109</ele>
        <time>2016-02-20T15:28:16Z</time>
      </trkpt>
      <trkpt lat="43.91667" lon="0.30913">
        <ele>110</ele>
        <time>2016-02-20T15:28:21Z</time>
      </trkpt>
      <trkpt lat="43.9166" lon="0.30913">
        <ele>110.4</ele>
        <time>2016-02-20T15:28:24Z</time>
      </trkpt>
      <trkpt lat="43.91646" lon="0.30911">
        <ele>111</ele>
        <time>2016-02-20T15:28:30Z</time>
      </trkpt>
      <trkpt lat="43.91635" lon="0.30914">
        <ele>111.6</ele>
        <time>2016-02-20T15:28:35Z</time>
      </trkpt>
      <trkpt lat="43.91633" lon="0.30916">
        <ele>111.6</ele>
        <time>2016-02-20T15:28:36Z</time>
      </trkpt>
      <trkpt lat="43.91629" lon="0.30922">
        <ele>111.4</ele>
        <time>2016-02-20T15:28:40Z</time>
      </trkpt>
      <trkpt lat="43.91624" lon="0.30911">
        <ele>112</ele>
        <time>2016-02-20T15:29:34Z</time>
      </trkpt>
      <trkpt lat="43.91622" lon="0.30911">
        <ele>112</ele>
        <time>2016-02-20T15:29:35Z</time>
      </trkpt>
      <trkpt lat="43.9162" lon="0.3091">
        <ele>112.4</ele>
        <time>2016-02-20T15:29:36Z</time>
      </trkpt>
      <trkpt lat="43.91613" lon="0.30902">
        <ele>113.2</ele>
        <time>2016-02-20T15:29:40Z</time>
      </trkpt>
      <trkpt lat="43.91611" lon="0.30898">
        <ele>113.4</ele>
        <time>2016-02-20T15:29:42Z</time>
      </trkpt>
      <trkpt lat="43.91611" lon="0.30897">
        <ele>113.6</ele>
        <time>2016-02-20T15:29:43Z</time>
      </trkpt>
      <trkpt lat="43.91611" lon="0.30897">
        <ele>113.6</ele>
        <time>2016-02-20T15:29:45Z</time>
      </trkpt>
      <trkpt lat="43.91611" lon="0.30888">
        <ele>114</ele>
        <time>2016-02-20T15:30:25Z</time>
      </trkpt>
      <trkpt lat="43.91612" lon="0.3088">
        <ele>113.8</ele>
        <time>2016-02-20T15:30:27Z</time>
      </trkpt>
      <trkpt lat="43.91615" lon="0.30849">
        <ele>114.4</ele>
        <time>2016-02-20T15:30:33Z</time>
      </trkpt>
      <trkpt lat="43.91611" lon="0.30809">
        <ele>114.4</ele>
        <time>2016-02-20T15:30:40Z</time>
      </trkpt>
      <trkpt lat="43.9161" lon="0.30803">
        <ele>114.4</ele>
        <time>2016-02-20T15:30:41Z</time>
      </trkpt>
      <trkpt lat="43.91607" lon="0.3079">
        <ele>114.2</ele>
        <time>2016-02-20T15:30:43Z</time>
      </trkpt>
      <trkpt lat="43.91598" lon="0.30766">
        <ele>114.2</ele>
        <time>2016-02-20T15:30:47Z</time>
      </trkpt>
      <trkpt lat="43.91595" lon="0.30761">
        <ele>114.2</ele>
        <time>2016-02-20T15:30:48Z</time>
      </trkpt>
      <trkpt lat="43.91572" lon="0.30726">
        <ele>114.4</ele>
        <time>2016-02-20T15:30:55Z</time>
      </trkpt>
      <trkpt lat="43.91543" lon="0.30704">
        <ele>113.4</ele>
        <time>2016-02-20T15:31:01Z</time>
      </trkpt>
      <trkpt lat="43.91538" lon="0.307">
        <ele>113.2</ele>
        <time>2016-02-20T15:31:02Z</time>
      </trkpt>
      <trkpt lat="43.9151" lon="0.30683">
        <ele>112.2</ele>
        <time>2016-02-20T15:31:07Z</time>
      </trkpt>
      <trkpt lat="43.91504" lon="0.30679">
        <ele>111.8</ele>
        <time>2016-02-20T15:31:08Z</time>
      </trkpt>
      <trkpt lat="43.91481" lon="0.30663">
        <ele>111</ele>
        <time>2016-02-20T15:31:12Z</time>
      </trkpt>
      <trkpt lat="43.91451" lon="0.30645">
        <ele>110</ele>
        <time>2016-02-20T15:31:17Z</time>
      </trkpt>
      <trkpt lat="43.91408" lon="0.30617">
        <ele>108.8</ele>
        <time>2016-02-20T15:31:24Z</time>
      </trkpt>
      <trkpt lat="43.91402" lon="0.30613">
        <ele>108.6</ele>
        <time>2016-02-20T15:31:25Z</time>
      </trkpt>
      <trkpt lat="43.9136" lon="0.30585">
        <ele>107.8</ele>
        <time>2016-02-20T15:31:32Z</time>
      </trkpt>
      <trkpt lat="43.91355" lon="0.30582">
        <ele>107.6</ele>
        <time>2016-02-20T15:31:33Z</time>
      </trkpt>
      <trkpt lat="43.91304" lon="0.30549">
        <ele>107</ele>
        <time>2016-02-20T15:31:42Z</time>
      </trkpt>
      <trkpt lat="43.91271" lon="0.30528">
        <ele>106.8</ele>
        <time>2016-02-20T15:31:48Z</time>
      </trkpt>
      <trkpt lat="43.91256" lon="0.30517">
        <ele>106.8</ele>
        <time>2016-02-20T15:31:51Z</time>
      </trkpt>
      <trkpt lat="43.91225" lon="0.30497">
        <ele>106.2</ele>
        <time>2016-02-20T15:31:57Z</time>
      </trkpt>
      <trkpt lat="43.91195" lon="0.30478">
        <ele>105.8</ele>
        <time>2016-02-20T15:32:03Z</time>
      </trkpt>
      <trkpt lat="43.91185" lon="0.30472">
        <ele>105.6</ele>
        <time>2016-02-20T15:32:05Z</time>
      </trkpt>
      <trkpt lat="43.91148" lon="0.30448">
        <ele>105.8</ele>
        <time>2016-02-20T15:32:13Z</time>
      </trkpt>
      <trkpt lat="43.91119" lon="0.30429">
        <ele>106</ele>
        <time>2016-02-20T15:32:20Z</time>
      </trkpt>
      <trkpt lat="43.91092" lon="0.30411">
        <ele>105.8</ele>
        <time>2016-02-20T15:32:27Z</time>
      </trkpt>
      <trkpt lat="43.91056" lon="0.30388">
        <ele>106.2</ele>
        <time>2016-02-20T15:32:36Z</time>
      </trkpt>
      <trkpt lat="43.91023" lon="0.30367">
        <ele>106.4</ele>
        <time>2016-02-20T15:32:45Z</time>
      </trkpt>
      <trkpt lat="43.91" lon="0.30352">
        <ele>106.4</ele>
        <time>2016-02-20T15:32:52Z</time>
      </trkpt>
      <trkpt lat="43.90993" lon="0.30347">
        <ele>107</ele>
        <time>2016-02-20T15:32:54Z</time>
      </trkpt>
      <trkpt lat="43.90975" lon="0.30335">
        <ele>107.4</ele>
        <time>2016-02-20T15:32:59Z</time>
      </trkpt>
      <trkpt lat="43.90944" lon="0.30314">
        <ele>107.8</ele>
        <time>2016-02-20T15:33:08Z</time>
      </trkpt>
      <trkpt lat="43.9094" lon="0.30312">
        <ele>108</ele>
        <time>2016-02-20T15:33:09Z</time>
      </trkpt>
      <trkpt lat="43.90914" lon="0.30295">
        <ele>108.4</ele>
        <time>2016-02-20T15:33:16Z</time>
      </trkpt>
      <trkpt lat="43.90885" lon="0.30277">
        <ele>108.6</ele>
        <time>2016-02-20T15:33:24Z</time>
      </trkpt>
      <trkpt lat="43.90879" lon="0.30272">
        <ele>109</ele>
        <time>2016-02-20T15:33:26Z</time>
      </trkpt>
      <trkpt lat="43.90865" lon="0.30264">
        <ele>109.2</ele>
        <time>2016-02-20T15:33:30Z</time>
      </trkpt>
      <trkpt lat="43.90838" lon="0.30247">
        <ele>109.4</ele>
        <time>2016-02-20T15:33:38Z</time>
      </trkpt>
      <trkpt lat="43.90807" lon="0.30226">
        <ele>109.4</ele>
        <time>2016-02-20T15:33:47Z</time>
      </trkpt>
      <trkpt lat="43.90774" lon="0.30204">
        <ele>110</ele>
        <time>2016-02-20T15:33:56Z</time>
      </trkpt>
      <trkpt lat="43.90767" lon="0.30199">
        <ele>110.2</ele>
        <time>2016-02-20T15:33:58Z</time>
      </trkpt>
      <trkpt lat="43.90746" lon="0.30187">
        <ele>109.8</ele>
        <time>2016-02-20T15:34:04Z</time>
      </trkpt>
      <trkpt lat="43.90717" lon="0.30167">
        <ele>110</ele>
        <time>2016-02-20T15:34:12Z</time>
      </trkpt>
      <trkpt lat="43.90687" lon="0.30149">
        <ele>110</ele>
        <time>2016-02-20T15:34:21Z</time>
      </trkpt>
      <trkpt lat="43.90656" lon="0.30128">
        <ele>110.2</ele>
        <time>2016-02-20T15:34:29Z</time>
      </trkpt>
      <trkpt lat="43.90624" lon="0.30106">
        <ele>110.2</ele>
        <time>2016-02-20T15:34:37Z</time>
      </trkpt>
      <trkpt lat="43.90588" lon="0.30084">
        <ele>109.6</ele>
        <time>2016-02-20T15:34:45Z</time>
      </trkpt>
      <trkpt lat="43.90561" lon="0.30068">
        <ele>109.4</ele>
        <time>2016-02-20T15:34:51Z</time>
      </trkpt>
      <trkpt lat="43.90556" lon="0.30066">
        <ele>109</ele>
        <time>2016-02-20T15:34:52Z</time>
      </trkpt>
      <trkpt lat="43.90547" lon="0.30059">
        <ele>109</ele>
        <time>2016-02-20T15:34:54Z</time>
      </trkpt>
      <trkpt lat="43.90532" lon="0.3005">
        <ele>108.4</ele>
        <time>2016-02-20T15:34:57Z</time>
      </trkpt>
      <trkpt lat="43.90493" lon="0.30024">
        <ele>108.2</ele>
        <time>2016-02-20T15:35:05Z</time>
      </trkpt>
      <trkpt lat="43.90488" lon="0.3002">
        <ele>107.8</ele>
        <time>2016-02-20T15:35:06Z</time>
      </trkpt>
      <trkpt lat="43.90465" lon="0.29998">
        <ele>107.4</ele>
        <time>2016-02-20T15:35:11Z</time>
      </trkpt>
      <trkpt lat="43.90461" lon="0.29992">
        <ele>107.6</ele>
        <time>2016-02-20T15:35:12Z</time>
      </trkpt>
      <trkpt lat="43.90448" lon="0.29968">
        <ele>107.6</ele>
        <time>2016-02-20T15:35:16Z</time>
      </trkpt>
      <trkpt lat="43.90445" lon="0.29961">
        <ele>107.6</ele>
        <time>2016-02-20T15:35:17Z</time>
      </trkpt>
      <trkpt lat="43.90444" lon="0.29954">
        <ele>107.6</ele>
        <time>2016-02-20T15:35:18Z</time>
      </trkpt>
      <trkpt lat="43.9044" lon="0.29932">
        <ele>107</ele>
        <time>2016-02-20T15:35:21Z</time>
      </trkpt>
      <trkpt lat="43.90439" lon="0.29919">
        <ele>107</ele>
        <time>2016-02-20T15:35:23Z</time>
      </trkpt>
      <trkpt lat="43.90439" lon="0.29906">
        <ele>106.8</ele>
        <time>2016-02-20T15:35:25Z</time>
      </trkpt>
      <trkpt lat="43.90439" lon="0.29899">
        <ele>106.8</ele>
        <time>2016-02-20T15:35:26Z</time>
      </trkpt>
      <trkpt lat="43.90442" lon="0.29879">
        <ele>106.8</ele>
        <time>2016-02-20T15:35:29Z</time>
      </trkpt>
      <trkpt lat="43.90443" lon="0.29872">
        <ele>106.6</ele>
        <time>2016-02-20T15:35:30Z</time>
      </trkpt>
      <trkpt lat="43.90448" lon="0.29851">
        <ele>105.8</ele>
        <time>2016-02-20T15:35:33Z</time>
      </trkpt>
      <trkpt lat="43.90451" lon="0.29836">
        <ele>105.6</ele>
        <time>2016-02-20T15:35:35Z</time>
      </trkpt>
      <trkpt lat="43.9046" lon="0.29804">
        <ele>104.6</ele>
        <time>2016-02-20T15:35:39Z</time>
      </trkpt>
      <trkpt lat="43.90461" lon="0.29797">
        <ele>104.4</ele>
        <time>2016-02-20T15:35:40Z</time>
      </trkpt>
      <trkpt lat="43.90467" lon="0.29771">
        <ele>103.8</ele>
        <time>2016-02-20T15:35:44Z</time>
      </trkpt>
      <trkpt lat="43.90466" lon="0.29765">
        <ele>103.6</ele>
        <time>2016-02-20T15:35:45Z</time>
      </trkpt>
      <trkpt lat="43.90453" lon="0.29756">
        <ele>103.2</ele>
        <time>2016-02-20T15:35:48Z</time>
      </trkpt>
      <trkpt lat="43.90438" lon="0.29748">
        <ele>103.2</ele>
        <time>2016-02-20T15:35:51Z</time>
      </trkpt>
      <trkpt lat="43.90422" lon="0.29741">
        <ele>103.6</ele>
        <time>2016-02-20T15:35:54Z</time>
      </trkpt>
      <trkpt lat="43.90408" lon="0.29735">
        <ele>103.6</ele>
        <time>2016-02-20T15:35:57Z</time>
      </trkpt>
      <trkpt lat="43.90395" lon="0.29728">
        <ele>103.8</ele>
        <time>2016-02-20T15:36:00Z</time>
      </trkpt>
      <trkpt lat="43.9037" lon="0.29714">
        <ele>103.8</ele>
        <time>2016-02-20T15:36:06Z</time>
      </trkpt>
      <trkpt lat="43.90367" lon="0.29712">
        <ele>103.8</ele>
        <time>2016-02-20T15:36:07Z</time>
      </trkpt>
      <trkpt lat="43.9035" lon="0.29702">
        <ele>103.8</ele>
        <time>2016-02-20T15:36:13Z</time>
      </trkpt>
      <trkpt lat="43.90323" lon="0.29686">
        <ele>104</ele>
        <time>2016-02-20T15:36:20Z</time>
      </trkpt>
      <trkpt lat="43.90296" lon="0.29668">
        <ele>104.4</ele>
        <time>2016-02-20T15:36:27Z</time>
      </trkpt>
      <trkpt lat="43.90293" lon="0.29664">
        <ele>104.4</ele>
        <time>2016-02-20T15:36:28Z</time>
      </trkpt>
      <trkpt lat="43.90289" lon="0.29661">
        <ele>104.6</ele>
        <time>2016-02-20T15:36:29Z</time>
      </trkpt>
      <trkpt lat="43.90275" lon="0.29648">
        <ele>104.6</ele>
        <time>2016-02-20T15:36:33Z</time>
      </trkpt>
      <trkpt lat="43.90249" lon="0.29621">
        <ele>104.4</ele>
        <time>2016-02-20T15:36:40Z</time>
      </trkpt>
      <trkpt lat="43.90227" lon="0.29591">
        <ele>104.4</ele>
        <time>2016-02-20T15:36:46Z</time>
      </trkpt>
      <trkpt lat="43.90217" lon="0.29574">
        <ele>104</ele>
        <time>2016-02-20T15:36:49Z</time>
      </trkpt>
      <trkpt lat="43.90209" lon="0.29556">
        <ele>104.2</ele>
        <time>2016-02-20T15:36:52Z</time>
      </trkpt>
      <trkpt lat="43.90186" lon="0.29505">
        <ele>103.8</ele>
        <time>2016-02-20T15:37:01Z</time>
      </trkpt>
      <trkpt lat="43.90167" lon="0.29474">
        <ele>103.4</ele>
        <time>2016-02-20T15:37:07Z</time>
      </trkpt>
      <trkpt lat="43.90164" lon="0.29468">
        <ele>103.4</ele>
        <time>2016-02-20T15:37:08Z</time>
      </trkpt>
      <trkpt lat="43.90142" lon="0.29433">
        <ele>103.4</ele>
        <time>2016-02-20T15:37:15Z</time>
      </trkpt>
      <trkpt lat="43.90133" lon="0.29421">
        <ele>103.2</ele>
        <time>2016-02-20T15:37:18Z</time>
      </trkpt>
      <trkpt lat="43.90119" lon="0.2941">
        <ele>102.8</ele>
        <time>2016-02-20T15:37:22Z</time>
      </trkpt>
      <trkpt lat="43.90116" lon="0.29407">
        <ele>103</ele>
        <time>2016-02-20T15:37:23Z</time>
      </trkpt>
      <trkpt lat="43.90112" lon="0.29405">
        <ele>102.8</ele>
        <time>2016-02-20T15:37:24Z</time>
      </trkpt>
      <trkpt lat="43.90095" lon="0.29398">
        <ele>103</ele>
        <time>2016-02-20T15:37:28Z</time>
      </trkpt>
      <trkpt lat="43.9006" lon="0.29391">
        <ele>102.6</ele>
        <time>2016-02-20T15:37:36Z</time>
      </trkpt>
      <trkpt lat="43.90022" lon="0.29386">
        <ele>102.6</ele>
        <time>2016-02-20T15:37:45Z</time>
      </trkpt>
      <trkpt lat="43.89991" lon="0.29384">
        <ele>102.4</ele>
        <time>2016-02-20T15:37:53Z</time>
      </trkpt>
      <trkpt lat="43.89987" lon="0.29383">
        <ele>102.4</ele>
        <time>2016-02-20T15:37:54Z</time>
      </trkpt>
      <trkpt lat="43.89952" lon="0.29381">
        <ele>102.2</ele>
        <time>2016-02-20T15:38:02Z</time>
      </trkpt>
      <trkpt lat="43.89915" lon="0.29378">
        <ele>102.2</ele>
        <time>2016-02-20T15:38:10Z</time>
      </trkpt>
      <trkpt lat="43.89896" lon="0.29379">
        <ele>102.4</ele>
        <time>2016-02-20T15:38:14Z</time>
      </trkpt>
      <trkpt lat="43.89883" lon="0.29382">
        <ele>102.6</ele>
        <time>2016-02-20T15:38:17Z</time>
      </trkpt>
      <trkpt lat="43.89851" lon="0.29393">
        <ele>102.6</ele>
        <time>2016-02-20T15:38:24Z</time>
      </trkpt>
      <trkpt lat="43.8982" lon="0.29405">
        <ele>102.4</ele>
        <time>2016-02-20T15:38:31Z</time>
      </trkpt>
      <trkpt lat="43.89786" lon="0.29422">
        <ele>102.8</ele>
        <time>2016-02-20T15:38:39Z</time>
      </trkpt>
      <trkpt lat="43.89753" lon="0.29443">
        <ele>102.8</ele>
        <time>2016-02-20T15:38:47Z</time>
      </trkpt>
      <trkpt lat="43.89744" lon="0.29448">
        <ele>102.8</ele>
        <time>2016-02-20T15:38:49Z</time>
      </trkpt>
      <trkpt lat="43.89726" lon="0.29458">
        <ele>102.6</ele>
        <time>2016-02-20T15:38:53Z</time>
      </trkpt>
      <trkpt lat="43.89715" lon="0.29467">
        <ele>102.4</ele>
        <time>2016-02-20T15:38:56Z</time>
      </trkpt>
      <trkpt lat="43.89704" lon="0.29476">
        <ele>102.4</ele>
        <time>2016-02-20T15:38:59Z</time>
      </trkpt>
      <trkpt lat="43.89689" lon="0.29486">
        <ele>102.2</ele>
        <time>2016-02-20T15:39:03Z</time>
      </trkpt>
      <trkpt lat="43.89685" lon="0.29489">
        <ele>102.2</ele>
        <time>2016-02-20T15:39:04Z</time>
      </trkpt>
      <trkpt lat="43.89673" lon="0.29498">
        <ele>102.2</ele>
        <time>2016-02-20T15:39:07Z</time>
      </trkpt>
      <trkpt lat="43.89661" lon="0.29506">
        <ele>102.2</ele>
        <time>2016-02-20T15:39:10Z</time>
      </trkpt>
      <trkpt lat="43.89625" lon="0.29533">
        <ele>102.4</ele>
        <time>2016-02-20T15:39:19Z</time>
      </trkpt>
      <trkpt lat="43.89595" lon="0.29555">
        <ele>103</ele>
        <time>2016-02-20T15:39:26Z</time>
      </trkpt>
      <trkpt lat="43.89555" lon="0.29586">
        <ele>103.4</ele>
        <time>2016-02-20T15:39:36Z</time>
      </trkpt>
      <trkpt lat="43.89547" lon="0.29592">
        <ele>103.4</ele>
        <time>2016-02-20T15:39:38Z</time>
      </trkpt>
      <trkpt lat="43.89529" lon="0.29607">
        <ele>103.4</ele>
        <time>2016-02-20T15:39:43Z</time>
      </trkpt>
      <trkpt lat="43.89509" lon="0.29621">
        <ele>104</ele>
        <time>2016-02-20T15:39:49Z</time>
      </trkpt>
      <trkpt lat="43.89491" lon="0.29634">
        <ele>104.2</ele>
        <time>2016-02-20T15:39:54Z</time>
      </trkpt>
      <trkpt lat="43.89484" lon="0.29639">
        <ele>104</ele>
        <time>2016-02-20T15:39:56Z</time>
      </trkpt>
      <trkpt lat="43.89468" lon="0.2965">
        <ele>104.4</ele>
        <time>2016-02-20T15:40:00Z</time>
      </trkpt>
      <trkpt lat="43.89457" lon="0.29657">
        <ele>104.4</ele>
        <time>2016-02-20T15:40:03Z</time>
      </trkpt>
      <trkpt lat="43.89428" lon="0.29673">
        <ele>104.4</ele>
        <time>2016-02-20T15:40:10Z</time>
      </trkpt>
      <trkpt lat="43.89391" lon="0.29694">
        <ele>104.6</ele>
        <time>2016-02-20T15:40:19Z</time>
      </trkpt>
      <trkpt lat="43.89358" lon="0.29709">
        <ele>104.8</ele>
        <time>2016-02-20T15:40:27Z</time>
      </trkpt>
      <trkpt lat="43.89337" lon="0.29722">
        <ele>104.6</ele>
        <time>2016-02-20T15:40:32Z</time>
      </trkpt>
      <trkpt lat="43.89329" lon="0.29727">
        <ele>104.8</ele>
        <time>2016-02-20T15:40:34Z</time>
      </trkpt>
      <trkpt lat="43.89308" lon="0.29738">
        <ele>105.4</ele>
        <time>2016-02-20T15:40:39Z</time>
      </trkpt>
      <trkpt lat="43.89294" lon="0.29746">
        <ele>105.8</ele>
        <time>2016-02-20T15:40:43Z</time>
      </trkpt>
      <trkpt lat="43.89276" lon="0.29756">
        <ele>105.8</ele>
        <time>2016-02-20T15:40:49Z</time>
      </trkpt>
      <trkpt lat="43.89257" lon="0.29767">
        <ele>106.2</ele>
        <time>2016-02-20T15:40:56Z</time>
      </trkpt>
      <trkpt lat="43.89244" lon="0.29775">
        <ele>106.2</ele>
        <time>2016-02-20T15:41:01Z</time>
      </trkpt>
      <trkpt lat="43.89224" lon="0.29784">
        <ele>106.2</ele>
        <time>2016-02-20T15:41:07Z</time>
      </trkpt>
      <trkpt lat="43.89202" lon="0.29796">
        <ele>106.4</ele>
        <time>2016-02-20T15:41:14Z</time>
      </trkpt>
      <trkpt lat="43.89182" lon="0.29807">
        <ele>106.4</ele>
        <time>2016-02-20T15:41:19Z</time>
      </trkpt>
      <trkpt lat="43.89151" lon="0.29824">
        <ele>105.6</ele>
        <time>2016-02-20T15:41:26Z</time>
      </trkpt>
      <trkpt lat="43.89121" lon="0.29837">
        <ele>105.2</ele>
        <time>2016-02-20T15:41:32Z</time>
      </trkpt>
      <trkpt lat="43.89093" lon="0.29846">
        <ele>104.8</ele>
        <time>2016-02-20T15:41:38Z</time>
      </trkpt>
      <trkpt lat="43.89061" lon="0.29848">
        <ele>104.6</ele>
        <time>2016-02-20T15:41:45Z</time>
      </trkpt>
      <trkpt lat="43.89046" lon="0.29849">
        <ele>104.4</ele>
        <time>2016-02-20T15:41:48Z</time>
      </trkpt>
      <trkpt lat="43.89018" lon="0.2985">
        <ele>104.4</ele>
        <time>2016-02-20T15:41:54Z</time>
      </trkpt>
      <trkpt lat="43.88986" lon="0.29845">
        <ele>104.4</ele>
        <time>2016-02-20T15:42:01Z</time>
      </trkpt>
      <trkpt lat="43.88962" lon="0.29838">
        <ele>104.8</ele>
        <time>2016-02-20T15:42:07Z</time>
      </trkpt>
      <trkpt lat="43.88926" lon="0.29826">
        <ele>104.4</ele>
        <time>2016-02-20T15:42:16Z</time>
      </trkpt>
      <trkpt lat="43.88886" lon="0.29814">
        <ele>104.4</ele>
        <time>2016-02-20T15:42:25Z</time>
      </trkpt>
      <trkpt lat="43.88857" lon="0.29805">
        <ele>105</ele>
        <time>2016-02-20T15:42:32Z</time>
      </trkpt>
      <trkpt lat="43.88837" lon="0.29797">
        <ele>105.4</ele>
        <time>2016-02-20T15:42:37Z</time>
      </trkpt>
      <trkpt lat="43.88816" lon="0.29791">
        <ele>105.8</ele>
        <time>2016-02-20T15:42:42Z</time>
      </trkpt>
      <trkpt lat="43.88782" lon="0.29773">
        <ele>105.8</ele>
        <time>2016-02-20T15:42:51Z</time>
      </trkpt>
      <trkpt lat="43.88755" lon="0.29749">
        <ele>106.6</ele>
        <time>2016-02-20T15:42:59Z</time>
      </trkpt>
      <trkpt lat="43.8873" lon="0.29719">
        <ele>106.8</ele>
        <time>2016-02-20T15:43:08Z</time>
      </trkpt>
      <trkpt lat="43.88697" lon="0.29684">
        <ele>107.2</ele>
        <time>2016-02-20T15:43:19Z</time>
      </trkpt>
      <trkpt lat="43.88682" lon="0.29666">
        <ele>107.2</ele>
        <time>2016-02-20T15:43:25Z</time>
      </trkpt>
      <trkpt lat="43.88669" lon="0.29653">
        <ele>107.8</ele>
        <time>2016-02-20T15:43:30Z</time>
      </trkpt>
      <trkpt lat="43.88665" lon="0.29647">
        <ele>107.6</ele>
        <time>2016-02-20T15:43:32Z</time>
      </trkpt>
      <trkpt lat="43.88643" lon="0.29623">
        <ele>107.8</ele>
        <time>2016-02-20T15:43:40Z</time>
      </trkpt>
      <trkpt lat="43.88624" lon="0.29601">
        <ele>107.8</ele>
        <time>2016-02-20T15:43:47Z</time>
      </trkpt>
      <trkpt lat="43.88598" lon="0.2956">
        <ele>108.2</ele>
        <time>2016-02-20T15:43:58Z</time>
      </trkpt>
      <trkpt lat="43.8858" lon="0.29519">
        <ele>107.6</ele>
        <time>2016-02-20T15:44:07Z</time>
      </trkpt>
      <trkpt lat="43.88564" lon="0.2948">
        <ele>107.8</ele>
        <time>2016-02-20T15:44:16Z</time>
      </trkpt>
      <trkpt lat="43.88554" lon="0.29456">
        <ele>107.2</ele>
        <time>2016-02-20T15:44:23Z</time>
      </trkpt>
      <trkpt lat="43.88546" lon="0.29442">
        <ele>107.4</ele>
        <time>2016-02-20T15:44:29Z</time>
      </trkpt>
      <trkpt lat="43.88538" lon="0.29421">
        <ele>107</ele>
        <time>2016-02-20T15:44:35Z</time>
      </trkpt>
      <trkpt lat="43.88529" lon="0.29401">
        <ele>107</ele>
        <time>2016-02-20T15:44:40Z</time>
      </trkpt>
      <trkpt lat="43.88521" lon="0.29379">
        <ele>107</ele>
        <time>2016-02-20T15:44:45Z</time>
      </trkpt>
      <trkpt lat="43.88511" lon="0.29354">
        <ele>107.2</ele>
        <time>2016-02-20T15:44:49Z</time>
      </trkpt>
      <trkpt lat="43.88502" lon="0.29334">
        <ele>107.4</ele>
        <time>2016-02-20T15:44:53Z</time>
      </trkpt>
      <trkpt lat="43.88501" lon="0.29329">
        <ele>107</ele>
        <time>2016-02-20T15:44:54Z</time>
      </trkpt>
      <trkpt lat="43.885" lon="0.29323">
        <ele>107</ele>
        <time>2016-02-20T15:44:55Z</time>
      </trkpt>
      <trkpt lat="43.88492" lon="0.29303">
        <ele>107.4</ele>
        <time>2016-02-20T15:44:59Z</time>
      </trkpt>
      <trkpt lat="43.88474" lon="0.2926">
        <ele>107</ele>
        <time>2016-02-20T15:45:08Z</time>
      </trkpt>
      <trkpt lat="43.88454" lon="0.29211">
        <ele>107.6</ele>
        <time>2016-02-20T15:45:18Z</time>
      </trkpt>
      <trkpt lat="43.88436" lon="0.29168">
        <ele>107.2</ele>
        <time>2016-02-20T15:45:27Z</time>
      </trkpt>
      <trkpt lat="43.8842" lon="0.2913">
        <ele>107</ele>
        <time>2016-02-20T15:45:35Z</time>
      </trkpt>
      <trkpt lat="43.88412" lon="0.29111">
        <ele>107.2</ele>
        <time>2016-02-20T15:45:39Z</time>
      </trkpt>
      <trkpt lat="43.88406" lon="0.29097">
        <ele>107</ele>
        <time>2016-02-20T15:45:42Z</time>
      </trkpt>
      <trkpt lat="43.88397" lon="0.29077">
        <ele>106.8</ele>
        <time>2016-02-20T15:45:47Z</time>
      </trkpt>
      <trkpt lat="43.88395" lon="0.29073">
        <ele>106.8</ele>
        <time>2016-02-20T15:45:48Z</time>
      </trkpt>
      <trkpt lat="43.8839" lon="0.2906">
        <ele>106.8</ele>
        <time>2016-02-20T15:45:52Z</time>
      </trkpt>
      <trkpt lat="43.88385" lon="0.29043">
        <ele>106.6</ele>
        <time>2016-02-20T15:45:59Z</time>
      </trkpt>
      <trkpt lat="43.88379" lon="0.29036">
        <ele>106.6</ele>
        <time>2016-02-20T15:46:04Z</time>
      </trkpt>
      <trkpt lat="43.88375" lon="0.29019">
        <ele>106.8</ele>
        <time>2016-02-20T15:46:09Z</time>
      </trkpt>
      <trkpt lat="43.88372" lon="0.29012">
        <ele>106.8</ele>
        <time>2016-02-20T15:46:11Z</time>
      </trkpt>
      <trkpt lat="43.88362" lon="0.28987">
        <ele>107</ele>
        <time>2016-02-20T15:46:18Z</time>
      </trkpt>
      <trkpt lat="43.88349" lon="0.28959">
        <ele>108</ele>
        <time>2016-02-20T15:46:26Z</time>
      </trkpt>
      <trkpt lat="43.88337" lon="0.28938">
        <ele>109</ele>
        <time>2016-02-20T15:46:33Z</time>
      </trkpt>
      <trkpt lat="43.88335" lon="0.28936">
        <ele>109.4</ele>
        <time>2016-02-20T15:46:34Z</time>
      </trkpt>
      <trkpt lat="43.88321" lon="0.28922">
        <ele>110</ele>
        <time>2016-02-20T15:46:40Z</time>
      </trkpt>
      <trkpt lat="43.88315" lon="0.28918">
        <ele>110.4</ele>
        <time>2016-02-20T15:46:43Z</time>
      </trkpt>
      <trkpt lat="43.88304" lon="0.2891">
        <ele>111.2</ele>
        <time>2016-02-20T15:46:48Z</time>
      </trkpt>
      <trkpt lat="43.88301" lon="0.28908">
        <ele>111.4</ele>
        <time>2016-02-20T15:46:50Z</time>
      </trkpt>
      <trkpt lat="43.88285" lon="0.28901">
        <ele>112.2</ele>
        <time>2016-02-20T15:46:57Z</time>
      </trkpt>
      <trkpt lat="43.88271" lon="0.28895">
        <ele>113</ele>
        <time>2016-02-20T15:47:03Z</time>
      </trkpt>
      <trkpt lat="43.88267" lon="0.28893">
        <ele>113.4</ele>
        <time>2016-02-20T15:47:05Z</time>
      </trkpt>
      <trkpt lat="43.88252" lon="0.28886">
        <ele>114.4</ele>
        <time>2016-02-20T15:47:11Z</time>
      </trkpt>
      <trkpt lat="43.8825" lon="0.28886">
        <ele>114.4</ele>
        <time>2016-02-20T15:47:12Z</time>
      </trkpt>
      <trkpt lat="43.88238" lon="0.2888">
        <ele>115.2</ele>
        <time>2016-02-20T15:47:18Z</time>
      </trkpt>
      <trkpt lat="43.88235" lon="0.28878">
        <ele>115.4</ele>
        <time>2016-02-20T15:47:19Z</time>
      </trkpt>
      <trkpt lat="43.88223" lon="0.28872">
        <ele>116</ele>
        <time>2016-02-20T15:47:25Z</time>
      </trkpt>
      <trkpt lat="43.88216" lon="0.28868">
        <ele>116.6</ele>
        <time>2016-02-20T15:47:29Z</time>
      </trkpt>
      <trkpt lat="43.88207" lon="0.28863">
        <ele>117</ele>
        <time>2016-02-20T15:47:33Z</time>
      </trkpt>
      <trkpt lat="43.88198" lon="0.28859">
        <ele>117.6</ele>
        <time>2016-02-20T15:47:37Z</time>
      </trkpt>
      <trkpt lat="43.88191" lon="0.28856">
        <ele>117.6</ele>
        <time>2016-02-20T15:47:40Z</time>
      </trkpt>
      <trkpt lat="43.88179" lon="0.28849">
        <ele>118.8</ele>
        <time>2016-02-20T15:47:45Z</time>
      </trkpt>
      <trkpt lat="43.88169" lon="0.28845">
        <ele>119.2</ele>
        <time>2016-02-20T15:47:49Z</time>
      </trkpt>
      <trkpt lat="43.88162" lon="0.28841">
        <ele>119.8</ele>
        <time>2016-02-20T15:47:52Z</time>
      </trkpt>
      <trkpt lat="43.88152" lon="0.28836">
        <ele>120.4</ele>
        <time>2016-02-20T15:47:57Z</time>
      </trkpt>
      <trkpt lat="43.88141" lon="0.28831">
        <ele>120.8</ele>
        <time>2016-02-20T15:48:02Z</time>
      </trkpt>
      <trkpt lat="43.88132" lon="0.28827">
        <ele>121.2</ele>
        <time>2016-02-20T15:48:06Z</time>
      </trkpt>
      <trkpt lat="43.88121" lon="0.28821">
        <ele>122.2</ele>
        <time>2016-02-20T15:48:11Z</time>
      </trkpt>
      <trkpt lat="43.88116" lon="0.28818">
        <ele>122.4</ele>
        <time>2016-02-20T15:48:13Z</time>
      </trkpt>
      <trkpt lat="43.88102" lon="0.2881">
        <ele>123.2</ele>
        <time>2016-02-20T15:48:19Z</time>
      </trkpt>
      <trkpt lat="43.88094" lon="0.28806">
        <ele>123.8</ele>
        <time>2016-02-20T15:48:22Z</time>
      </trkpt>
      <trkpt lat="43.88089" lon="0.28804">
        <ele>124.2</ele>
        <time>2016-02-20T15:48:24Z</time>
      </trkpt>
      <trkpt lat="43.88075" lon="0.28796">
        <ele>125</ele>
        <time>2016-02-20T15:48:29Z</time>
      </trkpt>
      <trkpt lat="43.88062" lon="0.2879">
        <ele>125.4</ele>
        <time>2016-02-20T15:48:33Z</time>
      </trkpt>
      <trkpt lat="43.88055" lon="0.28787">
        <ele>126</ele>
        <time>2016-02-20T15:48:35Z</time>
      </trkpt>
      <trkpt lat="43.88045" lon="0.28782">
        <ele>126.4</ele>
        <time>2016-02-20T15:48:38Z</time>
      </trkpt>
      <trkpt lat="43.88033" lon="0.28775">
        <ele>127.4</ele>
        <time>2016-02-20T15:48:42Z</time>
      </trkpt>
      <trkpt lat="43.88026" lon="0.28773">
        <ele>127.8</ele>
        <time>2016-02-20T15:48:44Z</time>
      </trkpt>
      <trkpt lat="43.88012" lon="0.28766">
        <ele>128.4</ele>
        <time>2016-02-20T15:48:48Z</time>
      </trkpt>
      <trkpt lat="43.88006" lon="0.28764">
        <ele>128.8</ele>
        <time>2016-02-20T15:48:50Z</time>
      </trkpt>
      <trkpt lat="43.87989" lon="0.28754">
        <ele>130</ele>
        <time>2016-02-20T15:48:55Z</time>
      </trkpt>
      <trkpt lat="43.87982" lon="0.2875">
        <ele>130.2</ele>
        <time>2016-02-20T15:48:57Z</time>
      </trkpt>
      <trkpt lat="43.87969" lon="0.28744">
        <ele>131</ele>
        <time>2016-02-20T15:49:01Z</time>
      </trkpt>
      <trkpt lat="43.87959" lon="0.28738">
        <ele>132</ele>
        <time>2016-02-20T15:49:04Z</time>
      </trkpt>
      <trkpt lat="43.87952" lon="0.28735">
        <ele>132.2</ele>
        <time>2016-02-20T15:49:06Z</time>
      </trkpt>
      <trkpt lat="43.8794" lon="0.28726">
        <ele>133.2</ele>
        <time>2016-02-20T15:49:10Z</time>
      </trkpt>
      <trkpt lat="43.87934" lon="0.28722">
        <ele>133.6</ele>
        <time>2016-02-20T15:49:12Z</time>
      </trkpt>
      <trkpt lat="43.87921" lon="0.28712">
        <ele>134.4</ele>
        <time>2016-02-20T15:49:16Z</time>
      </trkpt>
      <trkpt lat="43.8791" lon="0.28701">
        <ele>135.4</ele>
        <time>2016-02-20T15:49:20Z</time>
      </trkpt>
      <trkpt lat="43.87906" lon="0.28698">
        <ele>135.8</ele>
        <time>2016-02-20T15:49:21Z</time>
      </trkpt>
      <trkpt lat="43.87886" lon="0.28676">
        <ele>137</ele>
        <time>2016-02-20T15:49:28Z</time>
      </trkpt>
      <trkpt lat="43.87883" lon="0.28673">
        <ele>137.2</ele>
        <time>2016-02-20T15:49:29Z</time>
      </trkpt>
      <trkpt lat="43.87875" lon="0.28664">
        <ele>138</ele>
        <time>2016-02-20T15:49:32Z</time>
      </trkpt>
      <trkpt lat="43.87864" lon="0.28651">
        <ele>139</ele>
        <time>2016-02-20T15:49:36Z</time>
      </trkpt>
      <trkpt lat="43.87851" lon="0.28637">
        <ele>139.6</ele>
        <time>2016-02-20T15:49:42Z</time>
      </trkpt>
      <trkpt lat="43.87841" lon="0.28627">
        <ele>140</ele>
        <time>2016-02-20T15:49:47Z</time>
      </trkpt>
      <trkpt lat="43.87836" lon="0.2862">
        <ele>140</ele>
        <time>2016-02-20T15:49:51Z</time>
      </trkpt>
      <trkpt lat="43.87833" lon="0.28618">
        <ele>140</ele>
        <time>2016-02-20T15:49:53Z</time>
      </trkpt>
      <trkpt lat="43.87832" lon="0.28617">
        <ele>140</ele>
        <time>2016-02-20T15:49:55Z</time>
      </trkpt>
      <trkpt lat="43.87831" lon="0.28617">
        <ele>139.8</ele>
        <time>2016-02-20T15:49:58Z</time>
      </trkpt>
      <trkpt lat="43.8782" lon="0.2862">
        <ele>139.6</ele>
        <time>2016-02-20T15:53:11Z</time>
      </trkpt>
      <trkpt lat="43.87817" lon="0.28619">
        <ele>139.4</ele>
        <time>2016-02-20T15:53:12Z</time>
      </trkpt>
      <trkpt lat="43.87803" lon="0.28614">
        <ele>139</ele>
        <time>2016-02-20T15:53:16Z</time>
      </trkpt>
      <trkpt lat="43.87798" lon="0.28613">
        <ele>138.8</ele>
        <time>2016-02-20T15:53:17Z</time>
      </trkpt>
      <trkpt lat="43.8778" lon="0.28607">
        <ele>138</ele>
        <time>2016-02-20T15:53:21Z</time>
      </trkpt>
      <trkpt lat="43.87765" lon="0.28601">
        <ele>137.6</ele>
        <time>2016-02-20T15:53:24Z</time>
      </trkpt>
      <trkpt lat="43.8776" lon="0.28599">
        <ele>137.2</ele>
        <time>2016-02-20T15:53:25Z</time>
      </trkpt>
      <trkpt lat="43.87755" lon="0.28596">
        <ele>137</ele>
        <time>2016-02-20T15:53:26Z</time>
      </trkpt>
      <trkpt lat="43.87739" lon="0.28588">
        <ele>136.6</ele>
        <time>2016-02-20T15:53:29Z</time>
      </trkpt>
      <trkpt lat="43.87734" lon="0.28585">
        <ele>136.4</ele>
        <time>2016-02-20T15:53:30Z</time>
      </trkpt>
      <trkpt lat="43.87711" lon="0.28574">
        <ele>135.4</ele>
        <time>2016-02-20T15:53:34Z</time>
      </trkpt>
      <trkpt lat="43.87692" lon="0.28564">
        <ele>135.2</ele>
        <time>2016-02-20T15:53:37Z</time>
      </trkpt>
      <trkpt lat="43.87672" lon="0.28554">
        <ele>134.2</ele>
        <time>2016-02-20T15:53:40Z</time>
      </trkpt>
      <trkpt lat="43.87645" lon="0.28535">
        <ele>132.8</ele>
        <time>2016-02-20T15:53:44Z</time>
      </trkpt>
      <trkpt lat="43.87606" lon="0.28499">
        <ele>131.4</ele>
        <time>2016-02-20T15:53:50Z</time>
      </trkpt>
      <trkpt lat="43.87593" lon="0.28487">
        <ele>130.8</ele>
        <time>2016-02-20T15:53:52Z</time>
      </trkpt>
      <trkpt lat="43.87569" lon="0.28463">
        <ele>130</ele>
        <time>2016-02-20T15:53:56Z</time>
      </trkpt>
      <trkpt lat="43.8755" lon="0.28444">
        <ele>129.8</ele>
        <time>2016-02-20T15:53:59Z</time>
      </trkpt>
      <trkpt lat="43.87538" lon="0.28432">
        <ele>129</ele>
        <time>2016-02-20T15:54:01Z</time>
      </trkpt>
      <trkpt lat="43.87502" lon="0.28397">
        <ele>127.6</ele>
        <time>2016-02-20T15:54:07Z</time>
      </trkpt>
      <trkpt lat="43.8747" lon="0.28372">
        <ele>126.4</ele>
        <time>2016-02-20T15:54:12Z</time>
      </trkpt>
      <trkpt lat="43.87457" lon="0.28364">
        <ele>126.2</ele>
        <time>2016-02-20T15:54:14Z</time>
      </trkpt>
      <trkpt lat="43.87435" lon="0.28353">
        <ele>125</ele>
        <time>2016-02-20T15:54:17Z</time>
      </trkpt>
      <trkpt lat="43.87414" lon="0.28341">
        <ele>124.6</ele>
        <time>2016-02-20T15:54:20Z</time>
      </trkpt>
      <trkpt lat="43.87392" lon="0.28329">
        <ele>123.8</ele>
        <time>2016-02-20T15:54:23Z</time>
      </trkpt>
      <trkpt lat="43.87366" lon="0.28306">
        <ele>122.8</ele>
        <time>2016-02-20T15:54:27Z</time>
      </trkpt>
      <trkpt lat="43.87354" lon="0.28294">
        <ele>122.8</ele>
        <time>2016-02-20T15:54:29Z</time>
      </trkpt>
      <trkpt lat="43.87331" lon="0.28266">
        <ele>121.6</ele>
        <time>2016-02-20T15:54:33Z</time>
      </trkpt>
      <trkpt lat="43.87309" lon="0.28239">
        <ele>120.6</ele>
        <time>2016-02-20T15:54:37Z</time>
      </trkpt>
      <trkpt lat="43.87293" lon="0.2822">
        <ele>119.8</ele>
        <time>2016-02-20T15:54:40Z</time>
      </trkpt>
      <trkpt lat="43.87283" lon="0.28206">
        <ele>119.4</ele>
        <time>2016-02-20T15:54:42Z</time>
      </trkpt>
      <trkpt lat="43.87262" lon="0.28181">
        <ele>118.8</ele>
        <time>2016-02-20T15:54:46Z</time>
      </trkpt>
      <trkpt lat="43.87256" lon="0.28175">
        <ele>118.4</ele>
        <time>2016-02-20T15:54:47Z</time>
      </trkpt>
      <trkpt lat="43.87233" lon="0.28157">
        <ele>117.6</ele>
        <time>2016-02-20T15:54:51Z</time>
      </trkpt>
      <trkpt lat="43.87207" lon="0.28136">
        <ele>117.6</ele>
        <time>2016-02-20T15:54:56Z</time>
      </trkpt>
      <trkpt lat="43.87177" lon="0.28117">
        <ele>117.6</ele>
        <time>2016-02-20T15:55:02Z</time>
      </trkpt>
      <trkpt lat="43.87172" lon="0.28116">
        <ele>117.6</ele>
        <time>2016-02-20T15:55:03Z</time>
      </trkpt>
      <trkpt lat="43.87133" lon="0.28104">
        <ele>118.4</ele>
        <time>2016-02-20T15:55:12Z</time>
      </trkpt>
      <trkpt lat="43.87105" lon="0.28096">
        <ele>118.8</ele>
        <time>2016-02-20T15:55:19Z</time>
      </trkpt>
      <trkpt lat="43.87094" lon="0.28093">
        <ele>119.6</ele>
        <time>2016-02-20T15:55:22Z</time>
      </trkpt>
      <trkpt lat="43.87073" lon="0.28087">
        <ele>120</ele>
        <time>2016-02-20T15:55:28Z</time>
      </trkpt>
      <trkpt lat="43.87049" lon="0.28082">
        <ele>120.6</ele>
        <time>2016-02-20T15:55:35Z</time>
      </trkpt>
      <trkpt lat="43.87042" lon="0.2808">
        <ele>121</ele>
        <time>2016-02-20T15:55:37Z</time>
      </trkpt>
      <trkpt lat="43.87013" lon="0.28071">
        <ele>121.6</ele>
        <time>2016-02-20T15:55:46Z</time>
      </trkpt>
      <trkpt lat="43.87006" lon="0.2807">
        <ele>122</ele>
        <time>2016-02-20T15:55:48Z</time>
      </trkpt>
      <trkpt lat="43.86991" lon="0.28066">
        <ele>122.2</ele>
        <time>2016-02-20T15:55:53Z</time>
      </trkpt>
      <trkpt lat="43.86976" lon="0.28063">
        <ele>122.4</ele>
        <time>2016-02-20T15:55:58Z</time>
      </trkpt>
      <trkpt lat="43.86956" lon="0.28064">
        <ele>122.8</ele>
        <time>2016-02-20T15:56:05Z</time>
      </trkpt>
      <trkpt lat="43.86949" lon="0.28065">
        <ele>123</ele>
        <time>2016-02-20T15:56:07Z</time>
      </trkpt>
      <trkpt lat="43.8693" lon="0.28073">
        <ele>123.4</ele>
        <time>2016-02-20T15:56:14Z</time>
      </trkpt>
      <trkpt lat="43.86913" lon="0.28083">
        <ele>123.4</ele>
        <time>2016-02-20T15:56:20Z</time>
      </trkpt>
      <trkpt lat="43.86893" lon="0.28099">
        <ele>122.8</ele>
        <time>2016-02-20T15:56:27Z</time>
      </trkpt>
      <trkpt lat="43.86889" lon="0.281">
        <ele>122.8</ele>
        <time>2016-02-20T15:56:28Z</time>
      </trkpt>
      <trkpt lat="43.86871" lon="0.28107">
        <ele>122.2</ele>
        <time>2016-02-20T15:56:32Z</time>
      </trkpt>
      <trkpt lat="43.86866" lon="0.2811">
        <ele>121.8</ele>
        <time>2016-02-20T15:56:33Z</time>
      </trkpt>
      <trkpt lat="43.86835" lon="0.28129">
        <ele>121.2</ele>
        <time>2016-02-20T15:56:39Z</time>
      </trkpt>
      <trkpt lat="43.86823" lon="0.28136">
        <ele>120.4</ele>
        <time>2016-02-20T15:56:41Z</time>
      </trkpt>
      <trkpt lat="43.86799" lon="0.2815">
        <ele>119.8</ele>
        <time>2016-02-20T15:56:45Z</time>
      </trkpt>
      <trkpt lat="43.86775" lon="0.28164">
        <ele>119.2</ele>
        <time>2016-02-20T15:56:49Z</time>
      </trkpt>
      <trkpt lat="43.86743" lon="0.28183">
        <ele>118.8</ele>
        <time>2016-02-20T15:56:54Z</time>
      </trkpt>
      <trkpt lat="43.86723" lon="0.28195">
        <ele>118</ele>
        <time>2016-02-20T15:56:57Z</time>
      </trkpt>
      <trkpt lat="43.86697" lon="0.2821">
        <ele>117.2</ele>
        <time>2016-02-20T15:57:01Z</time>
      </trkpt>
      <trkpt lat="43.86648" lon="0.28238">
        <ele>117.4</ele>
        <time>2016-02-20T15:57:09Z</time>
      </trkpt>
      <trkpt lat="43.86606" lon="0.28263">
        <ele>117.4</ele>
        <time>2016-02-20T15:57:17Z</time>
      </trkpt>
      <trkpt lat="43.86574" lon="0.28281">
        <ele>118</ele>
        <time>2016-02-20T15:57:24Z</time>
      </trkpt>
      <trkpt lat="43.86547" lon="0.28297">
        <ele>117.8</ele>
        <time>2016-02-20T15:57:31Z</time>
      </trkpt>
      <trkpt lat="43.86518" lon="0.28313">
        <ele>118.2</ele>
        <time>2016-02-20T15:57:39Z</time>
      </trkpt>
      <trkpt lat="43.86482" lon="0.28328">
        <ele>118.2</ele>
        <time>2016-02-20T15:57:49Z</time>
      </trkpt>
      <trkpt lat="43.86445" lon="0.28339">
        <ele>118.2</ele>
        <time>2016-02-20T15:57:58Z</time>
      </trkpt>
      <trkpt lat="43.86416" lon="0.28346">
        <ele>117.8</ele>
        <time>2016-02-20T15:58:05Z</time>
      </trkpt>
      <trkpt lat="43.86389" lon="0.28354">
        <ele>117.6</ele>
        <time>2016-02-20T15:58:11Z</time>
      </trkpt>
      <trkpt lat="43.86361" lon="0.28361">
        <ele>116.6</ele>
        <time>2016-02-20T15:58:17Z</time>
      </trkpt>
      <trkpt lat="43.86352" lon="0.28364">
        <ele>117</ele>
        <time>2016-02-20T15:58:19Z</time>
      </trkpt>
      <trkpt lat="43.86316" lon="0.28374">
        <ele>116.2</ele>
        <time>2016-02-20T15:58:26Z</time>
      </trkpt>
      <trkpt lat="43.86269" lon="0.28386">
        <ele>116.2</ele>
        <time>2016-02-20T15:58:35Z</time>
      </trkpt>
      <trkpt lat="43.86246" lon="0.28391">
        <ele>117.4</ele>
        <time>2016-02-20T15:58:41Z</time>
      </trkpt>
      <trkpt lat="43.86236" lon="0.28394">
        <ele>117.8</ele>
        <time>2016-02-20T15:58:44Z</time>
      </trkpt>
      <trkpt lat="43.86226" lon="0.28397">
        <ele>118.2</ele>
        <time>2016-02-20T15:58:47Z</time>
      </trkpt>
      <trkpt lat="43.86209" lon="0.28401">
        <ele>119</ele>
        <time>2016-02-20T15:58:52Z</time>
      </trkpt>
      <trkpt lat="43.86198" lon="0.28404">
        <ele>119.2</ele>
        <time>2016-02-20T15:58:55Z</time>
      </trkpt>
      <trkpt lat="43.86172" lon="0.28409">
        <ele>119.8</ele>
        <time>2016-02-20T15:59:03Z</time>
      </trkpt>
      <trkpt lat="43.86158" lon="0.28413">
        <ele>120</ele>
        <time>2016-02-20T15:59:09Z</time>
      </trkpt>
      <trkpt lat="43.86156" lon="0.28413">
        <ele>120</ele>
        <time>2016-02-20T15:59:10Z</time>
      </trkpt>
      <trkpt lat="43.86154" lon="0.28414">
        <ele>120</ele>
        <time>2016-02-20T15:59:17Z</time>
      </trkpt>
      <trkpt lat="43.86151" lon="0.28415">
        <ele>120</ele>
        <time>2016-02-20T15:59:19Z</time>
      </trkpt>
      <trkpt lat="43.86148" lon="0.28416">
        <ele>120</ele>
        <time>2016-02-20T15:59:20Z</time>
      </trkpt>
      <trkpt lat="43.86123" lon="0.28423">
        <ele>120.8</ele>
        <time>2016-02-20T15:59:27Z</time>
      </trkpt>
      <trkpt lat="43.86093" lon="0.28431">
        <ele>121</ele>
        <time>2016-02-20T15:59:34Z</time>
      </trkpt>
      <trkpt lat="43.86072" lon="0.28436">
        <ele>121.2</ele>
        <time>2016-02-20T15:59:39Z</time>
      </trkpt>
      <trkpt lat="43.8606" lon="0.2844">
        <ele>120.6</ele>
        <time>2016-02-20T15:59:42Z</time>
      </trkpt>
      <trkpt lat="43.86027" lon="0.28449">
        <ele>121</ele>
        <time>2016-02-20T15:59:50Z</time>
      </trkpt>
      <trkpt lat="43.86004" lon="0.28457">
        <ele>121.8</ele>
        <time>2016-02-20T15:59:57Z</time>
      </trkpt>
      <trkpt lat="43.85986" lon="0.2846">
        <ele>122.2</ele>
        <time>2016-02-20T16:00:02Z</time>
      </trkpt>
      <trkpt lat="43.85974" lon="0.28464">
        <ele>122.4</ele>
        <time>2016-02-20T16:00:05Z</time>
      </trkpt>
      <trkpt lat="43.85962" lon="0.28465">
        <ele>122.8</ele>
        <time>2016-02-20T16:00:08Z</time>
      </trkpt>
      <trkpt lat="43.85958" lon="0.28465">
        <ele>122.8</ele>
        <time>2016-02-20T16:00:09Z</time>
      </trkpt>
      <trkpt lat="43.85947" lon="0.28466">
        <ele>123.4</ele>
        <time>2016-02-20T16:00:12Z</time>
      </trkpt>
      <trkpt lat="43.85936" lon="0.28464">
        <ele>123.4</ele>
        <time>2016-02-20T16:00:15Z</time>
      </trkpt>
      <trkpt lat="43.8592" lon="0.28463">
        <ele>123.4</ele>
        <time>2016-02-20T16:00:20Z</time>
      </trkpt>
      <trkpt lat="43.85908" lon="0.2846">
        <ele>123.6</ele>
        <time>2016-02-20T16:00:26Z</time>
      </trkpt>
      <trkpt lat="43.85903" lon="0.28457">
        <ele>123</ele>
        <time>2016-02-20T16:00:31Z</time>
      </trkpt>
      <trkpt lat="43.85898" lon="0.28457">
        <ele>123.4</ele>
        <time>2016-02-20T16:01:27Z</time>
      </trkpt>
      <trkpt lat="43.85894" lon="0.28457">
        <ele>123.2</ele>
        <time>2016-02-20T16:01:29Z</time>
      </trkpt>
      <trkpt lat="43.85884" lon="0.28456">
        <ele>123.4</ele>
        <time>2016-02-20T16:01:32Z</time>
      </trkpt>
      <trkpt lat="43.85852" lon="0.28454">
        <ele>122.6</ele>
        <time>2016-02-20T16:01:39Z</time>
      </trkpt>
      <trkpt lat="43.85827" lon="0.28456">
        <ele>122</ele>
        <time>2016-02-20T16:01:44Z</time>
      </trkpt>
      <trkpt lat="43.85821" lon="0.28457">
        <ele>122</ele>
        <time>2016-02-20T16:01:45Z</time>
      </trkpt>
      <trkpt lat="43.8581" lon="0.28459">
        <ele>121.6</ele>
        <time>2016-02-20T16:01:47Z</time>
      </trkpt>
      <trkpt lat="43.85793" lon="0.28464">
        <ele>120.8</ele>
        <time>2016-02-20T16:01:50Z</time>
      </trkpt>
      <trkpt lat="43.85761" lon="0.28474">
        <ele>119.6</ele>
        <time>2016-02-20T16:01:55Z</time>
      </trkpt>
      <trkpt lat="43.8574" lon="0.2848">
        <ele>118.6</ele>
        <time>2016-02-20T16:01:58Z</time>
      </trkpt>
      <trkpt lat="43.85709" lon="0.28489">
        <ele>117.8</ele>
        <time>2016-02-20T16:02:02Z</time>
      </trkpt>
      <trkpt lat="43.85694" lon="0.28493">
        <ele>117.4</ele>
        <time>2016-02-20T16:02:04Z</time>
      </trkpt>
      <trkpt lat="43.8567" lon="0.285">
        <ele>116.2</ele>
        <time>2016-02-20T16:02:07Z</time>
      </trkpt>
      <trkpt lat="43.85639" lon="0.2851">
        <ele>115.6</ele>
        <time>2016-02-20T16:02:11Z</time>
      </trkpt>
      <trkpt lat="43.85609" lon="0.28519">
        <ele>115.2</ele>
        <time>2016-02-20T16:02:15Z</time>
      </trkpt>
      <trkpt lat="43.85574" lon="0.28535">
        <ele>114.8</ele>
        <time>2016-02-20T16:02:20Z</time>
      </trkpt>
      <trkpt lat="43.85526" lon="0.28562">
        <ele>114.2</ele>
        <time>2016-02-20T16:02:27Z</time>
      </trkpt>
      <trkpt lat="43.8552" lon="0.28566">
        <ele>114.2</ele>
        <time>2016-02-20T16:02:28Z</time>
      </trkpt>
      <trkpt lat="43.85481" lon="0.28588">
        <ele>113.8</ele>
        <time>2016-02-20T16:02:34Z</time>
      </trkpt>
      <trkpt lat="43.85435" lon="0.28615">
        <ele>114.4</ele>
        <time>2016-02-20T16:02:42Z</time>
      </trkpt>
      <trkpt lat="43.85402" lon="0.28633">
        <ele>114.2</ele>
        <time>2016-02-20T16:02:49Z</time>
      </trkpt>
      <trkpt lat="43.8537" lon="0.28651">
        <ele>114.4</ele>
        <time>2016-02-20T16:02:56Z</time>
      </trkpt>
      <trkpt lat="43.85332" lon="0.28669">
        <ele>114.6</ele>
        <time>2016-02-20T16:03:04Z</time>
      </trkpt>
      <trkpt lat="43.85283" lon="0.28696">
        <ele>114.6</ele>
        <time>2016-02-20T16:03:15Z</time>
      </trkpt>
      <trkpt lat="43.85239" lon="0.2872">
        <ele>114.8</ele>
        <time>2016-02-20T16:03:25Z</time>
      </trkpt>
      <trkpt lat="43.85226" lon="0.28727">
        <ele>115.2</ele>
        <time>2016-02-20T16:03:28Z</time>
      </trkpt>
      <trkpt lat="43.85204" lon="0.28739">
        <ele>115.2</ele>
        <time>2016-02-20T16:03:33Z</time>
      </trkpt>
      <trkpt lat="43.8517" lon="0.28758">
        <ele>115.4</ele>
        <time>2016-02-20T16:03:41Z</time>
      </trkpt>
      <trkpt lat="43.85132" lon="0.28779">
        <ele>115.8</ele>
        <time>2016-02-20T16:03:50Z</time>
      </trkpt>
      <trkpt lat="43.85108" lon="0.28793">
        <ele>115.8</ele>
        <time>2016-02-20T16:03:56Z</time>
      </trkpt>
      <trkpt lat="43.85089" lon="0.28804">
        <ele>116.2</ele>
        <time>2016-02-20T16:04:01Z</time>
      </trkpt>
      <trkpt lat="43.85081" lon="0.28809">
        <ele>116.4</ele>
        <time>2016-02-20T16:04:03Z</time>
      </trkpt>
      <trkpt lat="43.8505" lon="0.28825">
        <ele>116.6</ele>
        <time>2016-02-20T16:04:10Z</time>
      </trkpt>
      <trkpt lat="43.85015" lon="0.28844">
        <ele>117</ele>
        <time>2016-02-20T16:04:18Z</time>
      </trkpt>
      <trkpt lat="43.84993" lon="0.28856">
        <ele>117.2</ele>
        <time>2016-02-20T16:04:23Z</time>
      </trkpt>
      <trkpt lat="43.84989" lon="0.28858">
        <ele>117.2</ele>
        <time>2016-02-20T16:04:24Z</time>
      </trkpt>
      <trkpt lat="43.84947" lon="0.28881">
        <ele>117.2</ele>
        <time>2016-02-20T16:04:34Z</time>
      </trkpt>
      <trkpt lat="43.84912" lon="0.28901">
        <ele>118.2</ele>
        <time>2016-02-20T16:04:43Z</time>
      </trkpt>
      <trkpt lat="43.84909" lon="0.28904">
        <ele>118.4</ele>
        <time>2016-02-20T16:04:44Z</time>
      </trkpt>
      <trkpt lat="43.84888" lon="0.2892">
        <ele>118.6</ele>
        <time>2016-02-20T16:04:50Z</time>
      </trkpt>
      <trkpt lat="43.84852" lon="0.2895">
        <ele>118.8</ele>
        <time>2016-02-20T16:05:00Z</time>
      </trkpt>
      <trkpt lat="43.84817" lon="0.28979">
        <ele>118</ele>
        <time>2016-02-20T16:05:08Z</time>
      </trkpt>
      <trkpt lat="43.84785" lon="0.29004">
        <ele>117.8</ele>
        <time>2016-02-20T16:05:15Z</time>
      </trkpt>
      <trkpt lat="43.84764" lon="0.29021">
        <ele>117.6</ele>
        <time>2016-02-20T16:05:20Z</time>
      </trkpt>
      <trkpt lat="43.84756" lon="0.29028">
        <ele>117.6</ele>
        <time>2016-02-20T16:05:22Z</time>
      </trkpt>
      <trkpt lat="43.84752" lon="0.29031">
        <ele>117.4</ele>
        <time>2016-02-20T16:05:23Z</time>
      </trkpt>
      <trkpt lat="43.84717" lon="0.29051">
        <ele>116.4</ele>
        <time>2016-02-20T16:05:31Z</time>
      </trkpt>
      <trkpt lat="43.84698" lon="0.29056">
        <ele>116.2</ele>
        <time>2016-02-20T16:05:35Z</time>
      </trkpt>
      <trkpt lat="43.84693" lon="0.29055">
        <ele>116.2</ele>
        <time>2016-02-20T16:05:36Z</time>
      </trkpt>
      <trkpt lat="43.84683" lon="0.29054">
        <ele>116.2</ele>
        <time>2016-02-20T16:05:38Z</time>
      </trkpt>
      <trkpt lat="43.84664" lon="0.29048">
        <ele>116.2</ele>
        <time>2016-02-20T16:05:42Z</time>
      </trkpt>
      <trkpt lat="43.84659" lon="0.29047">
        <ele>116.2</ele>
        <time>2016-02-20T16:05:43Z</time>
      </trkpt>
      <trkpt lat="43.84641" lon="0.29035">
        <ele>116</ele>
        <time>2016-02-20T16:05:48Z</time>
      </trkpt>
      <trkpt lat="43.84616" lon="0.29014">
        <ele>116.2</ele>
        <time>2016-02-20T16:05:56Z</time>
      </trkpt>
      <trkpt lat="43.84593" lon="0.28996">
        <ele>116.2</ele>
        <time>2016-02-20T16:06:03Z</time>
      </trkpt>
      <trkpt lat="43.84566" lon="0.28975">
        <ele>116.2</ele>
        <time>2016-02-20T16:06:11Z</time>
      </trkpt>
      <trkpt lat="43.84555" lon="0.28965">
        <ele>116.4</ele>
        <time>2016-02-20T16:06:14Z</time>
      </trkpt>
      <trkpt lat="43.84551" lon="0.28962">
        <ele>116.4</ele>
        <time>2016-02-20T16:06:15Z</time>
      </trkpt>
      <trkpt lat="43.84517" lon="0.28939">
        <ele>116</ele>
        <time>2016-02-20T16:06:23Z</time>
      </trkpt>
      <trkpt lat="43.8449" lon="0.2892">
        <ele>115.8</ele>
        <time>2016-02-20T16:06:30Z</time>
      </trkpt>
      <trkpt lat="43.8446" lon="0.28899">
        <ele>116</ele>
        <time>2016-02-20T16:06:38Z</time>
      </trkpt>
      <trkpt lat="43.8443" lon="0.28878">
        <ele>116</ele>
        <time>2016-02-20T16:06:46Z</time>
      </trkpt>
      <trkpt lat="43.844" lon="0.28857">
        <ele>116.6</ele>
        <time>2016-02-20T16:06:54Z</time>
      </trkpt>
      <trkpt lat="43.84367" lon="0.28838">
        <ele>117.2</ele>
        <time>2016-02-20T16:07:03Z</time>
      </trkpt>
      <trkpt lat="43.84364" lon="0.28835">
        <ele>117.2</ele>
        <time>2016-02-20T16:07:04Z</time>
      </trkpt>
      <trkpt lat="43.84347" lon="0.28824">
        <ele>117.2</ele>
        <time>2016-02-20T16:07:09Z</time>
      </trkpt>
      <trkpt lat="43.84326" lon="0.28814">
        <ele>117.6</ele>
        <time>2016-02-20T16:07:15Z</time>
      </trkpt>
      <trkpt lat="43.84322" lon="0.28812">
        <ele>117.6</ele>
        <time>2016-02-20T16:07:16Z</time>
      </trkpt>
      <trkpt lat="43.84306" lon="0.28809">
        <ele>118.4</ele>
        <time>2016-02-20T16:07:20Z</time>
      </trkpt>
      <trkpt lat="43.84303" lon="0.28808">
        <ele>118.2</ele>
        <time>2016-02-20T16:07:21Z</time>
      </trkpt>
      <trkpt lat="43.84277" lon="0.28806">
        <ele>118.2</ele>
        <time>2016-02-20T16:07:28Z</time>
      </trkpt>
      <trkpt lat="43.84245" lon="0.28806">
        <ele>118.2</ele>
        <time>2016-02-20T16:07:36Z</time>
      </trkpt>
      <trkpt lat="43.84223" lon="0.28802">
        <ele>118.2</ele>
        <time>2016-02-20T16:07:42Z</time>
      </trkpt>
      <trkpt lat="43.84199" lon="0.28801">
        <ele>118.6</ele>
        <time>2016-02-20T16:07:49Z</time>
      </trkpt>
      <trkpt lat="43.8417" lon="0.288">
        <ele>119.2</ele>
        <time>2016-02-20T16:07:57Z</time>
      </trkpt>
      <trkpt lat="43.84145" lon="0.28797">
        <ele>118.8</ele>
        <time>2016-02-20T16:08:04Z</time>
      </trkpt>
      <trkpt lat="43.84127" lon="0.28797">
        <ele>119.2</ele>
        <time>2016-02-20T16:08:09Z</time>
      </trkpt>
      <trkpt lat="43.84101" lon="0.28795">
        <ele>118.4</ele>
        <time>2016-02-20T16:08:15Z</time>
      </trkpt>
      <trkpt lat="43.8407" lon="0.28793">
        <ele>117.4</ele>
        <time>2016-02-20T16:08:22Z</time>
      </trkpt>
      <trkpt lat="43.84065" lon="0.28793">
        <ele>117.2</ele>
        <time>2016-02-20T16:08:23Z</time>
      </trkpt>
      <trkpt lat="43.84033" lon="0.28792">
        <ele>116.4</ele>
        <time>2016-02-20T16:08:29Z</time>
      </trkpt>
      <trkpt lat="43.84017" lon="0.2879">
        <ele>116.4</ele>
        <time>2016-02-20T16:08:32Z</time>
      </trkpt>
      <trkpt lat="43.83975" lon="0.28789">
        <ele>115.8</ele>
        <time>2016-02-20T16:08:40Z</time>
      </trkpt>
      <trkpt lat="43.8394" lon="0.28787">
        <ele>115.4</ele>
        <time>2016-02-20T16:08:48Z</time>
      </trkpt>
      <trkpt lat="43.83913" lon="0.28785">
        <ele>115.4</ele>
        <time>2016-02-20T16:08:55Z</time>
      </trkpt>
      <trkpt lat="43.83888" lon="0.28783">
        <ele>115.6</ele>
        <time>2016-02-20T16:09:01Z</time>
      </trkpt>
      <trkpt lat="43.83884" lon="0.28783">
        <ele>115.4</ele>
        <time>2016-02-20T16:09:02Z</time>
      </trkpt>
      <trkpt lat="43.83853" lon="0.28781">
        <ele>115.6</ele>
        <time>2016-02-20T16:09:09Z</time>
      </trkpt>
      <trkpt lat="43.83816" lon="0.28778">
        <ele>115.4</ele>
        <time>2016-02-20T16:09:18Z</time>
      </trkpt>
      <trkpt lat="43.83777" lon="0.28775">
        <ele>115.6</ele>
        <time>2016-02-20T16:09:27Z</time>
      </trkpt>
      <trkpt lat="43.83737" lon="0.28773">
        <ele>115.6</ele>
        <time>2016-02-20T16:09:36Z</time>
      </trkpt>
      <trkpt lat="43.83701" lon="0.28771">
        <ele>115.4</ele>
        <time>2016-02-20T16:09:44Z</time>
      </trkpt>
      <trkpt lat="43.83654" lon="0.28768">
        <ele>115.6</ele>
        <time>2016-02-20T16:09:54Z</time>
      </trkpt>
      <trkpt lat="43.83612" lon="0.28765">
        <ele>116</ele>
        <time>2016-02-20T16:10:03Z</time>
      </trkpt>
      <trkpt lat="43.83582" lon="0.28764">
        <ele>116</ele>
        <time>2016-02-20T16:10:09Z</time>
      </trkpt>
      <trkpt lat="43.83573" lon="0.28763">
        <ele>116</ele>
        <time>2016-02-20T16:10:11Z</time>
      </trkpt>
      <trkpt lat="43.83523" lon="0.2876">
        <ele>116</ele>
        <time>2016-02-20T16:10:22Z</time>
      </trkpt>
      <trkpt lat="43.83486" lon="0.28758">
        <ele>116</ele>
        <time>2016-02-20T16:10:30Z</time>
      </trkpt>
      <trkpt lat="43.83454" lon="0.28756">
        <ele>116.6</ele>
        <time>2016-02-20T16:10:38Z</time>
      </trkpt>
      <trkpt lat="43.8345" lon="0.28756">
        <ele>116.4</ele>
        <time>2016-02-20T16:10:39Z</time>
      </trkpt>
      <trkpt lat="43.83411" lon="0.28754">
        <ele>116.6</ele>
        <time>2016-02-20T16:10:49Z</time>
      </trkpt>
      <trkpt lat="43.83382" lon="0.28752">
        <ele>116.8</ele>
        <time>2016-02-20T16:10:56Z</time>
      </trkpt>
      <trkpt lat="43.83344" lon="0.2875">
        <ele>117.2</ele>
        <time>2016-02-20T16:11:05Z</time>
      </trkpt>
      <trkpt lat="43.83306" lon="0.28748">
        <ele>117.4</ele>
        <time>2016-02-20T16:11:14Z</time>
      </trkpt>
      <trkpt lat="43.83291" lon="0.28749">
        <ele>117.8</ele>
        <time>2016-02-20T16:11:18Z</time>
      </trkpt>
      <trkpt lat="43.83278" lon="0.2875">
        <ele>118</ele>
        <time>2016-02-20T16:11:21Z</time>
      </trkpt>
      <trkpt lat="43.83248" lon="0.28756">
        <ele>118.6</ele>
        <time>2016-02-20T16:11:29Z</time>
      </trkpt>
      <trkpt lat="43.83234" lon="0.28759">
        <ele>118.8</ele>
        <time>2016-02-20T16:11:33Z</time>
      </trkpt>
      <trkpt lat="43.83221" lon="0.28762">
        <ele>119</ele>
        <time>2016-02-20T16:11:37Z</time>
      </trkpt>
      <trkpt lat="43.83199" lon="0.28766">
        <ele>119.8</ele>
        <time>2016-02-20T16:11:44Z</time>
      </trkpt>
      <trkpt lat="43.83182" lon="0.2877">
        <ele>120</ele>
        <time>2016-02-20T16:11:50Z</time>
      </trkpt>
      <trkpt lat="43.83179" lon="0.28771">
        <ele>120</ele>
        <time>2016-02-20T16:11:51Z</time>
      </trkpt>
      <trkpt lat="43.83156" lon="0.28774">
        <ele>120.2</ele>
        <time>2016-02-20T16:11:58Z</time>
      </trkpt>
      <trkpt lat="43.83129" lon="0.28779">
        <ele>120.4</ele>
        <time>2016-02-20T16:12:05Z</time>
      </trkpt>
      <trkpt lat="43.83098" lon="0.28785">
        <ele>120.2</ele>
        <time>2016-02-20T16:12:13Z</time>
      </trkpt>
      <trkpt lat="43.8306" lon="0.28792">
        <ele>120.2</ele>
        <time>2016-02-20T16:12:23Z</time>
      </trkpt>
      <trkpt lat="43.83033" lon="0.28798">
        <ele>120.4</ele>
        <time>2016-02-20T16:12:30Z</time>
      </trkpt>
      <trkpt lat="43.83005" lon="0.28802">
        <ele>120.4</ele>
        <time>2016-02-20T16:12:38Z</time>
      </trkpt>
      <trkpt lat="43.82984" lon="0.28807">
        <ele>120.2</ele>
        <time>2016-02-20T16:12:45Z</time>
      </trkpt>
      <trkpt lat="43.82955" lon="0.28814">
        <ele>119.6</ele>
        <time>2016-02-20T16:12:52Z</time>
      </trkpt>
      <trkpt lat="43.82937" lon="0.28817">
        <ele>119.6</ele>
        <time>2016-02-20T16:12:56Z</time>
      </trkpt>
      <trkpt lat="43.82927" lon="0.28817">
        <ele>119.2</ele>
        <time>2016-02-20T16:12:58Z</time>
      </trkpt>
      <trkpt lat="43.82912" lon="0.2882">
        <ele>119.4</ele>
        <time>2016-02-20T16:13:01Z</time>
      </trkpt>
      <trkpt lat="43.82907" lon="0.28821">
        <ele>119.4</ele>
        <time>2016-02-20T16:13:02Z</time>
      </trkpt>
      <trkpt lat="43.82897" lon="0.28823">
        <ele>119</ele>
        <time>2016-02-20T16:13:04Z</time>
      </trkpt>
      <trkpt lat="43.82877" lon="0.28826">
        <ele>118.8</ele>
        <time>2016-02-20T16:13:08Z</time>
      </trkpt>
      <trkpt lat="43.82849" lon="0.28832">
        <ele>118.4</ele>
        <time>2016-02-20T16:13:14Z</time>
      </trkpt>
      <trkpt lat="43.82819" lon="0.28839">
        <ele>118.2</ele>
        <time>2016-02-20T16:13:20Z</time>
      </trkpt>
      <trkpt lat="43.82814" lon="0.2884">
        <ele>118.2</ele>
        <time>2016-02-20T16:13:21Z</time>
      </trkpt>
      <trkpt lat="43.82809" lon="0.28841">
        <ele>117.8</ele>
        <time>2016-02-20T16:13:22Z</time>
      </trkpt>
      <trkpt lat="43.82779" lon="0.28847">
        <ele>117.8</ele>
        <time>2016-02-20T16:13:28Z</time>
      </trkpt>
      <trkpt lat="43.82729" lon="0.28857">
        <ele>117.8</ele>
        <time>2016-02-20T16:13:38Z</time>
      </trkpt>
      <trkpt lat="43.82687" lon="0.28865">
        <ele>117.4</ele>
        <time>2016-02-20T16:13:47Z</time>
      </trkpt>
      <trkpt lat="43.82645" lon="0.28873">
        <ele>117</ele>
        <time>2016-02-20T16:13:56Z</time>
      </trkpt>
      <trkpt lat="43.82607" lon="0.28876">
        <ele>117</ele>
        <time>2016-02-20T16:14:04Z</time>
      </trkpt>
      <trkpt lat="43.82571" lon="0.28871">
        <ele>117</ele>
        <time>2016-02-20T16:14:12Z</time>
      </trkpt>
      <trkpt lat="43.82531" lon="0.28863">
        <ele>117.4</ele>
        <time>2016-02-20T16:14:21Z</time>
      </trkpt>
      <trkpt lat="43.82501" lon="0.28859">
        <ele>117.6</ele>
        <time>2016-02-20T16:14:28Z</time>
      </trkpt>
      <trkpt lat="43.82497" lon="0.28858">
        <ele>117.6</ele>
        <time>2016-02-20T16:14:29Z</time>
      </trkpt>
      <trkpt lat="43.8245" lon="0.28852">
        <ele>117.4</ele>
        <time>2016-02-20T16:14:39Z</time>
      </trkpt>
      <trkpt lat="43.82413" lon="0.28845">
        <ele>117.6</ele>
        <time>2016-02-20T16:14:47Z</time>
      </trkpt>
      <trkpt lat="43.82362" lon="0.28835">
        <ele>117.8</ele>
        <time>2016-02-20T16:14:58Z</time>
      </trkpt>
      <trkpt lat="43.82321" lon="0.28829">
        <ele>117.4</ele>
        <time>2016-02-20T16:15:07Z</time>
      </trkpt>
      <trkpt lat="43.82287" lon="0.28822">
        <ele>117.8</ele>
        <time>2016-02-20T16:15:15Z</time>
      </trkpt>
      <trkpt lat="43.82248" lon="0.28816">
        <ele>118.4</ele>
        <time>2016-02-20T16:15:24Z</time>
      </trkpt>
      <trkpt lat="43.82232" lon="0.28813">
        <ele>118.4</ele>
        <time>2016-02-20T16:15:28Z</time>
      </trkpt>
      <trkpt lat="43.82215" lon="0.2881">
        <ele>118.2</ele>
        <time>2016-02-20T16:15:32Z</time>
      </trkpt>
      <trkpt lat="43.82178" lon="0.28804">
        <ele>118</ele>
        <time>2016-02-20T16:15:40Z</time>
      </trkpt>
      <trkpt lat="43.82141" lon="0.28798">
        <ele>117.8</ele>
        <time>2016-02-20T16:15:48Z</time>
      </trkpt>
      <trkpt lat="43.82103" lon="0.28792">
        <ele>117.8</ele>
        <time>2016-02-20T16:15:56Z</time>
      </trkpt>
      <trkpt lat="43.82081" lon="0.28788">
        <ele>118</ele>
        <time>2016-02-20T16:16:01Z</time>
      </trkpt>
      <trkpt lat="43.82068" lon="0.28786">
        <ele>118</ele>
        <time>2016-02-20T16:16:04Z</time>
      </trkpt>
      <trkpt lat="43.82038" lon="0.28781">
        <ele>118.8</ele>
        <time>2016-02-20T16:16:12Z</time>
      </trkpt>
      <trkpt lat="43.82035" lon="0.2878">
        <ele>119</ele>
        <time>2016-02-20T16:16:13Z</time>
      </trkpt>
      <trkpt lat="43.82011" lon="0.28776">
        <ele>119.8</ele>
        <time>2016-02-20T16:16:20Z</time>
      </trkpt>
      <trkpt lat="43.82001" lon="0.28775">
        <ele>120</ele>
        <time>2016-02-20T16:16:23Z</time>
      </trkpt>
      <trkpt lat="43.81976" lon="0.28771">
        <ele>120.8</ele>
        <time>2016-02-20T16:16:31Z</time>
      </trkpt>
      <trkpt lat="43.81973" lon="0.2877">
        <ele>121.2</ele>
        <time>2016-02-20T16:16:32Z</time>
      </trkpt>
      <trkpt lat="43.81952" lon="0.2877">
        <ele>122</ele>
        <time>2016-02-20T16:16:39Z</time>
      </trkpt>
      <trkpt lat="43.81944" lon="0.28771">
        <ele>122.2</ele>
        <time>2016-02-20T16:16:42Z</time>
      </trkpt>
      <trkpt lat="43.81936" lon="0.28771">
        <ele>122.4</ele>
        <time>2016-02-20T16:16:46Z</time>
      </trkpt>
      <trkpt lat="43.81923" lon="0.28773">
        <ele>122.4</ele>
        <time>2016-02-20T16:16:52Z</time>
      </trkpt>
      <trkpt lat="43.81913" lon="0.28783">
        <ele>122</ele>
        <time>2016-02-20T16:16:56Z</time>
      </trkpt>
      <trkpt lat="43.81891" lon="0.288">
        <ele>121.2</ele>
        <time>2016-02-20T16:17:02Z</time>
      </trkpt>
      <trkpt lat="43.81887" lon="0.28803">
        <ele>121</ele>
        <time>2016-02-20T16:17:03Z</time>
      </trkpt>
      <trkpt lat="43.81864" lon="0.28821">
        <ele>120</ele>
        <time>2016-02-20T16:17:08Z</time>
      </trkpt>
      <trkpt lat="43.8186" lon="0.28825">
        <ele>120</ele>
        <time>2016-02-20T16:17:09Z</time>
      </trkpt>
      <trkpt lat="43.81829" lon="0.28849">
        <ele>119.2</ele>
        <time>2016-02-20T16:17:15Z</time>
      </trkpt>
      <trkpt lat="43.8182" lon="0.28857">
        <ele>118.8</ele>
        <time>2016-02-20T16:17:17Z</time>
      </trkpt>
      <trkpt lat="43.81792" lon="0.28879">
        <ele>118.8</ele>
        <time>2016-02-20T16:17:23Z</time>
      </trkpt>
      <trkpt lat="43.81765" lon="0.289">
        <ele>119.2</ele>
        <time>2016-02-20T16:17:30Z</time>
      </trkpt>
      <trkpt lat="43.81736" lon="0.28921">
        <ele>119.6</ele>
        <time>2016-02-20T16:17:38Z</time>
      </trkpt>
      <trkpt lat="43.81715" lon="0.28933">
        <ele>120</ele>
        <time>2016-02-20T16:17:44Z</time>
      </trkpt>
      <trkpt lat="43.81711" lon="0.28934">
        <ele>120.2</ele>
        <time>2016-02-20T16:17:45Z</time>
      </trkpt>
      <trkpt lat="43.8168" lon="0.28942">
        <ele>120.8</ele>
        <time>2016-02-20T16:17:54Z</time>
      </trkpt>
      <trkpt lat="43.81661" lon="0.28943">
        <ele>121</ele>
        <time>2016-02-20T16:17:59Z</time>
      </trkpt>
      <trkpt lat="43.81642" lon="0.28944">
        <ele>121</ele>
        <time>2016-02-20T16:18:04Z</time>
      </trkpt>
      <trkpt lat="43.81612" lon="0.28944">
        <ele>121.4</ele>
        <time>2016-02-20T16:18:12Z</time>
      </trkpt>
      <trkpt lat="43.81581" lon="0.28947">
        <ele>122</ele>
        <time>2016-02-20T16:18:21Z</time>
      </trkpt>
      <trkpt lat="43.81553" lon="0.28952">
        <ele>122.8</ele>
        <time>2016-02-20T16:18:29Z</time>
      </trkpt>
      <trkpt lat="43.81547" lon="0.28954">
        <ele>123</ele>
        <time>2016-02-20T16:18:31Z</time>
      </trkpt>
      <trkpt lat="43.81531" lon="0.2896">
        <ele>123.6</ele>
        <time>2016-02-20T16:18:36Z</time>
      </trkpt>
      <trkpt lat="43.81521" lon="0.28965">
        <ele>124</ele>
        <time>2016-02-20T16:18:39Z</time>
      </trkpt>
      <trkpt lat="43.81511" lon="0.28974">
        <ele>124.6</ele>
        <time>2016-02-20T16:18:43Z</time>
      </trkpt>
      <trkpt lat="43.81497" lon="0.28982">
        <ele>125.2</ele>
        <time>2016-02-20T16:18:48Z</time>
      </trkpt>
      <trkpt lat="43.81484" lon="0.28993">
        <ele>125.8</ele>
        <time>2016-02-20T16:18:53Z</time>
      </trkpt>
      <trkpt lat="43.81472" lon="0.29">
        <ele>126.4</ele>
        <time>2016-02-20T16:18:57Z</time>
      </trkpt>
      <trkpt lat="43.81458" lon="0.2901">
        <ele>126.6</ele>
        <time>2016-02-20T16:19:02Z</time>
      </trkpt>
      <trkpt lat="43.81443" lon="0.29021">
        <ele>127.6</ele>
        <time>2016-02-20T16:19:08Z</time>
      </trkpt>
      <trkpt lat="43.81438" lon="0.29024">
        <ele>127.8</ele>
        <time>2016-02-20T16:19:10Z</time>
      </trkpt>
      <trkpt lat="43.8142" lon="0.29037">
        <ele>128.2</ele>
        <time>2016-02-20T16:19:17Z</time>
      </trkpt>
      <trkpt lat="43.81391" lon="0.29058">
        <ele>128.4</ele>
        <time>2016-02-20T16:19:27Z</time>
      </trkpt>
      <trkpt lat="43.81386" lon="0.29061">
        <ele>128.6</ele>
        <time>2016-02-20T16:19:29Z</time>
      </trkpt>
      <trkpt lat="43.81376" lon="0.2907">
        <ele>128.6</ele>
        <time>2016-02-20T16:19:33Z</time>
      </trkpt>
      <trkpt lat="43.81352" lon="0.29092">
        <ele>128.6</ele>
        <time>2016-02-20T16:19:41Z</time>
      </trkpt>
      <trkpt lat="43.81332" lon="0.29115">
        <ele>128.6</ele>
        <time>2016-02-20T16:19:48Z</time>
      </trkpt>
      <trkpt lat="43.81319" lon="0.29127">
        <ele>128.4</ele>
        <time>2016-02-20T16:19:52Z</time>
      </trkpt>
      <trkpt lat="43.81314" lon="0.29134">
        <ele>128.4</ele>
        <time>2016-02-20T16:19:54Z</time>
      </trkpt>
      <trkpt lat="43.81289" lon="0.29159">
        <ele>128.4</ele>
        <time>2016-02-20T16:20:02Z</time>
      </trkpt>
      <trkpt lat="43.81268" lon="0.2918">
        <ele>128.2</ele>
        <time>2016-02-20T16:20:09Z</time>
      </trkpt>
      <trkpt lat="43.8125" lon="0.29193">
        <ele>128.2</ele>
        <time>2016-02-20T16:20:15Z</time>
      </trkpt>
      <trkpt lat="43.81227" lon="0.29204">
        <ele>128</ele>
        <time>2016-02-20T16:20:22Z</time>
      </trkpt>
      <trkpt lat="43.81196" lon="0.29218">
        <ele>128.4</ele>
        <time>2016-02-20T16:20:31Z</time>
      </trkpt>
      <trkpt lat="43.81161" lon="0.29234">
        <ele>128.6</ele>
        <time>2016-02-20T16:20:40Z</time>
      </trkpt>
      <trkpt lat="43.81157" lon="0.29236">
        <ele>128.4</ele>
        <time>2016-02-20T16:20:41Z</time>
      </trkpt>
      <trkpt lat="43.81138" lon="0.29244">
        <ele>128.8</ele>
        <time>2016-02-20T16:20:46Z</time>
      </trkpt>
      <trkpt lat="43.81107" lon="0.29258">
        <ele>128.6</ele>
        <time>2016-02-20T16:20:55Z</time>
      </trkpt>
      <trkpt lat="43.81078" lon="0.29272">
        <ele>128.4</ele>
        <time>2016-02-20T16:21:03Z</time>
      </trkpt>
      <trkpt lat="43.81045" lon="0.29289">
        <ele>128.6</ele>
        <time>2016-02-20T16:21:12Z</time>
      </trkpt>
      <trkpt lat="43.81024" lon="0.29304">
        <ele>128.6</ele>
        <time>2016-02-20T16:21:19Z</time>
      </trkpt>
      <trkpt lat="43.80996" lon="0.29325">
        <ele>128.8</ele>
        <time>2016-02-20T16:21:28Z</time>
      </trkpt>
      <trkpt lat="43.80964" lon="0.29352">
        <ele>128.8</ele>
        <time>2016-02-20T16:21:37Z</time>
      </trkpt>
      <trkpt lat="43.80936" lon="0.29379">
        <ele>128.6</ele>
        <time>2016-02-20T16:21:44Z</time>
      </trkpt>
      <trkpt lat="43.80896" lon="0.29417">
        <ele>127.6</ele>
        <time>2016-02-20T16:21:53Z</time>
      </trkpt>
      <trkpt lat="43.80865" lon="0.29447">
        <ele>127</ele>
        <time>2016-02-20T16:22:00Z</time>
      </trkpt>
      <trkpt lat="43.80842" lon="0.29469">
        <ele>126.4</ele>
        <time>2016-02-20T16:22:05Z</time>
      </trkpt>
      <trkpt lat="43.80833" lon="0.29477">
        <ele>126</ele>
        <time>2016-02-20T16:22:07Z</time>
      </trkpt>
      <trkpt lat="43.80801" lon="0.29509">
        <ele>125.4</ele>
        <time>2016-02-20T16:22:14Z</time>
      </trkpt>
      <trkpt lat="43.80797" lon="0.29513">
        <ele>125.4</ele>
        <time>2016-02-20T16:22:15Z</time>
      </trkpt>
      <trkpt lat="43.80759" lon="0.29548">
        <ele>124.8</ele>
        <time>2016-02-20T16:22:23Z</time>
      </trkpt>
      <trkpt lat="43.8075" lon="0.29557">
        <ele>124.2</ele>
        <time>2016-02-20T16:22:25Z</time>
      </trkpt>
      <trkpt lat="43.80722" lon="0.29583">
        <ele>123.8</ele>
        <time>2016-02-20T16:22:31Z</time>
      </trkpt>
      <trkpt lat="43.80695" lon="0.2961">
        <ele>123.4</ele>
        <time>2016-02-20T16:22:37Z</time>
      </trkpt>
      <trkpt lat="43.8069" lon="0.29615">
        <ele>123.2</ele>
        <time>2016-02-20T16:22:38Z</time>
      </trkpt>
      <trkpt lat="43.80658" lon="0.29644">
        <ele>123</ele>
        <time>2016-02-20T16:22:45Z</time>
      </trkpt>
      <trkpt lat="43.80617" lon="0.29683">
        <ele>122.4</ele>
        <time>2016-02-20T16:22:54Z</time>
      </trkpt>
      <trkpt lat="43.80585" lon="0.29713">
        <ele>122.6</ele>
        <time>2016-02-20T16:23:03Z</time>
      </trkpt>
      <trkpt lat="43.8055" lon="0.29746">
        <ele>122.6</ele>
        <time>2016-02-20T16:23:12Z</time>
      </trkpt>
      <trkpt lat="43.80513" lon="0.29782">
        <ele>122.6</ele>
        <time>2016-02-20T16:23:21Z</time>
      </trkpt>
      <trkpt lat="43.80509" lon="0.29786">
        <ele>122.2</ele>
        <time>2016-02-20T16:23:22Z</time>
      </trkpt>
      <trkpt lat="43.80463" lon="0.29829">
        <ele>121.8</ele>
        <time>2016-02-20T16:23:32Z</time>
      </trkpt>
      <trkpt lat="43.80417" lon="0.29873">
        <ele>121.6</ele>
        <time>2016-02-20T16:23:42Z</time>
      </trkpt>
      <trkpt lat="43.80403" lon="0.29886">
        <ele>121.2</ele>
        <time>2016-02-20T16:23:45Z</time>
      </trkpt>
      <trkpt lat="43.80394" lon="0.29895">
        <ele>120.8</ele>
        <time>2016-02-20T16:23:47Z</time>
      </trkpt>
      <trkpt lat="43.80355" lon="0.29931">
        <ele>120.6</ele>
        <time>2016-02-20T16:23:55Z</time>
      </trkpt>
      <trkpt lat="43.80307" lon="0.29976">
        <ele>120.6</ele>
        <time>2016-02-20T16:24:05Z</time>
      </trkpt>
      <trkpt lat="43.80293" lon="0.29989">
        <ele>120.4</ele>
        <time>2016-02-20T16:24:08Z</time>
      </trkpt>
      <trkpt lat="43.80254" lon="0.30028">
        <ele>120.2</ele>
        <time>2016-02-20T16:24:17Z</time>
      </trkpt>
      <trkpt lat="43.8022" lon="0.30069">
        <ele>120.8</ele>
        <time>2016-02-20T16:24:26Z</time>
      </trkpt>
      <trkpt lat="43.80193" lon="0.30111">
        <ele>120.4</ele>
        <time>2016-02-20T16:24:34Z</time>
      </trkpt>
      <trkpt lat="43.80166" lon="0.30162">
        <ele>121.2</ele>
        <time>2016-02-20T16:24:43Z</time>
      </trkpt>
      <trkpt lat="43.80144" lon="0.30205">
        <ele>120.8</ele>
        <time>2016-02-20T16:24:51Z</time>
      </trkpt>
      <trkpt lat="43.80117" lon="0.30259">
        <ele>120.8</ele>
        <time>2016-02-20T16:25:01Z</time>
      </trkpt>
      <trkpt lat="43.80103" lon="0.303">
        <ele>120.8</ele>
        <time>2016-02-20T16:25:08Z</time>
      </trkpt>
      <trkpt lat="43.80093" lon="0.3034">
        <ele>121</ele>
        <time>2016-02-20T16:25:15Z</time>
      </trkpt>
      <trkpt lat="43.80084" lon="0.30385">
        <ele>121.2</ele>
        <time>2016-02-20T16:25:23Z</time>
      </trkpt>
      <trkpt lat="43.80075" lon="0.30435">
        <ele>122</ele>
        <time>2016-02-20T16:25:32Z</time>
      </trkpt>
      <trkpt lat="43.80073" lon="0.30445">
        <ele>122</ele>
        <time>2016-02-20T16:25:34Z</time>
      </trkpt>
      <trkpt lat="43.80066" lon="0.30488">
        <ele>122.4</ele>
        <time>2016-02-20T16:25:42Z</time>
      </trkpt>
      <trkpt lat="43.80057" lon="0.30524">
        <ele>123</ele>
        <time>2016-02-20T16:25:49Z</time>
      </trkpt>
      <trkpt lat="43.80054" lon="0.30532">
        <ele>123</ele>
        <time>2016-02-20T16:25:51Z</time>
      </trkpt>
      <trkpt lat="43.80041" lon="0.30563">
        <ele>123</ele>
        <time>2016-02-20T16:25:59Z</time>
      </trkpt>
      <trkpt lat="43.80025" lon="0.30585">
        <ele>123.4</ele>
        <time>2016-02-20T16:26:05Z</time>
      </trkpt>
      <trkpt lat="43.80007" lon="0.30604">
        <ele>124.2</ele>
        <time>2016-02-20T16:26:11Z</time>
      </trkpt>
      <trkpt lat="43.80003" lon="0.30607">
        <ele>124.2</ele>
        <time>2016-02-20T16:26:12Z</time>
      </trkpt>
      <trkpt lat="43.79986" lon="0.30624">
        <ele>125</ele>
        <time>2016-02-20T16:26:18Z</time>
      </trkpt>
      <trkpt lat="43.79976" lon="0.30635">
        <ele>125.2</ele>
        <time>2016-02-20T16:26:22Z</time>
      </trkpt>
      <trkpt lat="43.79972" lon="0.30638">
        <ele>125.4</ele>
        <time>2016-02-20T16:26:23Z</time>
      </trkpt>
      <trkpt lat="43.79952" lon="0.30658">
        <ele>126</ele>
        <time>2016-02-20T16:26:30Z</time>
      </trkpt>
      <trkpt lat="43.79947" lon="0.30662">
        <ele>126.4</ele>
        <time>2016-02-20T16:26:32Z</time>
      </trkpt>
      <trkpt lat="43.79935" lon="0.30673">
        <ele>126.6</ele>
        <time>2016-02-20T16:26:36Z</time>
      </trkpt>
      <trkpt lat="43.79917" lon="0.30692">
        <ele>126.8</ele>
        <time>2016-02-20T16:26:42Z</time>
      </trkpt>
      <trkpt lat="43.79907" lon="0.30701">
        <ele>127.4</ele>
        <time>2016-02-20T16:26:46Z</time>
      </trkpt>
      <trkpt lat="43.79902" lon="0.30706">
        <ele>127.4</ele>
        <time>2016-02-20T16:26:48Z</time>
      </trkpt>
      <trkpt lat="43.79881" lon="0.30727">
        <ele>128.2</ele>
        <time>2016-02-20T16:26:55Z</time>
      </trkpt>
      <trkpt lat="43.79858" lon="0.30745">
        <ele>128.2</ele>
        <time>2016-02-20T16:27:03Z</time>
      </trkpt>
      <trkpt lat="43.79834" lon="0.30754">
        <ele>127.8</ele>
        <time>2016-02-20T16:27:11Z</time>
      </trkpt>
      <trkpt lat="43.79815" lon="0.30752">
        <ele>127.4</ele>
        <time>2016-02-20T16:27:17Z</time>
      </trkpt>
      <trkpt lat="43.79796" lon="0.30741">
        <ele>127.2</ele>
        <time>2016-02-20T16:27:22Z</time>
      </trkpt>
      <trkpt lat="43.79792" lon="0.30739">
        <ele>127.4</ele>
        <time>2016-02-20T16:27:23Z</time>
      </trkpt>
      <trkpt lat="43.79768" lon="0.30721">
        <ele>126.8</ele>
        <time>2016-02-20T16:27:29Z</time>
      </trkpt>
      <trkpt lat="43.79739" lon="0.307">
        <ele>126.4</ele>
        <time>2016-02-20T16:27:36Z</time>
      </trkpt>
      <trkpt lat="43.79735" lon="0.30697">
        <ele>126.4</ele>
        <time>2016-02-20T16:27:37Z</time>
      </trkpt>
      <trkpt lat="43.79698" lon="0.30671">
        <ele>125.2</ele>
        <time>2016-02-20T16:27:46Z</time>
      </trkpt>
      <trkpt lat="43.79664" lon="0.30646">
        <ele>124.8</ele>
        <time>2016-02-20T16:27:54Z</time>
      </trkpt>
      <trkpt lat="43.79637" lon="0.30627">
        <ele>124.2</ele>
        <time>2016-02-20T16:28:00Z</time>
      </trkpt>
      <trkpt lat="43.79628" lon="0.30621">
        <ele>123.8</ele>
        <time>2016-02-20T16:28:02Z</time>
      </trkpt>
      <trkpt lat="43.79589" lon="0.30593">
        <ele>124</ele>
        <time>2016-02-20T16:28:11Z</time>
      </trkpt>
      <trkpt lat="43.79555" lon="0.3057">
        <ele>124.2</ele>
        <time>2016-02-20T16:28:20Z</time>
      </trkpt>
      <trkpt lat="43.79537" lon="0.30559">
        <ele>124.6</ele>
        <time>2016-02-20T16:28:26Z</time>
      </trkpt>
      <trkpt lat="43.79511" lon="0.30546">
        <ele>124.8</ele>
        <time>2016-02-20T16:28:33Z</time>
      </trkpt>
      <trkpt lat="43.795" lon="0.30542">
        <ele>125.2</ele>
        <time>2016-02-20T16:28:36Z</time>
      </trkpt>
      <trkpt lat="43.79486" lon="0.30534">
        <ele>125.6</ele>
        <time>2016-02-20T16:28:40Z</time>
      </trkpt>
      <trkpt lat="43.79462" lon="0.30522">
        <ele>125.8</ele>
        <time>2016-02-20T16:28:47Z</time>
      </trkpt>
      <trkpt lat="43.79427" lon="0.30505">
        <ele>125.4</ele>
        <time>2016-02-20T16:28:56Z</time>
      </trkpt>
      <trkpt lat="43.79396" lon="0.30492">
        <ele>125.4</ele>
        <time>2016-02-20T16:29:03Z</time>
      </trkpt>
      <trkpt lat="43.79364" lon="0.30482">
        <ele>124.8</ele>
        <time>2016-02-20T16:29:10Z</time>
      </trkpt>
      <trkpt lat="43.79336" lon="0.30476">
        <ele>125</ele>
        <time>2016-02-20T16:29:16Z</time>
      </trkpt>
      <trkpt lat="43.79331" lon="0.30475">
        <ele>125</ele>
        <time>2016-02-20T16:29:17Z</time>
      </trkpt>
      <trkpt lat="43.79303" lon="0.3047">
        <ele>125</ele>
        <time>2016-02-20T16:29:23Z</time>
      </trkpt>
      <trkpt lat="43.79294" lon="0.30469">
        <ele>125</ele>
        <time>2016-02-20T16:29:25Z</time>
      </trkpt>
      <trkpt lat="43.79285" lon="0.30467">
        <ele>125.2</ele>
        <time>2016-02-20T16:29:27Z</time>
      </trkpt>
      <trkpt lat="43.79281" lon="0.30466">
        <ele>125.2</ele>
        <time>2016-02-20T16:29:28Z</time>
      </trkpt>
      <trkpt lat="43.79266" lon="0.30463">
        <ele>124.6</ele>
        <time>2016-02-20T16:29:31Z</time>
      </trkpt>
      <trkpt lat="43.79252" lon="0.30461">
        <ele>124.8</ele>
        <time>2016-02-20T16:29:34Z</time>
      </trkpt>
      <trkpt lat="43.79219" lon="0.30456">
        <ele>125</ele>
        <time>2016-02-20T16:29:41Z</time>
      </trkpt>
      <trkpt lat="43.79187" lon="0.30451">
        <ele>124</ele>
        <time>2016-02-20T16:29:48Z</time>
      </trkpt>
      <trkpt lat="43.79179" lon="0.3045">
        <ele>124.2</ele>
        <time>2016-02-20T16:29:50Z</time>
      </trkpt>
      <trkpt lat="43.79171" lon="0.30449">
        <ele>125</ele>
        <time>2016-02-20T16:29:52Z</time>
      </trkpt>
      <trkpt lat="43.79151" lon="0.30445">
        <ele>124.8</ele>
        <time>2016-02-20T16:29:57Z</time>
      </trkpt>
      <trkpt lat="43.79114" lon="0.30444">
        <ele>125.4</ele>
        <time>2016-02-20T16:30:06Z</time>
      </trkpt>
      <trkpt lat="43.7907" lon="0.30453">
        <ele>125.6</ele>
        <time>2016-02-20T16:30:16Z</time>
      </trkpt>
      <trkpt lat="43.79017" lon="0.30473">
        <ele>126</ele>
        <time>2016-02-20T16:30:28Z</time>
      </trkpt>
      <trkpt lat="43.78976" lon="0.30488">
        <ele>125.8</ele>
        <time>2016-02-20T16:30:37Z</time>
      </trkpt>
      <trkpt lat="43.78972" lon="0.3049">
        <ele>126.2</ele>
        <time>2016-02-20T16:30:38Z</time>
      </trkpt>
      <trkpt lat="43.7894" lon="0.30503">
        <ele>126</ele>
        <time>2016-02-20T16:30:45Z</time>
      </trkpt>
      <trkpt lat="43.78891" lon="0.30521">
        <ele>126.2</ele>
        <time>2016-02-20T16:30:56Z</time>
      </trkpt>
      <trkpt lat="43.78856" lon="0.30537">
        <ele>126.4</ele>
        <time>2016-02-20T16:31:04Z</time>
      </trkpt>
      <trkpt lat="43.78826" lon="0.30548">
        <ele>126.2</ele>
        <time>2016-02-20T16:31:11Z</time>
      </trkpt>
      <trkpt lat="43.78789" lon="0.30563">
        <ele>126.6</ele>
        <time>2016-02-20T16:31:19Z</time>
      </trkpt>
      <trkpt lat="43.78743" lon="0.30577">
        <ele>126.2</ele>
        <time>2016-02-20T16:31:29Z</time>
      </trkpt>
      <trkpt lat="43.78714" lon="0.30581">
        <ele>126.2</ele>
        <time>2016-02-20T16:31:35Z</time>
      </trkpt>
      <trkpt lat="43.78704" lon="0.30582">
        <ele>126.2</ele>
        <time>2016-02-20T16:31:37Z</time>
      </trkpt>
      <trkpt lat="43.7866" lon="0.30584">
        <ele>126.2</ele>
        <time>2016-02-20T16:31:47Z</time>
      </trkpt>
      <trkpt lat="43.78626" lon="0.30586">
        <ele>126.4</ele>
        <time>2016-02-20T16:31:55Z</time>
      </trkpt>
      <trkpt lat="43.78586" lon="0.30589">
        <ele>126.4</ele>
        <time>2016-02-20T16:32:04Z</time>
      </trkpt>
      <trkpt lat="43.78545" lon="0.30591">
        <ele>126.8</ele>
        <time>2016-02-20T16:32:13Z</time>
      </trkpt>
      <trkpt lat="43.78501" lon="0.30594">
        <ele>127.2</ele>
        <time>2016-02-20T16:32:23Z</time>
      </trkpt>
      <trkpt lat="43.7846" lon="0.30597">
        <ele>126.8</ele>
        <time>2016-02-20T16:32:32Z</time>
      </trkpt>
      <trkpt lat="43.78446" lon="0.30598">
        <ele>127.4</ele>
        <time>2016-02-20T16:32:35Z</time>
      </trkpt>
      <trkpt lat="43.78415" lon="0.306">
        <ele>127.2</ele>
        <time>2016-02-20T16:32:42Z</time>
      </trkpt>
      <trkpt lat="43.78375" lon="0.30604">
        <ele>127.4</ele>
        <time>2016-02-20T16:32:51Z</time>
      </trkpt>
      <trkpt lat="43.7834" lon="0.30605">
        <ele>127.6</ele>
        <time>2016-02-20T16:32:59Z</time>
      </trkpt>
      <trkpt lat="43.78296" lon="0.30608">
        <ele>128</ele>
        <time>2016-02-20T16:33:09Z</time>
      </trkpt>
      <trkpt lat="43.78264" lon="0.30611">
        <ele>128.6</ele>
        <time>2016-02-20T16:33:17Z</time>
      </trkpt>
      <trkpt lat="43.78256" lon="0.30611">
        <ele>128.6</ele>
        <time>2016-02-20T16:33:19Z</time>
      </trkpt>
      <trkpt lat="43.78223" lon="0.30612">
        <ele>128.8</ele>
        <time>2016-02-20T16:33:27Z</time>
      </trkpt>
      <trkpt lat="43.78185" lon="0.30608">
        <ele>128.8</ele>
        <time>2016-02-20T16:33:36Z</time>
      </trkpt>
      <trkpt lat="43.78148" lon="0.30594">
        <ele>129.2</ele>
        <time>2016-02-20T16:33:45Z</time>
      </trkpt>
      <trkpt lat="43.78128" lon="0.30585">
        <ele>129.6</ele>
        <time>2016-02-20T16:33:50Z</time>
      </trkpt>
      <trkpt lat="43.78116" lon="0.3058">
        <ele>129.4</ele>
        <time>2016-02-20T16:33:53Z</time>
      </trkpt>
      <trkpt lat="43.78085" lon="0.30567">
        <ele>129.6</ele>
        <time>2016-02-20T16:34:01Z</time>
      </trkpt>
      <trkpt lat="43.78054" lon="0.30554">
        <ele>130.2</ele>
        <time>2016-02-20T16:34:09Z</time>
      </trkpt>
      <trkpt lat="43.78019" lon="0.30539">
        <ele>129.8</ele>
        <time>2016-02-20T16:34:18Z</time>
      </trkpt>
      <trkpt lat="43.7798" lon="0.30522">
        <ele>130.2</ele>
        <time>2016-02-20T16:34:28Z</time>
      </trkpt>
      <trkpt lat="43.77968" lon="0.30518">
        <ele>130</ele>
        <time>2016-02-20T16:34:31Z</time>
      </trkpt>
      <trkpt lat="43.77951" lon="0.30511">
        <ele>129.8</ele>
        <time>2016-02-20T16:34:35Z</time>
      </trkpt>
      <trkpt lat="43.77924" lon="0.30501">
        <ele>130.2</ele>
        <time>2016-02-20T16:34:42Z</time>
      </trkpt>
      <trkpt lat="43.77911" lon="0.30507">
        <ele>130</ele>
        <time>2016-02-20T16:34:46Z</time>
      </trkpt>
      <trkpt lat="43.77909" lon="0.30516">
        <ele>129.8</ele>
        <time>2016-02-20T16:34:48Z</time>
      </trkpt>
      <trkpt lat="43.77909" lon="0.3052">
        <ele>129.8</ele>
        <time>2016-02-20T16:34:49Z</time>
      </trkpt>
      <trkpt lat="43.77906" lon="0.30531">
        <ele>129.8</ele>
        <time>2016-02-20T16:34:52Z</time>
      </trkpt>
      <trkpt lat="43.77905" lon="0.30538">
        <ele>130</ele>
        <time>2016-02-20T16:34:54Z</time>
      </trkpt>
      <trkpt lat="43.779" lon="0.30557">
        <ele>130</ele>
        <time>2016-02-20T16:35:01Z</time>
      </trkpt>
      <trkpt lat="43.77901" lon="0.30563">
        <ele>129.8</ele>
        <time>2016-02-20T16:35:03Z</time>
      </trkpt>
      <trkpt lat="43.77899" lon="0.30573">
        <ele>130</ele>
        <time>2016-02-20T16:35:06Z</time>
      </trkpt>
      <trkpt lat="43.77893" lon="0.30591">
        <ele>130</ele>
        <time>2016-02-20T16:35:11Z</time>
      </trkpt>
      <trkpt lat="43.77893" lon="0.30595">
        <ele>129.8</ele>
        <time>2016-02-20T16:35:12Z</time>
      </trkpt>
      <trkpt lat="43.77889" lon="0.30608">
        <ele>130.2</ele>
        <time>2016-02-20T16:35:16Z</time>
      </trkpt>
      <trkpt lat="43.77884" lon="0.30638">
        <ele>129.8</ele>
        <time>2016-02-20T16:35:24Z</time>
      </trkpt>
      <trkpt lat="43.77877" lon="0.30656">
        <ele>129.4</ele>
        <time>2016-02-20T16:35:29Z</time>
      </trkpt>
      <trkpt lat="43.77866" lon="0.30687">
        <ele>129.2</ele>
        <time>2016-02-20T16:35:36Z</time>
      </trkpt>
      <trkpt lat="43.77854" lon="0.30722">
        <ele>129.2</ele>
        <time>2016-02-20T16:35:42Z</time>
      </trkpt>
      <trkpt lat="43.77853" lon="0.30728">
        <ele>129</ele>
        <time>2016-02-20T16:35:43Z</time>
      </trkpt>
      <trkpt lat="43.77846" lon="0.30752">
        <ele>129</ele>
        <time>2016-02-20T16:35:47Z</time>
      </trkpt>
      <trkpt lat="43.77843" lon="0.30765">
        <ele>128.8</ele>
        <time>2016-02-20T16:35:49Z</time>
      </trkpt>
      <trkpt lat="43.77842" lon="0.30772">
        <ele>128.2</ele>
        <time>2016-02-20T16:35:50Z</time>
      </trkpt>
      <trkpt lat="43.77838" lon="0.30786">
        <ele>128.2</ele>
        <time>2016-02-20T16:35:52Z</time>
      </trkpt>
      <trkpt lat="43.77831" lon="0.30814">
        <ele>128.2</ele>
        <time>2016-02-20T16:35:56Z</time>
      </trkpt>
      <trkpt lat="43.77827" lon="0.30829">
        <ele>127.8</ele>
        <time>2016-02-20T16:35:58Z</time>
      </trkpt>
      <trkpt lat="43.77825" lon="0.30835">
        <ele>127.8</ele>
        <time>2016-02-20T16:35:59Z</time>
      </trkpt>
      <trkpt lat="43.77823" lon="0.30843">
        <ele>128</ele>
        <time>2016-02-20T16:36:00Z</time>
      </trkpt>
      <trkpt lat="43.77818" lon="0.30864">
        <ele>127.4</ele>
        <time>2016-02-20T16:36:03Z</time>
      </trkpt>
      <trkpt lat="43.77814" lon="0.30885">
        <ele>127.6</ele>
        <time>2016-02-20T16:36:06Z</time>
      </trkpt>
      <trkpt lat="43.77812" lon="0.30905">
        <ele>128</ele>
        <time>2016-02-20T16:36:09Z</time>
      </trkpt>
      <trkpt lat="43.77805" lon="0.30929">
        <ele>127.4</ele>
        <time>2016-02-20T16:36:13Z</time>
      </trkpt>
      <trkpt lat="43.77803" lon="0.30934">
        <ele>127.4</ele>
        <time>2016-02-20T16:36:14Z</time>
      </trkpt>
      <trkpt lat="43.778" lon="0.30939">
        <ele>127.2</ele>
        <time>2016-02-20T16:36:15Z</time>
      </trkpt>
      <trkpt lat="43.77785" lon="0.30955">
        <ele>127.4</ele>
        <time>2016-02-20T16:36:19Z</time>
      </trkpt>
      <trkpt lat="43.77781" lon="0.30958">
        <ele>127.4</ele>
        <time>2016-02-20T16:36:20Z</time>
      </trkpt>
      <trkpt lat="43.77767" lon="0.30966">
        <ele>127.2</ele>
        <time>2016-02-20T16:36:23Z</time>
      </trkpt>
      <trkpt lat="43.77759" lon="0.3097">
        <ele>127.6</ele>
        <time>2016-02-20T16:36:25Z</time>
      </trkpt>
      <trkpt lat="43.77733" lon="0.3098">
        <ele>127.4</ele>
        <time>2016-02-20T16:36:31Z</time>
      </trkpt>
      <trkpt lat="43.77696" lon="0.30996">
        <ele>127.4</ele>
        <time>2016-02-20T16:36:40Z</time>
      </trkpt>
      <trkpt lat="43.77689" lon="0.30999">
        <ele>128.4</ele>
        <time>2016-02-20T16:36:42Z</time>
      </trkpt>
      <trkpt lat="43.7768" lon="0.31003">
        <ele>128.6</ele>
        <time>2016-02-20T16:36:46Z</time>
      </trkpt>
      <trkpt lat="43.77671" lon="0.31008">
        <ele>129.2</ele>
        <time>2016-02-20T16:36:52Z</time>
      </trkpt>
      <trkpt lat="43.77665" lon="0.31011">
        <ele>129.6</ele>
        <time>2016-02-20T16:36:54Z</time>
      </trkpt>
      <trkpt lat="43.77655" lon="0.31015">
        <ele>129.8</ele>
        <time>2016-02-20T16:36:58Z</time>
      </trkpt>
      <trkpt lat="43.77632" lon="0.31026">
        <ele>128.8</ele>
        <time>2016-02-20T16:37:04Z</time>
      </trkpt>
      <trkpt lat="43.77627" lon="0.31028">
        <ele>128.6</ele>
        <time>2016-02-20T16:37:05Z</time>
      </trkpt>
      <trkpt lat="43.77602" lon="0.31041">
        <ele>128</ele>
        <time>2016-02-20T16:37:10Z</time>
      </trkpt>
      <trkpt lat="43.77569" lon="0.31055">
        <ele>128.8</ele>
        <time>2016-02-20T16:37:17Z</time>
      </trkpt>
      <trkpt lat="43.77559" lon="0.31059">
        <ele>129.8</ele>
        <time>2016-02-20T16:37:20Z</time>
      </trkpt>
      <trkpt lat="43.77552" lon="0.31062">
        <ele>130.6</ele>
        <time>2016-02-20T16:37:23Z</time>
      </trkpt>
      <trkpt lat="43.77543" lon="0.31067">
        <ele>131.2</ele>
        <time>2016-02-20T16:37:27Z</time>
      </trkpt>
      <trkpt lat="43.77541" lon="0.31068">
        <ele>131.4</ele>
        <time>2016-02-20T16:37:28Z</time>
      </trkpt>
      <trkpt lat="43.77538" lon="0.31068">
        <ele>131.6</ele>
        <time>2016-02-20T16:37:29Z</time>
      </trkpt>
      <trkpt lat="43.77528" lon="0.3107">
        <ele>132.2</ele>
        <time>2016-02-20T16:37:33Z</time>
      </trkpt>
      <trkpt lat="43.77518" lon="0.31071">
        <ele>132.8</ele>
        <time>2016-02-20T16:37:37Z</time>
      </trkpt>
      <trkpt lat="43.77509" lon="0.31072">
        <ele>133.4</ele>
        <time>2016-02-20T16:37:40Z</time>
      </trkpt>
      <trkpt lat="43.77499" lon="0.31072">
        <ele>134.2</ele>
        <time>2016-02-20T16:37:44Z</time>
      </trkpt>
      <trkpt lat="43.77493" lon="0.31073">
        <ele>134.4</ele>
        <time>2016-02-20T16:37:46Z</time>
      </trkpt>
      <trkpt lat="43.77481" lon="0.31076">
        <ele>135.4</ele>
        <time>2016-02-20T16:37:51Z</time>
      </trkpt>
      <trkpt lat="43.77479" lon="0.31078">
        <ele>135.6</ele>
        <time>2016-02-20T16:37:52Z</time>
      </trkpt>
      <trkpt lat="43.77468" lon="0.31085">
        <ele>136.6</ele>
        <time>2016-02-20T16:37:57Z</time>
      </trkpt>
      <trkpt lat="43.77466" lon="0.31087">
        <ele>136.6</ele>
        <time>2016-02-20T16:37:58Z</time>
      </trkpt>
      <trkpt lat="43.77455" lon="0.311">
        <ele>137.4</ele>
        <time>2016-02-20T16:38:04Z</time>
      </trkpt>
      <trkpt lat="43.77454" lon="0.31103">
        <ele>137.8</ele>
        <time>2016-02-20T16:38:05Z</time>
      </trkpt>
      <trkpt lat="43.77448" lon="0.31117">
        <ele>138.8</ele>
        <time>2016-02-20T16:38:10Z</time>
      </trkpt>
      <trkpt lat="43.77447" lon="0.31123">
        <ele>139</ele>
        <time>2016-02-20T16:38:12Z</time>
      </trkpt>
      <trkpt lat="43.77444" lon="0.31137">
        <ele>139.8</ele>
        <time>2016-02-20T16:38:17Z</time>
      </trkpt>
      <trkpt lat="43.77444" lon="0.31141">
        <ele>140.2</ele>
        <time>2016-02-20T16:38:18Z</time>
      </trkpt>
      <trkpt lat="43.77443" lon="0.31162">
        <ele>141.2</ele>
        <time>2016-02-20T16:38:24Z</time>
      </trkpt>
      <trkpt lat="43.77443" lon="0.31164">
        <ele>141.2</ele>
        <time>2016-02-20T16:38:25Z</time>
      </trkpt>
      <trkpt lat="43.77443" lon="0.3118">
        <ele>142.4</ele>
        <time>2016-02-20T16:38:31Z</time>
      </trkpt>
      <trkpt lat="43.77444" lon="0.31187">
        <ele>142.8</ele>
        <time>2016-02-20T16:38:35Z</time>
      </trkpt>
      <trkpt lat="43.77444" lon="0.31192">
        <ele>143</ele>
        <time>2016-02-20T16:38:37Z</time>
      </trkpt>
      <trkpt lat="43.77444" lon="0.31201">
        <ele>143.8</ele>
        <time>2016-02-20T16:38:40Z</time>
      </trkpt>
      <trkpt lat="43.77445" lon="0.31209">
        <ele>144</ele>
        <time>2016-02-20T16:38:43Z</time>
      </trkpt>
      <trkpt lat="43.77447" lon="0.31224">
        <ele>145</ele>
        <time>2016-02-20T16:38:48Z</time>
      </trkpt>
      <trkpt lat="43.77448" lon="0.31232">
        <ele>145.2</ele>
        <time>2016-02-20T16:38:51Z</time>
      </trkpt>
      <trkpt lat="43.77451" lon="0.31243">
        <ele>146</ele>
        <time>2016-02-20T16:38:55Z</time>
      </trkpt>
      <trkpt lat="43.77452" lon="0.31248">
        <ele>146.2</ele>
        <time>2016-02-20T16:38:57Z</time>
      </trkpt>
      <trkpt lat="43.77455" lon="0.31267">
        <ele>147.4</ele>
        <time>2016-02-20T16:39:03Z</time>
      </trkpt>
      <trkpt lat="43.77456" lon="0.3127">
        <ele>147.6</ele>
        <time>2016-02-20T16:39:04Z</time>
      </trkpt>
      <trkpt lat="43.77459" lon="0.31286">
        <ele>148.4</ele>
        <time>2016-02-20T16:39:09Z</time>
      </trkpt>
      <trkpt lat="43.77461" lon="0.31291">
        <ele>148.6</ele>
        <time>2016-02-20T16:39:11Z</time>
      </trkpt>
      <trkpt lat="43.77464" lon="0.31304">
        <ele>149.4</ele>
        <time>2016-02-20T16:39:16Z</time>
      </trkpt>
      <trkpt lat="43.77465" lon="0.31309">
        <ele>149.6</ele>
        <time>2016-02-20T16:39:18Z</time>
      </trkpt>
      <trkpt lat="43.77464" lon="0.31323">
        <ele>150.6</ele>
        <time>2016-02-20T16:39:23Z</time>
      </trkpt>
      <trkpt lat="43.77463" lon="0.31326">
        <ele>150.8</ele>
        <time>2016-02-20T16:39:24Z</time>
      </trkpt>
      <trkpt lat="43.77459" lon="0.31341">
        <ele>151.4</ele>
        <time>2016-02-20T16:39:30Z</time>
      </trkpt>
      <trkpt lat="43.7746" lon="0.31343">
        <ele>151.6</ele>
        <time>2016-02-20T16:39:31Z</time>
      </trkpt>
      <trkpt lat="43.77468" lon="0.31357">
        <ele>152.4</ele>
        <time>2016-02-20T16:39:36Z</time>
      </trkpt>
      <trkpt lat="43.77466" lon="0.31362">
        <ele>152.8</ele>
        <time>2016-02-20T16:39:38Z</time>
      </trkpt>
      <trkpt lat="43.77463" lon="0.31366">
        <ele>153.2</ele>
        <time>2016-02-20T16:39:40Z</time>
      </trkpt>
      <trkpt lat="43.7746" lon="0.31368">
        <ele>153.6</ele>
        <time>2016-02-20T16:39:44Z</time>
      </trkpt>
      <trkpt lat="43.7746" lon="0.31367">
        <ele>153.6</ele>
        <time>2016-02-20T16:39:45Z</time>
      </trkpt>
      <trkpt lat="43.77456" lon="0.31369">
        <ele>153.4</ele>
        <time>2016-02-20T16:44:56Z</time>
      </trkpt>
      <trkpt lat="43.7745" lon="0.31367">
        <ele>153.4</ele>
        <time>2016-02-20T16:44:58Z</time>
      </trkpt>
      <trkpt lat="43.77432" lon="0.31362">
        <ele>153.2</ele>
        <time>2016-02-20T16:45:04Z</time>
      </trkpt>
      <trkpt lat="43.77416" lon="0.31357">
        <ele>152.6</ele>
        <time>2016-02-20T16:45:08Z</time>
      </trkpt>
      <trkpt lat="43.77407" lon="0.31354">
        <ele>152.4</ele>
        <time>2016-02-20T16:45:10Z</time>
      </trkpt>
      <trkpt lat="43.77392" lon="0.31349">
        <ele>151.6</ele>
        <time>2016-02-20T16:45:13Z</time>
      </trkpt>
      <trkpt lat="43.77382" lon="0.31346">
        <ele>151.2</ele>
        <time>2016-02-20T16:45:15Z</time>
      </trkpt>
      <trkpt lat="43.77376" lon="0.31343">
        <ele>151</ele>
        <time>2016-02-20T16:45:16Z</time>
      </trkpt>
      <trkpt lat="43.77364" lon="0.31339">
        <ele>150.2</ele>
        <time>2016-02-20T16:45:18Z</time>
      </trkpt>
      <trkpt lat="43.77338" lon="0.31331">
        <ele>149.4</ele>
        <time>2016-02-20T16:45:22Z</time>
      </trkpt>
      <trkpt lat="43.77331" lon="0.31328">
        <ele>149.2</ele>
        <time>2016-02-20T16:45:23Z</time>
      </trkpt>
      <trkpt lat="43.77309" lon="0.31321">
        <ele>147.4</ele>
        <time>2016-02-20T16:45:26Z</time>
      </trkpt>
      <trkpt lat="43.77289" lon="0.31314">
        <ele>148.4</ele>
        <time>2016-02-20T16:45:29Z</time>
      </trkpt>
      <trkpt lat="43.77282" lon="0.31312">
        <ele>147.8</ele>
        <time>2016-02-20T16:45:30Z</time>
      </trkpt>
      <trkpt lat="43.77255" lon="0.31304">
        <ele>148.6</ele>
        <time>2016-02-20T16:45:35Z</time>
      </trkpt>
      <trkpt lat="43.77241" lon="0.31298">
        <ele>149.6</ele>
        <time>2016-02-20T16:45:39Z</time>
      </trkpt>
      <trkpt lat="43.77234" lon="0.31297">
        <ele>149.6</ele>
        <time>2016-02-20T16:45:41Z</time>
      </trkpt>
      <trkpt lat="43.77203" lon="0.31285">
        <ele>150.8</ele>
        <time>2016-02-20T16:45:50Z</time>
      </trkpt>
      <trkpt lat="43.77174" lon="0.31276">
        <ele>150.4</ele>
        <time>2016-02-20T16:45:57Z</time>
      </trkpt>
      <trkpt lat="43.77132" lon="0.31262">
        <ele>150.8</ele>
        <time>2016-02-20T16:46:07Z</time>
      </trkpt>
      <trkpt lat="43.77097" lon="0.31251">
        <ele>151.2</ele>
        <time>2016-02-20T16:46:16Z</time>
      </trkpt>
      <trkpt lat="43.77057" lon="0.31239">
        <ele>151.2</ele>
        <time>2016-02-20T16:46:27Z</time>
      </trkpt>
      <trkpt lat="43.77032" lon="0.3123">
        <ele>151</ele>
        <time>2016-02-20T16:46:34Z</time>
      </trkpt>
      <trkpt lat="43.76998" lon="0.31219">
        <ele>150.4</ele>
        <time>2016-02-20T16:46:42Z</time>
      </trkpt>
      <trkpt lat="43.76977" lon="0.31213">
        <ele>149.6</ele>
        <time>2016-02-20T16:46:46Z</time>
      </trkpt>
      <trkpt lat="43.76965" lon="0.31208">
        <ele>149.2</ele>
        <time>2016-02-20T16:46:48Z</time>
      </trkpt>
      <trkpt lat="43.76952" lon="0.31204">
        <ele>148.6</ele>
        <time>2016-02-20T16:46:50Z</time>
      </trkpt>
      <trkpt lat="43.76931" lon="0.31197">
        <ele>147.4</ele>
        <time>2016-02-20T16:46:53Z</time>
      </trkpt>
      <trkpt lat="43.76916" lon="0.31192">
        <ele>146.8</ele>
        <time>2016-02-20T16:46:55Z</time>
      </trkpt>
      <trkpt lat="43.76894" lon="0.31184">
        <ele>146.2</ele>
        <time>2016-02-20T16:46:58Z</time>
      </trkpt>
      <trkpt lat="43.76846" lon="0.31168">
        <ele>145.4</ele>
        <time>2016-02-20T16:47:05Z</time>
      </trkpt>
      <trkpt lat="43.76833" lon="0.31164">
        <ele>145.2</ele>
        <time>2016-02-20T16:47:07Z</time>
      </trkpt>
      <trkpt lat="43.76796" lon="0.31153">
        <ele>144.4</ele>
        <time>2016-02-20T16:47:13Z</time>
      </trkpt>
      <trkpt lat="43.76789" lon="0.31151">
        <ele>144.2</ele>
        <time>2016-02-20T16:47:14Z</time>
      </trkpt>
      <trkpt lat="43.76754" lon="0.31143">
        <ele>143.2</ele>
        <time>2016-02-20T16:47:20Z</time>
      </trkpt>
      <trkpt lat="43.7675" lon="0.31142">
        <ele>143.2</ele>
        <time>2016-02-20T16:47:21Z</time>
      </trkpt>
      <trkpt lat="43.76747" lon="0.31141">
        <ele>143</ele>
        <time>2016-02-20T16:47:22Z</time>
      </trkpt>
      <trkpt lat="43.76737" lon="0.31139">
        <ele>143</ele>
        <time>2016-02-20T16:47:26Z</time>
      </trkpt>
      <trkpt lat="43.7673" lon="0.31143">
        <ele>143</ele>
        <time>2016-02-20T16:47:31Z</time>
      </trkpt>
      <trkpt lat="43.76729" lon="0.31146">
        <ele>143</ele>
        <time>2016-02-20T16:47:32Z</time>
      </trkpt>
      <trkpt lat="43.76729" lon="0.31152">
        <ele>143</ele>
        <time>2016-02-20T16:47:35Z</time>
      </trkpt>
      <trkpt lat="43.76729" lon="0.31154">
        <ele>143.2</ele>
        <time>2016-02-20T16:47:36Z</time>
      </trkpt>
      <trkpt lat="43.7673" lon="0.31158">
        <ele>143.4</ele>
        <time>2016-02-20T16:47:39Z</time>
      </trkpt>
      <trkpt lat="43.76731" lon="0.31163">
        <ele>143.8</ele>
        <time>2016-02-20T16:47:41Z</time>
      </trkpt>
      <trkpt lat="43.7673" lon="0.31167">
        <ele>143.8</ele>
        <time>2016-02-20T16:47:43Z</time>
      </trkpt>
      <trkpt lat="43.7673" lon="0.31169">
        <ele>143.8</ele>
        <time>2016-02-20T16:47:44Z</time>
      </trkpt>
      <trkpt lat="43.76729" lon="0.31181">
        <ele>143.8</ele>
        <time>2016-02-20T16:47:48Z</time>
      </trkpt>
      <trkpt lat="43.76731" lon="0.31194">
        <ele>144</ele>
        <time>2016-02-20T16:47:52Z</time>
      </trkpt>
      <trkpt lat="43.76731" lon="0.31194">
        <ele>144</ele>
        <time>2016-02-20T16:47:53Z</time>
      </trkpt>
      <trkpt lat="43.76732" lon="0.31188">
        <ele>144.2</ele>
        <time>2016-02-20T16:48:12Z</time>
      </trkpt>
      <trkpt lat="43.76733" lon="0.31188">
        <ele>144.2</ele>
        <time>2016-02-20T16:48:16Z</time>
      </trkpt>
      <trkpt lat="43.76727" lon="0.31174">
        <ele>142.8</ele>
        <time>2016-02-20T17:30:26Z</time>
      </trkpt>
      <trkpt lat="43.76728" lon="0.31171">
        <ele>143</ele>
        <time>2016-02-20T17:30:27Z</time>
      </trkpt>
      <trkpt lat="43.76732" lon="0.31157">
        <ele>142.6</ele>
        <time>2016-02-20T17:30:31Z</time>
      </trkpt>
      <trkpt lat="43.76733" lon="0.31148">
        <ele>141.8</ele>
        <time>2016-02-20T17:30:35Z</time>
      </trkpt>
      <trkpt lat="43.76733" lon="0.31142">
        <ele>141.8</ele>
        <time>2016-02-20T17:30:37Z</time>
      </trkpt>
      <trkpt lat="43.76727" lon="0.31132">
        <ele>141.6</ele>
        <time>2016-02-20T17:30:40Z</time>
      </trkpt>
      <trkpt lat="43.7671" lon="0.31126">
        <ele>141.4</ele>
        <time>2016-02-20T17:30:44Z</time>
      </trkpt>
      <trkpt lat="43.7669" lon="0.31118">
        <ele>140.8</ele>
        <time>2016-02-20T17:30:48Z</time>
      </trkpt>
      <trkpt lat="43.76684" lon="0.31116">
        <ele>140.8</ele>
        <time>2016-02-20T17:30:49Z</time>
      </trkpt>
      <trkpt lat="43.76641" lon="0.31101">
        <ele>140.2</ele>
        <time>2016-02-20T17:30:56Z</time>
      </trkpt>
      <trkpt lat="43.76598" lon="0.31085">
        <ele>140.4</ele>
        <time>2016-02-20T17:31:03Z</time>
      </trkpt>
      <trkpt lat="43.76546" lon="0.31067">
        <ele>141.4</ele>
        <time>2016-02-20T17:31:12Z</time>
      </trkpt>
      <trkpt lat="43.76531" lon="0.31063">
        <ele>142</ele>
        <time>2016-02-20T17:31:16Z</time>
      </trkpt>
      <trkpt lat="43.76527" lon="0.31062">
        <ele>142</ele>
        <time>2016-02-20T17:31:17Z</time>
      </trkpt>
      <trkpt lat="43.76503" lon="0.31056">
        <ele>143</ele>
        <time>2016-02-20T17:31:23Z</time>
      </trkpt>
      <trkpt lat="43.765" lon="0.31055">
        <ele>143</ele>
        <time>2016-02-20T17:31:24Z</time>
      </trkpt>
      <trkpt lat="43.76481" lon="0.31049">
        <ele>143.6</ele>
        <time>2016-02-20T17:31:29Z</time>
      </trkpt>
      <trkpt lat="43.7647" lon="0.31046">
        <ele>143.6</ele>
        <time>2016-02-20T17:31:32Z</time>
      </trkpt>
      <trkpt lat="43.76464" lon="0.31045">
        <ele>144</ele>
        <time>2016-02-20T17:31:34Z</time>
      </trkpt>
      <trkpt lat="43.76445" lon="0.31039">
        <ele>144</ele>
        <time>2016-02-20T17:31:39Z</time>
      </trkpt>
      <trkpt lat="43.7641" lon="0.31026">
        <ele>144.6</ele>
        <time>2016-02-20T17:31:48Z</time>
      </trkpt>
      <trkpt lat="43.76384" lon="0.31019">
        <ele>144.6</ele>
        <time>2016-02-20T17:31:55Z</time>
      </trkpt>
      <trkpt lat="43.76359" lon="0.31012">
        <ele>144</ele>
        <time>2016-02-20T17:32:02Z</time>
      </trkpt>
      <trkpt lat="43.76338" lon="0.31005">
        <ele>143.4</ele>
        <time>2016-02-20T17:32:07Z</time>
      </trkpt>
      <trkpt lat="43.76328" lon="0.31002">
        <ele>143</ele>
        <time>2016-02-20T17:32:09Z</time>
      </trkpt>
      <trkpt lat="43.76323" lon="0.31">
        <ele>142.8</ele>
        <time>2016-02-20T17:32:10Z</time>
      </trkpt>
      <trkpt lat="43.763" lon="0.30992">
        <ele>141.6</ele>
        <time>2016-02-20T17:32:14Z</time>
      </trkpt>
      <trkpt lat="43.76287" lon="0.30988">
        <ele>140.8</ele>
        <time>2016-02-20T17:32:16Z</time>
      </trkpt>
      <trkpt lat="43.76281" lon="0.30986">
        <ele>140.6</ele>
        <time>2016-02-20T17:32:17Z</time>
      </trkpt>
      <trkpt lat="43.76267" lon="0.30981">
        <ele>139.6</ele>
        <time>2016-02-20T17:32:19Z</time>
      </trkpt>
      <trkpt lat="43.76253" lon="0.30977">
        <ele>138.6</ele>
        <time>2016-02-20T17:32:21Z</time>
      </trkpt>
      <trkpt lat="43.7624" lon="0.30972">
        <ele>137.8</ele>
        <time>2016-02-20T17:32:23Z</time>
      </trkpt>
      <trkpt lat="43.76229" lon="0.30967">
        <ele>137.4</ele>
        <time>2016-02-20T17:32:25Z</time>
      </trkpt>
      <trkpt lat="43.76205" lon="0.30954">
        <ele>136.2</ele>
        <time>2016-02-20T17:32:29Z</time>
      </trkpt>
      <trkpt lat="43.76199" lon="0.30953">
        <ele>136</ele>
        <time>2016-02-20T17:32:30Z</time>
      </trkpt>
      <trkpt lat="43.76173" lon="0.30949">
        <ele>135.4</ele>
        <time>2016-02-20T17:32:34Z</time>
      </trkpt>
      <trkpt lat="43.76166" lon="0.30948">
        <ele>135.2</ele>
        <time>2016-02-20T17:32:35Z</time>
      </trkpt>
      <trkpt lat="43.76144" lon="0.30939">
        <ele>134.4</ele>
        <time>2016-02-20T17:32:39Z</time>
      </trkpt>
      <trkpt lat="43.76137" lon="0.30934">
        <ele>134.2</ele>
        <time>2016-02-20T17:32:41Z</time>
      </trkpt>
      <trkpt lat="43.76132" lon="0.3093">
        <ele>133.8</ele>
        <time>2016-02-20T17:32:43Z</time>
      </trkpt>
      <trkpt lat="43.7613" lon="0.3093">
        <ele>133.6</ele>
        <time>2016-02-20T17:32:44Z</time>
      </trkpt>
      <trkpt lat="43.76127" lon="0.30931">
        <ele>133.4</ele>
        <time>2016-02-20T17:32:46Z</time>
      </trkpt>
      <trkpt lat="43.76123" lon="0.30932">
        <ele>133.4</ele>
        <time>2016-02-20T17:33:22Z</time>
      </trkpt>
      <trkpt lat="43.76111" lon="0.30927">
        <ele>133</ele>
        <time>2016-02-20T17:33:27Z</time>
      </trkpt>
      <trkpt lat="43.76088" lon="0.3092">
        <ele>132.2</ele>
        <time>2016-02-20T17:33:33Z</time>
      </trkpt>
      <trkpt lat="43.76082" lon="0.30919">
        <ele>131.6</ele>
        <time>2016-02-20T17:33:34Z</time>
      </trkpt>
      <trkpt lat="43.76057" lon="0.30913">
        <ele>130.4</ele>
        <time>2016-02-20T17:33:38Z</time>
      </trkpt>
      <trkpt lat="43.76007" lon="0.309">
        <ele>129.8</ele>
        <time>2016-02-20T17:33:46Z</time>
      </trkpt>
      <trkpt lat="43.75993" lon="0.30896">
        <ele>130.4</ele>
        <time>2016-02-20T17:33:49Z</time>
      </trkpt>
      <trkpt lat="43.75987" lon="0.30895">
        <ele>130.8</ele>
        <time>2016-02-20T17:33:51Z</time>
      </trkpt>
      <trkpt lat="43.7598" lon="0.30891">
        <ele>131</ele>
        <time>2016-02-20T17:33:56Z</time>
      </trkpt>
      <trkpt lat="43.7598" lon="0.3089">
        <ele>131.2</ele>
        <time>2016-02-20T17:34:01Z</time>
      </trkpt>
      <trkpt lat="43.75981" lon="0.30896">
        <ele>131</ele>
        <time>2016-02-20T17:35:16Z</time>
      </trkpt>
      <trkpt lat="43.75981" lon="0.30899">
        <ele>131</ele>
        <time>2016-02-20T17:35:17Z</time>
      </trkpt>
      <trkpt lat="43.7598" lon="0.30916">
        <ele>131.4</ele>
        <time>2016-02-20T17:35:23Z</time>
      </trkpt>
      <trkpt lat="43.75979" lon="0.30944">
        <ele>132.4</ele>
        <time>2016-02-20T17:35:31Z</time>
      </trkpt>
      <trkpt lat="43.7598" lon="0.30947">
        <ele>132.6</ele>
        <time>2016-02-20T17:35:32Z</time>
      </trkpt>
      <trkpt lat="43.75979" lon="0.30962">
        <ele>133.4</ele>
        <time>2016-02-20T17:35:37Z</time>
      </trkpt>
      <trkpt lat="43.75979" lon="0.30974">
        <ele>133.6</ele>
        <time>2016-02-20T17:35:41Z</time>
      </trkpt>
      <trkpt lat="43.75981" lon="0.30987">
        <ele>134</ele>
        <time>2016-02-20T17:35:45Z</time>
      </trkpt>
      <trkpt lat="43.7598" lon="0.31013">
        <ele>133.6</ele>
        <time>2016-02-20T17:35:52Z</time>
      </trkpt>
      <trkpt lat="43.75985" lon="0.31041">
        <ele>133.2</ele>
        <time>2016-02-20T17:35:58Z</time>
      </trkpt>
      <trkpt lat="43.75992" lon="0.31076">
        <ele>132.2</ele>
        <time>2016-02-20T17:36:04Z</time>
      </trkpt>
      <trkpt lat="43.75993" lon="0.31082">
        <ele>132</ele>
        <time>2016-02-20T17:36:05Z</time>
      </trkpt>
      <trkpt lat="43.75998" lon="0.311">
        <ele>132</ele>
        <time>2016-02-20T17:36:08Z</time>
      </trkpt>
      <trkpt lat="43.76002" lon="0.31119">
        <ele>131.4</ele>
        <time>2016-02-20T17:36:11Z</time>
      </trkpt>
      <trkpt lat="43.76008" lon="0.31143">
        <ele>131.2</ele>
        <time>2016-02-20T17:36:15Z</time>
      </trkpt>
      <trkpt lat="43.76012" lon="0.3116">
        <ele>131.4</ele>
        <time>2016-02-20T17:36:18Z</time>
      </trkpt>
      <trkpt lat="43.76021" lon="0.31193">
        <ele>131.8</ele>
        <time>2016-02-20T17:36:25Z</time>
      </trkpt>
      <trkpt lat="43.76033" lon="0.31202">
        <ele>131.8</ele>
        <time>2016-02-20T17:36:29Z</time>
      </trkpt>
      <trkpt lat="43.76043" lon="0.31204">
        <ele>132.4</ele>
        <time>2016-02-20T17:36:32Z</time>
      </trkpt>
      <trkpt lat="43.76055" lon="0.31207">
        <ele>132.4</ele>
        <time>2016-02-20T17:36:35Z</time>
      </trkpt>
      <trkpt lat="43.76067" lon="0.31225">
        <ele>132.6</ele>
        <time>2016-02-20T17:36:39Z</time>
      </trkpt>
      <trkpt lat="43.76069" lon="0.3123">
        <ele>132.8</ele>
        <time>2016-02-20T17:36:40Z</time>
      </trkpt>
      <trkpt lat="43.76079" lon="0.31254">
        <ele>132.8</ele>
        <time>2016-02-20T17:36:45Z</time>
      </trkpt>
      <trkpt lat="43.76081" lon="0.31259">
        <ele>133</ele>
        <time>2016-02-20T17:36:46Z</time>
      </trkpt>
      <trkpt lat="43.7609" lon="0.31289">
        <ele>133.4</ele>
        <time>2016-02-20T17:36:52Z</time>
      </trkpt>
      <trkpt lat="43.76093" lon="0.31298">
        <ele>133.4</ele>
        <time>2016-02-20T17:36:54Z</time>
      </trkpt>
      <trkpt lat="43.76108" lon="0.31341">
        <ele>133.6</ele>
        <time>2016-02-20T17:37:02Z</time>
      </trkpt>
      <trkpt lat="43.76117" lon="0.31367">
        <ele>134.4</ele>
        <time>2016-02-20T17:37:07Z</time>
      </trkpt>
      <trkpt lat="43.7612" lon="0.31382">
        <ele>134.8</ele>
        <time>2016-02-20T17:37:10Z</time>
      </trkpt>
      <trkpt lat="43.76126" lon="0.31403">
        <ele>135.4</ele>
        <time>2016-02-20T17:37:14Z</time>
      </trkpt>
      <trkpt lat="43.7613" lon="0.31412">
        <ele>135.8</ele>
        <time>2016-02-20T17:37:16Z</time>
      </trkpt>
      <trkpt lat="43.76133" lon="0.31415">
        <ele>136</ele>
        <time>2016-02-20T17:37:17Z</time>
      </trkpt>
      <trkpt lat="43.76143" lon="0.31422">
        <ele>136</ele>
        <time>2016-02-20T17:37:20Z</time>
      </trkpt>
      <trkpt lat="43.76146" lon="0.31426">
        <ele>136.2</ele>
        <time>2016-02-20T17:37:21Z</time>
      </trkpt>
      <trkpt lat="43.76152" lon="0.31438">
        <ele>136.6</ele>
        <time>2016-02-20T17:37:24Z</time>
      </trkpt>
      <trkpt lat="43.76155" lon="0.31447">
        <ele>137.4</ele>
        <time>2016-02-20T17:37:26Z</time>
      </trkpt>
      <trkpt lat="43.76156" lon="0.31458">
        <ele>137.4</ele>
        <time>2016-02-20T17:37:31Z</time>
      </trkpt>
      <trkpt lat="43.76159" lon="0.31467">
        <ele>137.2</ele>
        <time>2016-02-20T17:38:25Z</time>
      </trkpt>
      <trkpt lat="43.7616" lon="0.3147">
        <ele>137.4</ele>
        <time>2016-02-20T17:38:26Z</time>
      </trkpt>
      <trkpt lat="43.76161" lon="0.31484">
        <ele>138</ele>
        <time>2016-02-20T17:38:29Z</time>
      </trkpt>
      <trkpt lat="43.76164" lon="0.31496">
        <ele>138.2</ele>
        <time>2016-02-20T17:38:32Z</time>
      </trkpt>
      <trkpt lat="43.76169" lon="0.3152">
        <ele>139</ele>
        <time>2016-02-20T17:38:37Z</time>
      </trkpt>
      <trkpt lat="43.76172" lon="0.31533">
        <ele>139.4</ele>
        <time>2016-02-20T17:38:40Z</time>
      </trkpt>
      <trkpt lat="43.76173" lon="0.31537">
        <ele>140</ele>
        <time>2016-02-20T17:38:41Z</time>
      </trkpt>
      <trkpt lat="43.76178" lon="0.31556">
        <ele>141.2</ele>
        <time>2016-02-20T17:38:46Z</time>
      </trkpt>
      <trkpt lat="43.76179" lon="0.3156">
        <ele>141.6</ele>
        <time>2016-02-20T17:38:47Z</time>
      </trkpt>
      <trkpt lat="43.76185" lon="0.31584">
        <ele>142.4</ele>
        <time>2016-02-20T17:38:53Z</time>
      </trkpt>
      <trkpt lat="43.76187" lon="0.31597">
        <ele>142.6</ele>
        <time>2016-02-20T17:38:56Z</time>
      </trkpt>
      <trkpt lat="43.7619" lon="0.31611">
        <ele>143.4</ele>
        <time>2016-02-20T17:38:59Z</time>
      </trkpt>
      <trkpt lat="43.76194" lon="0.31621">
        <ele>143.8</ele>
        <time>2016-02-20T17:39:02Z</time>
      </trkpt>
      <trkpt lat="43.76198" lon="0.31637">
        <ele>144.6</ele>
        <time>2016-02-20T17:39:06Z</time>
      </trkpt>
      <trkpt lat="43.76204" lon="0.31652">
        <ele>145.4</ele>
        <time>2016-02-20T17:39:10Z</time>
      </trkpt>
      <trkpt lat="43.76206" lon="0.31656">
        <ele>145.6</ele>
        <time>2016-02-20T17:39:11Z</time>
      </trkpt>
      <trkpt lat="43.76213" lon="0.3168">
        <ele>146.8</ele>
        <time>2016-02-20T17:39:17Z</time>
      </trkpt>
      <trkpt lat="43.7622" lon="0.31697">
        <ele>148</ele>
        <time>2016-02-20T17:39:23Z</time>
      </trkpt>
      <trkpt lat="43.76222" lon="0.31701">
        <ele>148.2</ele>
        <time>2016-02-20T17:39:25Z</time>
      </trkpt>
      <trkpt lat="43.76225" lon="0.31708">
        <ele>148.8</ele>
        <time>2016-02-20T17:39:30Z</time>
      </trkpt>
      <trkpt lat="43.76226" lon="0.31711">
        <ele>149</ele>
        <time>2016-02-20T17:39:32Z</time>
      </trkpt>
      <trkpt lat="43.76227" lon="0.31712">
        <ele>149</ele>
        <time>2016-02-20T17:39:33Z</time>
      </trkpt>
      <trkpt lat="43.76231" lon="0.31722">
        <ele>149.8</ele>
        <time>2016-02-20T17:39:40Z</time>
      </trkpt>
      <trkpt lat="43.76232" lon="0.31726">
        <ele>150.2</ele>
        <time>2016-02-20T17:39:42Z</time>
      </trkpt>
      <trkpt lat="43.76233" lon="0.31728">
        <ele>151.4</ele>
        <time>2016-02-20T17:39:43Z</time>
      </trkpt>
      <trkpt lat="43.76235" lon="0.31734">
        <ele>150.2</ele>
        <time>2016-02-20T17:39:46Z</time>
      </trkpt>
      <trkpt lat="43.76236" lon="0.31737">
        <ele>151</ele>
        <time>2016-02-20T17:39:47Z</time>
      </trkpt>
      <trkpt lat="43.76237" lon="0.31741">
        <ele>151.2</ele>
        <time>2016-02-20T17:39:49Z</time>
      </trkpt>
      <trkpt lat="43.76237" lon="0.31743">
        <ele>151.2</ele>
        <time>2016-02-20T17:39:50Z</time>
      </trkpt>
      <trkpt lat="43.7624" lon="0.31755">
        <ele>151.6</ele>
        <time>2016-02-20T17:39:56Z</time>
      </trkpt>
      <trkpt lat="43.76243" lon="0.31773">
        <ele>151.6</ele>
        <time>2016-02-20T17:40:04Z</time>
      </trkpt>
      <trkpt lat="43.76243" lon="0.31787">
        <ele>152.4</ele>
        <time>2016-02-20T17:40:10Z</time>
      </trkpt>
      <trkpt lat="43.76244" lon="0.31803">
        <ele>153.2</ele>
        <time>2016-02-20T17:40:17Z</time>
      </trkpt>
      <trkpt lat="43.76244" lon="0.3181">
        <ele>153.4</ele>
        <time>2016-02-20T17:40:20Z</time>
      </trkpt>
      <trkpt lat="43.76245" lon="0.31816">
        <ele>153.8</ele>
        <time>2016-02-20T17:40:23Z</time>
      </trkpt>
      <trkpt lat="43.76245" lon="0.31821">
        <ele>155</ele>
        <time>2016-02-20T17:40:25Z</time>
      </trkpt>
      <trkpt lat="43.76245" lon="0.31823">
        <ele>153.6</ele>
        <time>2016-02-20T17:40:26Z</time>
      </trkpt>
      <trkpt lat="43.76245" lon="0.31826">
        <ele>156.6</ele>
        <time>2016-02-20T17:40:27Z</time>
      </trkpt>
      <trkpt lat="43.76245" lon="0.31828">
        <ele>153.8</ele>
        <time>2016-02-20T17:40:28Z</time>
      </trkpt>
      <trkpt lat="43.76245" lon="0.3183">
        <ele>157</ele>
        <time>2016-02-20T17:40:29Z</time>
      </trkpt>
      <trkpt lat="43.76244" lon="0.31833">
        <ele>154</ele>
        <time>2016-02-20T17:40:30Z</time>
      </trkpt>
      <trkpt lat="43.76244" lon="0.31836">
        <ele>156.8</ele>
        <time>2016-02-20T17:40:31Z</time>
      </trkpt>
      <trkpt lat="43.76244" lon="0.31838">
        <ele>157.2</ele>
        <time>2016-02-20T17:40:32Z</time>
      </trkpt>
      <trkpt lat="43.76243" lon="0.31844">
        <ele>155.2</ele>
        <time>2016-02-20T17:40:34Z</time>
      </trkpt>
      <trkpt lat="43.76243" lon="0.31846">
        <ele>154.4</ele>
        <time>2016-02-20T17:40:35Z</time>
      </trkpt>
      <trkpt lat="43.76241" lon="0.31859">
        <ele>154.8</ele>
        <time>2016-02-20T17:40:40Z</time>
      </trkpt>
      <trkpt lat="43.76239" lon="0.31876">
        <ele>155.4</ele>
        <time>2016-02-20T17:40:46Z</time>
      </trkpt>
      <trkpt lat="43.76234" lon="0.31903">
        <ele>156.2</ele>
        <time>2016-02-20T17:40:55Z</time>
      </trkpt>
      <trkpt lat="43.76231" lon="0.31932">
        <ele>157.2</ele>
        <time>2016-02-20T17:41:05Z</time>
      </trkpt>
      <trkpt lat="43.7623" lon="0.31935">
        <ele>157.2</ele>
        <time>2016-02-20T17:41:06Z</time>
      </trkpt>
      <trkpt lat="43.76231" lon="0.31954">
        <ele>158.2</ele>
        <time>2016-02-20T17:41:13Z</time>
      </trkpt>
      <trkpt lat="43.76232" lon="0.31957">
        <ele>158.4</ele>
        <time>2016-02-20T17:41:14Z</time>
      </trkpt>
      <trkpt lat="43.76238" lon="0.31965">
        <ele>159</ele>
        <time>2016-02-20T17:41:19Z</time>
      </trkpt>
      <trkpt lat="43.7624" lon="0.31968">
        <ele>159.4</ele>
        <time>2016-02-20T17:41:21Z</time>
      </trkpt>
      <trkpt lat="43.76248" lon="0.31973">
        <ele>160.4</ele>
        <time>2016-02-20T17:41:26Z</time>
      </trkpt>
      <trkpt lat="43.76258" lon="0.31978">
        <ele>161.8</ele>
        <time>2016-02-20T17:41:31Z</time>
      </trkpt>
      <trkpt lat="43.76261" lon="0.31982">
        <ele>162.2</ele>
        <time>2016-02-20T17:41:33Z</time>
      </trkpt>
      <trkpt lat="43.76262" lon="0.31984">
        <ele>162.8</ele>
        <time>2016-02-20T17:41:34Z</time>
      </trkpt>
      <trkpt lat="43.76265" lon="0.31993">
        <ele>164.2</ele>
        <time>2016-02-20T17:41:38Z</time>
      </trkpt>
      <trkpt lat="43.76267" lon="0.31998">
        <ele>164.6</ele>
        <time>2016-02-20T17:41:40Z</time>
      </trkpt>
      <trkpt lat="43.76268" lon="0.32005">
        <ele>165.4</ele>
        <time>2016-02-20T17:41:43Z</time>
      </trkpt>
      <trkpt lat="43.76271" lon="0.32018">
        <ele>166.2</ele>
        <time>2016-02-20T17:41:48Z</time>
      </trkpt>
      <trkpt lat="43.76272" lon="0.32027">
        <ele>166.4</ele>
        <time>2016-02-20T17:41:51Z</time>
      </trkpt>
      <trkpt lat="43.76272" lon="0.32038">
        <ele>167.2</ele>
        <time>2016-02-20T17:41:55Z</time>
      </trkpt>
      <trkpt lat="43.76273" lon="0.3204">
        <ele>167.6</ele>
        <time>2016-02-20T17:41:56Z</time>
      </trkpt>
      <trkpt lat="43.76272" lon="0.32058">
        <ele>168.4</ele>
        <time>2016-02-20T17:42:03Z</time>
      </trkpt>
      <trkpt lat="43.76272" lon="0.32061">
        <ele>168.6</ele>
        <time>2016-02-20T17:42:04Z</time>
      </trkpt>
      <trkpt lat="43.76272" lon="0.32074">
        <ele>168.8</ele>
        <time>2016-02-20T17:42:09Z</time>
      </trkpt>
      <trkpt lat="43.76273" lon="0.32096">
        <ele>169.6</ele>
        <time>2016-02-20T17:42:17Z</time>
      </trkpt>
      <trkpt lat="43.76273" lon="0.32099">
        <ele>169.8</ele>
        <time>2016-02-20T17:42:18Z</time>
      </trkpt>
      <trkpt lat="43.76274" lon="0.32122">
        <ele>170.8</ele>
        <time>2016-02-20T17:42:26Z</time>
      </trkpt>
      <trkpt lat="43.76275" lon="0.32144">
        <ele>171.8</ele>
        <time>2016-02-20T17:42:34Z</time>
      </trkpt>
      <trkpt lat="43.76276" lon="0.32165">
        <ele>173</ele>
        <time>2016-02-20T17:42:42Z</time>
      </trkpt>
      <trkpt lat="43.76276" lon="0.32179">
        <ele>174</ele>
        <time>2016-02-20T17:42:47Z</time>
      </trkpt>
      <trkpt lat="43.76276" lon="0.32185">
        <ele>174.4</ele>
        <time>2016-02-20T17:42:49Z</time>
      </trkpt>
      <trkpt lat="43.76277" lon="0.32193">
        <ele>175</ele>
        <time>2016-02-20T17:42:52Z</time>
      </trkpt>
      <trkpt lat="43.76277" lon="0.32208">
        <ele>176.2</ele>
        <time>2016-02-20T17:42:57Z</time>
      </trkpt>
      <trkpt lat="43.76276" lon="0.32228">
        <ele>177.2</ele>
        <time>2016-02-20T17:43:04Z</time>
      </trkpt>
      <trkpt lat="43.76276" lon="0.32231">
        <ele>177.4</ele>
        <time>2016-02-20T17:43:05Z</time>
      </trkpt>
      <trkpt lat="43.76274" lon="0.32243">
        <ele>178.2</ele>
        <time>2016-02-20T17:43:10Z</time>
      </trkpt>
      <trkpt lat="43.76274" lon="0.32245">
        <ele>178.4</ele>
        <time>2016-02-20T17:43:11Z</time>
      </trkpt>
      <trkpt lat="43.76272" lon="0.32257">
        <ele>179.4</ele>
        <time>2016-02-20T17:43:16Z</time>
      </trkpt>
      <trkpt lat="43.76272" lon="0.32261">
        <ele>181.4</ele>
        <time>2016-02-20T17:43:18Z</time>
      </trkpt>
      <trkpt lat="43.76272" lon="0.32263">
        <ele>180.2</ele>
        <time>2016-02-20T17:43:19Z</time>
      </trkpt>
      <trkpt lat="43.76272" lon="0.32266">
        <ele>181.4</ele>
        <time>2016-02-20T17:43:20Z</time>
      </trkpt>
      <trkpt lat="43.76272" lon="0.32268">
        <ele>179.4</ele>
        <time>2016-02-20T17:43:21Z</time>
      </trkpt>
      <trkpt lat="43.76271" lon="0.32271">
        <ele>180.6</ele>
        <time>2016-02-20T17:43:22Z</time>
      </trkpt>
      <trkpt lat="43.76269" lon="0.32287">
        <ele>181.2</ele>
        <time>2016-02-20T17:43:29Z</time>
      </trkpt>
      <trkpt lat="43.76269" lon="0.32292">
        <ele>182</ele>
        <time>2016-02-20T17:43:31Z</time>
      </trkpt>
      <trkpt lat="43.76267" lon="0.32304">
        <ele>183</ele>
        <time>2016-02-20T17:43:37Z</time>
      </trkpt>
      <trkpt lat="43.76266" lon="0.32314">
        <ele>184</ele>
        <time>2016-02-20T17:43:42Z</time>
      </trkpt>
      <trkpt lat="43.76265" lon="0.3232">
        <ele>184.6</ele>
        <time>2016-02-20T17:43:45Z</time>
      </trkpt>
      <trkpt lat="43.76264" lon="0.32324">
        <ele>185</ele>
        <time>2016-02-20T17:43:47Z</time>
      </trkpt>
      <trkpt lat="43.76264" lon="0.32326">
        <ele>185.4</ele>
        <time>2016-02-20T17:43:48Z</time>
      </trkpt>
      <trkpt lat="43.76263" lon="0.32334">
        <ele>186.2</ele>
        <time>2016-02-20T17:43:52Z</time>
      </trkpt>
      <trkpt lat="43.76261" lon="0.32341">
        <ele>187.2</ele>
        <time>2016-02-20T17:43:56Z</time>
      </trkpt>
      <trkpt lat="43.7626" lon="0.32345">
        <ele>187.8</ele>
        <time>2016-02-20T17:43:58Z</time>
      </trkpt>
      <trkpt lat="43.7626" lon="0.32348">
        <ele>188.2</ele>
        <time>2016-02-20T17:44:00Z</time>
      </trkpt>
      <trkpt lat="43.76258" lon="0.32353">
        <ele>188.8</ele>
        <time>2016-02-20T17:44:03Z</time>
      </trkpt>
      <trkpt lat="43.76258" lon="0.32361">
        <ele>190</ele>
        <time>2016-02-20T17:44:07Z</time>
      </trkpt>
      <trkpt lat="43.76257" lon="0.32362">
        <ele>190.2</ele>
        <time>2016-02-20T17:44:08Z</time>
      </trkpt>
      <trkpt lat="43.76257" lon="0.32364">
        <ele>195</ele>
        <time>2016-02-20T17:44:09Z</time>
      </trkpt>
      <trkpt lat="43.76257" lon="0.32366">
        <ele>193</ele>
        <time>2016-02-20T17:44:10Z</time>
      </trkpt>
      <trkpt lat="43.76256" lon="0.3237">
        <ele>191.4</ele>
        <time>2016-02-20T17:44:12Z</time>
      </trkpt>
      <trkpt lat="43.76255" lon="0.32373">
        <ele>192</ele>
        <time>2016-02-20T17:44:14Z</time>
      </trkpt>
      <trkpt lat="43.76252" lon="0.32379">
        <ele>192.8</ele>
        <time>2016-02-20T17:44:17Z</time>
      </trkpt>
      <trkpt lat="43.76252" lon="0.32383">
        <ele>193.6</ele>
        <time>2016-02-20T17:44:19Z</time>
      </trkpt>
      <trkpt lat="43.76252" lon="0.32383">
        <ele>193.8</ele>
        <time>2016-02-20T17:44:20Z</time>
      </trkpt>
      <trkpt lat="43.76251" lon="0.32391">
        <ele>194.8</ele>
        <time>2016-02-20T17:44:24Z</time>
      </trkpt>
      <trkpt lat="43.7625" lon="0.32393">
        <ele>195.2</ele>
        <time>2016-02-20T17:44:25Z</time>
      </trkpt>
      <trkpt lat="43.76249" lon="0.32398">
        <ele>196</ele>
        <time>2016-02-20T17:44:27Z</time>
      </trkpt>
      <trkpt lat="43.76248" lon="0.32408">
        <ele>197.2</ele>
        <time>2016-02-20T17:44:32Z</time>
      </trkpt>
      <trkpt lat="43.76248" lon="0.3241">
        <ele>197.4</ele>
        <time>2016-02-20T17:44:33Z</time>
      </trkpt>
      <trkpt lat="43.76247" lon="0.32413">
        <ele>198</ele>
        <time>2016-02-20T17:44:41Z</time>
      </trkpt>
      <trkpt lat="43.76247" lon="0.32418">
        <ele>198.4</ele>
        <time>2016-02-20T17:44:44Z</time>
      </trkpt>
      <trkpt lat="43.76246" lon="0.32422">
        <ele>199.4</ele>
        <time>2016-02-20T17:44:46Z</time>
      </trkpt>
      <trkpt lat="43.76245" lon="0.32424">
        <ele>199.6</ele>
        <time>2016-02-20T17:44:47Z</time>
      </trkpt>
      <trkpt lat="43.76244" lon="0.32434">
        <ele>200.8</ele>
        <time>2016-02-20T17:44:51Z</time>
      </trkpt>
      <trkpt lat="43.76243" lon="0.32439">
        <ele>201.6</ele>
        <time>2016-02-20T17:44:53Z</time>
      </trkpt>
      <trkpt lat="43.76243" lon="0.32444">
        <ele>202</ele>
        <time>2016-02-20T17:44:55Z</time>
      </trkpt>
      <trkpt lat="43.76242" lon="0.32454">
        <ele>203</ele>
        <time>2016-02-20T17:44:59Z</time>
      </trkpt>
      <trkpt lat="43.76241" lon="0.32457">
        <ele>203.2</ele>
        <time>2016-02-20T17:45:00Z</time>
      </trkpt>
      <trkpt lat="43.76241" lon="0.32463">
        <ele>204</ele>
        <time>2016-02-20T17:45:02Z</time>
      </trkpt>
      <trkpt lat="43.76239" lon="0.32474">
        <ele>205.4</ele>
        <time>2016-02-20T17:45:07Z</time>
      </trkpt>
      <trkpt lat="43.76239" lon="0.32476">
        <ele>205.4</ele>
        <time>2016-02-20T17:45:08Z</time>
      </trkpt>
      <trkpt lat="43.76239" lon="0.32485">
        <ele>206.4</ele>
        <time>2016-02-20T17:45:13Z</time>
      </trkpt>
      <trkpt lat="43.76238" lon="0.32489">
        <ele>206.8</ele>
        <time>2016-02-20T17:45:15Z</time>
      </trkpt>
      <trkpt lat="43.76237" lon="0.32495">
        <ele>207.4</ele>
        <time>2016-02-20T17:45:18Z</time>
      </trkpt>
      <trkpt lat="43.76236" lon="0.32501">
        <ele>207.8</ele>
        <time>2016-02-20T17:45:21Z</time>
      </trkpt>
      <trkpt lat="43.76235" lon="0.32505">
        <ele>208.4</ele>
        <time>2016-02-20T17:45:23Z</time>
      </trkpt>
      <trkpt lat="43.76234" lon="0.32507">
        <ele>208.6</ele>
        <time>2016-02-20T17:45:24Z</time>
      </trkpt>
      <trkpt lat="43.76232" lon="0.32517">
        <ele>209.8</ele>
        <time>2016-02-20T17:45:29Z</time>
      </trkpt>
      <trkpt lat="43.76232" lon="0.32521">
        <ele>209.8</ele>
        <time>2016-02-20T17:45:31Z</time>
      </trkpt>
      <trkpt lat="43.7623" lon="0.32529">
        <ele>210.8</ele>
        <time>2016-02-20T17:45:34Z</time>
      </trkpt>
      <trkpt lat="43.76229" lon="0.32533">
        <ele>212.6</ele>
        <time>2016-02-20T17:45:36Z</time>
      </trkpt>
      <trkpt lat="43.76228" lon="0.32534">
        <ele>212.8</ele>
        <time>2016-02-20T17:45:37Z</time>
      </trkpt>
      <trkpt lat="43.76224" lon="0.32551">
        <ele>213</ele>
        <time>2016-02-20T17:45:44Z</time>
      </trkpt>
      <trkpt lat="43.76223" lon="0.32557">
        <ele>213.6</ele>
        <time>2016-02-20T17:45:47Z</time>
      </trkpt>
      <trkpt lat="43.76221" lon="0.32569">
        <ele>214</ele>
        <time>2016-02-20T17:45:53Z</time>
      </trkpt>
      <trkpt lat="43.76219" lon="0.32574">
        <ele>214.6</ele>
        <time>2016-02-20T17:45:59Z</time>
      </trkpt>
      <trkpt lat="43.7621" lon="0.32587">
        <ele>215</ele>
        <time>2016-02-20T17:51:07Z</time>
      </trkpt>
      <trkpt lat="43.76209" lon="0.3259">
        <ele>215</ele>
        <time>2016-02-20T17:51:09Z</time>
      </trkpt>
      <trkpt lat="43.76208" lon="0.32594">
        <ele>215.4</ele>
        <time>2016-02-20T17:51:12Z</time>
      </trkpt>
      <trkpt lat="43.76206" lon="0.32599">
        <ele>215.4</ele>
        <time>2016-02-20T17:51:15Z</time>
      </trkpt>
      <trkpt lat="43.762" lon="0.32614">
        <ele>215.8</ele>
        <time>2016-02-20T17:51:21Z</time>
      </trkpt>
      <trkpt lat="43.76197" lon="0.32619">
        <ele>216</ele>
        <time>2016-02-20T17:51:23Z</time>
      </trkpt>
      <trkpt lat="43.76192" lon="0.32631">
        <ele>216.6</ele>
        <time>2016-02-20T17:51:28Z</time>
      </trkpt>
      <trkpt lat="43.76188" lon="0.32648">
        <ele>217</ele>
        <time>2016-02-20T17:51:35Z</time>
      </trkpt>
      <trkpt lat="43.76187" lon="0.3265">
        <ele>217.2</ele>
        <time>2016-02-20T17:51:36Z</time>
      </trkpt>
      <trkpt lat="43.76186" lon="0.32652">
        <ele>217.2</ele>
        <time>2016-02-20T17:51:37Z</time>
      </trkpt>
      <trkpt lat="43.76184" lon="0.32661">
        <ele>217.2</ele>
        <time>2016-02-20T17:51:41Z</time>
      </trkpt>
      <trkpt lat="43.76183" lon="0.32663">
        <ele>217.2</ele>
        <time>2016-02-20T17:51:42Z</time>
      </trkpt>
      <trkpt lat="43.76181" lon="0.32674">
        <ele>217</ele>
        <time>2016-02-20T17:51:47Z</time>
      </trkpt>
      <trkpt lat="43.7618" lon="0.32682">
        <ele>216.8</ele>
        <time>2016-02-20T17:52:00Z</time>
      </trkpt>
      <trkpt lat="43.76179" lon="0.32688">
        <ele>216.6</ele>
        <time>2016-02-20T17:52:03Z</time>
      </trkpt>
      <trkpt lat="43.76179" lon="0.32694">
        <ele>216.6</ele>
        <time>2016-02-20T17:52:04Z</time>
      </trkpt>
      <trkpt lat="43.76177" lon="0.32735">
        <ele>216.4</ele>
        <time>2016-02-20T17:52:10Z</time>
      </trkpt>
      <trkpt lat="43.76178" lon="0.3275">
        <ele>216</ele>
        <time>2016-02-20T17:52:12Z</time>
      </trkpt>
      <trkpt lat="43.76179" lon="0.3276">
        <ele>215.6</ele>
        <time>2016-02-20T17:52:14Z</time>
      </trkpt>
      <trkpt lat="43.76179" lon="0.32764">
        <ele>215.6</ele>
        <time>2016-02-20T17:52:15Z</time>
      </trkpt>
      <trkpt lat="43.7618" lon="0.32794">
        <ele>215.6</ele>
        <time>2016-02-20T17:52:22Z</time>
      </trkpt>
      <trkpt lat="43.76182" lon="0.3282">
        <ele>215.8</ele>
        <time>2016-02-20T17:52:29Z</time>
      </trkpt>
      <trkpt lat="43.76185" lon="0.32851">
        <ele>216.4</ele>
        <time>2016-02-20T17:52:37Z</time>
      </trkpt>
      <trkpt lat="43.76189" lon="0.32878">
        <ele>217</ele>
        <time>2016-02-20T17:52:44Z</time>
      </trkpt>
      <trkpt lat="43.76189" lon="0.32883">
        <ele>217</ele>
        <time>2016-02-20T17:52:45Z</time>
      </trkpt>
      <trkpt lat="43.76193" lon="0.32905">
        <ele>217.6</ele>
        <time>2016-02-20T17:52:50Z</time>
      </trkpt>
      <trkpt lat="43.76195" lon="0.32914">
        <ele>218.2</ele>
        <time>2016-02-20T17:52:52Z</time>
      </trkpt>
      <trkpt lat="43.76199" lon="0.32937">
        <ele>219.4</ele>
        <time>2016-02-20T17:52:57Z</time>
      </trkpt>
      <trkpt lat="43.762" lon="0.32941">
        <ele>219.8</ele>
        <time>2016-02-20T17:52:58Z</time>
      </trkpt>
      <trkpt lat="43.76201" lon="0.32954">
        <ele>221</ele>
        <time>2016-02-20T17:53:01Z</time>
      </trkpt>
      <trkpt lat="43.76201" lon="0.32971">
        <ele>222</ele>
        <time>2016-02-20T17:53:05Z</time>
      </trkpt>
      <trkpt lat="43.76203" lon="0.32984">
        <ele>223.2</ele>
        <time>2016-02-20T17:53:08Z</time>
      </trkpt>
      <trkpt lat="43.76204" lon="0.32991">
        <ele>223.6</ele>
        <time>2016-02-20T17:53:10Z</time>
      </trkpt>
      <trkpt lat="43.76204" lon="0.33003">
        <ele>224.4</ele>
        <time>2016-02-20T17:53:14Z</time>
      </trkpt>
      <trkpt lat="43.76204" lon="0.33017">
        <ele>225</ele>
        <time>2016-02-20T17:53:18Z</time>
      </trkpt>
      <trkpt lat="43.76203" lon="0.33024">
        <ele>225.4</ele>
        <time>2016-02-20T17:53:20Z</time>
      </trkpt>
      <trkpt lat="43.76202" lon="0.33045">
        <ele>226.2</ele>
        <time>2016-02-20T17:53:26Z</time>
      </trkpt>
      <trkpt lat="43.762" lon="0.33056">
        <ele>226.4</ele>
        <time>2016-02-20T17:53:29Z</time>
      </trkpt>
      <trkpt lat="43.76198" lon="0.33076">
        <ele>227.4</ele>
        <time>2016-02-20T17:53:35Z</time>
      </trkpt>
      <trkpt lat="43.76198" lon="0.33079">
        <ele>227.8</ele>
        <time>2016-02-20T17:53:36Z</time>
      </trkpt>
      <trkpt lat="43.76194" lon="0.33098">
        <ele>228.4</ele>
        <time>2016-02-20T17:53:42Z</time>
      </trkpt>
      <trkpt lat="43.76193" lon="0.33114">
        <ele>228.8</ele>
        <time>2016-02-20T17:53:47Z</time>
      </trkpt>
      <trkpt lat="43.76193" lon="0.33117">
        <ele>228.8</ele>
        <time>2016-02-20T17:53:48Z</time>
      </trkpt>
      <trkpt lat="43.76192" lon="0.33139">
        <ele>229.6</ele>
        <time>2016-02-20T17:53:55Z</time>
      </trkpt>
      <trkpt lat="43.76192" lon="0.33142">
        <ele>230</ele>
        <time>2016-02-20T17:53:56Z</time>
      </trkpt>
      <trkpt lat="43.76193" lon="0.33156">
        <ele>230.4</ele>
        <time>2016-02-20T17:54:00Z</time>
      </trkpt>
      <trkpt lat="43.76194" lon="0.3318">
        <ele>231</ele>
        <time>2016-02-20T17:54:07Z</time>
      </trkpt>
      <trkpt lat="43.76194" lon="0.33187">
        <ele>231.2</ele>
        <time>2016-02-20T17:54:09Z</time>
      </trkpt>
      <trkpt lat="43.76193" lon="0.33221">
        <ele>231.8</ele>
        <time>2016-02-20T17:54:18Z</time>
      </trkpt>
      <trkpt lat="43.76192" lon="0.33229">
        <ele>232.2</ele>
        <time>2016-02-20T17:54:20Z</time>
      </trkpt>
      <trkpt lat="43.7619" lon="0.33252">
        <ele>232.6</ele>
        <time>2016-02-20T17:54:26Z</time>
      </trkpt>
      <trkpt lat="43.76187" lon="0.33286">
        <ele>233.2</ele>
        <time>2016-02-20T17:54:35Z</time>
      </trkpt>
      <trkpt lat="43.76185" lon="0.33296">
        <ele>230.4</ele>
        <time>2016-02-20T17:54:38Z</time>
      </trkpt>
      <trkpt lat="43.76184" lon="0.33304">
        <ele>232</ele>
        <time>2016-02-20T17:54:40Z</time>
      </trkpt>
      <trkpt lat="43.76183" lon="0.33307">
        <ele>234.4</ele>
        <time>2016-02-20T17:54:41Z</time>
      </trkpt>
      <trkpt lat="43.76183" lon="0.33315">
        <ele>233</ele>
        <time>2016-02-20T17:54:43Z</time>
      </trkpt>
      <trkpt lat="43.7618" lon="0.33336">
        <ele>234.2</ele>
        <time>2016-02-20T17:54:49Z</time>
      </trkpt>
      <trkpt lat="43.76181" lon="0.33346">
        <ele>234.2</ele>
        <time>2016-02-20T17:54:52Z</time>
      </trkpt>
      <trkpt lat="43.76186" lon="0.33361">
        <ele>235</ele>
        <time>2016-02-20T17:54:58Z</time>
      </trkpt>
      <trkpt lat="43.7619" lon="0.33368">
        <ele>235</ele>
        <time>2016-02-20T17:55:04Z</time>
      </trkpt>
      <trkpt lat="43.7619" lon="0.33368">
        <ele>235</ele>
        <time>2016-02-20T17:55:05Z</time>
      </trkpt>
      <trkpt lat="43.76196" lon="0.33371">
        <ele>234.6</ele>
        <time>2016-02-20T17:55:58Z</time>
      </trkpt>
      <trkpt lat="43.76211" lon="0.3338">
        <ele>233.8</ele>
        <time>2016-02-20T17:56:03Z</time>
      </trkpt>
      <trkpt lat="43.76221" lon="0.33397">
        <ele>233.2</ele>
        <time>2016-02-20T17:56:07Z</time>
      </trkpt>
      <trkpt lat="43.76222" lon="0.33403">
        <ele>233</ele>
        <time>2016-02-20T17:56:08Z</time>
      </trkpt>
      <trkpt lat="43.76223" lon="0.33423">
        <ele>232.6</ele>
        <time>2016-02-20T17:56:11Z</time>
      </trkpt>
      <trkpt lat="43.76221" lon="0.33445">
        <ele>232</ele>
        <time>2016-02-20T17:56:14Z</time>
      </trkpt>
      <trkpt lat="43.76219" lon="0.33468">
        <ele>231.8</ele>
        <time>2016-02-20T17:56:17Z</time>
      </trkpt>
      <trkpt lat="43.76213" lon="0.33524">
        <ele>231</ele>
        <time>2016-02-20T17:56:24Z</time>
      </trkpt>
      <trkpt lat="43.76213" lon="0.33576">
        <ele>231</ele>
        <time>2016-02-20T17:56:31Z</time>
      </trkpt>
      <trkpt lat="43.76214" lon="0.33583">
        <ele>231</ele>
        <time>2016-02-20T17:56:32Z</time>
      </trkpt>
      <trkpt lat="43.76216" lon="0.3359">
        <ele>231</ele>
        <time>2016-02-20T17:56:33Z</time>
      </trkpt>
      <trkpt lat="43.76223" lon="0.3361">
        <ele>230.8</ele>
        <time>2016-02-20T17:56:36Z</time>
      </trkpt>
      <trkpt lat="43.76236" lon="0.33643">
        <ele>231.6</ele>
        <time>2016-02-20T17:56:42Z</time>
      </trkpt>
      <trkpt lat="43.76239" lon="0.33652">
        <ele>232.2</ele>
        <time>2016-02-20T17:56:44Z</time>
      </trkpt>
      <trkpt lat="43.76244" lon="0.33675">
        <ele>233.2</ele>
        <time>2016-02-20T17:56:49Z</time>
      </trkpt>
      <trkpt lat="43.76251" lon="0.3371">
        <ele>232.8</ele>
        <time>2016-02-20T17:56:57Z</time>
      </trkpt>
      <trkpt lat="43.76252" lon="0.33714">
        <ele>234.2</ele>
        <time>2016-02-20T17:56:58Z</time>
      </trkpt>
      <trkpt lat="43.76249" lon="0.33732">
        <ele>234.6</ele>
        <time>2016-02-20T17:57:03Z</time>
      </trkpt>
      <trkpt lat="43.76244" lon="0.3376">
        <ele>234.4</ele>
        <time>2016-02-20T17:57:12Z</time>
      </trkpt>
      <trkpt lat="43.76242" lon="0.33782">
        <ele>234.4</ele>
        <time>2016-02-20T17:57:18Z</time>
      </trkpt>
      <trkpt lat="43.76237" lon="0.33812">
        <ele>233.8</ele>
        <time>2016-02-20T17:57:25Z</time>
      </trkpt>
      <trkpt lat="43.76233" lon="0.33849">
        <ele>233.4</ele>
        <time>2016-02-20T17:57:32Z</time>
      </trkpt>
      <trkpt lat="43.76232" lon="0.33854">
        <ele>233</ele>
        <time>2016-02-20T17:57:33Z</time>
      </trkpt>
      <trkpt lat="43.76227" lon="0.33891">
        <ele>232.4</ele>
        <time>2016-02-20T17:57:39Z</time>
      </trkpt>
      <trkpt lat="43.76224" lon="0.33904">
        <ele>232</ele>
        <time>2016-02-20T17:57:41Z</time>
      </trkpt>
      <trkpt lat="43.76217" lon="0.33942">
        <ele>230.8</ele>
        <time>2016-02-20T17:57:46Z</time>
      </trkpt>
      <trkpt lat="43.76211" lon="0.33964">
        <ele>230.2</ele>
        <time>2016-02-20T17:57:50Z</time>
      </trkpt>
      <trkpt lat="43.76212" lon="0.33967">
        <ele>229.6</ele>
        <time>2016-02-20T17:57:51Z</time>
      </trkpt>
      <trkpt lat="43.76215" lon="0.33978">
        <ele>229.2</ele>
        <time>2016-02-20T17:57:53Z</time>
      </trkpt>
      <trkpt lat="43.76217" lon="0.33984">
        <ele>228.6</ele>
        <time>2016-02-20T17:57:54Z</time>
      </trkpt>
      <trkpt lat="43.76219" lon="0.3399">
        <ele>228.4</ele>
        <time>2016-02-20T17:57:55Z</time>
      </trkpt>
      <trkpt lat="43.76225" lon="0.34004">
        <ele>227.6</ele>
        <time>2016-02-20T17:57:57Z</time>
      </trkpt>
      <trkpt lat="43.76228" lon="0.34012">
        <ele>227</ele>
        <time>2016-02-20T17:57:58Z</time>
      </trkpt>
      <trkpt lat="43.7623" lon="0.34039">
        <ele>226.2</ele>
        <time>2016-02-20T17:58:01Z</time>
      </trkpt>
      <trkpt lat="43.7623" lon="0.34048">
        <ele>226</ele>
        <time>2016-02-20T17:58:02Z</time>
      </trkpt>
      <trkpt lat="43.76229" lon="0.34076">
        <ele>225</ele>
        <time>2016-02-20T17:58:05Z</time>
      </trkpt>
      <trkpt lat="43.7623" lon="0.34104">
        <ele>224.2</ele>
        <time>2016-02-20T17:58:08Z</time>
      </trkpt>
      <trkpt lat="43.76234" lon="0.34122">
        <ele>223.8</ele>
        <time>2016-02-20T17:58:10Z</time>
      </trkpt>
      <trkpt lat="43.76242" lon="0.34153">
        <ele>223.6</ele>
        <time>2016-02-20T17:58:14Z</time>
      </trkpt>
      <trkpt lat="43.76246" lon="0.34167">
        <ele>222.2</ele>
        <time>2016-02-20T17:58:16Z</time>
      </trkpt>
      <trkpt lat="43.76251" lon="0.3418">
        <ele>223.2</ele>
        <time>2016-02-20T17:58:18Z</time>
      </trkpt>
      <trkpt lat="43.76253" lon="0.34186">
        <ele>224.8</ele>
        <time>2016-02-20T17:58:19Z</time>
      </trkpt>
      <trkpt lat="43.76257" lon="0.34198">
        <ele>223.8</ele>
        <time>2016-02-20T17:58:21Z</time>
      </trkpt>
      <trkpt lat="43.76259" lon="0.34204">
        <ele>223.6</ele>
        <time>2016-02-20T17:58:22Z</time>
      </trkpt>
      <trkpt lat="43.76262" lon="0.34208">
        <ele>223.2</ele>
        <time>2016-02-20T17:58:23Z</time>
      </trkpt>
      <trkpt lat="43.7627" lon="0.34222">
        <ele>223.2</ele>
        <time>2016-02-20T17:58:26Z</time>
      </trkpt>
      <trkpt lat="43.76279" lon="0.34238">
        <ele>223.6</ele>
        <time>2016-02-20T17:58:31Z</time>
      </trkpt>
      <trkpt lat="43.76288" lon="0.34252">
        <ele>224.2</ele>
        <time>2016-02-20T17:58:37Z</time>
      </trkpt>
      <trkpt lat="43.76294" lon="0.34261">
        <ele>224.6</ele>
        <time>2016-02-20T17:58:41Z</time>
      </trkpt>
      <trkpt lat="43.76297" lon="0.34268">
        <ele>225</ele>
        <time>2016-02-20T17:58:44Z</time>
      </trkpt>
      <trkpt lat="43.76306" lon="0.34284">
        <ele>225.8</ele>
        <time>2016-02-20T17:58:49Z</time>
      </trkpt>
      <trkpt lat="43.7631" lon="0.34291">
        <ele>226.2</ele>
        <time>2016-02-20T17:58:51Z</time>
      </trkpt>
      <trkpt lat="43.7632" lon="0.3431">
        <ele>227</ele>
        <time>2016-02-20T17:58:56Z</time>
      </trkpt>
      <trkpt lat="43.76326" lon="0.3432">
        <ele>227.6</ele>
        <time>2016-02-20T17:58:59Z</time>
      </trkpt>
      <trkpt lat="43.76327" lon="0.34324">
        <ele>228.2</ele>
        <time>2016-02-20T17:59:00Z</time>
      </trkpt>
      <trkpt lat="43.76338" lon="0.34341">
        <ele>229.6</ele>
        <time>2016-02-20T17:59:06Z</time>
      </trkpt>
      <trkpt lat="43.7634" lon="0.34344">
        <ele>229.8</ele>
        <time>2016-02-20T17:59:07Z</time>
      </trkpt>
      <trkpt lat="43.76347" lon="0.34358">
        <ele>230.6</ele>
        <time>2016-02-20T17:59:13Z</time>
      </trkpt>
      <trkpt lat="43.76347" lon="0.34358">
        <ele>230.4</ele>
        <time>2016-02-20T17:59:25Z</time>
      </trkpt>
      <trkpt lat="43.76348" lon="0.34359">
        <ele>230.4</ele>
        <time>2016-02-20T17:59:26Z</time>
      </trkpt>
      <trkpt lat="43.76351" lon="0.34362">
        <ele>230.6</ele>
        <time>2016-02-20T17:59:28Z</time>
      </trkpt>
      <trkpt lat="43.76352" lon="0.34364">
        <ele>231</ele>
        <time>2016-02-20T17:59:29Z</time>
      </trkpt>
      <trkpt lat="43.76357" lon="0.34374">
        <ele>230.8</ele>
        <time>2016-02-20T17:59:32Z</time>
      </trkpt>
      <trkpt lat="43.7637" lon="0.34396">
        <ele>231</ele>
        <time>2016-02-20T17:59:39Z</time>
      </trkpt>
      <trkpt lat="43.76382" lon="0.34418">
        <ele>230.6</ele>
        <time>2016-02-20T17:59:45Z</time>
      </trkpt>
      <trkpt lat="43.76392" lon="0.34428">
        <ele>230.6</ele>
        <time>2016-02-20T17:59:48Z</time>
      </trkpt>
      <trkpt lat="43.764" lon="0.34432">
        <ele>230</ele>
        <time>2016-02-20T17:59:50Z</time>
      </trkpt>
      <trkpt lat="43.76409" lon="0.34434">
        <ele>230.4</ele>
        <time>2016-02-20T17:59:52Z</time>
      </trkpt>
      <trkpt lat="43.76432" lon="0.34439">
        <ele>230.2</ele>
        <time>2016-02-20T17:59:57Z</time>
      </trkpt>
      <trkpt lat="43.76459" lon="0.34441">
        <ele>230</ele>
        <time>2016-02-20T18:00:03Z</time>
      </trkpt>
      <trkpt lat="43.76468" lon="0.34443">
        <ele>230</ele>
        <time>2016-02-20T18:00:05Z</time>
      </trkpt>
      <trkpt lat="43.76493" lon="0.34449">
        <ele>230.2</ele>
        <time>2016-02-20T18:00:11Z</time>
      </trkpt>
      <trkpt lat="43.76514" lon="0.34454">
        <ele>230.2</ele>
        <time>2016-02-20T18:00:16Z</time>
      </trkpt>
      <trkpt lat="43.76518" lon="0.34454">
        <ele>230.2</ele>
        <time>2016-02-20T18:00:17Z</time>
      </trkpt>
      <trkpt lat="43.76552" lon="0.34462">
        <ele>230.4</ele>
        <time>2016-02-20T18:00:25Z</time>
      </trkpt>
      <trkpt lat="43.76592" lon="0.34473">
        <ele>230</ele>
        <time>2016-02-20T18:00:34Z</time>
      </trkpt>
      <trkpt lat="43.76622" lon="0.34485">
        <ele>230</ele>
        <time>2016-02-20T18:00:42Z</time>
      </trkpt>
      <trkpt lat="43.7664" lon="0.34491">
        <ele>230</ele>
        <time>2016-02-20T18:00:48Z</time>
      </trkpt>
      <trkpt lat="43.76657" lon="0.3449">
        <ele>230.2</ele>
        <time>2016-02-20T18:00:53Z</time>
      </trkpt>
      <trkpt lat="43.76674" lon="0.34488">
        <ele>230</ele>
        <time>2016-02-20T18:00:59Z</time>
      </trkpt>
      <trkpt lat="43.7668" lon="0.34486">
        <ele>230.2</ele>
        <time>2016-02-20T18:01:02Z</time>
      </trkpt>
      <trkpt lat="43.76681" lon="0.34486">
        <ele>230</ele>
        <time>2016-02-20T18:01:03Z</time>
      </trkpt>
      <trkpt lat="43.76686" lon="0.34484">
        <ele>230</ele>
        <time>2016-02-20T18:01:06Z</time>
      </trkpt>
      <trkpt lat="43.76692" lon="0.34483">
        <ele>230.2</ele>
        <time>2016-02-20T18:01:09Z</time>
      </trkpt>
      <trkpt lat="43.76714" lon="0.34478">
        <ele>230.4</ele>
        <time>2016-02-20T18:01:17Z</time>
      </trkpt>
      <trkpt lat="43.7674" lon="0.34478">
        <ele>231</ele>
        <time>2016-02-20T18:01:26Z</time>
      </trkpt>
      <trkpt lat="43.76743" lon="0.34479">
        <ele>231</ele>
        <time>2016-02-20T18:01:27Z</time>
      </trkpt>
      <trkpt lat="43.76762" lon="0.34486">
        <ele>231.2</ele>
        <time>2016-02-20T18:01:35Z</time>
      </trkpt>
      <trkpt lat="43.76766" lon="0.34488">
        <ele>231.2</ele>
        <time>2016-02-20T18:01:38Z</time>
      </trkpt>
      <trkpt lat="43.76767" lon="0.34487">
        <ele>231.2</ele>
        <time>2016-02-20T18:01:40Z</time>
      </trkpt>
      <trkpt lat="43.7677" lon="0.34486">
        <ele>231.2</ele>
        <time>2016-02-20T18:01:43Z</time>
      </trkpt>
      <trkpt lat="43.7677" lon="0.34486">
        <ele>231</ele>
        <time>2016-02-20T18:01:45Z</time>
      </trkpt>
      <trkpt lat="43.76773" lon="0.34476">
        <ele>230.8</ele>
        <time>2016-02-20T18:02:14Z</time>
      </trkpt>
      <trkpt lat="43.76773" lon="0.3447">
        <ele>230.8</ele>
        <time>2016-02-20T18:02:16Z</time>
      </trkpt>
      <trkpt lat="43.76773" lon="0.34463">
        <ele>230.8</ele>
        <time>2016-02-20T18:02:18Z</time>
      </trkpt>
      <trkpt lat="43.76775" lon="0.34445">
        <ele>230</ele>
        <time>2016-02-20T18:02:23Z</time>
      </trkpt>
      <trkpt lat="43.76776" lon="0.34441">
        <ele>229.8</ele>
        <time>2016-02-20T18:02:24Z</time>
      </trkpt>
      <trkpt lat="43.76781" lon="0.34425">
        <ele>229.6</ele>
        <time>2016-02-20T18:02:28Z</time>
      </trkpt>
      <trkpt lat="43.76785" lon="0.34406">
        <ele>228.8</ele>
        <time>2016-02-20T18:02:33Z</time>
      </trkpt>
      <trkpt lat="43.76785" lon="0.34402">
        <ele>228.6</ele>
        <time>2016-02-20T18:02:34Z</time>
      </trkpt>
      <trkpt lat="43.7679" lon="0.34368">
        <ele>228.2</ele>
        <time>2016-02-20T18:02:42Z</time>
      </trkpt>
      <trkpt lat="43.76791" lon="0.34365">
        <ele>227.6</ele>
        <time>2016-02-20T18:02:43Z</time>
      </trkpt>
      <trkpt lat="43.76796" lon="0.34346">
        <ele>227.6</ele>
        <time>2016-02-20T18:02:49Z</time>
      </trkpt>
      <trkpt lat="43.76802" lon="0.34325">
        <ele>227.2</ele>
        <time>2016-02-20T18:02:55Z</time>
      </trkpt>
      <trkpt lat="43.76807" lon="0.34309">
        <ele>226.6</ele>
        <time>2016-02-20T18:03:01Z</time>
      </trkpt>
      <trkpt lat="43.76808" lon="0.34307">
        <ele>226.4</ele>
        <time>2016-02-20T18:03:02Z</time>
      </trkpt>
      <trkpt lat="43.76813" lon="0.34293">
        <ele>225.6</ele>
        <time>2016-02-20T18:03:09Z</time>
      </trkpt>
      <trkpt lat="43.76814" lon="0.34288">
        <ele>225.4</ele>
        <time>2016-02-20T18:03:11Z</time>
      </trkpt>
      <trkpt lat="43.76817" lon="0.34278">
        <ele>224.8</ele>
        <time>2016-02-20T18:03:15Z</time>
      </trkpt>
      <trkpt lat="43.76817" lon="0.34276">
        <ele>224.6</ele>
        <time>2016-02-20T18:03:16Z</time>
      </trkpt>
      <trkpt lat="43.7682" lon="0.34266">
        <ele>224</ele>
        <time>2016-02-20T18:03:19Z</time>
      </trkpt>
      <trkpt lat="43.76821" lon="0.34263">
        <ele>223.8</ele>
        <time>2016-02-20T18:03:20Z</time>
      </trkpt>
      <trkpt lat="43.76826" lon="0.34243">
        <ele>222.6</ele>
        <time>2016-02-20T18:03:25Z</time>
      </trkpt>
      <trkpt lat="43.76828" lon="0.34238">
        <ele>222.6</ele>
        <time>2016-02-20T18:03:26Z</time>
      </trkpt>
      <trkpt lat="43.7683" lon="0.34227">
        <ele>222.8</ele>
        <time>2016-02-20T18:03:28Z</time>
      </trkpt>
      <trkpt lat="43.76834" lon="0.34214">
        <ele>221.6</ele>
        <time>2016-02-20T18:03:31Z</time>
      </trkpt>
      <trkpt lat="43.76835" lon="0.3421">
        <ele>221.4</ele>
        <time>2016-02-20T18:03:32Z</time>
      </trkpt>
      <trkpt lat="43.76839" lon="0.34196">
        <ele>220.8</ele>
        <time>2016-02-20T18:03:37Z</time>
      </trkpt>
      <trkpt lat="43.76841" lon="0.34188">
        <ele>220.4</ele>
        <time>2016-02-20T18:03:41Z</time>
      </trkpt>
      <trkpt lat="43.76841" lon="0.34186">
        <ele>220.2</ele>
        <time>2016-02-20T18:03:42Z</time>
      </trkpt>
      <trkpt lat="43.76845" lon="0.34171">
        <ele>219.8</ele>
        <time>2016-02-20T18:03:48Z</time>
      </trkpt>
      <trkpt lat="43.76849" lon="0.34154">
        <ele>219.4</ele>
        <time>2016-02-20T18:03:54Z</time>
      </trkpt>
      <trkpt lat="43.76851" lon="0.34148">
        <ele>219.4</ele>
        <time>2016-02-20T18:03:56Z</time>
      </trkpt>
      <trkpt lat="43.76855" lon="0.34136">
        <ele>218.2</ele>
        <time>2016-02-20T18:04:02Z</time>
      </trkpt>
    </trkseg>
  </trk>
</gpx>